<?xml version="1.0" encoding="UTF-8"?>
<gpx creator="--No GPS SELECTED--" xmlns:xsi="http://www.w3.org/2001/XMLSchema-instance" xsi:schemaLocation="http://www.topografix.com/GPX/1/1 http://www.topografix.com/GPX/1/1/gpx.xsd http://www.garmin.com/xmlschemas/GpxExtensions/v3 http://www.garmin.com/xmlschemas/GpxExtensionsv3.xsd http://www.garmin.com/xmlschemas/TrackPointExtension/v1 http://www.garmin.com/xmlschemas/TrackPointExtensionv1.xsd" version="1.1" xmlns="http://www.topografix.com/GPX/1/1" xmlns:gpxtpx="http://www.garmin.com/xmlschemas/TrackPointExtension/v1" xmlns:gpxx="http://www.garmin.com/xmlschemas/GpxExtensions/v3">
  <metadata>
    <link href="https://www.datamapconsulting.it">
      <text>Datamap Consulting srl</text>
    </link>
    <desc>Anello di Mozzano-Lago Talvacchia</desc>
    <time>2022-04-29T07:00:00Z</time>
  </metadata>
  <trk>
    <name>Anello di Mozzano-Lago Talvacchia</name>
    <type>Biking</type>
    <trkseg>
      <trkpt lon="13.5109903997" lat="42.8300223004">
        <ele>194.0958</ele>
        <time>2022-05-20T07:00:00Z</time>
      </trkpt>
      <trkpt lon="13.5109161003" lat="42.8299596003">
        <ele>194.9566</ele>
        <time>2022-05-20T07:00:03Z</time>
      </trkpt>
      <trkpt lon="13.5108570997" lat="42.8298901003">
        <ele>195.1178</ele>
        <time>2022-05-20T07:00:06Z</time>
      </trkpt>
      <trkpt lon="13.5107777001" lat="42.8297741999">
        <ele>195.706</ele>
        <time>2022-05-20T07:00:10Z</time>
      </trkpt>
      <trkpt lon="13.5106759999" lat="42.8295223003">
        <ele>194.906</ele>
        <time>2022-05-20T07:00:19Z</time>
      </trkpt>
      <trkpt lon="13.5105539002" lat="42.8291749997">
        <ele>195.2233</ele>
        <time>2022-05-20T07:00:31Z</time>
      </trkpt>
      <trkpt lon="13.5104076998" lat="42.8287218002">
        <ele>201.6294</ele>
        <time>2022-05-20T07:00:45Z</time>
      </trkpt>
      <trkpt lon="13.5102824927" lat="42.8283634131">
        <ele>201.624</ele>
        <time>2022-05-20T07:00:56Z</time>
      </trkpt>
      <trkpt lon="13.5102422428" lat="42.8282482009">
        <ele>201.4327</ele>
        <time>2022-05-20T07:01:00Z</time>
      </trkpt>
      <trkpt lon="13.5102292226" lat="42.8282109322">
        <ele>201.5592</ele>
        <time>2022-05-20T07:01:01Z</time>
      </trkpt>
      <trkpt lon="13.5102104709" lat="42.8281582747">
        <ele>202.3962</ele>
        <time>2022-05-20T07:01:03Z</time>
      </trkpt>
      <trkpt lon="13.5101987116" lat="42.8281252557">
        <ele>203.0068</ele>
        <time>2022-05-20T07:01:04Z</time>
      </trkpt>
      <trkpt lon="13.5100342001" lat="42.8276768999">
        <ele>205.0826</ele>
        <time>2022-05-20T07:01:21Z</time>
      </trkpt>
      <trkpt lon="13.509726958" lat="42.8268026957">
        <ele>206.9358</ele>
        <time>2022-05-20T07:01:55Z</time>
      </trkpt>
      <trkpt lon="13.5096372005" lat="42.8265472998">
        <ele>207.2928</ele>
        <time>2022-05-20T07:02:05Z</time>
      </trkpt>
      <trkpt lon="13.5096117682" lat="42.8264745513">
        <ele>207.4663</ele>
        <time>2022-05-20T07:02:08Z</time>
      </trkpt>
      <trkpt lon="13.50955821" lat="42.8263218231">
        <ele>207.1052</ele>
        <time>2022-05-20T07:02:13Z</time>
      </trkpt>
      <trkpt lon="13.5092977996" lat="42.8255844002">
        <ele>206.0586</ele>
        <time>2022-05-20T07:02:35Z</time>
      </trkpt>
      <trkpt lon="13.5090492443" lat="42.8248468869">
        <ele>207.8355</ele>
        <time>2022-05-20T07:02:56Z</time>
      </trkpt>
      <trkpt lon="13.5090153452" lat="42.8247462993">
        <ele>208.0528</ele>
        <time>2022-05-20T07:02:59Z</time>
      </trkpt>
      <trkpt lon="13.5089591994" lat="42.8245796999">
        <ele>208.3745</ele>
        <time>2022-05-20T07:03:04Z</time>
      </trkpt>
      <trkpt lon="13.5089188003" lat="42.8244598998">
        <ele>208.0657</ele>
        <time>2022-05-20T07:03:07Z</time>
      </trkpt>
      <trkpt lon="13.5089090625" lat="42.8244311385">
        <ele>207.9272</ele>
        <time>2022-05-20T07:03:08Z</time>
      </trkpt>
      <trkpt lon="13.5088649998" lat="42.8243009996">
        <ele>208.0169</ele>
        <time>2022-05-20T07:03:12Z</time>
      </trkpt>
      <trkpt lon="13.5087688005" lat="42.8241017004">
        <ele>208.6847</ele>
        <time>2022-05-20T07:03:17Z</time>
      </trkpt>
      <trkpt lon="13.5086697003" lat="42.8239634">
        <ele>209.3973</ele>
        <time>2022-05-20T07:03:21Z</time>
      </trkpt>
      <trkpt lon="13.5086621998" lat="42.8238479996">
        <ele>208.8084</ele>
        <time>2022-05-20T07:03:25Z</time>
      </trkpt>
      <trkpt lon="13.5086460002" lat="42.8237473003">
        <ele>208.4777</ele>
        <time>2022-05-20T07:03:27Z</time>
      </trkpt>
      <trkpt lon="13.5085966994" lat="42.8235917995">
        <ele>208.7883</ele>
        <time>2022-05-20T07:03:32Z</time>
      </trkpt>
      <trkpt lon="13.5083808003" lat="42.8229762001">
        <ele>207.0583</ele>
        <time>2022-05-20T07:03:49Z</time>
      </trkpt>
      <trkpt lon="13.5083555004" lat="42.8229089002">
        <ele>206.4665</ele>
        <time>2022-05-20T07:03:51Z</time>
      </trkpt>
      <trkpt lon="13.5083225902" lat="42.8228192179">
        <ele>206.5695</ele>
        <time>2022-05-20T07:03:53Z</time>
      </trkpt>
      <trkpt lon="13.5082873104" lat="42.8227230795">
        <ele>206.0152</ele>
        <time>2022-05-20T07:03:55Z</time>
      </trkpt>
      <trkpt lon="13.5081529006" lat="42.8223568003">
        <ele>208.0738</ele>
        <time>2022-05-20T07:04:04Z</time>
      </trkpt>
      <trkpt lon="13.5081211996" lat="42.8222954999">
        <ele>208.7262</ele>
        <time>2022-05-20T07:04:06Z</time>
      </trkpt>
      <trkpt lon="13.5080780003" lat="42.82223">
        <ele>209.0985</ele>
        <time>2022-05-20T07:04:08Z</time>
      </trkpt>
      <trkpt lon="13.5080162997" lat="42.8221589">
        <ele>209</ele>
        <time>2022-05-20T07:04:10Z</time>
      </trkpt>
      <trkpt lon="13.5079586001" lat="42.8221067998">
        <ele>209.1214</ele>
        <time>2022-05-20T07:04:12Z</time>
      </trkpt>
      <trkpt lon="13.507945632" lat="42.8220994636">
        <ele>209.2103</ele>
        <time>2022-05-20T07:04:13Z</time>
      </trkpt>
      <trkpt lon="13.5078612004" lat="42.8220517004">
        <ele>209.332</ele>
        <time>2022-05-20T07:04:15Z</time>
      </trkpt>
      <trkpt lon="13.5077907006" lat="42.8220269998">
        <ele>209.0699</ele>
        <time>2022-05-20T07:04:17Z</time>
      </trkpt>
      <trkpt lon="13.5077790995" lat="42.8219134001">
        <ele>209</ele>
        <time>2022-05-20T07:04:20Z</time>
      </trkpt>
      <trkpt lon="13.5077954999" lat="42.8218173004">
        <ele>209</ele>
        <time>2022-05-20T07:04:23Z</time>
      </trkpt>
      <trkpt lon="13.5078233005" lat="42.8217543999">
        <ele>209</ele>
        <time>2022-05-20T07:04:25Z</time>
      </trkpt>
      <trkpt lon="13.5078375489" lat="42.8217160292">
        <ele>208.8786</ele>
        <time>2022-05-20T07:04:26Z</time>
      </trkpt>
      <trkpt lon="13.5078562002" lat="42.8216658003">
        <ele>208.6962</ele>
        <time>2022-05-20T07:04:27Z</time>
      </trkpt>
      <trkpt lon="13.5077722003" lat="42.8215755997">
        <ele>208.3615</ele>
        <time>2022-05-20T07:04:30Z</time>
      </trkpt>
      <trkpt lon="13.5077360721" lat="42.8215411902">
        <ele>208.6042</ele>
        <time>2022-05-20T07:04:31Z</time>
      </trkpt>
      <trkpt lon="13.5076542667" lat="42.8214731788">
        <ele>208.8916</ele>
        <time>2022-05-20T07:04:34Z</time>
      </trkpt>
      <trkpt lon="13.5074222004" lat="42.8213297003">
        <ele>209.0073</ele>
        <time>2022-05-20T07:04:39Z</time>
      </trkpt>
      <trkpt lon="13.5071073996" lat="42.8211988997">
        <ele>208.5727</ele>
        <time>2022-05-20T07:04:46Z</time>
      </trkpt>
      <trkpt lon="13.5060042003" lat="42.8208474001">
        <ele>209.0652</ele>
        <time>2022-05-20T07:05:12Z</time>
      </trkpt>
      <trkpt lon="13.5056096999" lat="42.8207117002">
        <ele>209.251</ele>
        <time>2022-05-20T07:05:21Z</time>
      </trkpt>
      <trkpt lon="13.5053050998" lat="42.8205943004">
        <ele>209.0623</ele>
        <time>2022-05-20T07:05:29Z</time>
      </trkpt>
      <trkpt lon="13.5050363001" lat="42.8204537">
        <ele>209.4201</ele>
        <time>2022-05-20T07:05:36Z</time>
      </trkpt>
      <trkpt lon="13.5048403" lat="42.8203164002">
        <ele>209.6752</ele>
        <time>2022-05-20T07:05:42Z</time>
      </trkpt>
      <trkpt lon="13.5046567997" lat="42.8201301997">
        <ele>212.8627</ele>
        <time>2022-05-20T07:05:48Z</time>
      </trkpt>
      <trkpt lon="13.5045750995" lat="42.8199504003">
        <ele>213.0063</ele>
        <time>2022-05-20T07:05:54Z</time>
      </trkpt>
      <trkpt lon="13.5043461003" lat="42.8190329003">
        <ele>212.6598</ele>
        <time>2022-05-20T07:06:23Z</time>
      </trkpt>
      <trkpt lon="13.5043130773" lat="42.8188557664">
        <ele>212.3164</ele>
        <time>2022-05-20T07:06:29Z</time>
      </trkpt>
      <trkpt lon="13.5042815536" lat="42.818686673">
        <ele>212.3036</ele>
        <time>2022-05-20T07:06:34Z</time>
      </trkpt>
      <trkpt lon="13.5042667" lat="42.8186069996">
        <ele>212.4517</ele>
        <time>2022-05-20T07:06:36Z</time>
      </trkpt>
      <trkpt lon="13.5041022005" lat="42.8178959">
        <ele>213.2961</ele>
        <time>2022-05-20T07:06:58Z</time>
      </trkpt>
      <trkpt lon="13.5039336998" lat="42.8173029998">
        <ele>215.0241</ele>
        <time>2022-05-20T07:07:15Z</time>
      </trkpt>
      <trkpt lon="13.5038477004" lat="42.8168401004">
        <ele>216.8036</ele>
        <time>2022-05-20T07:07:28Z</time>
      </trkpt>
      <trkpt lon="13.5038123995" lat="42.8166787001">
        <ele>217.3817</ele>
        <time>2022-05-20T07:07:33Z</time>
      </trkpt>
      <trkpt lon="13.5036642002" lat="42.8157816998">
        <ele>218.3677</ele>
        <time>2022-05-20T07:08:00Z</time>
      </trkpt>
      <trkpt lon="13.5036479528" lat="42.8156658921">
        <ele>218.0727</ele>
        <time>2022-05-20T07:08:03Z</time>
      </trkpt>
      <trkpt lon="13.5036193423" lat="42.8154619524">
        <ele>218.2981</ele>
        <time>2022-05-20T07:08:09Z</time>
      </trkpt>
      <trkpt lon="13.5035454997" lat="42.8149356001">
        <ele>218.9399</ele>
        <time>2022-05-20T07:08:25Z</time>
      </trkpt>
      <trkpt lon="13.5034878998" lat="42.8137504997">
        <ele>224.155</ele>
        <time>2022-05-20T07:09:00Z</time>
      </trkpt>
      <trkpt lon="13.5034734001" lat="42.8131737998">
        <ele>225.4021</ele>
        <time>2022-05-20T07:09:18Z</time>
      </trkpt>
      <trkpt lon="13.5034337994" lat="42.8127981998">
        <ele>224.4391</ele>
        <time>2022-05-20T07:09:29Z</time>
      </trkpt>
      <trkpt lon="13.5033087026" lat="42.8123916318">
        <ele>224.3951</ele>
        <time>2022-05-20T07:09:41Z</time>
      </trkpt>
      <trkpt lon="13.5032576465" lat="42.8122685249">
        <ele>223.6194</ele>
        <time>2022-05-20T07:09:45Z</time>
      </trkpt>
      <trkpt lon="13.5031378004" lat="42.8119873996">
        <ele>222.5634</ele>
        <time>2022-05-20T07:09:53Z</time>
      </trkpt>
      <trkpt lon="13.5030341005" lat="42.8117479998">
        <ele>222.4534</ele>
        <time>2022-05-20T07:09:59Z</time>
      </trkpt>
      <trkpt lon="13.5029866006" lat="42.8115051996">
        <ele>220.6638</ele>
        <time>2022-05-20T07:10:05Z</time>
      </trkpt>
      <trkpt lon="13.5028601648" lat="42.8109850677">
        <ele>218.4433</ele>
        <time>2022-05-20T07:10:17Z</time>
      </trkpt>
      <trkpt lon="13.5028346001" lat="42.8108798999">
        <ele>218.6842</ele>
        <time>2022-05-20T07:10:19Z</time>
      </trkpt>
      <trkpt lon="13.5027830995" lat="42.8105642002">
        <ele>218.5756</ele>
        <time>2022-05-20T07:10:26Z</time>
      </trkpt>
      <trkpt lon="13.5029555921" lat="42.8104825297">
        <ele>216.2329</ele>
        <time>2022-05-20T07:10:30Z</time>
      </trkpt>
      <trkpt lon="13.5032148002" lat="42.8103597999">
        <ele>212.8874</ele>
        <time>2022-05-20T07:10:34Z</time>
      </trkpt>
      <trkpt lon="13.5032642064" lat="42.8103544295">
        <ele>212.3042</ele>
        <time>2022-05-20T07:10:35Z</time>
      </trkpt>
      <trkpt lon="13.5033665996" lat="42.8103432996">
        <ele>211.1027</ele>
        <time>2022-05-20T07:10:36Z</time>
      </trkpt>
      <trkpt lon="13.5037022997" lat="42.8103642003">
        <ele>212.9204</ele>
        <time>2022-05-20T07:10:40Z</time>
      </trkpt>
      <trkpt lon="13.5037813003" lat="42.8103691996">
        <ele>214.9397</ele>
        <time>2022-05-20T07:10:41Z</time>
      </trkpt>
      <trkpt lon="13.503843504" lat="42.810280251">
        <ele>215.629</ele>
        <time>2022-05-20T07:10:44Z</time>
      </trkpt>
      <trkpt lon="13.5039146558" lat="42.8101785077">
        <ele>215.5846</ele>
        <time>2022-05-20T07:10:49Z</time>
      </trkpt>
      <trkpt lon="13.5039561999" lat="42.8101190997">
        <ele>215.9754</ele>
        <time>2022-05-20T07:10:52Z</time>
      </trkpt>
      <trkpt lon="13.5040358" lat="42.8099167">
        <ele>217.1074</ele>
        <time>2022-05-20T07:11:03Z</time>
      </trkpt>
      <trkpt lon="13.5040333976" lat="42.8098211662">
        <ele>217.1951</ele>
        <time>2022-05-20T07:11:07Z</time>
      </trkpt>
      <trkpt lon="13.5040301995" lat="42.8096939996">
        <ele>217.4209</ele>
        <time>2022-05-20T07:11:11Z</time>
      </trkpt>
      <trkpt lon="13.5039834005" lat="42.8095650998">
        <ele>217.6948</ele>
        <time>2022-05-20T07:11:15Z</time>
      </trkpt>
      <trkpt lon="13.5039507032" lat="42.8095335859">
        <ele>217.9262</ele>
        <time>2022-05-20T07:11:16Z</time>
      </trkpt>
      <trkpt lon="13.5039000006" lat="42.8094469997">
        <ele>219.2481</ele>
        <time>2022-05-20T07:11:19Z</time>
      </trkpt>
      <trkpt lon="13.5037519998" lat="42.8093419998">
        <ele>221.8215</ele>
        <time>2022-05-20T07:11:24Z</time>
      </trkpt>
      <trkpt lon="13.5036806674" lat="42.8092942579">
        <ele>222.501</ele>
        <time>2022-05-20T07:11:27Z</time>
      </trkpt>
      <trkpt lon="13.5035620004" lat="42.8091933998">
        <ele>223.4794</ele>
        <time>2022-05-20T07:11:32Z</time>
      </trkpt>
      <trkpt lon="13.5033007592" lat="42.8089863631">
        <ele>222.863</ele>
        <time>2022-05-20T07:11:44Z</time>
      </trkpt>
      <trkpt lon="13.5030356685" lat="42.8087762731">
        <ele>223.3116</ele>
        <time>2022-05-20T07:11:56Z</time>
      </trkpt>
      <trkpt lon="13.5030086997" lat="42.8087548997">
        <ele>223.6384</ele>
        <time>2022-05-20T07:11:57Z</time>
      </trkpt>
      <trkpt lon="13.5029704561" lat="42.8087344676">
        <ele>223.8324</ele>
        <time>2022-05-20T07:11:58Z</time>
      </trkpt>
      <trkpt lon="13.5028378185" lat="42.8086636042">
        <ele>223.5877</ele>
        <time>2022-05-20T07:12:02Z</time>
      </trkpt>
      <trkpt lon="13.5027453817" lat="42.8086097179">
        <ele>223.1663</ele>
        <time>2022-05-20T07:12:05Z</time>
      </trkpt>
      <trkpt lon="13.5026034044" lat="42.8084065364">
        <ele>224.6831</ele>
        <time>2022-05-20T07:12:12Z</time>
      </trkpt>
      <trkpt lon="13.5025291005" lat="42.8083001998">
        <ele>224.7779</ele>
        <time>2022-05-20T07:12:16Z</time>
      </trkpt>
      <trkpt lon="13.5023119001" lat="42.8081127998">
        <ele>224.562</ele>
        <time>2022-05-20T07:12:23Z</time>
      </trkpt>
      <trkpt lon="13.5022167001" lat="42.8080306998">
        <ele>222.2803</ele>
        <time>2022-05-20T07:12:26Z</time>
      </trkpt>
      <trkpt lon="13.5017026994" lat="42.8078185">
        <ele>227.2758</ele>
        <time>2022-05-20T07:12:35Z</time>
      </trkpt>
      <trkpt lon="13.5013003552" lat="42.8077486614">
        <ele>225.4446</ele>
        <time>2022-05-20T07:12:41Z</time>
      </trkpt>
      <trkpt lon="13.5012490001" lat="42.8077319996">
        <ele>225.4274</ele>
        <time>2022-05-20T07:12:42Z</time>
      </trkpt>
      <trkpt lon="13.5011489998" lat="42.8076870001">
        <ele>225.8797</ele>
        <time>2022-05-20T07:12:44Z</time>
      </trkpt>
      <trkpt lon="13.5010929994" lat="42.8076619998">
        <ele>226.2224</ele>
        <time>2022-05-20T07:12:45Z</time>
      </trkpt>
      <trkpt lon="13.5010639767" lat="42.8076513261">
        <ele>226.2172</ele>
        <time>2022-05-20T07:12:46Z</time>
      </trkpt>
      <trkpt lon="13.5009607653" lat="42.807603627">
        <ele>227.0475</ele>
        <time>2022-05-20T07:12:49Z</time>
      </trkpt>
      <trkpt lon="13.5008860006" lat="42.8075659997">
        <ele>227.9087</ele>
        <time>2022-05-20T07:12:51Z</time>
      </trkpt>
      <trkpt lon="13.5008501131" lat="42.8075524895">
        <ele>227.9506</ele>
        <time>2022-05-20T07:12:52Z</time>
      </trkpt>
      <trkpt lon="13.5007505996" lat="42.8075065001">
        <ele>228.8929</ele>
        <time>2022-05-20T07:12:55Z</time>
      </trkpt>
      <trkpt lon="13.5005393416" lat="42.8074361371">
        <ele>228.4264</ele>
        <time>2022-05-20T07:13:01Z</time>
      </trkpt>
      <trkpt lon="13.5002532806" lat="42.8073408599">
        <ele>229.21</ele>
        <time>2022-05-20T07:13:09Z</time>
      </trkpt>
      <trkpt lon="13.4999979002" lat="42.8072557996">
        <ele>232.8763</ele>
        <time>2022-05-20T07:13:16Z</time>
      </trkpt>
      <trkpt lon="13.4998180227" lat="42.8072432255">
        <ele>232.9686</ele>
        <time>2022-05-20T07:13:20Z</time>
      </trkpt>
      <trkpt lon="13.4997739999" lat="42.8072360001">
        <ele>233.2664</ele>
        <time>2022-05-20T07:13:21Z</time>
      </trkpt>
      <trkpt lon="13.4997400003" lat="42.8072329998">
        <ele>233.5816</ele>
        <time>2022-05-20T07:13:22Z</time>
      </trkpt>
      <trkpt lon="13.4997029996" lat="42.8072259997">
        <ele>234.173</ele>
        <time>2022-05-20T07:13:23Z</time>
      </trkpt>
      <trkpt lon="13.4996139994" lat="42.8072180003">
        <ele>234.9669</ele>
        <time>2022-05-20T07:13:26Z</time>
      </trkpt>
      <trkpt lon="13.4993840001" lat="42.8072150002">
        <ele>235.8988</ele>
        <time>2022-05-20T07:13:34Z</time>
      </trkpt>
      <trkpt lon="13.4992479995" lat="42.8072160001">
        <ele>236.3251</ele>
        <time>2022-05-20T07:13:39Z</time>
      </trkpt>
      <trkpt lon="13.4992170003" lat="42.8072139998">
        <ele>236.6469</ele>
        <time>2022-05-20T07:13:40Z</time>
      </trkpt>
      <trkpt lon="13.4991909999" lat="42.8072129998">
        <ele>236.8709</ele>
        <time>2022-05-20T07:13:41Z</time>
      </trkpt>
      <trkpt lon="13.4991340006" lat="42.807211">
        <ele>237.2572</ele>
        <time>2022-05-20T07:13:42Z</time>
      </trkpt>
      <trkpt lon="13.4990599999" lat="42.8072129997">
        <ele>237.3291</ele>
        <time>2022-05-20T07:13:45Z</time>
      </trkpt>
      <trkpt lon="13.4989869996" lat="42.8072100003">
        <ele>237.6361</ele>
        <time>2022-05-20T07:13:47Z</time>
      </trkpt>
      <trkpt lon="13.4988939994" lat="42.807221">
        <ele>237.5031</ele>
        <time>2022-05-20T07:13:49Z</time>
      </trkpt>
      <trkpt lon="13.4988356631" lat="42.8072352909">
        <ele>237.5081</ele>
        <time>2022-05-20T07:13:51Z</time>
      </trkpt>
      <trkpt lon="13.4986564973" lat="42.8072472597">
        <ele>242.0883</ele>
        <time>2022-05-20T07:13:55Z</time>
      </trkpt>
      <trkpt lon="13.4985564394" lat="42.8072539432">
        <ele>243.4631</ele>
        <time>2022-05-20T07:13:57Z</time>
      </trkpt>
      <trkpt lon="13.4984807333" lat="42.8072589999">
        <ele>243.9699</ele>
        <time>2022-05-20T07:14:00Z</time>
      </trkpt>
      <trkpt lon="13.4982921005" lat="42.8072716004">
        <ele>245.2555</ele>
        <time>2022-05-20T07:14:06Z</time>
      </trkpt>
      <trkpt lon="13.4975410005" lat="42.8072872998">
        <ele>247.2623</ele>
        <time>2022-05-20T07:14:35Z</time>
      </trkpt>
      <trkpt lon="13.4969751006" lat="42.8072418998">
        <ele>254.5429</ele>
        <time>2022-05-20T07:14:57Z</time>
      </trkpt>
      <trkpt lon="13.4967683782" lat="42.8072258067">
        <ele>256.2699</ele>
        <time>2022-05-20T07:15:05Z</time>
      </trkpt>
      <trkpt lon="13.4965688374" lat="42.8072102713">
        <ele>256.8314</ele>
        <time>2022-05-20T07:15:12Z</time>
      </trkpt>
      <trkpt lon="13.4963302997" lat="42.8071917001">
        <ele>254.7577</ele>
        <time>2022-05-20T07:15:18Z</time>
      </trkpt>
      <trkpt lon="13.4962015001" lat="42.8071916996">
        <ele>252.7636</ele>
        <time>2022-05-20T07:15:22Z</time>
      </trkpt>
      <trkpt lon="13.4960728005" lat="42.8070106003">
        <ele>251.9748</ele>
        <time>2022-05-20T07:15:27Z</time>
      </trkpt>
      <trkpt lon="13.4961784995" lat="42.8067048004">
        <ele>252.916</ele>
        <time>2022-05-20T07:15:34Z</time>
      </trkpt>
      <trkpt lon="13.4963180005" lat="42.8064529999">
        <ele>253.1184</ele>
        <time>2022-05-20T07:15:39Z</time>
      </trkpt>
      <trkpt lon="13.4966843002" lat="42.8059715996">
        <ele>250.1942</ele>
        <time>2022-05-20T07:15:51Z</time>
      </trkpt>
      <trkpt lon="13.4969275493" lat="42.8056650152">
        <ele>251.6314</ele>
        <time>2022-05-20T07:15:59Z</time>
      </trkpt>
      <trkpt lon="13.4969831001" lat="42.805595">
        <ele>252.611</ele>
        <time>2022-05-20T07:16:01Z</time>
      </trkpt>
      <trkpt lon="13.4970490995" lat="42.8054600002">
        <ele>253.6103</ele>
        <time>2022-05-20T07:16:05Z</time>
      </trkpt>
      <trkpt lon="13.4971258966" lat="42.8052700307">
        <ele>254.4973</ele>
        <time>2022-05-20T07:16:12Z</time>
      </trkpt>
      <trkpt lon="13.4971441001" lat="42.8052249998">
        <ele>254.9183</ele>
        <time>2022-05-20T07:16:13Z</time>
      </trkpt>
      <trkpt lon="13.4971325116" lat="42.805200885">
        <ele>254.5965</ele>
        <time>2022-05-20T07:16:14Z</time>
      </trkpt>
      <trkpt lon="13.4969846998" lat="42.8048932996">
        <ele>254.4207</ele>
        <time>2022-05-20T07:16:25Z</time>
      </trkpt>
      <trkpt lon="13.4969169069" lat="42.8047586443">
        <ele>255.6748</ele>
        <time>2022-05-20T07:16:29Z</time>
      </trkpt>
      <trkpt lon="13.4968321765" lat="42.804590344">
        <ele>256.6173</ele>
        <time>2022-05-20T07:16:34Z</time>
      </trkpt>
      <trkpt lon="13.49680554" lat="42.8045118763">
        <ele>256.7779</ele>
        <time>2022-05-20T07:16:36Z</time>
      </trkpt>
      <trkpt lon="13.4968094996" lat="42.8044875">
        <ele>257.1726</ele>
        <time>2022-05-20T07:16:37Z</time>
      </trkpt>
      <trkpt lon="13.4967744996" lat="42.8043921">
        <ele>257.4282</ele>
        <time>2022-05-20T07:16:41Z</time>
      </trkpt>
      <trkpt lon="13.4967651" lat="42.8042916996">
        <ele>258.4783</ele>
        <time>2022-05-20T07:16:45Z</time>
      </trkpt>
      <trkpt lon="13.4967356001" lat="42.8041618001">
        <ele>258.4619</ele>
        <time>2022-05-20T07:16:50Z</time>
      </trkpt>
      <trkpt lon="13.4967087997" lat="42.8040487001">
        <ele>258.649</ele>
        <time>2022-05-20T07:16:54Z</time>
      </trkpt>
      <trkpt lon="13.4966752004" lat="42.8039630998">
        <ele>258.1811</ele>
        <time>2022-05-20T07:16:57Z</time>
      </trkpt>
      <trkpt lon="13.4966216742" lat="42.8039574414">
        <ele>256.8778</ele>
        <time>2022-05-20T07:16:58Z</time>
      </trkpt>
      <trkpt lon="13.4964794005" lat="42.8039424003">
        <ele>254.3414</ele>
        <time>2022-05-20T07:17:01Z</time>
      </trkpt>
      <trkpt lon="13.4962293847" lat="42.8039531998">
        <ele>259.8048</ele>
        <time>2022-05-20T07:17:04Z</time>
      </trkpt>
      <trkpt lon="13.4962123244" lat="42.803954974">
        <ele>260.2683</ele>
        <time>2022-05-20T07:17:05Z</time>
      </trkpt>
      <trkpt lon="13.4961639999" lat="42.8039599999">
        <ele>261.5999</ele>
        <time>2022-05-20T07:17:06Z</time>
      </trkpt>
      <trkpt lon="13.4960480001" lat="42.8040229999">
        <ele>266.0454</ele>
        <time>2022-05-20T07:17:19Z</time>
      </trkpt>
      <trkpt lon="13.4960469997" lat="42.8040440003">
        <ele>266.2809</ele>
        <time>2022-05-20T07:17:24Z</time>
      </trkpt>
      <trkpt lon="13.4960489997" lat="42.8040619999">
        <ele>266.3711</ele>
        <time>2022-05-20T07:17:28Z</time>
      </trkpt>
      <trkpt lon="13.496049" lat="42.8040789999">
        <ele>266.5313</ele>
        <time>2022-05-20T07:17:30Z</time>
      </trkpt>
      <trkpt lon="13.4960470002" lat="42.8040939996">
        <ele>266.7684</ele>
        <time>2022-05-20T07:17:31Z</time>
      </trkpt>
      <trkpt lon="13.4960480002" lat="42.8041079996">
        <ele>266.8696</ele>
        <time>2022-05-20T07:17:32Z</time>
      </trkpt>
      <trkpt lon="13.4961010004" lat="42.8041910002">
        <ele>264.9979</ele>
        <time>2022-05-20T07:17:36Z</time>
      </trkpt>
      <trkpt lon="13.4961133722" lat="42.8042190004">
        <ele>264.5789</ele>
        <time>2022-05-20T07:17:37Z</time>
      </trkpt>
      <trkpt lon="13.4961486003" lat="42.8044219999">
        <ele>264.9276</ele>
        <time>2022-05-20T07:17:42Z</time>
      </trkpt>
      <trkpt lon="13.4961332004" lat="42.8046570996">
        <ele>265.255</ele>
        <time>2022-05-20T07:17:47Z</time>
      </trkpt>
      <trkpt lon="13.4961117006" lat="42.8047995003">
        <ele>266.992</ele>
        <time>2022-05-20T07:17:50Z</time>
      </trkpt>
      <trkpt lon="13.4960161" lat="42.8049442">
        <ele>270.9617</ele>
        <time>2022-05-20T07:17:55Z</time>
      </trkpt>
      <trkpt lon="13.4958078942" lat="42.8050683293">
        <ele>273.3159</ele>
        <time>2022-05-20T07:18:02Z</time>
      </trkpt>
      <trkpt lon="13.4957697004" lat="42.8050911004">
        <ele>273.259</ele>
        <time>2022-05-20T07:18:04Z</time>
      </trkpt>
      <trkpt lon="13.4956217998" lat="42.8051567003">
        <ele>273.7641</ele>
        <time>2022-05-20T07:18:10Z</time>
      </trkpt>
      <trkpt lon="13.4952520005" lat="42.8052290002">
        <ele>275.9675</ele>
        <time>2022-05-20T07:18:23Z</time>
      </trkpt>
      <trkpt lon="13.4952474995" lat="42.8052294723">
        <ele>275.9942</ele>
        <time>2022-05-20T07:18:24Z</time>
      </trkpt>
      <trkpt lon="13.4950794995" lat="42.8052470998">
        <ele>276.9446</ele>
        <time>2022-05-20T07:18:28Z</time>
      </trkpt>
      <trkpt lon="13.4950010005" lat="42.8052429998">
        <ele>277.9559</ele>
        <time>2022-05-20T07:18:30Z</time>
      </trkpt>
      <trkpt lon="13.4949796182" lat="42.8052332003">
        <ele>278.7978</ele>
        <time>2022-05-20T07:18:31Z</time>
      </trkpt>
      <trkpt lon="13.4949788004" lat="42.8052232001">
        <ele>279.3819</ele>
        <time>2022-05-20T07:18:32Z</time>
      </trkpt>
      <trkpt lon="13.4949527428" lat="42.8052061854">
        <ele>280.9121</ele>
        <time>2022-05-20T07:18:34Z</time>
      </trkpt>
      <trkpt lon="13.4949399005" lat="42.8051978003">
        <ele>281.6962</ele>
        <time>2022-05-20T07:18:36Z</time>
      </trkpt>
      <trkpt lon="13.4947846996" lat="42.8051856003">
        <ele>285.6633</ele>
        <time>2022-05-20T07:19:00Z</time>
      </trkpt>
      <trkpt lon="13.4943192002" lat="42.8051937001">
        <ele>287.1713</ele>
        <time>2022-05-20T07:20:18Z</time>
      </trkpt>
      <trkpt lon="13.4940324335" lat="42.8051482921">
        <ele>288.2996</ele>
        <time>2022-05-20T07:20:53Z</time>
      </trkpt>
      <trkpt lon="13.4938524996" lat="42.8051198002">
        <ele>290.7617</ele>
        <time>2022-05-20T07:21:05Z</time>
      </trkpt>
      <trkpt lon="13.4936430998" lat="42.8050535004">
        <ele>293.4783</ele>
        <time>2022-05-20T07:21:17Z</time>
      </trkpt>
      <trkpt lon="13.4936348851" lat="42.8050506268">
        <ele>293.4894</ele>
        <time>2022-05-20T07:21:18Z</time>
      </trkpt>
      <trkpt lon="13.4932514509" lat="42.8049165391">
        <ele>295.6661</ele>
        <time>2022-05-20T07:21:33Z</time>
      </trkpt>
      <trkpt lon="13.4930689005" lat="42.8048526996">
        <ele>295.6713</ele>
        <time>2022-05-20T07:21:39Z</time>
      </trkpt>
      <trkpt lon="13.4929999823" lat="42.8048025775">
        <ele>296.1016</ele>
        <time>2022-05-20T07:21:41Z</time>
      </trkpt>
      <trkpt lon="13.4929470464" lat="42.8047640788">
        <ele>296.3468</ele>
        <time>2022-05-20T07:21:43Z</time>
      </trkpt>
      <trkpt lon="13.4928686995" lat="42.8047071003">
        <ele>297.4931</ele>
        <time>2022-05-20T07:21:46Z</time>
      </trkpt>
      <trkpt lon="13.4928503712" lat="42.8046920284">
        <ele>298.0194</ele>
        <time>2022-05-20T07:21:47Z</time>
      </trkpt>
      <trkpt lon="13.4926740003" lat="42.8045469999">
        <ele>301.936</ele>
        <time>2022-05-20T07:21:55Z</time>
      </trkpt>
      <trkpt lon="13.4925729995" lat="42.8043949004">
        <ele>303.4406</ele>
        <time>2022-05-20T07:22:03Z</time>
      </trkpt>
      <trkpt lon="13.4925026003" lat="42.8042082998">
        <ele>305.0195</ele>
        <time>2022-05-20T07:22:15Z</time>
      </trkpt>
      <trkpt lon="13.4924857249" lat="42.8040369706">
        <ele>306.7842</ele>
        <time>2022-05-20T07:22:25Z</time>
      </trkpt>
      <trkpt lon="13.4924666994" lat="42.8038437999">
        <ele>311.3065</ele>
        <time>2022-05-20T07:22:37Z</time>
      </trkpt>
      <trkpt lon="13.4925000001" lat="42.8036454001">
        <ele>313.3039</ele>
        <time>2022-05-20T07:22:48Z</time>
      </trkpt>
      <trkpt lon="13.4926241003" lat="42.8034322998">
        <ele>316.2479</ele>
        <time>2022-05-20T07:23:00Z</time>
      </trkpt>
      <trkpt lon="13.4927069998" lat="42.8032453996">
        <ele>320.5961</ele>
        <time>2022-05-20T07:23:11Z</time>
      </trkpt>
      <trkpt lon="13.4927521005" lat="42.8031487998">
        <ele>323.1639</ele>
        <time>2022-05-20T07:23:17Z</time>
      </trkpt>
      <trkpt lon="13.4927600277" lat="42.8031115715">
        <ele>323.5115</ele>
        <time>2022-05-20T07:23:20Z</time>
      </trkpt>
      <trkpt lon="13.4927758974" lat="42.8030075781">
        <ele>324.2774</ele>
        <time>2022-05-20T07:23:27Z</time>
      </trkpt>
      <trkpt lon="13.4927881998" lat="42.802777">
        <ele>326.5308</ele>
        <time>2022-05-20T07:23:42Z</time>
      </trkpt>
      <trkpt lon="13.4927774004" lat="42.8025255996">
        <ele>333.873</ele>
        <time>2022-05-20T07:23:58Z</time>
      </trkpt>
      <trkpt lon="13.4928062001" lat="42.8023072002">
        <ele>337.9301</ele>
        <time>2022-05-20T07:24:12Z</time>
      </trkpt>
      <trkpt lon="13.4927953997" lat="42.8021801996">
        <ele>338.5468</ele>
        <time>2022-05-20T07:24:20Z</time>
      </trkpt>
      <trkpt lon="13.4927520997" lat="42.802036">
        <ele>338.8044</ele>
        <time>2022-05-20T07:24:28Z</time>
      </trkpt>
      <trkpt lon="13.492695979" lat="42.8019175313">
        <ele>338.2563</ele>
        <time>2022-05-20T07:24:34Z</time>
      </trkpt>
      <trkpt lon="13.4926800001" lat="42.8018838001">
        <ele>338.56</ele>
        <time>2022-05-20T07:24:36Z</time>
      </trkpt>
      <trkpt lon="13.4926818" lat="42.8018481004">
        <ele>339.9314</ele>
        <time>2022-05-20T07:24:37Z</time>
      </trkpt>
      <trkpt lon="13.4927142002" lat="42.8018229001">
        <ele>341.9052</ele>
        <time>2022-05-20T07:24:39Z</time>
      </trkpt>
      <trkpt lon="13.4927881998" lat="42.8018294998">
        <ele>344.257</ele>
        <time>2022-05-20T07:24:41Z</time>
      </trkpt>
      <trkpt lon="13.4928152001" lat="42.8018613004">
        <ele>344.8483</ele>
        <time>2022-05-20T07:24:44Z</time>
      </trkpt>
      <trkpt lon="13.4928199999" lat="42.8018739996">
        <ele>344.8639</ele>
        <time>2022-05-20T07:24:45Z</time>
      </trkpt>
      <trkpt lon="13.4928269995" lat="42.8018860002">
        <ele>344.9734</ele>
        <time>2022-05-20T07:24:46Z</time>
      </trkpt>
      <trkpt lon="13.4928540006" lat="42.801949">
        <ele>344.6232</ele>
        <time>2022-05-20T07:24:49Z</time>
      </trkpt>
      <trkpt lon="13.4928799996" lat="42.8020290001">
        <ele>344.0774</ele>
        <time>2022-05-20T07:24:51Z</time>
      </trkpt>
      <trkpt lon="13.492880742" lat="42.8020360465">
        <ele>344.0083</ele>
        <time>2022-05-20T07:24:52Z</time>
      </trkpt>
      <trkpt lon="13.4930262002" lat="42.8023681002">
        <ele>344.7247</ele>
        <time>2022-05-20T07:24:58Z</time>
      </trkpt>
      <trkpt lon="13.4930522536" lat="42.80240381">
        <ele>345.0844</ele>
        <time>2022-05-20T07:24:59Z</time>
      </trkpt>
      <trkpt lon="13.4932047998" lat="42.8026129004">
        <ele>346.2452</ele>
        <time>2022-05-20T07:25:05Z</time>
      </trkpt>
      <trkpt lon="13.4933431328" lat="42.8027522081">
        <ele>351.0106</ele>
        <time>2022-05-20T07:25:09Z</time>
      </trkpt>
      <trkpt lon="13.4934176005" lat="42.8028271997">
        <ele>352.97</ele>
        <time>2022-05-20T07:25:12Z</time>
      </trkpt>
      <trkpt lon="13.4934465003" lat="42.8029278002">
        <ele>352.747</ele>
        <time>2022-05-20T07:25:17Z</time>
      </trkpt>
      <trkpt lon="13.4934970001" lat="42.8029596001">
        <ele>353.9484</ele>
        <time>2022-05-20T07:25:19Z</time>
      </trkpt>
      <trkpt lon="13.4935385686" lat="42.8029539173">
        <ele>355.363</ele>
        <time>2022-05-20T07:25:21Z</time>
      </trkpt>
      <trkpt lon="13.4935546998" lat="42.8029172003">
        <ele>356.1794</ele>
        <time>2022-05-20T07:25:25Z</time>
      </trkpt>
      <trkpt lon="13.4935208001" lat="42.8028146997">
        <ele>355.9845</ele>
        <time>2022-05-20T07:25:32Z</time>
      </trkpt>
      <trkpt lon="13.4935187798" lat="42.8027721165">
        <ele>356.1506</ele>
        <time>2022-05-20T07:25:35Z</time>
      </trkpt>
      <trkpt lon="13.4935153004" lat="42.8026988003">
        <ele>356.456</ele>
        <time>2022-05-20T07:25:39Z</time>
      </trkpt>
      <trkpt lon="13.4935018396" lat="42.8026466436">
        <ele>358.2075</ele>
        <time>2022-05-20T07:25:41Z</time>
      </trkpt>
      <trkpt lon="13.4934834" lat="42.8025751998">
        <ele>361.0659</ele>
        <time>2022-05-20T07:25:44Z</time>
      </trkpt>
      <trkpt lon="13.4934726001" lat="42.8025097001">
        <ele>362.9286</ele>
        <time>2022-05-20T07:25:48Z</time>
      </trkpt>
      <trkpt lon="13.4934571002" lat="42.8022048003">
        <ele>363.9428</ele>
        <time>2022-05-20T07:26:07Z</time>
      </trkpt>
      <trkpt lon="13.4935035006" lat="42.8020787002">
        <ele>365.1025</ele>
        <time>2022-05-20T07:26:18Z</time>
      </trkpt>
      <trkpt lon="13.4936109001" lat="42.8019033997">
        <ele>369.453</ele>
        <time>2022-05-20T07:26:34Z</time>
      </trkpt>
      <trkpt lon="13.4936178998" lat="42.8018450996">
        <ele>372.2316</ele>
        <time>2022-05-20T07:26:39Z</time>
      </trkpt>
      <trkpt lon="13.4935727999" lat="42.8018066999">
        <ele>373.9163</ele>
        <time>2022-05-20T07:26:43Z</time>
      </trkpt>
      <trkpt lon="13.4934663998" lat="42.8017775999">
        <ele>374.711</ele>
        <time>2022-05-20T07:26:49Z</time>
      </trkpt>
      <trkpt lon="13.4933600001" lat="42.8017564001">
        <ele>373.7971</ele>
        <time>2022-05-20T07:26:56Z</time>
      </trkpt>
      <trkpt lon="13.4932951003" lat="42.8016717999">
        <ele>374.079</ele>
        <time>2022-05-20T07:27:03Z</time>
      </trkpt>
      <trkpt lon="13.4932290854" lat="42.8013603107">
        <ele>380.436</ele>
        <time>2022-05-20T07:27:18Z</time>
      </trkpt>
      <trkpt lon="13.4932227082" lat="42.8013302225">
        <ele>381.2413</ele>
        <time>2022-05-20T07:27:20Z</time>
      </trkpt>
      <trkpt lon="13.4932090959" lat="42.8012659887">
        <ele>382.3872</ele>
        <time>2022-05-20T07:27:23Z</time>
      </trkpt>
      <trkpt lon="13.4932031005" lat="42.8012377002">
        <ele>382.6718</ele>
        <time>2022-05-20T07:27:24Z</time>
      </trkpt>
      <trkpt lon="13.4930606003" lat="42.8008566003">
        <ele>384.5355</ele>
        <time>2022-05-20T07:27:48Z</time>
      </trkpt>
      <trkpt lon="13.4929509624" lat="42.8006361804">
        <ele>386.818</ele>
        <time>2022-05-20T07:28:01Z</time>
      </trkpt>
      <trkpt lon="13.4929361999" lat="42.8006064996">
        <ele>386.8125</ele>
        <time>2022-05-20T07:28:02Z</time>
      </trkpt>
      <trkpt lon="13.4929135754" lat="42.800576519">
        <ele>387.0256</ele>
        <time>2022-05-20T07:28:04Z</time>
      </trkpt>
      <trkpt lon="13.4928713003" lat="42.8005204997">
        <ele>388.0151</ele>
        <time>2022-05-20T07:28:06Z</time>
      </trkpt>
      <trkpt lon="13.4928183652" lat="42.800481711">
        <ele>389.5998</ele>
        <time>2022-05-20T07:28:08Z</time>
      </trkpt>
      <trkpt lon="13.4927900997" lat="42.8004609998">
        <ele>390.2938</ele>
        <time>2022-05-20T07:28:09Z</time>
      </trkpt>
      <trkpt lon="13.4927594439" lat="42.8004547213">
        <ele>390.5627</ele>
        <time>2022-05-20T07:28:10Z</time>
      </trkpt>
      <trkpt lon="13.4926405592" lat="42.8004303748">
        <ele>391.5842</ele>
        <time>2022-05-20T07:28:16Z</time>
      </trkpt>
      <trkpt lon="13.4926219998" lat="42.8004290003">
        <ele>391.6989</ele>
        <time>2022-05-20T07:28:17Z</time>
      </trkpt>
      <trkpt lon="13.4924769996" lat="42.8004199996">
        <ele>391.8366</ele>
        <time>2022-05-20T07:28:24Z</time>
      </trkpt>
      <trkpt lon="13.4924580006" lat="42.8004179997">
        <ele>391.9019</ele>
        <time>2022-05-20T07:28:25Z</time>
      </trkpt>
      <trkpt lon="13.4924210001" lat="42.800413">
        <ele>392.0338</ele>
        <time>2022-05-20T07:28:26Z</time>
      </trkpt>
      <trkpt lon="13.4924030001" lat="42.8004109997">
        <ele>392.0682</ele>
        <time>2022-05-20T07:28:27Z</time>
      </trkpt>
      <trkpt lon="13.4923539995" lat="42.8004130002">
        <ele>391.6613</ele>
        <time>2022-05-20T07:28:28Z</time>
      </trkpt>
      <trkpt lon="13.4922030002" lat="42.8004060003">
        <ele>392.5533</ele>
        <time>2022-05-20T07:28:31Z</time>
      </trkpt>
      <trkpt lon="13.4920899998" lat="42.8004000004">
        <ele>394.0358</ele>
        <time>2022-05-20T07:28:33Z</time>
      </trkpt>
      <trkpt lon="13.492066" lat="42.800403">
        <ele>394.335</ele>
        <time>2022-05-20T07:28:34Z</time>
      </trkpt>
      <trkpt lon="13.4920390768" lat="42.8004066824">
        <ele>394.6632</ele>
        <time>2022-05-20T07:28:35Z</time>
      </trkpt>
      <trkpt lon="13.4920141108" lat="42.8004128607">
        <ele>394.848</ele>
        <time>2022-05-20T07:28:36Z</time>
      </trkpt>
      <trkpt lon="13.4919694996" lat="42.8004238997">
        <ele>395.1783</ele>
        <time>2022-05-20T07:28:38Z</time>
      </trkpt>
      <trkpt lon="13.4918685" lat="42.8004808003">
        <ele>395.2213</ele>
        <time>2022-05-20T07:28:43Z</time>
      </trkpt>
      <trkpt lon="13.4917103997" lat="42.8006408996">
        <ele>395.8479</ele>
        <time>2022-05-20T07:28:52Z</time>
      </trkpt>
      <trkpt lon="13.4915475997" lat="42.8008442002">
        <ele>397.8722</ele>
        <time>2022-05-20T07:29:01Z</time>
      </trkpt>
      <trkpt lon="13.4914828573" lat="42.8009174794">
        <ele>400.2091</ele>
        <time>2022-05-20T07:29:04Z</time>
      </trkpt>
      <trkpt lon="13.491412202" lat="42.8009974508">
        <ele>401.91</ele>
        <time>2022-05-20T07:29:08Z</time>
      </trkpt>
      <trkpt lon="13.4913670999" lat="42.8010485002">
        <ele>401.8649</ele>
        <time>2022-05-20T07:29:11Z</time>
      </trkpt>
      <trkpt lon="13.4912985996" lat="42.8010974996">
        <ele>401.9323</ele>
        <time>2022-05-20T07:29:14Z</time>
      </trkpt>
      <trkpt lon="13.4912538277" lat="42.8011131144">
        <ele>402.1658</ele>
        <time>2022-05-20T07:29:15Z</time>
      </trkpt>
      <trkpt lon="13.4912229002" lat="42.8011239002">
        <ele>402.2126</ele>
        <time>2022-05-20T07:29:17Z</time>
      </trkpt>
      <trkpt lon="13.4911489002" lat="42.8011080998">
        <ele>402.8275</ele>
        <time>2022-05-20T07:29:19Z</time>
      </trkpt>
      <trkpt lon="13.4911164998" lat="42.8010856003">
        <ele>402.6164</ele>
        <time>2022-05-20T07:29:20Z</time>
      </trkpt>
      <trkpt lon="13.4910732005" lat="42.8010207003">
        <ele>403.0836</ele>
        <time>2022-05-20T07:29:22Z</time>
      </trkpt>
      <trkpt lon="13.4910130004" lat="42.8008630001">
        <ele>404.5726</ele>
        <time>2022-05-20T07:29:27Z</time>
      </trkpt>
      <trkpt lon="13.490998" lat="42.8008439996">
        <ele>404.5106</ele>
        <time>2022-05-20T07:29:28Z</time>
      </trkpt>
      <trkpt lon="13.4909809996" lat="42.8007889998">
        <ele>405.2784</ele>
        <time>2022-05-20T07:29:29Z</time>
      </trkpt>
      <trkpt lon="13.4909670001" lat="42.8007579997">
        <ele>405.3064</ele>
        <time>2022-05-20T07:29:30Z</time>
      </trkpt>
      <trkpt lon="13.4909539998" lat="42.8007350002">
        <ele>405.1798</ele>
        <time>2022-05-20T07:29:31Z</time>
      </trkpt>
      <trkpt lon="13.4909513178" lat="42.8006892772">
        <ele>406.5284</ele>
        <time>2022-05-20T07:29:32Z</time>
      </trkpt>
      <trkpt lon="13.4909378995" lat="42.8006476">
        <ele>407.3394</ele>
        <time>2022-05-20T07:29:34Z</time>
      </trkpt>
      <trkpt lon="13.4909614" lat="42.8006171004">
        <ele>409.6136</ele>
        <time>2022-05-20T07:29:36Z</time>
      </trkpt>
      <trkpt lon="13.4910245005" lat="42.8006051997">
        <ele>412.7369</ele>
        <time>2022-05-20T07:29:39Z</time>
      </trkpt>
      <trkpt lon="13.4910822" lat="42.8006370001">
        <ele>413.4337</ele>
        <time>2022-05-20T07:29:47Z</time>
      </trkpt>
      <trkpt lon="13.4911002497" lat="42.8006531555">
        <ele>413.4535</ele>
        <time>2022-05-20T07:29:52Z</time>
      </trkpt>
      <trkpt lon="13.4911632006" lat="42.8007095002">
        <ele>413.1964</ele>
        <time>2022-05-20T07:29:59Z</time>
      </trkpt>
      <trkpt lon="13.4912121839" lat="42.8007140612">
        <ele>413.4502</ele>
        <time>2022-05-20T07:30:01Z</time>
      </trkpt>
      <trkpt lon="13.4912373002" lat="42.8007164003">
        <ele>413.5804</ele>
        <time>2022-05-20T07:30:02Z</time>
      </trkpt>
      <trkpt lon="13.491295" lat="42.8006700997">
        <ele>413.8081</ele>
        <time>2022-05-20T07:30:05Z</time>
      </trkpt>
      <trkpt lon="13.4913130001" lat="42.8005866997">
        <ele>415.5992</ele>
        <time>2022-05-20T07:30:07Z</time>
      </trkpt>
      <trkpt lon="13.4913576835" lat="42.80050808">
        <ele>416.5333</ele>
        <time>2022-05-20T07:30:10Z</time>
      </trkpt>
      <trkpt lon="13.4913761997" lat="42.8004755002">
        <ele>417.0783</ele>
        <time>2022-05-20T07:30:12Z</time>
      </trkpt>
      <trkpt lon="13.4914934" lat="42.8002770002">
        <ele>422.9711</ele>
        <time>2022-05-20T07:30:22Z</time>
      </trkpt>
      <trkpt lon="13.4915726996" lat="42.8001593003">
        <ele>424.06</ele>
        <time>2022-05-20T07:30:30Z</time>
      </trkpt>
      <trkpt lon="13.491777462" lat="42.8000139315">
        <ele>424.7566</ele>
        <time>2022-05-20T07:30:43Z</time>
      </trkpt>
      <trkpt lon="13.4918713675" lat="42.7999855019">
        <ele>423.7341</ele>
        <time>2022-05-20T07:30:47Z</time>
      </trkpt>
      <trkpt lon="13.491993779" lat="42.7999449585">
        <ele>423.0155</ele>
        <time>2022-05-20T07:30:51Z</time>
      </trkpt>
      <trkpt lon="13.4920468556" lat="42.7999319139">
        <ele>422.1382</ele>
        <time>2022-05-20T07:30:52Z</time>
      </trkpt>
      <trkpt lon="13.4920775345" lat="42.7998731802">
        <ele>424.0082</ele>
        <time>2022-05-20T07:30:53Z</time>
      </trkpt>
      <trkpt lon="13.4920481313" lat="42.7998438431">
        <ele>425.8535</ele>
        <time>2022-05-20T07:30:54Z</time>
      </trkpt>
      <trkpt lon="13.4920272595" lat="42.7998377968">
        <ele>426.8748</ele>
        <time>2022-05-20T07:30:55Z</time>
      </trkpt>
      <trkpt lon="13.4919943103" lat="42.7998407199">
        <ele>427.9559</ele>
        <time>2022-05-20T07:30:58Z</time>
      </trkpt>
      <trkpt lon="13.491922041" lat="42.7998581385">
        <ele>429.6516</ele>
        <time>2022-05-20T07:31:11Z</time>
      </trkpt>
      <trkpt lon="13.491906168" lat="42.7998659936">
        <ele>429.6534</ele>
        <time>2022-05-20T07:31:14Z</time>
      </trkpt>
      <trkpt lon="13.4918706804" lat="42.7998835544">
        <ele>429.6577</ele>
        <time>2022-05-20T07:31:19Z</time>
      </trkpt>
      <trkpt lon="13.4918415791" lat="42.7999092537">
        <ele>429.0538</ele>
        <time>2022-05-20T07:31:21Z</time>
      </trkpt>
      <trkpt lon="13.4917819589" lat="42.7999235078">
        <ele>429.8806</ele>
        <time>2022-05-20T07:31:23Z</time>
      </trkpt>
      <trkpt lon="13.4916775562" lat="42.7999335662">
        <ele>432.1295</ele>
        <time>2022-05-20T07:31:25Z</time>
      </trkpt>
      <trkpt lon="13.4916633078" lat="42.7999043504">
        <ele>434.0808</ele>
        <time>2022-05-20T07:31:26Z</time>
      </trkpt>
      <trkpt lon="13.4916883032" lat="42.7998587029">
        <ele>436.0566</ele>
        <time>2022-05-20T07:31:28Z</time>
      </trkpt>
      <trkpt lon="13.491771686" lat="42.7998375596">
        <ele>434.8802</ele>
        <time>2022-05-20T07:31:32Z</time>
      </trkpt>
      <trkpt lon="13.4918633469" lat="42.7998190682">
        <ele>433.3202</ele>
        <time>2022-05-20T07:31:37Z</time>
      </trkpt>
      <trkpt lon="13.491903668" lat="42.7998174832">
        <ele>432.328</ele>
        <time>2022-05-20T07:31:38Z</time>
      </trkpt>
      <trkpt lon="13.4920231234" lat="42.7997919448">
        <ele>429.0401</ele>
        <time>2022-05-20T07:31:41Z</time>
      </trkpt>
      <trkpt lon="13.4921054297" lat="42.7997559555">
        <ele>428.7537</ele>
        <time>2022-05-20T07:31:42Z</time>
      </trkpt>
      <trkpt lon="13.4921463387" lat="42.7997067048">
        <ele>430.1582</ele>
        <time>2022-05-20T07:31:43Z</time>
      </trkpt>
      <trkpt lon="13.4921647197" lat="42.7996255852">
        <ele>432.3461</ele>
        <time>2022-05-20T07:31:44Z</time>
      </trkpt>
      <trkpt lon="13.4921221893" lat="42.7995409051">
        <ele>436.502</ele>
        <time>2022-05-20T07:31:46Z</time>
      </trkpt>
      <trkpt lon="13.492007829" lat="42.7993578089">
        <ele>443.621</ele>
        <time>2022-05-20T07:31:52Z</time>
      </trkpt>
      <trkpt lon="13.491944063" lat="42.7992590747">
        <ele>445.1935</ele>
        <time>2022-05-20T07:31:58Z</time>
      </trkpt>
      <trkpt lon="13.491871157" lat="42.7991458128">
        <ele>447.2084</ele>
        <time>2022-05-20T07:32:14Z</time>
      </trkpt>
      <trkpt lon="13.4918545422" lat="42.7990839347">
        <ele>447.1092</ele>
        <time>2022-05-20T07:32:21Z</time>
      </trkpt>
      <trkpt lon="13.4918266914" lat="42.7990344095">
        <ele>447.7376</ele>
        <time>2022-05-20T07:32:25Z</time>
      </trkpt>
      <trkpt lon="13.4918003473" lat="42.7990056683">
        <ele>448.5974</ele>
        <time>2022-05-20T07:32:28Z</time>
      </trkpt>
      <trkpt lon="13.4917313727" lat="42.7990024246">
        <ele>452.0039</ele>
        <time>2022-05-20T07:32:30Z</time>
      </trkpt>
      <trkpt lon="13.4916808934" lat="42.7990312074">
        <ele>455.3111</ele>
        <time>2022-05-20T07:32:33Z</time>
      </trkpt>
      <trkpt lon="13.4916683001" lat="42.7990734999">
        <ele>456.6246</ele>
        <time>2022-05-20T07:32:36Z</time>
      </trkpt>
      <trkpt lon="13.4917016995" lat="42.7991297999">
        <ele>455.3361</ele>
        <time>2022-05-20T07:32:43Z</time>
      </trkpt>
      <trkpt lon="13.4917504" lat="42.7991979">
        <ele>453.8167</ele>
        <time>2022-05-20T07:32:46Z</time>
      </trkpt>
      <trkpt lon="13.4917666003" lat="42.7992640997">
        <ele>453.5725</ele>
        <time>2022-05-20T07:32:48Z</time>
      </trkpt>
      <trkpt lon="13.4917800913" lat="42.7993539895">
        <ele>452.5667</ele>
        <time>2022-05-20T07:32:50Z</time>
      </trkpt>
      <trkpt lon="13.4917774" lat="42.7994532999">
        <ele>452.9563</ele>
        <time>2022-05-20T07:32:52Z</time>
      </trkpt>
      <trkpt lon="13.4917697351" lat="42.799470062">
        <ele>453.1851</ele>
        <time>2022-05-20T07:32:53Z</time>
      </trkpt>
      <trkpt lon="13.4917086223" lat="42.7995421942">
        <ele>453.6195</ele>
        <time>2022-05-20T07:32:55Z</time>
      </trkpt>
      <trkpt lon="13.4916458003" lat="42.7995678003">
        <ele>453.9552</ele>
        <time>2022-05-20T07:32:57Z</time>
      </trkpt>
      <trkpt lon="13.4915610004" lat="42.7995817001">
        <ele>453.9365</ele>
        <time>2022-05-20T07:32:59Z</time>
      </trkpt>
      <trkpt lon="13.4914925002" lat="42.7995584999">
        <ele>454.2345</ele>
        <time>2022-05-20T07:33:01Z</time>
      </trkpt>
      <trkpt lon="13.4914663001" lat="42.7995195">
        <ele>455.0132</ele>
        <time>2022-05-20T07:33:02Z</time>
      </trkpt>
      <trkpt lon="13.4914659999" lat="42.799508">
        <ele>455.3502</ele>
        <time>2022-05-20T07:33:03Z</time>
      </trkpt>
      <trkpt lon="13.4914670006" lat="42.7994410004">
        <ele>457.3121</ele>
        <time>2022-05-20T07:33:07Z</time>
      </trkpt>
      <trkpt lon="13.4914659998" lat="42.7994230003">
        <ele>457.8195</ele>
        <time>2022-05-20T07:33:09Z</time>
      </trkpt>
      <trkpt lon="13.4914707574" lat="42.7994117003">
        <ele>458.1643</ele>
        <time>2022-05-20T07:33:11Z</time>
      </trkpt>
      <trkpt lon="13.4914680995" lat="42.7993771998">
        <ele>459.1145</ele>
        <time>2022-05-20T07:33:18Z</time>
      </trkpt>
      <trkpt lon="13.4914503301" lat="42.799307897">
        <ele>460.4197</ele>
        <time>2022-05-20T07:33:33Z</time>
      </trkpt>
      <trkpt lon="13.4914480994" lat="42.7992992001">
        <ele>460.5173</ele>
        <time>2022-05-20T07:33:35Z</time>
      </trkpt>
      <trkpt lon="13.4914252005" lat="42.7992636">
        <ele>460.9227</ele>
        <time>2022-05-20T07:33:40Z</time>
      </trkpt>
      <trkpt lon="13.4913385002" lat="42.7992047002">
        <ele>461.5312</ele>
        <time>2022-05-20T07:33:47Z</time>
      </trkpt>
      <trkpt lon="13.491301087" lat="42.7991730871">
        <ele>461.5378</ele>
        <time>2022-05-20T07:33:49Z</time>
      </trkpt>
      <trkpt lon="13.4912210999" lat="42.7991055002">
        <ele>461.7903</ele>
        <time>2022-05-20T07:33:54Z</time>
      </trkpt>
      <trkpt lon="13.4911573995" lat="42.7989753997">
        <ele>463.0944</ele>
        <time>2022-05-20T07:33:59Z</time>
      </trkpt>
      <trkpt lon="13.4911083314" lat="42.7988588062">
        <ele>464.8941</ele>
        <time>2022-05-20T07:34:03Z</time>
      </trkpt>
      <trkpt lon="13.4910798107" lat="42.7987910356">
        <ele>466.2628</ele>
        <time>2022-05-20T07:34:05Z</time>
      </trkpt>
      <trkpt lon="13.491078" lat="42.7987720001">
        <ele>466.8262</ele>
        <time>2022-05-20T07:34:06Z</time>
      </trkpt>
      <trkpt lon="13.4910789995" lat="42.7987589999">
        <ele>467.2564</ele>
        <time>2022-05-20T07:34:07Z</time>
      </trkpt>
      <trkpt lon="13.4910719998" lat="42.7987499997">
        <ele>467.3911</ele>
        <time>2022-05-20T07:34:08Z</time>
      </trkpt>
      <trkpt lon="13.4910629275" lat="42.7987351549">
        <ele>467.6468</ele>
        <time>2022-05-20T07:34:11Z</time>
      </trkpt>
      <trkpt lon="13.4910068999" lat="42.7984925999">
        <ele>473.8924</ele>
        <time>2022-05-20T07:34:42Z</time>
      </trkpt>
      <trkpt lon="13.4909596995" lat="42.7983727999">
        <ele>476.9655</ele>
        <time>2022-05-20T07:34:58Z</time>
      </trkpt>
      <trkpt lon="13.4909484728" lat="42.7983636341">
        <ele>477.0211</ele>
        <time>2022-05-20T07:34:59Z</time>
      </trkpt>
      <trkpt lon="13.4909150876" lat="42.7983363785">
        <ele>477.2953</ele>
        <time>2022-05-20T07:35:02Z</time>
      </trkpt>
      <trkpt lon="13.4908415287" lat="42.7983060908">
        <ele>477.4796</ele>
        <time>2022-05-20T07:35:06Z</time>
      </trkpt>
      <trkpt lon="13.4907892851" lat="42.798286828">
        <ele>477.8167</ele>
        <time>2022-05-20T07:35:08Z</time>
      </trkpt>
      <trkpt lon="13.4907200001" lat="42.7982576997">
        <ele>478.6823</ele>
        <time>2022-05-20T07:35:11Z</time>
      </trkpt>
      <trkpt lon="13.4907021001" lat="42.7982324996">
        <ele>479.7632</ele>
        <time>2022-05-20T07:35:12Z</time>
      </trkpt>
      <trkpt lon="13.4907030061" lat="42.7982165085">
        <ele>480.4721</ele>
        <time>2022-05-20T07:35:13Z</time>
      </trkpt>
      <trkpt lon="13.4907047004" lat="42.7981866004">
        <ele>482.5958</ele>
        <time>2022-05-20T07:35:15Z</time>
      </trkpt>
      <trkpt lon="13.4907684006" lat="42.7981613999">
        <ele>485.1355</ele>
        <time>2022-05-20T07:35:19Z</time>
      </trkpt>
      <trkpt lon="13.4910579006" lat="42.7982016003">
        <ele>484.3657</ele>
        <time>2022-05-20T07:35:52Z</time>
      </trkpt>
      <trkpt lon="13.4911212017" lat="42.7981921578">
        <ele>484.841</ele>
        <time>2022-05-20T07:36:00Z</time>
      </trkpt>
      <trkpt lon="13.4911970004" lat="42.7981729996">
        <ele>485.3852</ele>
        <time>2022-05-20T07:36:05Z</time>
      </trkpt>
      <trkpt lon="13.4912340002" lat="42.7981439998">
        <ele>485.9832</ele>
        <time>2022-05-20T07:36:08Z</time>
      </trkpt>
      <trkpt lon="13.4912540038" lat="42.798136383">
        <ele>486.0427</ele>
        <time>2022-05-20T07:36:09Z</time>
      </trkpt>
      <trkpt lon="13.4912820005" lat="42.7981140004">
        <ele>486.5096</ele>
        <time>2022-05-20T07:36:10Z</time>
      </trkpt>
      <trkpt lon="13.4913449999" lat="42.7980439996">
        <ele>487.5853</ele>
        <time>2022-05-20T07:36:14Z</time>
      </trkpt>
      <trkpt lon="13.4913549997" lat="42.7980330001">
        <ele>487.6738</ele>
        <time>2022-05-20T07:36:15Z</time>
      </trkpt>
      <trkpt lon="13.4913650006" lat="42.7980210001">
        <ele>487.7938</ele>
        <time>2022-05-20T07:36:16Z</time>
      </trkpt>
      <trkpt lon="13.4913859998" lat="42.7980020003">
        <ele>487.8503</ele>
        <time>2022-05-20T07:36:17Z</time>
      </trkpt>
      <trkpt lon="13.4914270002" lat="42.7979629998">
        <ele>488.0583</ele>
        <time>2022-05-20T07:36:19Z</time>
      </trkpt>
      <trkpt lon="13.4914780005" lat="42.7979220004">
        <ele>488.8402</ele>
        <time>2022-05-20T07:36:21Z</time>
      </trkpt>
      <trkpt lon="13.491502401" lat="42.7979103243">
        <ele>489.0301</ele>
        <time>2022-05-20T07:36:22Z</time>
      </trkpt>
      <trkpt lon="13.491548259" lat="42.7978342009">
        <ele>490.3707</ele>
        <time>2022-05-20T07:36:25Z</time>
      </trkpt>
      <trkpt lon="13.4916128717" lat="42.7977690939">
        <ele>490.7776</ele>
        <time>2022-05-20T07:36:28Z</time>
      </trkpt>
      <trkpt lon="13.491565969" lat="42.7977244857">
        <ele>491.6507</ele>
        <time>2022-05-20T07:36:31Z</time>
      </trkpt>
      <trkpt lon="13.4914812034" lat="42.7977599767">
        <ele>492.2528</ele>
        <time>2022-05-20T07:36:34Z</time>
      </trkpt>
      <trkpt lon="13.4914595937" lat="42.7977965573">
        <ele>491.9322</ele>
        <time>2022-05-20T07:36:36Z</time>
      </trkpt>
      <trkpt lon="13.4914260525" lat="42.797869339">
        <ele>490.7416</ele>
        <time>2022-05-20T07:36:39Z</time>
      </trkpt>
      <trkpt lon="13.4913565756" lat="42.7979149478">
        <ele>490.872</ele>
        <time>2022-05-20T07:36:41Z</time>
      </trkpt>
      <trkpt lon="13.4912193622" lat="42.7979632192">
        <ele>491.8888</ele>
        <time>2022-05-20T07:36:43Z</time>
      </trkpt>
      <trkpt lon="13.4910976289" lat="42.7979572834">
        <ele>493.6701</ele>
        <time>2022-05-20T07:36:46Z</time>
      </trkpt>
      <trkpt lon="13.4909267384" lat="42.7979425597">
        <ele>496.7635</ele>
        <time>2022-05-20T07:36:49Z</time>
      </trkpt>
      <trkpt lon="13.4906478543" lat="42.7979106405">
        <ele>501.5788</ele>
        <time>2022-05-20T07:36:56Z</time>
      </trkpt>
      <trkpt lon="13.4905146379" lat="42.7978801442">
        <ele>502.3725</ele>
        <time>2022-05-20T07:37:01Z</time>
      </trkpt>
      <trkpt lon="13.4904642613" lat="42.7978610077">
        <ele>502.8416</ele>
        <time>2022-05-20T07:37:04Z</time>
      </trkpt>
      <trkpt lon="13.4903743996" lat="42.7978470004">
        <ele>502.7178</ele>
        <time>2022-05-20T07:37:08Z</time>
      </trkpt>
      <trkpt lon="13.4903352996" lat="42.7978133999">
        <ele>503.1984</ele>
        <time>2022-05-20T07:37:10Z</time>
      </trkpt>
      <trkpt lon="13.4903216569" lat="42.7977795344">
        <ele>503.8711</ele>
        <time>2022-05-20T07:37:11Z</time>
      </trkpt>
      <trkpt lon="13.4903256293" lat="42.7977629128">
        <ele>504.2792</ele>
        <time>2022-05-20T07:37:12Z</time>
      </trkpt>
      <trkpt lon="13.490368" lat="42.7977150003">
        <ele>505.6815</ele>
        <time>2022-05-20T07:37:16Z</time>
      </trkpt>
      <trkpt lon="13.4903924208" lat="42.7977043054">
        <ele>506.1038</ele>
        <time>2022-05-20T07:37:18Z</time>
      </trkpt>
      <trkpt lon="13.4904533996" lat="42.7976776004">
        <ele>506.7009</ele>
        <time>2022-05-20T07:37:24Z</time>
      </trkpt>
      <trkpt lon="13.4905490996" lat="42.7976448002">
        <ele>506.525</ele>
        <time>2022-05-20T07:37:32Z</time>
      </trkpt>
      <trkpt lon="13.4906127998" lat="42.7976064999">
        <ele>506.3911</ele>
        <time>2022-05-20T07:37:36Z</time>
      </trkpt>
      <trkpt lon="13.4906371004" lat="42.7975606004">
        <ele>506.4254</ele>
        <time>2022-05-20T07:37:38Z</time>
      </trkpt>
      <trkpt lon="13.4906319997" lat="42.7975081996">
        <ele>506.5688</ele>
        <time>2022-05-20T07:37:40Z</time>
      </trkpt>
      <trkpt lon="13.4906141005" lat="42.7974708002">
        <ele>506.9895</ele>
        <time>2022-05-20T07:37:41Z</time>
      </trkpt>
      <trkpt lon="13.4904757994" lat="42.7972543">
        <ele>510.8706</ele>
        <time>2022-05-20T07:37:48Z</time>
      </trkpt>
      <trkpt lon="13.4904600089" lat="42.7972210131">
        <ele>511.7999</ele>
        <time>2022-05-20T07:37:50Z</time>
      </trkpt>
      <trkpt lon="13.4904197642" lat="42.7971361807">
        <ele>513.8754</ele>
        <time>2022-05-20T07:37:53Z</time>
      </trkpt>
      <trkpt lon="13.4904165003" lat="42.7971293">
        <ele>514.0437</ele>
        <time>2022-05-20T07:37:54Z</time>
      </trkpt>
      <trkpt lon="13.4903982752" lat="42.7970588968">
        <ele>515.263</ele>
        <time>2022-05-20T07:37:59Z</time>
      </trkpt>
      <trkpt lon="13.4903855039" lat="42.7970095647">
        <ele>516.1175</ele>
        <time>2022-05-20T07:38:05Z</time>
      </trkpt>
      <trkpt lon="13.4903689902" lat="42.7969457732">
        <ele>517.0738</ele>
        <time>2022-05-20T07:38:11Z</time>
      </trkpt>
      <trkpt lon="13.4903551996" lat="42.7968924996">
        <ele>517.3905</ele>
        <time>2022-05-20T07:38:15Z</time>
      </trkpt>
      <trkpt lon="13.4903296968" lat="42.7967237578">
        <ele>517.8537</ele>
        <time>2022-05-20T07:38:23Z</time>
      </trkpt>
      <trkpt lon="13.490320478" lat="42.7966627559">
        <ele>517.9367</ele>
        <time>2022-05-20T07:38:26Z</time>
      </trkpt>
      <trkpt lon="13.4903132004" lat="42.7966146002">
        <ele>517.899</ele>
        <time>2022-05-20T07:38:28Z</time>
      </trkpt>
      <trkpt lon="13.4902862792" lat="42.7965433323">
        <ele>517.7509</ele>
        <time>2022-05-20T07:38:30Z</time>
      </trkpt>
      <trkpt lon="13.4902569999" lat="42.7965089003">
        <ele>518.013</ele>
        <time>2022-05-20T07:38:31Z</time>
      </trkpt>
      <trkpt lon="13.4901906995" lat="42.7964583004">
        <ele>518.8857</ele>
        <time>2022-05-20T07:38:33Z</time>
      </trkpt>
      <trkpt lon="13.4900772001" lat="42.7964162002">
        <ele>520.8351</ele>
        <time>2022-05-20T07:38:36Z</time>
      </trkpt>
      <trkpt lon="13.4899114004" lat="42.7963740998">
        <ele>522.1782</ele>
        <time>2022-05-20T07:38:41Z</time>
      </trkpt>
      <trkpt lon="13.4895812004" lat="42.7963085999">
        <ele>525.0819</ele>
        <time>2022-05-20T07:38:52Z</time>
      </trkpt>
      <trkpt lon="13.4895008006" lat="42.7963048998">
        <ele>526.2405</ele>
        <time>2022-05-20T07:38:55Z</time>
      </trkpt>
      <trkpt lon="13.4893516003" lat="42.7963245004">
        <ele>527.9785</ele>
        <time>2022-05-20T07:39:01Z</time>
      </trkpt>
      <trkpt lon="13.4892368006" lat="42.7963300997">
        <ele>527.5037</ele>
        <time>2022-05-20T07:39:06Z</time>
      </trkpt>
      <trkpt lon="13.4891221003" lat="42.7963197997">
        <ele>525.6017</ele>
        <time>2022-05-20T07:39:10Z</time>
      </trkpt>
      <trkpt lon="13.4890341" lat="42.7962888997">
        <ele>524.9127</ele>
        <time>2022-05-20T07:39:12Z</time>
      </trkpt>
      <trkpt lon="13.4889550001" lat="42.7962450002">
        <ele>525.4112</ele>
        <time>2022-05-20T07:39:14Z</time>
      </trkpt>
      <trkpt lon="13.4885933447" lat="42.7960587588">
        <ele>530.2316</ele>
        <time>2022-05-20T07:39:21Z</time>
      </trkpt>
      <trkpt lon="13.4884674644" lat="42.7959939339">
        <ele>531.0399</ele>
        <time>2022-05-20T07:39:24Z</time>
      </trkpt>
      <trkpt lon="13.4884172995" lat="42.7959681003">
        <ele>531.2029</ele>
        <time>2022-05-20T07:39:26Z</time>
      </trkpt>
      <trkpt lon="13.4883205187" lat="42.7958842271">
        <ele>532.4745</ele>
        <time>2022-05-20T07:39:30Z</time>
      </trkpt>
      <trkpt lon="13.4881600801" lat="42.7957451887">
        <ele>535.2801</ele>
        <time>2022-05-20T07:39:38Z</time>
      </trkpt>
      <trkpt lon="13.4881443997" lat="42.7957315999">
        <ele>535.7535</ele>
        <time>2022-05-20T07:39:39Z</time>
      </trkpt>
      <trkpt lon="13.4880507004" lat="42.7956125002">
        <ele>539.0827</ele>
        <time>2022-05-20T07:39:46Z</time>
      </trkpt>
      <trkpt lon="13.4880460777" lat="42.7955936436">
        <ele>539.2231</ele>
        <time>2022-05-20T07:39:47Z</time>
      </trkpt>
      <trkpt lon="13.4880383025" lat="42.7955619328">
        <ele>539.2679</ele>
        <time>2022-05-20T07:39:49Z</time>
      </trkpt>
      <trkpt lon="13.4880253998" lat="42.7955093001">
        <ele>539.309</ele>
        <time>2022-05-20T07:39:52Z</time>
      </trkpt>
      <trkpt lon="13.4880723002" lat="42.7953187001">
        <ele>537.9414</ele>
        <time>2022-05-20T07:40:01Z</time>
      </trkpt>
      <trkpt lon="13.4881732997" lat="42.7951493004">
        <ele>538.8369</ele>
        <time>2022-05-20T07:40:08Z</time>
      </trkpt>
      <trkpt lon="13.4882787707" lat="42.795043419">
        <ele>538.6658</ele>
        <time>2022-05-20T07:40:12Z</time>
      </trkpt>
      <trkpt lon="13.4884187992" lat="42.7949359938">
        <ele>540.7761</ele>
        <time>2022-05-20T07:40:16Z</time>
      </trkpt>
      <trkpt lon="13.4885147234" lat="42.7948536157">
        <ele>542.1549</ele>
        <time>2022-05-20T07:40:19Z</time>
      </trkpt>
      <trkpt lon="13.4885518153" lat="42.7947628299">
        <ele>542.3767</ele>
        <time>2022-05-20T07:40:22Z</time>
      </trkpt>
      <trkpt lon="13.4885499455" lat="42.7946700007">
        <ele>542.2179</ele>
        <time>2022-05-20T07:40:26Z</time>
      </trkpt>
      <trkpt lon="13.4884444106" lat="42.7945526568">
        <ele>544.8447</ele>
        <time>2022-05-20T07:40:31Z</time>
      </trkpt>
      <trkpt lon="13.4883865899" lat="42.7945018085">
        <ele>545.7496</ele>
        <time>2022-05-20T07:40:33Z</time>
      </trkpt>
      <trkpt lon="13.4883188182" lat="42.7944515753">
        <ele>546.0856</ele>
        <time>2022-05-20T07:40:36Z</time>
      </trkpt>
      <trkpt lon="13.4882584984" lat="42.7944144366">
        <ele>546.4902</ele>
        <time>2022-05-20T07:40:38Z</time>
      </trkpt>
      <trkpt lon="13.4880506998" lat="42.7942865001">
        <ele>548.2931</ele>
        <time>2022-05-20T07:40:46Z</time>
      </trkpt>
      <trkpt lon="13.488006603" lat="42.7942372493">
        <ele>548.0482</ele>
        <time>2022-05-20T07:40:48Z</time>
      </trkpt>
      <trkpt lon="13.4879676999" lat="42.7941937998">
        <ele>548.0549</ele>
        <time>2022-05-20T07:40:50Z</time>
      </trkpt>
      <trkpt lon="13.4879620907" lat="42.794166848">
        <ele>547.4736</ele>
        <time>2022-05-20T07:40:51Z</time>
      </trkpt>
      <trkpt lon="13.4879317999" lat="42.7940212999">
        <ele>547.4336</ele>
        <time>2022-05-20T07:40:55Z</time>
      </trkpt>
      <trkpt lon="13.4878610999" lat="42.7938559003">
        <ele>547.6104</ele>
        <time>2022-05-20T07:40:58Z</time>
      </trkpt>
      <trkpt lon="13.4877010006" lat="42.7937194996">
        <ele>547.4281</ele>
        <time>2022-05-20T07:41:02Z</time>
      </trkpt>
      <trkpt lon="13.4875616161" lat="42.7936556146">
        <ele>548.5732</ele>
        <time>2022-05-20T07:41:05Z</time>
      </trkpt>
      <trkpt lon="13.4875339998" lat="42.7936349999">
        <ele>548.5592</ele>
        <time>2022-05-20T07:41:06Z</time>
      </trkpt>
      <trkpt lon="13.4874939996" lat="42.7936070003">
        <ele>548.5888</ele>
        <time>2022-05-20T07:41:07Z</time>
      </trkpt>
      <trkpt lon="13.4874570003" lat="42.7935800002">
        <ele>548.3854</ele>
        <time>2022-05-20T07:41:08Z</time>
      </trkpt>
      <trkpt lon="13.4874249996" lat="42.7935540001">
        <ele>548.6544</ele>
        <time>2022-05-20T07:41:09Z</time>
      </trkpt>
      <trkpt lon="13.4873950004" lat="42.7935260002">
        <ele>549.7872</ele>
        <time>2022-05-20T07:41:10Z</time>
      </trkpt>
      <trkpt lon="13.4873670002" lat="42.7934950001">
        <ele>550.2854</ele>
        <time>2022-05-20T07:41:11Z</time>
      </trkpt>
      <trkpt lon="13.4873369996" lat="42.7934639996">
        <ele>550.4703</ele>
        <time>2022-05-20T07:41:12Z</time>
      </trkpt>
      <trkpt lon="13.487306" lat="42.7934330004">
        <ele>550.5449</ele>
        <time>2022-05-20T07:41:14Z</time>
      </trkpt>
      <trkpt lon="13.4872049998" lat="42.7933399996">
        <ele>551.0792</ele>
        <time>2022-05-20T07:41:20Z</time>
      </trkpt>
      <trkpt lon="13.4869939996" lat="42.7931129997">
        <ele>550.273</ele>
        <time>2022-05-20T07:41:32Z</time>
      </trkpt>
      <trkpt lon="13.4869770003" lat="42.7930640004">
        <ele>549.9309</ele>
        <time>2022-05-20T07:41:33Z</time>
      </trkpt>
      <trkpt lon="13.4869796001" lat="42.7930393002">
        <ele>549.3091</ele>
        <time>2022-05-20T07:41:34Z</time>
      </trkpt>
      <trkpt lon="13.4869819004" lat="42.7929889999">
        <ele>549.3699</ele>
        <time>2022-05-20T07:41:35Z</time>
      </trkpt>
      <trkpt lon="13.4870302221" lat="42.7929282601">
        <ele>548.9908</ele>
        <time>2022-05-20T07:41:36Z</time>
      </trkpt>
      <trkpt lon="13.4870535006" lat="42.7928990001">
        <ele>550.3573</ele>
        <time>2022-05-20T07:41:37Z</time>
      </trkpt>
      <trkpt lon="13.4871924003" lat="42.7928527002">
        <ele>552.2762</ele>
        <time>2022-05-20T07:41:40Z</time>
      </trkpt>
      <trkpt lon="13.4872524096" lat="42.7928408553">
        <ele>553.4231</ele>
        <time>2022-05-20T07:41:42Z</time>
      </trkpt>
      <trkpt lon="13.4873601001" lat="42.7928196004">
        <ele>553.5949</ele>
        <time>2022-05-20T07:41:47Z</time>
      </trkpt>
      <trkpt lon="13.4875530996" lat="42.7927283001">
        <ele>553.9471</ele>
        <time>2022-05-20T07:42:01Z</time>
      </trkpt>
      <trkpt lon="13.4875959997" lat="42.7926599997">
        <ele>554.6467</ele>
        <time>2022-05-20T07:42:06Z</time>
      </trkpt>
      <trkpt lon="13.4876415002" lat="42.7925536004">
        <ele>556.7259</ele>
        <time>2022-05-20T07:42:12Z</time>
      </trkpt>
      <trkpt lon="13.4876811003" lat="42.7924649003">
        <ele>557.9879</ele>
        <time>2022-05-20T07:42:16Z</time>
      </trkpt>
      <trkpt lon="13.4877731003" lat="42.7924133002">
        <ele>556.7842</ele>
        <time>2022-05-20T07:42:20Z</time>
      </trkpt>
      <trkpt lon="13.4878546865" lat="42.7923874487">
        <ele>556.292</ele>
        <time>2022-05-20T07:42:22Z</time>
      </trkpt>
      <trkpt lon="13.4879389997" lat="42.7923780001">
        <ele>555.8231</ele>
        <time>2022-05-20T07:42:24Z</time>
      </trkpt>
      <trkpt lon="13.4879722475" lat="42.792376567">
        <ele>555.6267</ele>
        <time>2022-05-20T07:42:25Z</time>
      </trkpt>
      <trkpt lon="13.4880940998" lat="42.7923869004">
        <ele>554.9727</ele>
        <time>2022-05-20T07:42:27Z</time>
      </trkpt>
      <trkpt lon="13.4882078" lat="42.7924001004">
        <ele>553.6849</ele>
        <time>2022-05-20T07:42:28Z</time>
      </trkpt>
      <trkpt lon="13.4882602006" lat="42.7923946004">
        <ele>553.5416</ele>
        <time>2022-05-20T07:42:29Z</time>
      </trkpt>
      <trkpt lon="13.4883214006" lat="42.7923299003">
        <ele>554.35</ele>
        <time>2022-05-20T07:42:30Z</time>
      </trkpt>
      <trkpt lon="13.4883351002" lat="42.7922232997">
        <ele>554.5236</ele>
        <time>2022-05-20T07:42:32Z</time>
      </trkpt>
      <trkpt lon="13.4882853004" lat="42.7921394001">
        <ele>554.9447</ele>
        <time>2022-05-20T07:42:34Z</time>
      </trkpt>
      <trkpt lon="13.4882242218" lat="42.7920898243">
        <ele>555.0742</ele>
        <time>2022-05-20T07:42:36Z</time>
      </trkpt>
      <trkpt lon="13.4881609005" lat="42.7920481002">
        <ele>554.591</ele>
        <time>2022-05-20T07:42:38Z</time>
      </trkpt>
      <trkpt lon="13.4880929228" lat="42.7920326061">
        <ele>555.4247</ele>
        <time>2022-05-20T07:42:39Z</time>
      </trkpt>
      <trkpt lon="13.4879749287" lat="42.7920057109">
        <ele>556.2203</ele>
        <time>2022-05-20T07:42:41Z</time>
      </trkpt>
      <trkpt lon="13.4878970005" lat="42.7919729997">
        <ele>556.5762</ele>
        <time>2022-05-20T07:42:43Z</time>
      </trkpt>
      <trkpt lon="13.4877938191" lat="42.791925896">
        <ele>557.3201</ele>
        <time>2022-05-20T07:42:46Z</time>
      </trkpt>
      <trkpt lon="13.4876851046" lat="42.7918694736">
        <ele>557.8654</ele>
        <time>2022-05-20T07:42:49Z</time>
      </trkpt>
      <trkpt lon="13.4876686021" lat="42.7918568015">
        <ele>558.1304</ele>
        <time>2022-05-20T07:42:50Z</time>
      </trkpt>
      <trkpt lon="13.4876125998" lat="42.7918138004">
        <ele>559.1668</ele>
        <time>2022-05-20T07:42:52Z</time>
      </trkpt>
      <trkpt lon="13.4875368994" lat="42.7917185001">
        <ele>558.9667</ele>
        <time>2022-05-20T07:42:56Z</time>
      </trkpt>
      <trkpt lon="13.4874890002" lat="42.7916499998">
        <ele>559.8148</ele>
        <time>2022-05-20T07:42:59Z</time>
      </trkpt>
      <trkpt lon="13.4874700005" lat="42.7916249999">
        <ele>560.317</ele>
        <time>2022-05-20T07:43:00Z</time>
      </trkpt>
      <trkpt lon="13.4874459999" lat="42.7915999996">
        <ele>560.9896</ele>
        <time>2022-05-20T07:43:02Z</time>
      </trkpt>
      <trkpt lon="13.4874180001" lat="42.7915780002">
        <ele>561.7892</ele>
        <time>2022-05-20T07:43:04Z</time>
      </trkpt>
      <trkpt lon="13.487386" lat="42.7915589998">
        <ele>561.7959</ele>
        <time>2022-05-20T07:43:06Z</time>
      </trkpt>
      <trkpt lon="13.4872540912" lat="42.7915410476">
        <ele>562.2562</ele>
        <time>2022-05-20T07:43:13Z</time>
      </trkpt>
      <trkpt lon="13.4872303" lat="42.7915450999">
        <ele>562.3447</ele>
        <time>2022-05-20T07:43:14Z</time>
      </trkpt>
      <trkpt lon="13.4871239003" lat="42.7915756002">
        <ele>563.5435</ele>
        <time>2022-05-20T07:43:18Z</time>
      </trkpt>
      <trkpt lon="13.4869520999" lat="42.7916310999">
        <ele>564.9297</ele>
        <time>2022-05-20T07:43:24Z</time>
      </trkpt>
      <trkpt lon="13.4868857999" lat="42.7916483997">
        <ele>565.7546</ele>
        <time>2022-05-20T07:43:26Z</time>
      </trkpt>
      <trkpt lon="13.4867594997" lat="42.791659">
        <ele>566.484</ele>
        <time>2022-05-20T07:43:30Z</time>
      </trkpt>
      <trkpt lon="13.4866873999" lat="42.7916431002">
        <ele>566.105</ele>
        <time>2022-05-20T07:43:32Z</time>
      </trkpt>
      <trkpt lon="13.4866242994" lat="42.7915993997">
        <ele>566.1019</ele>
        <time>2022-05-20T07:43:35Z</time>
      </trkpt>
      <trkpt lon="13.4865990004" lat="42.7915425002">
        <ele>565.1427</ele>
        <time>2022-05-20T07:43:36Z</time>
      </trkpt>
      <trkpt lon="13.4865915873" lat="42.7915214166">
        <ele>564.8303</ele>
        <time>2022-05-20T07:43:37Z</time>
      </trkpt>
      <trkpt lon="13.4865413004" lat="42.7913783999">
        <ele>565.6665</ele>
        <time>2022-05-20T07:43:39Z</time>
      </trkpt>
      <trkpt lon="13.4864547997" lat="42.7912403003">
        <ele>566.4914</ele>
        <time>2022-05-20T07:43:42Z</time>
      </trkpt>
      <trkpt lon="13.4864136131" lat="42.7912000115">
        <ele>566.8674</ele>
        <time>2022-05-20T07:43:44Z</time>
      </trkpt>
      <trkpt lon="13.4863651966" lat="42.7911647393">
        <ele>566.7364</ele>
        <time>2022-05-20T07:43:45Z</time>
      </trkpt>
      <trkpt lon="13.486252894" lat="42.7911548546">
        <ele>568.5708</ele>
        <time>2022-05-20T07:43:47Z</time>
      </trkpt>
      <trkpt lon="13.486116404" lat="42.7911459205">
        <ele>572.0098</ele>
        <time>2022-05-20T07:43:51Z</time>
      </trkpt>
      <trkpt lon="13.4860183573" lat="42.7911319033">
        <ele>575.1007</ele>
        <time>2022-05-20T07:43:54Z</time>
      </trkpt>
      <trkpt lon="13.4859139265" lat="42.791096697">
        <ele>575.9308</ele>
        <time>2022-05-20T07:43:59Z</time>
      </trkpt>
      <trkpt lon="13.4858484561" lat="42.7910635351">
        <ele>576.9762</ele>
        <time>2022-05-20T07:44:04Z</time>
      </trkpt>
      <trkpt lon="13.4858313491" lat="42.7910007057">
        <ele>575.6677</ele>
        <time>2022-05-20T07:44:10Z</time>
      </trkpt>
      <trkpt lon="13.4858000995" lat="42.7909495996">
        <ele>575.7042</ele>
        <time>2022-05-20T07:44:13Z</time>
      </trkpt>
      <trkpt lon="13.4857875001" lat="42.7908715004">
        <ele>575.5511</ele>
        <time>2022-05-20T07:44:16Z</time>
      </trkpt>
      <trkpt lon="13.4857766005" lat="42.7907114001">
        <ele>575.8212</ele>
        <time>2022-05-20T07:44:21Z</time>
      </trkpt>
      <trkpt lon="13.4857694005" lat="42.7905472">
        <ele>575.9755</ele>
        <time>2022-05-20T07:44:25Z</time>
      </trkpt>
      <trkpt lon="13.485755" lat="42.7904664997">
        <ele>575.5434</ele>
        <time>2022-05-20T07:44:27Z</time>
      </trkpt>
      <trkpt lon="13.4857201177" lat="42.7904340682">
        <ele>575.9145</ele>
        <time>2022-05-20T07:44:29Z</time>
      </trkpt>
      <trkpt lon="13.4856660725" lat="42.7904203742">
        <ele>576.4019</ele>
        <time>2022-05-20T07:44:30Z</time>
      </trkpt>
      <trkpt lon="13.4855749284" lat="42.7904346719">
        <ele>578.1211</ele>
        <time>2022-05-20T07:44:32Z</time>
      </trkpt>
      <trkpt lon="13.4854674651" lat="42.7904245964">
        <ele>578.848</ele>
        <time>2022-05-20T07:44:35Z</time>
      </trkpt>
      <trkpt lon="13.4853403936" lat="42.7904117184">
        <ele>579.4599</ele>
        <time>2022-05-20T07:44:39Z</time>
      </trkpt>
      <trkpt lon="13.4852598959" lat="42.7903719996">
        <ele>579.3097</ele>
        <time>2022-05-20T07:44:42Z</time>
      </trkpt>
      <trkpt lon="13.4852371929" lat="42.7903264392">
        <ele>577.8471</ele>
        <time>2022-05-20T07:44:44Z</time>
      </trkpt>
      <trkpt lon="13.4852204947" lat="42.7902654802">
        <ele>576.6614</ele>
        <time>2022-05-20T07:44:46Z</time>
      </trkpt>
      <trkpt lon="13.4851558532" lat="42.7902015941">
        <ele>577.2805</ele>
        <time>2022-05-20T07:44:47Z</time>
      </trkpt>
      <trkpt lon="13.4850841004" lat="42.7900879999">
        <ele>578.8222</ele>
        <time>2022-05-20T07:44:50Z</time>
      </trkpt>
      <trkpt lon="13.4850390005" lat="42.7899649004">
        <ele>579.4313</ele>
        <time>2022-05-20T07:44:52Z</time>
      </trkpt>
      <trkpt lon="13.4850083994" lat="42.7898232997">
        <ele>578.7004</ele>
        <time>2022-05-20T07:44:55Z</time>
      </trkpt>
      <trkpt lon="13.4849505995" lat="42.7896923002">
        <ele>578.3987</ele>
        <time>2022-05-20T07:44:59Z</time>
      </trkpt>
      <trkpt lon="13.4848171995" lat="42.7895586001">
        <ele>583.6643</ele>
        <time>2022-05-20T07:45:04Z</time>
      </trkpt>
      <trkpt lon="13.4847126002" lat="42.7894712001">
        <ele>583.7534</ele>
        <time>2022-05-20T07:45:08Z</time>
      </trkpt>
      <trkpt lon="13.4846098005" lat="42.7894447997">
        <ele>583.8955</ele>
        <time>2022-05-20T07:45:11Z</time>
      </trkpt>
      <trkpt lon="13.4844708997" lat="42.7894513999">
        <ele>584.3452</ele>
        <time>2022-05-20T07:45:14Z</time>
      </trkpt>
      <trkpt lon="13.4842563006" lat="42.7895004">
        <ele>585.1283</ele>
        <time>2022-05-20T07:45:20Z</time>
      </trkpt>
      <trkpt lon="13.4840706001" lat="42.7895485001">
        <ele>584.6458</ele>
        <time>2022-05-20T07:45:26Z</time>
      </trkpt>
      <trkpt lon="13.4839171997" lat="42.7895930004">
        <ele>584.0519</ele>
        <time>2022-05-20T07:45:29Z</time>
      </trkpt>
      <trkpt lon="13.4838884001" lat="42.7896313998">
        <ele>584.5405</ele>
        <time>2022-05-20T07:45:31Z</time>
      </trkpt>
      <trkpt lon="13.4838657571" lat="42.7896723364">
        <ele>585.4309</ele>
        <time>2022-05-20T07:45:32Z</time>
      </trkpt>
      <trkpt lon="13.4838379002" lat="42.7897227">
        <ele>586.3665</ele>
        <time>2022-05-20T07:45:34Z</time>
      </trkpt>
      <trkpt lon="13.4837471823" lat="42.7898160196">
        <ele>585.6147</ele>
        <time>2022-05-20T07:45:38Z</time>
      </trkpt>
      <trkpt lon="13.4835380997" lat="42.7900311">
        <ele>589.8314</ele>
        <time>2022-05-20T07:45:48Z</time>
      </trkpt>
      <trkpt lon="13.4834022324" lat="42.7901648633">
        <ele>592.6069</ele>
        <time>2022-05-20T07:45:55Z</time>
      </trkpt>
      <trkpt lon="13.4833315004" lat="42.7902344999">
        <ele>594.4538</ele>
        <time>2022-05-20T07:45:59Z</time>
      </trkpt>
      <trkpt lon="13.4832450997" lat="42.7902786">
        <ele>595.2146</ele>
        <time>2022-05-20T07:46:03Z</time>
      </trkpt>
      <trkpt lon="13.4831379001" lat="42.7902953999">
        <ele>595.4995</ele>
        <time>2022-05-20T07:46:07Z</time>
      </trkpt>
      <trkpt lon="13.4830563005" lat="42.7902917001">
        <ele>595.7816</ele>
        <time>2022-05-20T07:46:10Z</time>
      </trkpt>
      <trkpt lon="13.4829747002" lat="42.7902616997">
        <ele>595.4655</ele>
        <time>2022-05-20T07:46:13Z</time>
      </trkpt>
      <trkpt lon="13.4829601132" lat="42.7902507047">
        <ele>595.201</ele>
        <time>2022-05-20T07:46:14Z</time>
      </trkpt>
      <trkpt lon="13.4828829006" lat="42.7901924997">
        <ele>594.4398</ele>
        <time>2022-05-20T07:46:16Z</time>
      </trkpt>
      <trkpt lon="13.4827681003" lat="42.7901344997">
        <ele>595.3777</ele>
        <time>2022-05-20T07:46:18Z</time>
      </trkpt>
      <trkpt lon="13.4826739999" lat="42.7900589996">
        <ele>595.6394</ele>
        <time>2022-05-20T07:46:21Z</time>
      </trkpt>
      <trkpt lon="13.4826329004" lat="42.7899885">
        <ele>597.1145</ele>
        <time>2022-05-20T07:46:22Z</time>
      </trkpt>
      <trkpt lon="13.4826251002" lat="42.7898396996">
        <ele>595.2358</ele>
        <time>2022-05-20T07:46:26Z</time>
      </trkpt>
      <trkpt lon="13.4825818995" lat="42.7897825998">
        <ele>595.1466</ele>
        <time>2022-05-20T07:46:28Z</time>
      </trkpt>
      <trkpt lon="13.4825233001" lat="42.7897676004">
        <ele>595.7588</ele>
        <time>2022-05-20T07:46:29Z</time>
      </trkpt>
      <trkpt lon="13.4824059003" lat="42.7897750999">
        <ele>596.7107</ele>
        <time>2022-05-20T07:46:32Z</time>
      </trkpt>
      <trkpt lon="13.4822662241" lat="42.7897637065">
        <ele>599.6206</ele>
        <time>2022-05-20T07:46:36Z</time>
      </trkpt>
      <trkpt lon="13.4821811873" lat="42.7897319319">
        <ele>599.5107</ele>
        <time>2022-05-20T07:46:39Z</time>
      </trkpt>
      <trkpt lon="13.4821534002" lat="42.7897189004">
        <ele>599.0087</ele>
        <time>2022-05-20T07:46:40Z</time>
      </trkpt>
      <trkpt lon="13.4820599002" lat="42.7896403001">
        <ele>600.169</ele>
        <time>2022-05-20T07:46:44Z</time>
      </trkpt>
      <trkpt lon="13.4818881998" lat="42.7894475001">
        <ele>604.6373</ele>
        <time>2022-05-20T07:46:51Z</time>
      </trkpt>
      <trkpt lon="13.4818525006" lat="42.7893465002">
        <ele>605.7207</ele>
        <time>2022-05-20T07:46:54Z</time>
      </trkpt>
      <trkpt lon="13.4818983998" lat="42.7891387003">
        <ele>606.0767</ele>
        <time>2022-05-20T07:47:01Z</time>
      </trkpt>
      <trkpt lon="13.4819213002" lat="42.7890095996">
        <ele>607.0754</ele>
        <time>2022-05-20T07:47:05Z</time>
      </trkpt>
      <trkpt lon="13.481914231" lat="42.7889615695">
        <ele>607.0607</ele>
        <time>2022-05-20T07:47:07Z</time>
      </trkpt>
      <trkpt lon="13.4819111" lat="42.7889403001">
        <ele>607.0076</ele>
        <time>2022-05-20T07:47:08Z</time>
      </trkpt>
      <trkpt lon="13.4818887995" lat="42.7888888001">
        <ele>606.5458</ele>
        <time>2022-05-20T07:47:09Z</time>
      </trkpt>
      <trkpt lon="13.4818268121" lat="42.788829874">
        <ele>606.3903</ele>
        <time>2022-05-20T07:47:11Z</time>
      </trkpt>
      <trkpt lon="13.4818119247" lat="42.7888188353">
        <ele>606.563</ele>
        <time>2022-05-20T07:47:12Z</time>
      </trkpt>
      <trkpt lon="13.4817460999" lat="42.7887765999">
        <ele>607.197</ele>
        <time>2022-05-20T07:47:13Z</time>
      </trkpt>
      <trkpt lon="13.4816780788" lat="42.7887328845">
        <ele>606.7011</ele>
        <time>2022-05-20T07:47:15Z</time>
      </trkpt>
      <trkpt lon="13.4815984749" lat="42.788714755">
        <ele>606.3974</ele>
        <time>2022-05-20T07:47:17Z</time>
      </trkpt>
      <trkpt lon="13.4814879813" lat="42.7887298078">
        <ele>609.1952</ele>
        <time>2022-05-20T07:47:20Z</time>
      </trkpt>
      <trkpt lon="13.4813525257" lat="42.7887351189">
        <ele>611.0922</ele>
        <time>2022-05-20T07:47:23Z</time>
      </trkpt>
      <trkpt lon="13.4812308104" lat="42.788729172">
        <ele>612.4307</ele>
        <time>2022-05-20T07:47:27Z</time>
      </trkpt>
      <trkpt lon="13.4811027128" lat="42.7887020366">
        <ele>611.049</ele>
        <time>2022-05-20T07:47:31Z</time>
      </trkpt>
      <trkpt lon="13.4810229918" lat="42.7886730035">
        <ele>609.8008</ele>
        <time>2022-05-20T07:47:34Z</time>
      </trkpt>
      <trkpt lon="13.4809503713" lat="42.788607961">
        <ele>608.0501</ele>
        <time>2022-05-20T07:47:36Z</time>
      </trkpt>
      <trkpt lon="13.4808958092" lat="42.7885594268">
        <ele>607.4363</ele>
        <time>2022-05-20T07:47:38Z</time>
      </trkpt>
      <trkpt lon="13.4808456905" lat="42.7885182799">
        <ele>607.1568</ele>
        <time>2022-05-20T07:47:39Z</time>
      </trkpt>
      <trkpt lon="13.4807344996" lat="42.7884056996">
        <ele>608.5725</ele>
        <time>2022-05-20T07:47:41Z</time>
      </trkpt>
      <trkpt lon="13.4806180004" lat="42.7882122002">
        <ele>611.4712</ele>
        <time>2022-05-20T07:47:45Z</time>
      </trkpt>
      <trkpt lon="13.4805673702" lat="42.7881309581">
        <ele>611.9071</ele>
        <time>2022-05-20T07:47:48Z</time>
      </trkpt>
      <trkpt lon="13.4805491998" lat="42.7881018004">
        <ele>612.515</ele>
        <time>2022-05-20T07:47:49Z</time>
      </trkpt>
      <trkpt lon="13.4804806031" lat="42.7880579894">
        <ele>613.1272</ele>
        <time>2022-05-20T07:47:51Z</time>
      </trkpt>
      <trkpt lon="13.480387732" lat="42.7880726022">
        <ele>614.3907</ele>
        <time>2022-05-20T07:47:54Z</time>
      </trkpt>
      <trkpt lon="13.4803179996" lat="42.7881146413">
        <ele>615.9831</ele>
        <time>2022-05-20T07:47:57Z</time>
      </trkpt>
      <trkpt lon="13.4802055014" lat="42.7881690764">
        <ele>616.8562</ele>
        <time>2022-05-20T07:48:02Z</time>
      </trkpt>
      <trkpt lon="13.480099845" lat="42.7881839381">
        <ele>615.6403</ele>
        <time>2022-05-20T07:48:06Z</time>
      </trkpt>
      <trkpt lon="13.4800007754" lat="42.7881556632">
        <ele>614.2354</ele>
        <time>2022-05-20T07:48:09Z</time>
      </trkpt>
      <trkpt lon="13.479904997" lat="42.7881058195">
        <ele>614.4146</ele>
        <time>2022-05-20T07:48:12Z</time>
      </trkpt>
      <trkpt lon="13.4798894498" lat="42.7880604134">
        <ele>613.8822</ele>
        <time>2022-05-20T07:48:13Z</time>
      </trkpt>
      <trkpt lon="13.4798278452" lat="42.7879915541">
        <ele>614.4434</ele>
        <time>2022-05-20T07:48:15Z</time>
      </trkpt>
      <trkpt lon="13.4796718003" lat="42.7876357003">
        <ele>616.9944</ele>
        <time>2022-05-20T07:48:22Z</time>
      </trkpt>
      <trkpt lon="13.4796207998" lat="42.7874334998">
        <ele>617.1342</ele>
        <time>2022-05-20T07:48:27Z</time>
      </trkpt>
      <trkpt lon="13.4796078435" lat="42.787375664">
        <ele>616.3919</ele>
        <time>2022-05-20T07:48:28Z</time>
      </trkpt>
      <trkpt lon="13.4795827792" lat="42.7872814369">
        <ele>615.2672</ele>
        <time>2022-05-20T07:48:30Z</time>
      </trkpt>
      <trkpt lon="13.4795391482" lat="42.7872475393">
        <ele>615.4869</ele>
        <time>2022-05-20T07:48:31Z</time>
      </trkpt>
      <trkpt lon="13.4795006003" lat="42.7872311998">
        <ele>615.8278</ele>
        <time>2022-05-20T07:48:32Z</time>
      </trkpt>
      <trkpt lon="13.4793697003" lat="42.7871829001">
        <ele>616.4238</ele>
        <time>2022-05-20T07:48:34Z</time>
      </trkpt>
      <trkpt lon="13.4792049997" lat="42.7871397002">
        <ele>615.8602</ele>
        <time>2022-05-20T07:48:38Z</time>
      </trkpt>
      <trkpt lon="13.4790544996" lat="42.7870760002">
        <ele>614.7398</ele>
        <time>2022-05-20T07:48:41Z</time>
      </trkpt>
      <trkpt lon="13.4789210463" lat="42.7869895516">
        <ele>616.4863</ele>
        <time>2022-05-20T07:48:45Z</time>
      </trkpt>
      <trkpt lon="13.4788795827" lat="42.7869382683">
        <ele>617.2573</ele>
        <time>2022-05-20T07:48:47Z</time>
      </trkpt>
      <trkpt lon="13.478872096" lat="42.786895659">
        <ele>617.0663</ele>
        <time>2022-05-20T07:48:48Z</time>
      </trkpt>
      <trkpt lon="13.4788659431" lat="42.7868606417">
        <ele>616.9109</ele>
        <time>2022-05-20T07:48:49Z</time>
      </trkpt>
      <trkpt lon="13.4788641221" lat="42.7868502786">
        <ele>616.8564</ele>
        <time>2022-05-20T07:48:50Z</time>
      </trkpt>
      <trkpt lon="13.4788500002" lat="42.7867259997">
        <ele>616.156</ele>
        <time>2022-05-20T07:48:53Z</time>
      </trkpt>
      <trkpt lon="13.4788429999" lat="42.7866849998">
        <ele>616.0361</ele>
        <time>2022-05-20T07:48:54Z</time>
      </trkpt>
      <trkpt lon="13.4788269998" lat="42.7866460001">
        <ele>615.9708</ele>
        <time>2022-05-20T07:48:55Z</time>
      </trkpt>
      <trkpt lon="13.4788030002" lat="42.7866079999">
        <ele>616.0864</ele>
        <time>2022-05-20T07:48:56Z</time>
      </trkpt>
      <trkpt lon="13.478774" lat="42.7865729996">
        <ele>616.9395</ele>
        <time>2022-05-20T07:48:57Z</time>
      </trkpt>
      <trkpt lon="13.4786492325" lat="42.7864562448">
        <ele>621.666</ele>
        <time>2022-05-20T07:49:01Z</time>
      </trkpt>
      <trkpt lon="13.4786168994" lat="42.7864233002">
        <ele>622.4789</ele>
        <time>2022-05-20T07:49:03Z</time>
      </trkpt>
      <trkpt lon="13.478595877" lat="42.7864063162">
        <ele>622.701</ele>
        <time>2022-05-20T07:49:04Z</time>
      </trkpt>
      <trkpt lon="13.4784450481" lat="42.7862844656">
        <ele>623.0959</ele>
        <time>2022-05-20T07:49:14Z</time>
      </trkpt>
      <trkpt lon="13.4784212" lat="42.7862652">
        <ele>622.9637</ele>
        <time>2022-05-20T07:49:16Z</time>
      </trkpt>
      <trkpt lon="13.4781932001" lat="42.7861385997">
        <ele>623.1561</ele>
        <time>2022-05-20T07:49:26Z</time>
      </trkpt>
      <trkpt lon="13.4779031004" lat="42.7859886001">
        <ele>624.8825</ele>
        <time>2022-05-20T07:49:36Z</time>
      </trkpt>
      <trkpt lon="13.4777942997" lat="42.7859274998">
        <ele>625.1389</ele>
        <time>2022-05-20T07:49:39Z</time>
      </trkpt>
      <trkpt lon="13.4777678167" lat="42.7859112985">
        <ele>625.3659</ele>
        <time>2022-05-20T07:49:40Z</time>
      </trkpt>
      <trkpt lon="13.4775576986" lat="42.7857827537">
        <ele>627.1038</ele>
        <time>2022-05-20T07:49:46Z</time>
      </trkpt>
      <trkpt lon="13.4774853147" lat="42.7857384709">
        <ele>627.1235</ele>
        <time>2022-05-20T07:49:49Z</time>
      </trkpt>
      <trkpt lon="13.4774597003" lat="42.7857227998">
        <ele>627.1537</ele>
        <time>2022-05-20T07:49:50Z</time>
      </trkpt>
      <trkpt lon="13.4773838998" lat="42.7856976003">
        <ele>628.3284</ele>
        <time>2022-05-20T07:49:52Z</time>
      </trkpt>
      <trkpt lon="13.4773357037" lat="42.7857114252">
        <ele>629.8009</ele>
        <time>2022-05-20T07:49:53Z</time>
      </trkpt>
      <trkpt lon="13.477326815" lat="42.7857194729">
        <ele>630.2044</ele>
        <time>2022-05-20T07:49:54Z</time>
      </trkpt>
      <trkpt lon="13.4773100002" lat="42.7857347004">
        <ele>630.9677</ele>
        <time>2022-05-20T07:49:55Z</time>
      </trkpt>
      <trkpt lon="13.4773104726" lat="42.78573922">
        <ele>631.0649</ele>
        <time>2022-05-20T07:49:56Z</time>
      </trkpt>
      <trkpt lon="13.4773121358" lat="42.7857551129">
        <ele>631.4068</ele>
        <time>2022-05-20T07:50:00Z</time>
      </trkpt>
      <trkpt lon="13.4773153997" lat="42.7857862998">
        <ele>632.0776</ele>
        <time>2022-05-20T07:50:06Z</time>
      </trkpt>
      <trkpt lon="13.4773372245" lat="42.7858121729">
        <ele>632.1815</ele>
        <time>2022-05-20T07:50:10Z</time>
      </trkpt>
      <trkpt lon="13.4773622999" lat="42.7858419002">
        <ele>632.4301</ele>
        <time>2022-05-20T07:50:13Z</time>
      </trkpt>
      <trkpt lon="13.4774730005" lat="42.785954">
        <ele>633.3567</ele>
        <time>2022-05-20T07:50:22Z</time>
      </trkpt>
      <trkpt lon="13.4775060005" lat="42.7859820001">
        <ele>633.2597</ele>
        <time>2022-05-20T07:50:24Z</time>
      </trkpt>
      <trkpt lon="13.4775370003" lat="42.7860099997">
        <ele>633.1974</ele>
        <time>2022-05-20T07:50:25Z</time>
      </trkpt>
      <trkpt lon="13.4775690002" lat="42.786038">
        <ele>633.1116</ele>
        <time>2022-05-20T07:50:26Z</time>
      </trkpt>
      <trkpt lon="13.4775969999" lat="42.7860640001">
        <ele>633.0724</ele>
        <time>2022-05-20T07:50:27Z</time>
      </trkpt>
      <trkpt lon="13.4776210006" lat="42.7860889997">
        <ele>633.2224</ele>
        <time>2022-05-20T07:50:28Z</time>
      </trkpt>
      <trkpt lon="13.4776470003" lat="42.7861130002">
        <ele>633.3862</ele>
        <time>2022-05-20T07:50:29Z</time>
      </trkpt>
      <trkpt lon="13.477683" lat="42.7861529999">
        <ele>633.9519</ele>
        <time>2022-05-20T07:50:30Z</time>
      </trkpt>
      <trkpt lon="13.477660198" lat="42.7861787577">
        <ele>635.1716</ele>
        <time>2022-05-20T07:50:31Z</time>
      </trkpt>
      <trkpt lon="13.4776472996" lat="42.7862033">
        <ele>636.223</ele>
        <time>2022-05-20T07:50:32Z</time>
      </trkpt>
      <trkpt lon="13.4776376802" lat="42.7862041951">
        <ele>636.4722</ele>
        <time>2022-05-20T07:50:33Z</time>
      </trkpt>
      <trkpt lon="13.4776019819" lat="42.7862075152">
        <ele>637.2938</ele>
        <time>2022-05-20T07:50:35Z</time>
      </trkpt>
      <trkpt lon="13.4775914006" lat="42.7862085002">
        <ele>637.4853</ele>
        <time>2022-05-20T07:50:36Z</time>
      </trkpt>
      <trkpt lon="13.4775800199" lat="42.7862022451">
        <ele>637.4849</ele>
        <time>2022-05-20T07:50:38Z</time>
      </trkpt>
      <trkpt lon="13.4775713474" lat="42.7861974777">
        <ele>637.473</ele>
        <time>2022-05-20T07:50:39Z</time>
      </trkpt>
      <trkpt lon="13.4775480998" lat="42.7861847">
        <ele>637.4794</ele>
        <time>2022-05-20T07:50:40Z</time>
      </trkpt>
      <trkpt lon="13.4774417002" lat="42.7861065998">
        <ele>637.4118</ele>
        <time>2022-05-20T07:50:46Z</time>
      </trkpt>
      <trkpt lon="13.4772564004" lat="42.7859881001">
        <ele>638.3147</ele>
        <time>2022-05-20T07:50:53Z</time>
      </trkpt>
      <trkpt lon="13.4768897997" lat="42.7857492998">
        <ele>641.4116</ele>
        <time>2022-05-20T07:51:04Z</time>
      </trkpt>
      <trkpt lon="13.4766643619" lat="42.785601735">
        <ele>645.0053</ele>
        <time>2022-05-20T07:51:11Z</time>
      </trkpt>
      <trkpt lon="13.4764504511" lat="42.7854600757">
        <ele>646.7489</ele>
        <time>2022-05-20T07:51:18Z</time>
      </trkpt>
      <trkpt lon="13.4762525997" lat="42.7852810997">
        <ele>647.7187</ele>
        <time>2022-05-20T07:51:28Z</time>
      </trkpt>
      <trkpt lon="13.4759687753" lat="42.7850244773">
        <ele>652.1218</ele>
        <time>2022-05-20T07:51:41Z</time>
      </trkpt>
      <trkpt lon="13.4759448005" lat="42.7850027997">
        <ele>652.7509</ele>
        <time>2022-05-20T07:51:42Z</time>
      </trkpt>
      <trkpt lon="13.4758906997" lat="42.7849220001">
        <ele>653.4065</ele>
        <time>2022-05-20T07:51:46Z</time>
      </trkpt>
      <trkpt lon="13.4758743997" lat="42.7848703996">
        <ele>654.1136</ele>
        <time>2022-05-20T07:51:49Z</time>
      </trkpt>
      <trkpt lon="13.4758957251" lat="42.7848408052">
        <ele>653.6911</ele>
        <time>2022-05-20T07:51:51Z</time>
      </trkpt>
      <trkpt lon="13.4759086995" lat="42.7848228">
        <ele>653.5618</ele>
        <time>2022-05-20T07:51:52Z</time>
      </trkpt>
      <trkpt lon="13.4760078996" lat="42.7847897">
        <ele>653.6742</ele>
        <time>2022-05-20T07:51:55Z</time>
      </trkpt>
      <trkpt lon="13.4762080995" lat="42.7847816998">
        <ele>655.0954</ele>
        <time>2022-05-20T07:51:59Z</time>
      </trkpt>
      <trkpt lon="13.4765893001" lat="42.7847930997">
        <ele>656.4515</ele>
        <time>2022-05-20T07:52:06Z</time>
      </trkpt>
      <trkpt lon="13.4767460492" lat="42.7847946864">
        <ele>656.8333</ele>
        <time>2022-05-20T07:52:09Z</time>
      </trkpt>
      <trkpt lon="13.4770340998" lat="42.7847975998">
        <ele>657.4775</ele>
        <time>2022-05-20T07:52:15Z</time>
      </trkpt>
      <trkpt lon="13.4771332999" lat="42.7847936">
        <ele>657.4825</ele>
        <time>2022-05-20T07:52:17Z</time>
      </trkpt>
      <trkpt lon="13.4772361004" lat="42.7847697996">
        <ele>657.5218</ele>
        <time>2022-05-20T07:52:19Z</time>
      </trkpt>
      <trkpt lon="13.4772992002" lat="42.7847063004">
        <ele>658.3041</ele>
        <time>2022-05-20T07:52:22Z</time>
      </trkpt>
      <trkpt lon="13.4773208003" lat="42.7846322004">
        <ele>657.603</ele>
        <time>2022-05-20T07:52:24Z</time>
      </trkpt>
      <trkpt lon="13.4772956003" lat="42.7845792003">
        <ele>658.077</ele>
        <time>2022-05-20T07:52:25Z</time>
      </trkpt>
      <trkpt lon="13.4771631703" lat="42.7843983673">
        <ele>660.5767</ele>
        <time>2022-05-20T07:52:30Z</time>
      </trkpt>
      <trkpt lon="13.4771107756" lat="42.7843268213">
        <ele>662.98</ele>
        <time>2022-05-20T07:52:32Z</time>
      </trkpt>
      <trkpt lon="13.4771007996" lat="42.7843131997">
        <ele>663.0636</ele>
        <time>2022-05-20T07:52:33Z</time>
      </trkpt>
      <trkpt lon="13.4768085998" lat="42.7839664">
        <ele>667.3894</ele>
        <time>2022-05-20T07:52:47Z</time>
      </trkpt>
      <trkpt lon="13.4767393074" lat="42.7838626578">
        <ele>668.5158</ele>
        <time>2022-05-20T07:52:52Z</time>
      </trkpt>
      <trkpt lon="13.4766679998" lat="42.7837559">
        <ele>670.5005</ele>
        <time>2022-05-20T07:52:58Z</time>
      </trkpt>
      <trkpt lon="13.4765651995" lat="42.7834620998">
        <ele>675.4954</ele>
        <time>2022-05-20T07:53:15Z</time>
      </trkpt>
      <trkpt lon="13.4764678003" lat="42.7831179">
        <ele>677.4658</ele>
        <time>2022-05-20T07:53:33Z</time>
      </trkpt>
      <trkpt lon="13.476447" lat="42.7830674004">
        <ele>677.9679</ele>
        <time>2022-05-20T07:53:35Z</time>
      </trkpt>
      <trkpt lon="13.4763758002" lat="42.7828942">
        <ele>678.7923</ele>
        <time>2022-05-20T07:53:44Z</time>
      </trkpt>
      <trkpt lon="13.4761558001" lat="42.7824553997">
        <ele>685.3451</ele>
        <time>2022-05-20T07:54:05Z</time>
      </trkpt>
      <trkpt lon="13.4760362133" lat="42.7821715487">
        <ele>687.9123</ele>
        <time>2022-05-20T07:54:18Z</time>
      </trkpt>
      <trkpt lon="13.4760093826" lat="42.7821078626">
        <ele>688.4389</ele>
        <time>2022-05-20T07:54:20Z</time>
      </trkpt>
      <trkpt lon="13.4759753997" lat="42.7820272002">
        <ele>688.8824</ele>
        <time>2022-05-20T07:54:24Z</time>
      </trkpt>
      <trkpt lon="13.4759339006" lat="42.7818723998">
        <ele>693.3515</ele>
        <time>2022-05-20T07:54:30Z</time>
      </trkpt>
      <trkpt lon="13.4759466002" lat="42.7817666004">
        <ele>695.1324</ele>
        <time>2022-05-20T07:54:35Z</time>
      </trkpt>
      <trkpt lon="13.4760566001" lat="42.7816870998">
        <ele>695.5453</ele>
        <time>2022-05-20T07:54:41Z</time>
      </trkpt>
      <trkpt lon="13.4762500004" lat="42.7815964">
        <ele>696.38</ele>
        <time>2022-05-20T07:54:49Z</time>
      </trkpt>
      <trkpt lon="13.4765093002" lat="42.7814964">
        <ele>697.5224</ele>
        <time>2022-05-20T07:55:00Z</time>
      </trkpt>
      <trkpt lon="13.4767499456" lat="42.7814400002">
        <ele>699.0769</ele>
        <time>2022-05-20T07:55:08Z</time>
      </trkpt>
      <trkpt lon="13.4768852001" lat="42.7814083003">
        <ele>703.1457</ele>
        <time>2022-05-20T07:55:13Z</time>
      </trkpt>
      <trkpt lon="13.4771459" lat="42.7813521997">
        <ele>705.531</ele>
        <time>2022-05-20T07:55:22Z</time>
      </trkpt>
      <trkpt lon="13.4773530292" lat="42.7813017879">
        <ele>706.618</ele>
        <time>2022-05-20T07:55:30Z</time>
      </trkpt>
      <trkpt lon="13.4774489003" lat="42.7812807003">
        <ele>705.9027</ele>
        <time>2022-05-20T07:55:34Z</time>
      </trkpt>
      <trkpt lon="13.4774904003" lat="42.7812463003">
        <ele>706.3138</ele>
        <time>2022-05-20T07:55:36Z</time>
      </trkpt>
      <trkpt lon="13.4774885997" lat="42.7811998997">
        <ele>706.8805</ele>
        <time>2022-05-20T07:55:37Z</time>
      </trkpt>
      <trkpt lon="13.4774470998" lat="42.7811495996">
        <ele>708.6251</ele>
        <time>2022-05-20T07:55:39Z</time>
      </trkpt>
      <trkpt lon="13.4774072003" lat="42.7811396504">
        <ele>710.0644</ele>
        <time>2022-05-20T07:55:40Z</time>
      </trkpt>
      <trkpt lon="13.4773677006" lat="42.7811298003">
        <ele>711.5461</ele>
        <time>2022-05-20T07:55:41Z</time>
      </trkpt>
      <trkpt lon="13.4773225998" lat="42.7811324">
        <ele>712.8162</ele>
        <time>2022-05-20T07:55:44Z</time>
      </trkpt>
      <trkpt lon="13.4772251998" lat="42.7812026004">
        <ele>713.264</ele>
        <time>2022-05-20T07:55:57Z</time>
      </trkpt>
      <trkpt lon="13.4772121486" lat="42.7812072815">
        <ele>713.2508</ele>
        <time>2022-05-20T07:55:58Z</time>
      </trkpt>
      <trkpt lon="13.4771476999" lat="42.7812303997">
        <ele>713.0371</ele>
        <time>2022-05-20T07:56:02Z</time>
      </trkpt>
      <trkpt lon="13.4770509879" lat="42.7812345714">
        <ele>713.8609</ele>
        <time>2022-05-20T07:56:06Z</time>
      </trkpt>
      <trkpt lon="13.4769152997" lat="42.7812394996">
        <ele>714.5537</ele>
        <time>2022-05-20T07:56:10Z</time>
      </trkpt>
      <trkpt lon="13.4763819004" lat="42.7812617001">
        <ele>717.798</ele>
        <time>2022-05-20T07:56:23Z</time>
      </trkpt>
      <trkpt lon="13.4757031" lat="42.7813919004">
        <ele>725.845</ele>
        <time>2022-05-20T07:56:41Z</time>
      </trkpt>
      <trkpt lon="13.4754395997" lat="42.7814677997">
        <ele>726.6392</ele>
        <time>2022-05-20T07:56:50Z</time>
      </trkpt>
      <trkpt lon="13.4752700001" lat="42.7815812002">
        <ele>727.5361</ele>
        <time>2022-05-20T07:56:57Z</time>
      </trkpt>
      <trkpt lon="13.4752466173" lat="42.7816235788">
        <ele>727.5131</ele>
        <time>2022-05-20T07:56:58Z</time>
      </trkpt>
      <trkpt lon="13.4752038998" lat="42.7817010002">
        <ele>727.3824</ele>
        <time>2022-05-20T07:57:01Z</time>
      </trkpt>
      <trkpt lon="13.4751764997" lat="42.7817505996">
        <ele>728.1205</ele>
        <time>2022-05-20T07:57:03Z</time>
      </trkpt>
      <trkpt lon="13.4751367998" lat="42.7819293001">
        <ele>728.6598</ele>
        <time>2022-05-20T07:57:09Z</time>
      </trkpt>
      <trkpt lon="13.4751187995" lat="42.7822350997">
        <ele>729.5224</ele>
        <time>2022-05-20T07:57:19Z</time>
      </trkpt>
      <trkpt lon="13.4751362006" lat="42.7824042002">
        <ele>732.9248</ele>
        <time>2022-05-20T07:57:24Z</time>
      </trkpt>
      <trkpt lon="13.4752107002" lat="42.7828438997">
        <ele>733.9375</ele>
        <time>2022-05-20T07:57:40Z</time>
      </trkpt>
      <trkpt lon="13.4752847002" lat="42.7831072997">
        <ele>733.9365</ele>
        <time>2022-05-20T07:57:50Z</time>
      </trkpt>
      <trkpt lon="13.4753098998" lat="42.7831801">
        <ele>733.2543</ele>
        <time>2022-05-20T07:57:52Z</time>
      </trkpt>
      <trkpt lon="13.4753009004" lat="42.7832356997">
        <ele>733.4986</ele>
        <time>2022-05-20T07:57:54Z</time>
      </trkpt>
      <trkpt lon="13.4752449999" lat="42.7832569">
        <ele>734.5469</ele>
        <time>2022-05-20T07:57:55Z</time>
      </trkpt>
      <trkpt lon="13.4751981001" lat="42.7832370998">
        <ele>736.0584</ele>
        <time>2022-05-20T07:57:56Z</time>
      </trkpt>
      <trkpt lon="13.4751801002" lat="42.7832025998">
        <ele>736.8301</ele>
        <time>2022-05-20T07:57:58Z</time>
      </trkpt>
      <trkpt lon="13.4751679999" lat="42.7831850002">
        <ele>737.2967</ele>
        <time>2022-05-20T07:57:59Z</time>
      </trkpt>
      <trkpt lon="13.4751549996" lat="42.7831570001">
        <ele>737.8828</ele>
        <time>2022-05-20T07:58:03Z</time>
      </trkpt>
      <trkpt lon="13.4751460005" lat="42.7831310003">
        <ele>738.1486</ele>
        <time>2022-05-20T07:58:07Z</time>
      </trkpt>
      <trkpt lon="13.475136" lat="42.7831060002">
        <ele>738.3498</ele>
        <time>2022-05-20T07:58:09Z</time>
      </trkpt>
      <trkpt lon="13.4751279997" lat="42.7830809997">
        <ele>738.5018</ele>
        <time>2022-05-20T07:58:11Z</time>
      </trkpt>
      <trkpt lon="13.4751219995" lat="42.7830550002">
        <ele>738.5768</ele>
        <time>2022-05-20T07:58:13Z</time>
      </trkpt>
      <trkpt lon="13.4750650004" lat="42.7829219999">
        <ele>739.1303</ele>
        <time>2022-05-20T07:58:19Z</time>
      </trkpt>
      <trkpt lon="13.4750530001" lat="42.7828959997">
        <ele>739.1669</ele>
        <time>2022-05-20T07:58:20Z</time>
      </trkpt>
      <trkpt lon="13.4750409996" lat="42.782871">
        <ele>739.2184</ele>
        <time>2022-05-20T07:58:21Z</time>
      </trkpt>
      <trkpt lon="13.4750299995" lat="42.7828429995">
        <ele>739.1965</ele>
        <time>2022-05-20T07:58:22Z</time>
      </trkpt>
      <trkpt lon="13.4750150003" lat="42.7828169999">
        <ele>739.3306</ele>
        <time>2022-05-20T07:58:23Z</time>
      </trkpt>
      <trkpt lon="13.4749620001" lat="42.7827139996">
        <ele>740.5681</ele>
        <time>2022-05-20T07:58:26Z</time>
      </trkpt>
      <trkpt lon="13.4749359995" lat="42.7826619996">
        <ele>741.2962</ele>
        <time>2022-05-20T07:58:28Z</time>
      </trkpt>
      <trkpt lon="13.4749260005" lat="42.7826359999">
        <ele>741.562</ele>
        <time>2022-05-20T07:58:29Z</time>
      </trkpt>
      <trkpt lon="13.4749150002" lat="42.782611">
        <ele>741.9408</ele>
        <time>2022-05-20T07:58:30Z</time>
      </trkpt>
      <trkpt lon="13.4749009999" lat="42.7825850001">
        <ele>742.6325</ele>
        <time>2022-05-20T07:58:31Z</time>
      </trkpt>
      <trkpt lon="13.4748879998" lat="42.782557">
        <ele>743.3084</ele>
        <time>2022-05-20T07:58:32Z</time>
      </trkpt>
      <trkpt lon="13.4748769995" lat="42.7825320001">
        <ele>743.8918</ele>
        <time>2022-05-20T07:58:34Z</time>
      </trkpt>
      <trkpt lon="13.4748090006" lat="42.7823439999">
        <ele>744.7014</ele>
        <time>2022-05-20T07:58:49Z</time>
      </trkpt>
      <trkpt lon="13.4748000006" lat="42.7823169996">
        <ele>744.9321</ele>
        <time>2022-05-20T07:58:51Z</time>
      </trkpt>
      <trkpt lon="13.4747919995" lat="42.7822890003">
        <ele>745.1278</ele>
        <time>2022-05-20T07:58:53Z</time>
      </trkpt>
      <trkpt lon="13.4747869997" lat="42.7822620001">
        <ele>745.2277</ele>
        <time>2022-05-20T07:58:54Z</time>
      </trkpt>
      <trkpt lon="13.4747829999" lat="42.7822349998">
        <ele>745.2948</ele>
        <time>2022-05-20T07:58:56Z</time>
      </trkpt>
      <trkpt lon="13.4747269996" lat="42.7820559998">
        <ele>747.1479</ele>
        <time>2022-05-20T07:59:02Z</time>
      </trkpt>
      <trkpt lon="13.4747189995" lat="42.7820310002">
        <ele>747.6023</ele>
        <time>2022-05-20T07:59:03Z</time>
      </trkpt>
      <trkpt lon="13.4747119996" lat="42.7820049999">
        <ele>747.9999</ele>
        <time>2022-05-20T07:59:04Z</time>
      </trkpt>
      <trkpt lon="13.4747079997" lat="42.781979">
        <ele>748.1984</ele>
        <time>2022-05-20T07:59:05Z</time>
      </trkpt>
      <trkpt lon="13.4747040002" lat="42.7819500004">
        <ele>748.3615</ele>
        <time>2022-05-20T07:59:06Z</time>
      </trkpt>
      <trkpt lon="13.4746969999" lat="42.7818200002">
        <ele>748.4116</ele>
        <time>2022-05-20T07:59:12Z</time>
      </trkpt>
      <trkpt lon="13.4747090001" lat="42.7815810004">
        <ele>749.8228</ele>
        <time>2022-05-20T07:59:22Z</time>
      </trkpt>
      <trkpt lon="13.4747289997" lat="42.7815039997">
        <ele>750.2442</ele>
        <time>2022-05-20T07:59:25Z</time>
      </trkpt>
      <trkpt lon="13.4747370003" lat="42.781451">
        <ele>751.0276</ele>
        <time>2022-05-20T07:59:27Z</time>
      </trkpt>
      <trkpt lon="13.4747559994" lat="42.7814020002">
        <ele>751.3621</ele>
        <time>2022-05-20T07:59:28Z</time>
      </trkpt>
      <trkpt lon="13.4747649994" lat="42.7813790002">
        <ele>751.5164</ele>
        <time>2022-05-20T07:59:29Z</time>
      </trkpt>
      <trkpt lon="13.4747740006" lat="42.7813569997">
        <ele>751.6763</ele>
        <time>2022-05-20T07:59:30Z</time>
      </trkpt>
      <trkpt lon="13.4748529999" lat="42.7812380004">
        <ele>753.3165</ele>
        <time>2022-05-20T07:59:35Z</time>
      </trkpt>
      <trkpt lon="13.4748719994" lat="42.78122">
        <ele>753.9533</ele>
        <time>2022-05-20T07:59:36Z</time>
      </trkpt>
      <trkpt lon="13.4748920001" lat="42.7812029999">
        <ele>754.4633</ele>
        <time>2022-05-20T07:59:37Z</time>
      </trkpt>
      <trkpt lon="13.4749119996" lat="42.7811850001">
        <ele>754.9557</ele>
        <time>2022-05-20T07:59:38Z</time>
      </trkpt>
      <trkpt lon="13.4749320001" lat="42.7811689996">
        <ele>755.2731</ele>
        <time>2022-05-20T07:59:40Z</time>
      </trkpt>
      <trkpt lon="13.4750239998" lat="42.7811049996">
        <ele>755.585</ele>
        <time>2022-05-20T07:59:48Z</time>
      </trkpt>
      <trkpt lon="13.4750810002" lat="42.7810789999">
        <ele>755.5144</ele>
        <time>2022-05-20T07:59:51Z</time>
      </trkpt>
      <trkpt lon="13.4750859403" lat="42.781076365">
        <ele>755.566</ele>
        <time>2022-05-20T07:59:52Z</time>
      </trkpt>
      <trkpt lon="13.4751109995" lat="42.7810630001">
        <ele>755.8279</ele>
        <time>2022-05-20T07:59:53Z</time>
      </trkpt>
      <trkpt lon="13.4751342415" lat="42.7810489148">
        <ele>756.1627</ele>
        <time>2022-05-20T07:59:54Z</time>
      </trkpt>
      <trkpt lon="13.4752486004" lat="42.7809882003">
        <ele>757.3428</ele>
        <time>2022-05-20T07:59:58Z</time>
      </trkpt>
      <trkpt lon="13.4754234999" lat="42.7809205996">
        <ele>757.6531</ele>
        <time>2022-05-20T08:00:03Z</time>
      </trkpt>
      <trkpt lon="13.4755587996" lat="42.7808835997">
        <ele>756.6151</ele>
        <time>2022-05-20T08:00:08Z</time>
      </trkpt>
      <trkpt lon="13.4756309997" lat="42.7808492003">
        <ele>756.7823</ele>
        <time>2022-05-20T08:00:10Z</time>
      </trkpt>
      <trkpt lon="13.4756598001" lat="42.7808120997">
        <ele>757.0886</ele>
        <time>2022-05-20T08:00:11Z</time>
      </trkpt>
      <trkpt lon="13.4756597998" lat="42.7807591996">
        <ele>756.9135</ele>
        <time>2022-05-20T08:00:13Z</time>
      </trkpt>
      <trkpt lon="13.4756327996" lat="42.7807180998">
        <ele>756.3703</ele>
        <time>2022-05-20T08:00:14Z</time>
      </trkpt>
      <trkpt lon="13.4755931001" lat="42.7806929997">
        <ele>756.858</ele>
        <time>2022-05-20T08:00:15Z</time>
      </trkpt>
      <trkpt lon="13.4754102448" lat="42.7806119731">
        <ele>759.5188</ele>
        <time>2022-05-20T08:00:19Z</time>
      </trkpt>
      <trkpt lon="13.4752729257" lat="42.780550857">
        <ele>763.657</ele>
        <time>2022-05-20T08:00:23Z</time>
      </trkpt>
      <trkpt lon="13.4752067844" lat="42.780520558">
        <ele>764.2432</ele>
        <time>2022-05-20T08:00:25Z</time>
      </trkpt>
      <trkpt lon="13.4751295998" lat="42.7804851996">
        <ele>764.4542</ele>
        <time>2022-05-20T08:00:28Z</time>
      </trkpt>
      <trkpt lon="13.4750015003" lat="42.7804559997">
        <ele>766.0772</ele>
        <time>2022-05-20T08:00:34Z</time>
      </trkpt>
      <trkpt lon="13.4748921967" lat="42.7804199756">
        <ele>767.3171</ele>
        <time>2022-05-20T08:00:39Z</time>
      </trkpt>
      <trkpt lon="13.4748660006" lat="42.7804080001">
        <ele>767.4901</ele>
        <time>2022-05-20T08:00:41Z</time>
      </trkpt>
      <trkpt lon="13.4748350014" lat="42.7803889986">
        <ele>767.5794</ele>
        <time>2022-05-20T08:00:42Z</time>
      </trkpt>
      <trkpt lon="13.4747908786" lat="42.7803617411">
        <ele>767.6943</ele>
        <time>2022-05-20T08:00:44Z</time>
      </trkpt>
      <trkpt lon="13.4746443003" lat="42.7802711999">
        <ele>767.4242</ele>
        <time>2022-05-20T08:00:49Z</time>
      </trkpt>
      <trkpt lon="13.4744983996" lat="42.7801953">
        <ele>768.4262</ele>
        <time>2022-05-20T08:00:54Z</time>
      </trkpt>
      <trkpt lon="13.4744135998" lat="42.7801344">
        <ele>769.659</ele>
        <time>2022-05-20T08:00:57Z</time>
      </trkpt>
      <trkpt lon="13.4742855001" lat="42.7800377001">
        <ele>769.9942</ele>
        <time>2022-05-20T08:01:01Z</time>
      </trkpt>
      <trkpt lon="13.4741593003" lat="42.7799648998">
        <ele>773.5324</ele>
        <time>2022-05-20T08:01:05Z</time>
      </trkpt>
      <trkpt lon="13.4740998001" lat="42.7799066997">
        <ele>775.9846</ele>
        <time>2022-05-20T08:01:08Z</time>
      </trkpt>
      <trkpt lon="13.4740060006" lat="42.7797319998">
        <ele>777.319</ele>
        <time>2022-05-20T08:01:19Z</time>
      </trkpt>
      <trkpt lon="13.4739284994" lat="42.7796021999">
        <ele>779.9425</ele>
        <time>2022-05-20T08:01:29Z</time>
      </trkpt>
      <trkpt lon="13.4738852" lat="42.7794791">
        <ele>781.1382</ele>
        <time>2022-05-20T08:01:38Z</time>
      </trkpt>
      <trkpt lon="13.4738671" lat="42.7793414999">
        <ele>780.7942</ele>
        <time>2022-05-20T08:01:48Z</time>
      </trkpt>
      <trkpt lon="13.4738469885" lat="42.7792033804">
        <ele>779.652</ele>
        <time>2022-05-20T08:01:56Z</time>
      </trkpt>
      <trkpt lon="13.4738112006" lat="42.7789576003">
        <ele>778.3548</ele>
        <time>2022-05-20T08:02:05Z</time>
      </trkpt>
      <trkpt lon="13.4737714997" lat="42.7787908002">
        <ele>775.1204</ele>
        <time>2022-05-20T08:02:10Z</time>
      </trkpt>
      <trkpt lon="13.4737265006" lat="42.7786901996">
        <ele>773.6072</ele>
        <time>2022-05-20T08:02:12Z</time>
      </trkpt>
      <trkpt lon="13.4736594182" lat="42.7785839176">
        <ele>773.3699</ele>
        <time>2022-05-20T08:02:14Z</time>
      </trkpt>
      <trkpt lon="13.4735955959" lat="42.7785110892">
        <ele>773.4271</ele>
        <time>2022-05-20T08:02:16Z</time>
      </trkpt>
      <trkpt lon="13.4735159715" lat="42.7784271016">
        <ele>772.7946</ele>
        <time>2022-05-20T08:02:17Z</time>
      </trkpt>
      <trkpt lon="13.4732929002" lat="42.7781879996">
        <ele>771.4639</ele>
        <time>2022-05-20T08:02:23Z</time>
      </trkpt>
      <trkpt lon="13.4731817999" lat="42.7780282996">
        <ele>768.7945</ele>
        <time>2022-05-20T08:02:26Z</time>
      </trkpt>
      <trkpt lon="13.4731637998" lat="42.7779767003">
        <ele>768.013</ele>
        <time>2022-05-20T08:02:28Z</time>
      </trkpt>
      <trkpt lon="13.4731709995" lat="42.7779223996">
        <ele>767.6858</ele>
        <time>2022-05-20T08:02:29Z</time>
      </trkpt>
      <trkpt lon="13.4732214995" lat="42.7777966996">
        <ele>770.0462</ele>
        <time>2022-05-20T08:02:31Z</time>
      </trkpt>
      <trkpt lon="13.4732742002" lat="42.7775971999">
        <ele>771.0698</ele>
        <time>2022-05-20T08:02:35Z</time>
      </trkpt>
      <trkpt lon="13.4733036005" lat="42.7775213999">
        <ele>772.2721</ele>
        <time>2022-05-20T08:02:37Z</time>
      </trkpt>
      <trkpt lon="13.4732984995" lat="42.7774099999">
        <ele>772.9406</ele>
        <time>2022-05-20T08:02:40Z</time>
      </trkpt>
      <trkpt lon="13.4732601995" lat="42.7773117">
        <ele>773.0199</ele>
        <time>2022-05-20T08:02:43Z</time>
      </trkpt>
      <trkpt lon="13.4731236995" lat="42.7770581001">
        <ele>772.1564</ele>
        <time>2022-05-20T08:02:53Z</time>
      </trkpt>
      <trkpt lon="13.4731150129" lat="42.7770412427">
        <ele>772.1029</ele>
        <time>2022-05-20T08:02:54Z</time>
      </trkpt>
      <trkpt lon="13.4730713537" lat="42.7769424147">
        <ele>771.7753</ele>
        <time>2022-05-20T08:02:57Z</time>
      </trkpt>
      <trkpt lon="13.4730613002" lat="42.7769092001">
        <ele>771.4855</ele>
        <time>2022-05-20T08:02:58Z</time>
      </trkpt>
      <trkpt lon="13.4730694003" lat="42.7768682003">
        <ele>771.3051</ele>
        <time>2022-05-20T08:02:59Z</time>
      </trkpt>
      <trkpt lon="13.4730970003" lat="42.7768278001">
        <ele>771.6173</ele>
        <time>2022-05-20T08:03:00Z</time>
      </trkpt>
      <trkpt lon="13.4733926" lat="42.7766421997">
        <ele>776.2334</ele>
        <time>2022-05-20T08:03:06Z</time>
      </trkpt>
      <trkpt lon="13.4735975996" lat="42.7765229">
        <ele>777.8432</ele>
        <time>2022-05-20T08:03:11Z</time>
      </trkpt>
      <trkpt lon="13.4738889" lat="42.7764411996">
        <ele>780.6861</ele>
        <time>2022-05-20T08:03:18Z</time>
      </trkpt>
      <trkpt lon="13.4739986002" lat="42.7763991">
        <ele>781.9903</ele>
        <time>2022-05-20T08:03:21Z</time>
      </trkpt>
      <trkpt lon="13.4741580006" lat="42.7763382998">
        <ele>782.8169</ele>
        <time>2022-05-20T08:03:27Z</time>
      </trkpt>
      <trkpt lon="13.4743986002" lat="42.7762082003">
        <ele>782.1613</ele>
        <time>2022-05-20T08:03:36Z</time>
      </trkpt>
      <trkpt lon="13.4744666996" lat="42.7761932">
        <ele>782.6435</ele>
        <time>2022-05-20T08:03:39Z</time>
      </trkpt>
      <trkpt lon="13.4745277004" lat="42.7762140997">
        <ele>784.393</ele>
        <time>2022-05-20T08:03:41Z</time>
      </trkpt>
      <trkpt lon="13.4745277997" lat="42.7762594998">
        <ele>786.0614</ele>
        <time>2022-05-20T08:03:43Z</time>
      </trkpt>
      <trkpt lon="13.4743045996" lat="42.7763804003">
        <ele>786.796</ele>
        <time>2022-05-20T08:03:53Z</time>
      </trkpt>
      <trkpt lon="13.4742066004" lat="42.7764581996">
        <ele>787.565</ele>
        <time>2022-05-20T08:04:00Z</time>
      </trkpt>
      <trkpt lon="13.4740416" lat="42.7766063999">
        <ele>789.8943</ele>
        <time>2022-05-20T08:04:12Z</time>
      </trkpt>
      <trkpt lon="13.4739664004" lat="42.7766747997">
        <ele>790.6121</ele>
        <time>2022-05-20T08:04:18Z</time>
      </trkpt>
      <trkpt lon="13.4739228004" lat="42.776752">
        <ele>791.5789</ele>
        <time>2022-05-20T08:04:22Z</time>
      </trkpt>
      <trkpt lon="13.4738886002" lat="42.7768546004">
        <ele>792.6269</ele>
        <time>2022-05-20T08:04:27Z</time>
      </trkpt>
      <trkpt lon="13.4738872" lat="42.7769456999">
        <ele>792.9079</ele>
        <time>2022-05-20T08:04:31Z</time>
      </trkpt>
      <trkpt lon="13.4739334995" lat="42.7770628">
        <ele>794.7083</ele>
        <time>2022-05-20T08:04:36Z</time>
      </trkpt>
      <trkpt lon="13.4739889999" lat="42.7771394004">
        <ele>796.0638</ele>
        <time>2022-05-20T08:04:39Z</time>
      </trkpt>
      <trkpt lon="13.4740878004" lat="42.7772462004">
        <ele>798.2999</ele>
        <time>2022-05-20T08:04:45Z</time>
      </trkpt>
      <trkpt lon="13.4741325002" lat="42.7773313999">
        <ele>798.0686</ele>
        <time>2022-05-20T08:04:49Z</time>
      </trkpt>
      <trkpt lon="13.4741593003" lat="42.7773800996">
        <ele>797.7997</ele>
        <time>2022-05-20T08:04:51Z</time>
      </trkpt>
      <trkpt lon="13.4742015995" lat="42.7774070998">
        <ele>798.4031</ele>
        <time>2022-05-20T08:04:53Z</time>
      </trkpt>
      <trkpt lon="13.4742622995" lat="42.7774160998">
        <ele>800.1195</ele>
        <time>2022-05-20T08:04:55Z</time>
      </trkpt>
      <trkpt lon="13.4743183994" lat="42.7773690001">
        <ele>801.9467</ele>
        <time>2022-05-20T08:04:57Z</time>
      </trkpt>
      <trkpt lon="13.4743263994" lat="42.7773192">
        <ele>802.795</ele>
        <time>2022-05-20T08:05:00Z</time>
      </trkpt>
      <trkpt lon="13.4743021995" lat="42.7771654003">
        <ele>803.6654</ele>
        <time>2022-05-20T08:05:10Z</time>
      </trkpt>
      <trkpt lon="13.4743235997" lat="42.7770349004">
        <ele>804.1931</ele>
        <time>2022-05-20T08:05:20Z</time>
      </trkpt>
      <trkpt lon="13.4743866001" lat="42.7769035004">
        <ele>804.5401</ele>
        <time>2022-05-20T08:05:29Z</time>
      </trkpt>
      <trkpt lon="13.4744742002" lat="42.7768189004">
        <ele>805.3361</ele>
        <time>2022-05-20T08:05:34Z</time>
      </trkpt>
      <trkpt lon="13.4745993004" lat="42.7767321002">
        <ele>805.7793</ele>
        <time>2022-05-20T08:05:39Z</time>
      </trkpt>
      <trkpt lon="13.4749785002" lat="42.7765790997">
        <ele>807.9746</ele>
        <time>2022-05-20T08:05:50Z</time>
      </trkpt>
      <trkpt lon="13.4752008997" lat="42.7765296002">
        <ele>808.4643</ele>
        <time>2022-05-20T08:05:55Z</time>
      </trkpt>
      <trkpt lon="13.4754459" lat="42.7764946997">
        <ele>811.1998</ele>
        <time>2022-05-20T08:06:02Z</time>
      </trkpt>
      <trkpt lon="13.4758758994" lat="42.7764352">
        <ele>813.0331</ele>
        <time>2022-05-20T08:06:13Z</time>
      </trkpt>
      <trkpt lon="13.4760070997" lat="42.7764176996">
        <ele>813.0806</ele>
        <time>2022-05-20T08:06:16Z</time>
      </trkpt>
      <trkpt lon="13.4761063002" lat="42.7763938001">
        <ele>812.8256</ele>
        <time>2022-05-20T08:06:19Z</time>
      </trkpt>
      <trkpt lon="13.4761936998" lat="42.7763497995">
        <ele>812.7667</ele>
        <time>2022-05-20T08:06:21Z</time>
      </trkpt>
      <trkpt lon="13.4762554995" lat="42.7763066001">
        <ele>812.5081</ele>
        <time>2022-05-20T08:06:23Z</time>
      </trkpt>
      <trkpt lon="13.4763266996" lat="42.7762271998">
        <ele>812.922</ele>
        <time>2022-05-20T08:06:26Z</time>
      </trkpt>
      <trkpt lon="13.4763731001" lat="42.7761558">
        <ele>814.2518</ele>
        <time>2022-05-20T08:06:28Z</time>
      </trkpt>
      <trkpt lon="13.4763723002" lat="42.7760779998">
        <ele>815.8216</ele>
        <time>2022-05-20T08:06:30Z</time>
      </trkpt>
      <trkpt lon="13.4763373003" lat="42.7760118997">
        <ele>816.3236</ele>
        <time>2022-05-20T08:06:33Z</time>
      </trkpt>
      <trkpt lon="13.476118339" lat="42.7758497919">
        <ele>816.175</ele>
        <time>2022-05-20T08:06:42Z</time>
      </trkpt>
      <trkpt lon="13.4759276169" lat="42.7757085895">
        <ele>818.3032</ele>
        <time>2022-05-20T08:06:50Z</time>
      </trkpt>
      <trkpt lon="13.4758432732" lat="42.7756398495">
        <ele>820.2826</ele>
        <time>2022-05-20T08:06:54Z</time>
      </trkpt>
      <trkpt lon="13.4758106722" lat="42.7756157165">
        <ele>820.9602</ele>
        <time>2022-05-20T08:06:56Z</time>
      </trkpt>
      <trkpt lon="13.4757321793" lat="42.7755462231">
        <ele>822.0573</ele>
        <time>2022-05-20T08:07:00Z</time>
      </trkpt>
      <trkpt lon="13.4756889358" lat="42.775478357">
        <ele>822.6612</ele>
        <time>2022-05-20T08:07:04Z</time>
      </trkpt>
      <trkpt lon="13.4756765003" lat="42.7754096998">
        <ele>824.0135</ele>
        <time>2022-05-20T08:07:08Z</time>
      </trkpt>
      <trkpt lon="13.4756750528" lat="42.7753913198">
        <ele>824.4201</ele>
        <time>2022-05-20T08:07:09Z</time>
      </trkpt>
      <trkpt lon="13.475667957" lat="42.7753011707">
        <ele>825.954</ele>
        <time>2022-05-20T08:07:15Z</time>
      </trkpt>
      <trkpt lon="13.475665" lat="42.7752636004">
        <ele>826.3947</ele>
        <time>2022-05-20T08:07:18Z</time>
      </trkpt>
      <trkpt lon="13.4756594997" lat="42.7750251003">
        <ele>828.4447</ele>
        <time>2022-05-20T08:07:33Z</time>
      </trkpt>
      <trkpt lon="13.4756878006" lat="42.7744205001">
        <ele>836.7727</ele>
        <time>2022-05-20T08:08:12Z</time>
      </trkpt>
      <trkpt lon="13.4757104004" lat="42.7742801002">
        <ele>837.768</ele>
        <time>2022-05-20T08:08:20Z</time>
      </trkpt>
      <trkpt lon="13.4757329826" lat="42.774236342">
        <ele>839.2514</ele>
        <time>2022-05-20T08:08:23Z</time>
      </trkpt>
      <trkpt lon="13.475765" lat="42.7741743001">
        <ele>840.466</ele>
        <time>2022-05-20T08:08:26Z</time>
      </trkpt>
      <trkpt lon="13.4758693995" lat="42.7740418998">
        <ele>841.8679</ele>
        <time>2022-05-20T08:08:36Z</time>
      </trkpt>
      <trkpt lon="13.4761080005" lat="42.7738754998">
        <ele>844.6441</ele>
        <time>2022-05-20T08:08:52Z</time>
      </trkpt>
      <trkpt lon="13.4761873003" lat="42.7737728001">
        <ele>845.0648</ele>
        <time>2022-05-20T08:09:00Z</time>
      </trkpt>
      <trkpt lon="13.4762042003" lat="42.7736789999">
        <ele>845.4259</ele>
        <time>2022-05-20T08:09:05Z</time>
      </trkpt>
      <trkpt lon="13.4761803164" lat="42.7736380371">
        <ele>845.122</ele>
        <time>2022-05-20T08:09:07Z</time>
      </trkpt>
      <trkpt lon="13.476119582" lat="42.7735338744">
        <ele>845.7469</ele>
        <time>2022-05-20T08:09:11Z</time>
      </trkpt>
      <trkpt lon="13.4760732784" lat="42.7734402524">
        <ele>846.4987</ele>
        <time>2022-05-20T08:09:14Z</time>
      </trkpt>
      <trkpt lon="13.4760607998" lat="42.7733560003">
        <ele>847.7915</ele>
        <time>2022-05-20T08:09:17Z</time>
      </trkpt>
      <trkpt lon="13.4760536552" lat="42.7732992769">
        <ele>848.4284</ele>
        <time>2022-05-20T08:09:19Z</time>
      </trkpt>
      <trkpt lon="13.4760413006" lat="42.7732011999">
        <ele>852.7376</ele>
        <time>2022-05-20T08:09:22Z</time>
      </trkpt>
      <trkpt lon="13.4758460995" lat="42.7731035004">
        <ele>852.69</ele>
        <time>2022-05-20T08:09:31Z</time>
      </trkpt>
      <trkpt lon="13.4757717115" lat="42.7730740339">
        <ele>851.6835</ele>
        <time>2022-05-20T08:09:35Z</time>
      </trkpt>
      <trkpt lon="13.4756544848" lat="42.7730275995">
        <ele>851.4831</ele>
        <time>2022-05-20T08:09:39Z</time>
      </trkpt>
      <trkpt lon="13.475541465" lat="42.7729828302">
        <ele>852.3789</ele>
        <time>2022-05-20T08:09:42Z</time>
      </trkpt>
      <trkpt lon="13.4754653995" lat="42.7729527">
        <ele>852.9342</ele>
        <time>2022-05-20T08:09:44Z</time>
      </trkpt>
      <trkpt lon="13.4749451994" lat="42.7727230998">
        <ele>860.5777</ele>
        <time>2022-05-20T08:09:57Z</time>
      </trkpt>
      <trkpt lon="13.4747708425" lat="42.7726103069">
        <ele>861.6906</ele>
        <time>2022-05-20T08:10:02Z</time>
      </trkpt>
      <trkpt lon="13.4747246999" lat="42.7725562996">
        <ele>862.1676</ele>
        <time>2022-05-20T08:10:04Z</time>
      </trkpt>
      <trkpt lon="13.4747285554" lat="42.7724802426">
        <ele>863.6393</ele>
        <time>2022-05-20T08:10:07Z</time>
      </trkpt>
      <trkpt lon="13.4747286997" lat="42.7724773998">
        <ele>863.6823</ele>
        <time>2022-05-20T08:10:08Z</time>
      </trkpt>
      <trkpt lon="13.4747811999" lat="42.7722900004">
        <ele>865.3907</ele>
        <time>2022-05-20T08:10:17Z</time>
      </trkpt>
      <trkpt lon="13.4750120004" lat="42.7718535004">
        <ele>877.553</ele>
        <time>2022-05-20T08:10:40Z</time>
      </trkpt>
      <trkpt lon="13.4750406997" lat="42.7717027998">
        <ele>878.0154</ele>
        <time>2022-05-20T08:10:48Z</time>
      </trkpt>
      <trkpt lon="13.4750114005" lat="42.7715605002">
        <ele>876.5752</ele>
        <time>2022-05-20T08:10:56Z</time>
      </trkpt>
      <trkpt lon="13.4750058995" lat="42.7714746002">
        <ele>876.9408</ele>
        <time>2022-05-20T08:11:00Z</time>
      </trkpt>
      <trkpt lon="13.4750245994" lat="42.7714249002">
        <ele>878.4839</ele>
        <time>2022-05-20T08:11:02Z</time>
      </trkpt>
      <trkpt lon="13.4751003004" lat="42.7714030001">
        <ele>882.154</ele>
        <time>2022-05-20T08:11:04Z</time>
      </trkpt>
      <trkpt lon="13.4751729" lat="42.7714398004">
        <ele>884.0031</ele>
        <time>2022-05-20T08:11:07Z</time>
      </trkpt>
      <trkpt lon="13.4751645998" lat="42.7715292997">
        <ele>884.0608</ele>
        <time>2022-05-20T08:11:12Z</time>
      </trkpt>
      <trkpt lon="13.4751336995" lat="42.7716924001">
        <ele>882.819</ele>
        <time>2022-05-20T08:11:22Z</time>
      </trkpt>
      <trkpt lon="13.4751761003" lat="42.7718845999">
        <ele>885.9682</ele>
        <time>2022-05-20T08:11:34Z</time>
      </trkpt>
      <trkpt lon="13.4751461996" lat="42.7720362004">
        <ele>884.6553</ele>
        <time>2022-05-20T08:11:42Z</time>
      </trkpt>
      <trkpt lon="13.4751917998" lat="42.7722239996">
        <ele>884.4829</ele>
        <time>2022-05-20T08:11:49Z</time>
      </trkpt>
      <trkpt lon="13.4752874004" lat="42.7723088004">
        <ele>885.6827</ele>
        <time>2022-05-20T08:11:52Z</time>
      </trkpt>
      <trkpt lon="13.4755746999" lat="42.7724615998">
        <ele>888.7385</ele>
        <time>2022-05-20T08:11:59Z</time>
      </trkpt>
      <trkpt lon="13.4760700996" lat="42.7725524004">
        <ele>895.0374</ele>
        <time>2022-05-20T08:12:11Z</time>
      </trkpt>
      <trkpt lon="13.4767337998" lat="42.7727313999">
        <ele>903.5587</ele>
        <time>2022-05-20T08:12:29Z</time>
      </trkpt>
      <trkpt lon="13.4772947001" lat="42.7728860003">
        <ele>908.5987</ele>
        <time>2022-05-20T08:12:47Z</time>
      </trkpt>
      <trkpt lon="13.4774191997" lat="42.7729229996">
        <ele>909.0254</ele>
        <time>2022-05-20T08:12:52Z</time>
      </trkpt>
      <trkpt lon="13.4775075" lat="42.7729323001">
        <ele>909.3172</ele>
        <time>2022-05-20T08:12:55Z</time>
      </trkpt>
      <trkpt lon="13.4776709003" lat="42.7729071996">
        <ele>910.9733</ele>
        <time>2022-05-20T08:13:01Z</time>
      </trkpt>
      <trkpt lon="13.4779286" lat="42.7728388003">
        <ele>913.1284</ele>
        <time>2022-05-20T08:13:10Z</time>
      </trkpt>
      <trkpt lon="13.4780345002" lat="42.7727771996">
        <ele>914.4896</ele>
        <time>2022-05-20T08:13:14Z</time>
      </trkpt>
      <trkpt lon="13.4780711996" lat="42.7726963002">
        <ele>915.1137</ele>
        <time>2022-05-20T08:13:17Z</time>
      </trkpt>
      <trkpt lon="13.4780813002" lat="42.7725750003">
        <ele>914.0928</ele>
        <time>2022-05-20T08:13:22Z</time>
      </trkpt>
      <trkpt lon="13.4780344998" lat="42.7724841002">
        <ele>913.7214</ele>
        <time>2022-05-20T08:13:26Z</time>
      </trkpt>
      <trkpt lon="13.4779583999" lat="42.7724009">
        <ele>913.8767</ele>
        <time>2022-05-20T08:13:29Z</time>
      </trkpt>
      <trkpt lon="13.4778193003" lat="42.7722872999">
        <ele>914.1606</ele>
        <time>2022-05-20T08:13:34Z</time>
      </trkpt>
      <trkpt lon="13.4776573968" lat="42.7721969801">
        <ele>915.0322</ele>
        <time>2022-05-20T08:13:38Z</time>
      </trkpt>
      <trkpt lon="13.477550865" lat="42.7721375494">
        <ele>916.1673</ele>
        <time>2022-05-20T08:13:40Z</time>
      </trkpt>
      <trkpt lon="13.4774796333" lat="42.7720978115">
        <ele>916.8138</ele>
        <time>2022-05-20T08:13:42Z</time>
      </trkpt>
      <trkpt lon="13.4774442996" lat="42.7720781002">
        <ele>917.1328</ele>
        <time>2022-05-20T08:13:43Z</time>
      </trkpt>
      <trkpt lon="13.4772582428" lat="42.7719473261">
        <ele>919.4959</ele>
        <time>2022-05-20T08:13:50Z</time>
      </trkpt>
      <trkpt lon="13.4772180003" lat="42.7719140003">
        <ele>919.8055</ele>
        <time>2022-05-20T08:13:52Z</time>
      </trkpt>
      <trkpt lon="13.4771459994" lat="42.7718510004">
        <ele>920.4937</ele>
        <time>2022-05-20T08:13:56Z</time>
      </trkpt>
      <trkpt lon="13.477077" lat="42.7717799997">
        <ele>920.8277</ele>
        <time>2022-05-20T08:13:59Z</time>
      </trkpt>
      <trkpt lon="13.4770070001" lat="42.7717000003">
        <ele>921.1937</ele>
        <time>2022-05-20T08:14:03Z</time>
      </trkpt>
      <trkpt lon="13.4769290002" lat="42.7716239999">
        <ele>921.7634</ele>
        <time>2022-05-20T08:14:06Z</time>
      </trkpt>
      <trkpt lon="13.4768540004" lat="42.7715409999">
        <ele>921.4812</ele>
        <time>2022-05-20T08:14:10Z</time>
      </trkpt>
      <trkpt lon="13.4767859998" lat="42.7714580003">
        <ele>921.9405</ele>
        <time>2022-05-20T08:14:13Z</time>
      </trkpt>
      <trkpt lon="13.4767120002" lat="42.7713759997">
        <ele>922.1729</ele>
        <time>2022-05-20T08:14:16Z</time>
      </trkpt>
      <trkpt lon="13.4766735001" lat="42.7713339996">
        <ele>922.2702</ele>
        <time>2022-05-20T08:14:17Z</time>
      </trkpt>
      <trkpt lon="13.476365449" lat="42.7709893736">
        <ele>924.4717</ele>
        <time>2022-05-20T08:14:30Z</time>
      </trkpt>
      <trkpt lon="13.4763045996" lat="42.7709213004">
        <ele>925.3872</ele>
        <time>2022-05-20T08:14:32Z</time>
      </trkpt>
      <trkpt lon="13.4762433005" lat="42.7707955996">
        <ele>926.242</ele>
        <time>2022-05-20T08:14:36Z</time>
      </trkpt>
      <trkpt lon="13.4762198004" lat="42.7707134998">
        <ele>926.5296</ele>
        <time>2022-05-20T08:14:39Z</time>
      </trkpt>
      <trkpt lon="13.4762089995" lat="42.7705889997">
        <ele>927.591</ele>
        <time>2022-05-20T08:14:43Z</time>
      </trkpt>
      <trkpt lon="13.476209" lat="42.7702964">
        <ele>930</ele>
        <time>2022-05-20T08:14:53Z</time>
      </trkpt>
      <trkpt lon="13.4762486999" lat="42.7699072004">
        <ele>932.8206</ele>
        <time>2022-05-20T08:15:08Z</time>
      </trkpt>
      <trkpt lon="13.4762558996" lat="42.7697483004">
        <ele>934.3611</ele>
        <time>2022-05-20T08:15:13Z</time>
      </trkpt>
      <trkpt lon="13.4762414998" lat="42.7695457997">
        <ele>936.6166</ele>
        <time>2022-05-20T08:15:21Z</time>
      </trkpt>
      <trkpt lon="13.47621563" lat="42.7694882328">
        <ele>937.2672</ele>
        <time>2022-05-20T08:15:23Z</time>
      </trkpt>
      <trkpt lon="13.4761494561" lat="42.7693681935">
        <ele>938.6754</ele>
        <time>2022-05-20T08:15:29Z</time>
      </trkpt>
      <trkpt lon="13.4759987001" lat="42.7691522">
        <ele>940.9273</ele>
        <time>2022-05-20T08:15:39Z</time>
      </trkpt>
      <trkpt lon="13.4759240995" lat="42.7690188998">
        <ele>941.0471</ele>
        <time>2022-05-20T08:15:45Z</time>
      </trkpt>
      <trkpt lon="13.4758969996" lat="42.7689049997">
        <ele>941.1614</ele>
        <time>2022-05-20T08:15:49Z</time>
      </trkpt>
      <trkpt lon="13.475928127" lat="42.7684255007">
        <ele>940.6403</ele>
        <time>2022-05-20T08:16:07Z</time>
      </trkpt>
      <trkpt lon="13.4759331001" lat="42.7683489002">
        <ele>940.5704</ele>
        <time>2022-05-20T08:16:09Z</time>
      </trkpt>
      <trkpt lon="13.4759310692" lat="42.7683100545">
        <ele>940.583</ele>
        <time>2022-05-20T08:16:10Z</time>
      </trkpt>
      <trkpt lon="13.4759340005" lat="42.7681949998">
        <ele>940.7668</ele>
        <time>2022-05-20T08:16:14Z</time>
      </trkpt>
      <trkpt lon="13.4759389997" lat="42.7680799996">
        <ele>940.9844</ele>
        <time>2022-05-20T08:16:17Z</time>
      </trkpt>
      <trkpt lon="13.4759280001" lat="42.7679589998">
        <ele>940.9473</ele>
        <time>2022-05-20T08:16:21Z</time>
      </trkpt>
      <trkpt lon="13.4759040003" lat="42.767829">
        <ele>940.8294</ele>
        <time>2022-05-20T08:16:24Z</time>
      </trkpt>
      <trkpt lon="13.4758779998" lat="42.7676989997">
        <ele>940.9241</ele>
        <time>2022-05-20T08:16:28Z</time>
      </trkpt>
      <trkpt lon="13.4758540005" lat="42.7675640002">
        <ele>941.9996</ele>
        <time>2022-05-20T08:16:32Z</time>
      </trkpt>
      <trkpt lon="13.4758350005" lat="42.7674269996">
        <ele>942.7348</ele>
        <time>2022-05-20T08:16:36Z</time>
      </trkpt>
      <trkpt lon="13.4758323798" lat="42.7674074217">
        <ele>942.814</ele>
        <time>2022-05-20T08:16:37Z</time>
      </trkpt>
      <trkpt lon="13.4758103005" lat="42.7671267003">
        <ele>945.514</ele>
        <time>2022-05-20T08:16:46Z</time>
      </trkpt>
      <trkpt lon="13.4757509004" lat="42.7669535004">
        <ele>947.4814</ele>
        <time>2022-05-20T08:16:52Z</time>
      </trkpt>
      <trkpt lon="13.4757213481" lat="42.7669004238">
        <ele>947.9475</ele>
        <time>2022-05-20T08:16:54Z</time>
      </trkpt>
      <trkpt lon="13.475708" lat="42.7668649997">
        <ele>948.0818</ele>
        <time>2022-05-20T08:16:55Z</time>
      </trkpt>
      <trkpt lon="13.4756400006" lat="42.7667409996">
        <ele>949.0595</ele>
        <time>2022-05-20T08:17:00Z</time>
      </trkpt>
      <trkpt lon="13.4756011169" lat="42.766684483">
        <ele>949.4703</ele>
        <time>2022-05-20T08:17:03Z</time>
      </trkpt>
      <trkpt lon="13.4755489" lat="42.7665907001">
        <ele>951.4246</ele>
        <time>2022-05-20T08:17:07Z</time>
      </trkpt>
      <trkpt lon="13.475503147" lat="42.7663996155">
        <ele>953.1348</ele>
        <time>2022-05-20T08:17:14Z</time>
      </trkpt>
      <trkpt lon="13.4754742213" lat="42.7662788065">
        <ele>953.993</ele>
        <time>2022-05-20T08:17:19Z</time>
      </trkpt>
      <trkpt lon="13.4754503" lat="42.7661789003">
        <ele>954.7439</ele>
        <time>2022-05-20T08:17:23Z</time>
      </trkpt>
      <trkpt lon="13.4754047003" lat="42.7657301004">
        <ele>958.3897</ele>
        <time>2022-05-20T08:17:42Z</time>
      </trkpt>
      <trkpt lon="13.4753704" lat="42.7654746">
        <ele>962.9373</ele>
        <time>2022-05-20T08:17:53Z</time>
      </trkpt>
      <trkpt lon="13.4753127003" lat="42.7653143999">
        <ele>965.0356</ele>
        <time>2022-05-20T08:18:00Z</time>
      </trkpt>
      <trkpt lon="13.4751563005" lat="42.7650567998">
        <ele>965.9975</ele>
        <time>2022-05-20T08:18:12Z</time>
      </trkpt>
      <trkpt lon="13.4750241001" lat="42.7648933002">
        <ele>965.3663</ele>
        <time>2022-05-20T08:18:20Z</time>
      </trkpt>
      <trkpt lon="13.4749989006" lat="42.7648310997">
        <ele>965.8001</ele>
        <time>2022-05-20T08:18:23Z</time>
      </trkpt>
      <trkpt lon="13.4750168994" lat="42.7647795">
        <ele>967.3257</ele>
        <time>2022-05-20T08:18:25Z</time>
      </trkpt>
      <trkpt lon="13.4750696" lat="42.7647509998">
        <ele>968.9701</ele>
        <time>2022-05-20T08:18:27Z</time>
      </trkpt>
      <trkpt lon="13.4751539997" lat="42.7647277999">
        <ele>971.2441</ele>
        <time>2022-05-20T08:18:30Z</time>
      </trkpt>
      <trkpt lon="13.4752423002" lat="42.7647237996">
        <ele>973.4252</ele>
        <time>2022-05-20T08:18:36Z</time>
      </trkpt>
      <trkpt lon="13.4753505995" lat="42.7647596003">
        <ele>975.5759</ele>
        <time>2022-05-20T08:18:51Z</time>
      </trkpt>
      <trkpt lon="13.4754137" lat="42.7648416999">
        <ele>975.5716</ele>
        <time>2022-05-20T08:19:13Z</time>
      </trkpt>
      <trkpt lon="13.4755799702" lat="42.7650801347">
        <ele>975.9797</ele>
        <time>2022-05-20T08:19:46Z</time>
      </trkpt>
      <trkpt lon="13.4757895005" lat="42.7653806003">
        <ele>976.5744</ele>
        <time>2022-05-20T08:20:09Z</time>
      </trkpt>
      <trkpt lon="13.4761314995" lat="42.7658584996">
        <ele>979.7122</ele>
        <time>2022-05-20T08:20:36Z</time>
      </trkpt>
      <trkpt lon="13.4762000004" lat="42.7659088003">
        <ele>980.4227</ele>
        <time>2022-05-20T08:20:38Z</time>
      </trkpt>
      <trkpt lon="13.4762558996" lat="42.7659379998">
        <ele>980.4849</ele>
        <time>2022-05-20T08:20:40Z</time>
      </trkpt>
      <trkpt lon="13.4763938407" lat="42.7659535782">
        <ele>981.4191</ele>
        <time>2022-05-20T08:20:43Z</time>
      </trkpt>
      <trkpt lon="13.4764741003" lat="42.7659486001">
        <ele>981.7653</ele>
        <time>2022-05-20T08:20:45Z</time>
      </trkpt>
      <trkpt lon="13.4765643" lat="42.7659141001">
        <ele>981.9231</ele>
        <time>2022-05-20T08:20:48Z</time>
      </trkpt>
      <trkpt lon="13.4766076005" lat="42.7658532003">
        <ele>981.443</ele>
        <time>2022-05-20T08:20:50Z</time>
      </trkpt>
      <trkpt lon="13.4766346004" lat="42.7657354005">
        <ele>981.6298</ele>
        <time>2022-05-20T08:20:54Z</time>
      </trkpt>
      <trkpt lon="13.4766383006" lat="42.7655526998">
        <ele>982.4235</ele>
        <time>2022-05-20T08:21:00Z</time>
      </trkpt>
      <trkpt lon="13.4765985998" lat="42.7650218">
        <ele>986.318</ele>
        <time>2022-05-20T08:21:15Z</time>
      </trkpt>
      <trkpt lon="13.4765444995" lat="42.7646298003">
        <ele>990.0869</ele>
        <time>2022-05-20T08:21:27Z</time>
      </trkpt>
      <trkpt lon="13.4765192001" lat="42.7643517998">
        <ele>991.0585</ele>
        <time>2022-05-20T08:21:35Z</time>
      </trkpt>
      <trkpt lon="13.4764777006" lat="42.7641942003">
        <ele>991.5961</ele>
        <time>2022-05-20T08:21:41Z</time>
      </trkpt>
      <trkpt lon="13.4762559001" lat="42.7637838">
        <ele>995.5347</ele>
        <time>2022-05-20T08:21:55Z</time>
      </trkpt>
      <trkpt lon="13.4761639002" lat="42.7636168996">
        <ele>997.5028</ele>
        <time>2022-05-20T08:22:02Z</time>
      </trkpt>
      <trkpt lon="13.4761134006" lat="42.7634964996">
        <ele>998.8621</ele>
        <time>2022-05-20T08:22:06Z</time>
      </trkpt>
      <trkpt lon="13.4760652247" lat="42.7633224487">
        <ele>1000.8162</ele>
        <time>2022-05-20T08:22:13Z</time>
      </trkpt>
      <trkpt lon="13.4760345397" lat="42.7632115914">
        <ele>1001.6911</ele>
        <time>2022-05-20T08:22:17Z</time>
      </trkpt>
      <trkpt lon="13.4760106002" lat="42.7631251001">
        <ele>1002.4966</ele>
        <time>2022-05-20T08:22:21Z</time>
      </trkpt>
      <trkpt lon="13.4758555003" lat="42.7627265002">
        <ele>1005.0613</ele>
        <time>2022-05-20T08:22:38Z</time>
      </trkpt>
      <trkpt lon="13.4757898803" lat="42.7624649447">
        <ele>1004.9133</ele>
        <time>2022-05-20T08:22:48Z</time>
      </trkpt>
      <trkpt lon="13.4757700998" lat="42.7623861001">
        <ele>1005.4019</ele>
        <time>2022-05-20T08:22:51Z</time>
      </trkpt>
      <trkpt lon="13.4756969996" lat="42.7621732001">
        <ele>1006.6328</ele>
        <time>2022-05-20T08:22:58Z</time>
      </trkpt>
      <trkpt lon="13.4756194001" lat="42.7620519997">
        <ele>1007.1295</ele>
        <time>2022-05-20T08:23:03Z</time>
      </trkpt>
      <trkpt lon="13.4755175998" lat="42.7619536996">
        <ele>1008.4227</ele>
        <time>2022-05-20T08:23:07Z</time>
      </trkpt>
      <trkpt lon="13.4754031003" lat="42.7618901003">
        <ele>1009.4656</ele>
        <time>2022-05-20T08:23:10Z</time>
      </trkpt>
      <trkpt lon="13.4753741581" lat="42.7618778848">
        <ele>1009.7766</ele>
        <time>2022-05-20T08:23:11Z</time>
      </trkpt>
      <trkpt lon="13.4751941196" lat="42.7618018985">
        <ele>1011.2633</ele>
        <time>2022-05-20T08:23:17Z</time>
      </trkpt>
      <trkpt lon="13.4751048003" lat="42.7617642001">
        <ele>1011.565</ele>
        <time>2022-05-20T08:23:20Z</time>
      </trkpt>
      <trkpt lon="13.4748919998" lat="42.7616517003">
        <ele>1012.6799</ele>
        <time>2022-05-20T08:23:28Z</time>
      </trkpt>
      <trkpt lon="13.4746735" lat="42.7615792002">
        <ele>1014.5154</ele>
        <time>2022-05-20T08:23:35Z</time>
      </trkpt>
      <trkpt lon="13.4745714004" lat="42.7615299998">
        <ele>1014.7072</ele>
        <time>2022-05-20T08:23:38Z</time>
      </trkpt>
      <trkpt lon="13.4745073998" lat="42.7614992003">
        <ele>1014.0659</ele>
        <time>2022-05-20T08:23:40Z</time>
      </trkpt>
      <trkpt lon="13.4743978997" lat="42.7613829996">
        <ele>1014.082</ele>
        <time>2022-05-20T08:23:44Z</time>
      </trkpt>
      <trkpt lon="13.4741902" lat="42.7610928">
        <ele>1015.4017</ele>
        <time>2022-05-20T08:23:53Z</time>
      </trkpt>
      <trkpt lon="13.4741687997" lat="42.7610681999">
        <ele>1015.6455</ele>
        <time>2022-05-20T08:23:54Z</time>
      </trkpt>
      <trkpt lon="13.4739782004" lat="42.7609089997">
        <ele>1017.768</ele>
        <time>2022-05-20T08:23:59Z</time>
      </trkpt>
      <trkpt lon="13.4738082996" lat="42.7607717002">
        <ele>1021.0142</ele>
        <time>2022-05-20T08:24:05Z</time>
      </trkpt>
      <trkpt lon="13.4736419998" lat="42.7606576999">
        <ele>1022.2827</ele>
        <time>2022-05-20T08:24:10Z</time>
      </trkpt>
      <trkpt lon="13.4736305672" lat="42.7606491294">
        <ele>1022.3989</ele>
        <time>2022-05-20T08:24:11Z</time>
      </trkpt>
      <trkpt lon="13.4735617117" lat="42.7605975112">
        <ele>1023.5892</ele>
        <time>2022-05-20T08:24:14Z</time>
      </trkpt>
      <trkpt lon="13.4731441518" lat="42.7602844788">
        <ele>1027.6002</ele>
        <time>2022-05-20T08:24:35Z</time>
      </trkpt>
      <trkpt lon="13.4728821999" lat="42.7600881">
        <ele>1028.8312</ele>
        <time>2022-05-20T08:24:47Z</time>
      </trkpt>
      <trkpt lon="13.4723888447" lat="42.7598329587">
        <ele>1034.3106</ele>
        <time>2022-05-20T08:25:07Z</time>
      </trkpt>
      <trkpt lon="13.4723556554" lat="42.7598157951">
        <ele>1034.6902</ele>
        <time>2022-05-20T08:25:08Z</time>
      </trkpt>
      <trkpt lon="13.4723148612" lat="42.7597974376">
        <ele>1035.1241</ele>
        <time>2022-05-20T08:25:10Z</time>
      </trkpt>
      <trkpt lon="13.4720160998" lat="42.7597486996">
        <ele>1034.5696</ele>
        <time>2022-05-20T08:25:19Z</time>
      </trkpt>
      <trkpt lon="13.4717727995" lat="42.7597451004">
        <ele>1035.0808</ele>
        <time>2022-05-20T08:25:25Z</time>
      </trkpt>
      <trkpt lon="13.4715915996" lat="42.7597487999">
        <ele>1035.9398</ele>
        <time>2022-05-20T08:25:29Z</time>
      </trkpt>
      <trkpt lon="13.4714481004" lat="42.7597646003">
        <ele>1035.7034</ele>
        <time>2022-05-20T08:25:32Z</time>
      </trkpt>
      <trkpt lon="13.4713649996" lat="42.7597754003">
        <ele>1035.5472</ele>
        <time>2022-05-20T08:25:34Z</time>
      </trkpt>
      <trkpt lon="13.4713032995" lat="42.7597724">
        <ele>1035.8786</ele>
        <time>2022-05-20T08:25:35Z</time>
      </trkpt>
      <trkpt lon="13.4712603998" lat="42.7597291002">
        <ele>1036.4759</ele>
        <time>2022-05-20T08:25:37Z</time>
      </trkpt>
      <trkpt lon="13.4712637002" lat="42.7596656998">
        <ele>1037.0838</ele>
        <time>2022-05-20T08:25:38Z</time>
      </trkpt>
      <trkpt lon="13.4712772811" lat="42.7595342924">
        <ele>1037.6497</ele>
        <time>2022-05-20T08:25:43Z</time>
      </trkpt>
      <trkpt lon="13.4713057004" lat="42.7592592996">
        <ele>1038.1012</ele>
        <time>2022-05-20T08:25:52Z</time>
      </trkpt>
      <trkpt lon="13.4713018004" lat="42.7586941001">
        <ele>1037.3174</ele>
        <time>2022-05-20T08:26:12Z</time>
      </trkpt>
      <trkpt lon="13.4712279" lat="42.7585025999">
        <ele>1037.2566</ele>
        <time>2022-05-20T08:26:18Z</time>
      </trkpt>
      <trkpt lon="13.4710799002" lat="42.7583396997">
        <ele>1037.5428</ele>
        <time>2022-05-20T08:26:25Z</time>
      </trkpt>
      <trkpt lon="13.4709741301" lat="42.7582483162">
        <ele>1036.0294</ele>
        <time>2022-05-20T08:26:28Z</time>
      </trkpt>
      <trkpt lon="13.4706438995" lat="42.7579629998">
        <ele>1034.4918</ele>
        <time>2022-05-20T08:26:38Z</time>
      </trkpt>
      <trkpt lon="13.4697691004" lat="42.7577196996">
        <ele>1034.0439</ele>
        <time>2022-05-20T08:26:54Z</time>
      </trkpt>
      <trkpt lon="13.4692409001" lat="42.7572780997">
        <ele>1034.4355</ele>
        <time>2022-05-20T08:27:07Z</time>
      </trkpt>
      <trkpt lon="13.4691668268" lat="42.7572001625">
        <ele>1035.4027</ele>
        <time>2022-05-20T08:27:09Z</time>
      </trkpt>
      <trkpt lon="13.4690262006" lat="42.7570521997">
        <ele>1037.3248</ele>
        <time>2022-05-20T08:27:13Z</time>
      </trkpt>
      <trkpt lon="13.468881423" lat="42.7570373638">
        <ele>1034.6689</ele>
        <time>2022-05-20T08:27:16Z</time>
      </trkpt>
      <trkpt lon="13.4686993005" lat="42.7570187">
        <ele>1033.4003</ele>
        <time>2022-05-20T08:27:20Z</time>
      </trkpt>
      <trkpt lon="13.4679445004" lat="42.7571991002">
        <ele>1026.8546</ele>
        <time>2022-05-20T08:27:33Z</time>
      </trkpt>
      <trkpt lon="13.4678948903" lat="42.7572286273">
        <ele>1026.6252</ele>
        <time>2022-05-20T08:27:34Z</time>
      </trkpt>
      <trkpt lon="13.4677201998" lat="42.7573325998">
        <ele>1027.7121</ele>
        <time>2022-05-20T08:27:37Z</time>
      </trkpt>
      <trkpt lon="13.4674696998" lat="42.7576150998">
        <ele>1026.2772</ele>
        <time>2022-05-20T08:27:44Z</time>
      </trkpt>
      <trkpt lon="13.4673667875" lat="42.7577276626">
        <ele>1025.3864</ele>
        <time>2022-05-20T08:27:47Z</time>
      </trkpt>
      <trkpt lon="13.4672855761" lat="42.7578422962">
        <ele>1023.4739</ele>
        <time>2022-05-20T08:27:50Z</time>
      </trkpt>
      <trkpt lon="13.467102785" lat="42.7578851724">
        <ele>1023.1317</ele>
        <time>2022-05-20T08:27:53Z</time>
      </trkpt>
      <trkpt lon="13.4668499643" lat="42.7578533661">
        <ele>1021.9947</ele>
        <time>2022-05-20T08:27:57Z</time>
      </trkpt>
      <trkpt lon="13.4666017841" lat="42.7577737352">
        <ele>1021.7337</ele>
        <time>2022-05-20T08:28:01Z</time>
      </trkpt>
      <trkpt lon="13.4664838304" lat="42.7577068812">
        <ele>1021.1801</ele>
        <time>2022-05-20T08:28:03Z</time>
      </trkpt>
      <trkpt lon="13.4664490378" lat="42.7576214555">
        <ele>1022.9509</ele>
        <time>2022-05-20T08:28:05Z</time>
      </trkpt>
      <trkpt lon="13.4663974034" lat="42.7575536597">
        <ele>1022.452</ele>
        <time>2022-05-20T08:28:06Z</time>
      </trkpt>
      <trkpt lon="13.4663041001" lat="42.7573626998">
        <ele>1018.5491</ele>
        <time>2022-05-20T08:28:12Z</time>
      </trkpt>
      <trkpt lon="13.4662196003" lat="42.7571895998">
        <ele>1017.6904</ele>
        <time>2022-05-20T08:28:16Z</time>
      </trkpt>
      <trkpt lon="13.4660444004" lat="42.7569009005">
        <ele>1016.6111</ele>
        <time>2022-05-20T08:28:23Z</time>
      </trkpt>
      <trkpt lon="13.4659120994" lat="42.7568094999">
        <ele>1015.9984</ele>
        <time>2022-05-20T08:28:26Z</time>
      </trkpt>
      <trkpt lon="13.4653866006" lat="42.7566579999">
        <ele>1014.13</ele>
        <time>2022-05-20T08:28:34Z</time>
      </trkpt>
      <trkpt lon="13.4652824576" lat="42.7566219511">
        <ele>1014.8469</ele>
        <time>2022-05-20T08:28:36Z</time>
      </trkpt>
      <trkpt lon="13.4651597671" lat="42.7565794598">
        <ele>1015.1969</ele>
        <time>2022-05-20T08:28:38Z</time>
      </trkpt>
      <trkpt lon="13.4650935403" lat="42.7564677052">
        <ele>1015.1251</ele>
        <time>2022-05-20T08:28:41Z</time>
      </trkpt>
      <trkpt lon="13.4649753032" lat="42.7561721755">
        <ele>1014.0796</ele>
        <time>2022-05-20T08:28:49Z</time>
      </trkpt>
      <trkpt lon="13.4649015589" lat="42.7559559">
        <ele>1010.4375</ele>
        <time>2022-05-20T08:28:55Z</time>
      </trkpt>
      <trkpt lon="13.4648284995" lat="42.755749126">
        <ele>1006.1895</ele>
        <time>2022-05-20T08:29:00Z</time>
      </trkpt>
      <trkpt lon="13.4647259386" lat="42.755581619">
        <ele>1005.196</ele>
        <time>2022-05-20T08:29:04Z</time>
      </trkpt>
      <trkpt lon="13.464611169" lat="42.7554241169">
        <ele>1003.8516</ele>
        <time>2022-05-20T08:29:07Z</time>
      </trkpt>
      <trkpt lon="13.4644787663" lat="42.7552911246">
        <ele>1003.9369</ele>
        <time>2022-05-20T08:29:10Z</time>
      </trkpt>
      <trkpt lon="13.4644050708" lat="42.755165368">
        <ele>1003.196</ele>
        <time>2022-05-20T08:29:13Z</time>
      </trkpt>
      <trkpt lon="13.4643323548" lat="42.754963345">
        <ele>999.8798</ele>
        <time>2022-05-20T08:29:16Z</time>
      </trkpt>
      <trkpt lon="13.4642813724" lat="42.7547938224">
        <ele>995.4262</ele>
        <time>2022-05-20T08:29:20Z</time>
      </trkpt>
      <trkpt lon="13.4642069491" lat="42.7545680449">
        <ele>994.038</ele>
        <time>2022-05-20T08:29:24Z</time>
      </trkpt>
      <trkpt lon="13.4641186078" lat="42.7543285179">
        <ele>992.7028</ele>
        <time>2022-05-20T08:29:28Z</time>
      </trkpt>
      <trkpt lon="13.4640815449" lat="42.7541727446">
        <ele>991.6734</ele>
        <time>2022-05-20T08:29:31Z</time>
      </trkpt>
      <trkpt lon="13.4640091744" lat="42.7539754718">
        <ele>992.0335</ele>
        <time>2022-05-20T08:29:34Z</time>
      </trkpt>
      <trkpt lon="13.463928692" lat="42.7538452158">
        <ele>990.4165</ele>
        <time>2022-05-20T08:29:37Z</time>
      </trkpt>
      <trkpt lon="13.4638499262" lat="42.7537682586">
        <ele>988.5713</ele>
        <time>2022-05-20T08:29:39Z</time>
      </trkpt>
      <trkpt lon="13.4637628995" lat="42.7536985001">
        <ele>987.1519</ele>
        <time>2022-05-20T08:29:40Z</time>
      </trkpt>
      <trkpt lon="13.4636234056" lat="42.7536466458">
        <ele>986.3313</ele>
        <time>2022-05-20T08:29:42Z</time>
      </trkpt>
      <trkpt lon="13.4635071714" lat="42.7536472852">
        <ele>986.3335</ele>
        <time>2022-05-20T08:29:44Z</time>
      </trkpt>
      <trkpt lon="13.4633463436" lat="42.7536583304">
        <ele>986.4162</ele>
        <time>2022-05-20T08:29:46Z</time>
      </trkpt>
      <trkpt lon="13.4632357238" lat="42.7536483575">
        <ele>985.1749</ele>
        <time>2022-05-20T08:29:47Z</time>
      </trkpt>
      <trkpt lon="13.4631692071" lat="42.753622369">
        <ele>983.532</ele>
        <time>2022-05-20T08:29:48Z</time>
      </trkpt>
      <trkpt lon="13.4631057208" lat="42.7535486196">
        <ele>982.8926</ele>
        <time>2022-05-20T08:29:50Z</time>
      </trkpt>
      <trkpt lon="13.4630999135" lat="42.7534678539">
        <ele>981.9931</ele>
        <time>2022-05-20T08:29:51Z</time>
      </trkpt>
      <trkpt lon="13.4631202344" lat="42.7533908322">
        <ele>981.0493</ele>
        <time>2022-05-20T08:29:53Z</time>
      </trkpt>
      <trkpt lon="13.4631585298" lat="42.7532940511">
        <ele>980.988</ele>
        <time>2022-05-20T08:29:54Z</time>
      </trkpt>
      <trkpt lon="13.4631876453" lat="42.7531595149">
        <ele>980.5872</ele>
        <time>2022-05-20T08:29:57Z</time>
      </trkpt>
      <trkpt lon="13.4631795261" lat="42.7530642549">
        <ele>981.1339</ele>
        <time>2022-05-20T08:29:58Z</time>
      </trkpt>
      <trkpt lon="13.4631579053" lat="42.7529681699">
        <ele>979.9586</ele>
        <time>2022-05-20T08:30:00Z</time>
      </trkpt>
      <trkpt lon="13.4631165644" lat="42.7528739751">
        <ele>977.9868</ele>
        <time>2022-05-20T08:30:02Z</time>
      </trkpt>
      <trkpt lon="13.4631024006" lat="42.7528417003">
        <ele>977.6153</ele>
        <time>2022-05-20T08:30:03Z</time>
      </trkpt>
      <trkpt lon="13.4630729005" lat="42.7527393004">
        <ele>976.7923</ele>
        <time>2022-05-20T08:30:05Z</time>
      </trkpt>
      <trkpt lon="13.4630508002" lat="42.7525940998">
        <ele>975.4564</ele>
        <time>2022-05-20T08:30:08Z</time>
      </trkpt>
      <trkpt lon="13.4630058" lat="42.7525315002">
        <ele>975.4977</ele>
        <time>2022-05-20T08:30:09Z</time>
      </trkpt>
      <trkpt lon="13.4629287006" lat="42.7524694999">
        <ele>975.713</ele>
        <time>2022-05-20T08:30:10Z</time>
      </trkpt>
      <trkpt lon="13.4627806995" lat="42.7523904004">
        <ele>975.8798</ele>
        <time>2022-05-20T08:30:13Z</time>
      </trkpt>
      <trkpt lon="13.4625719998" lat="42.7522701">
        <ele>974.7844</ele>
        <time>2022-05-20T08:30:17Z</time>
      </trkpt>
      <trkpt lon="13.4624627" lat="42.7522021">
        <ele>973.218</ele>
        <time>2022-05-20T08:30:20Z</time>
      </trkpt>
      <trkpt lon="13.4623943002" lat="42.7521666996">
        <ele>972.1817</ele>
        <time>2022-05-20T08:30:21Z</time>
      </trkpt>
      <trkpt lon="13.4623178005" lat="42.7521518997">
        <ele>971.6392</ele>
        <time>2022-05-20T08:30:22Z</time>
      </trkpt>
      <trkpt lon="13.4622198998" lat="42.7521582997">
        <ele>972.2789</ele>
        <time>2022-05-20T08:30:24Z</time>
      </trkpt>
      <trkpt lon="13.4620482998" lat="42.7521928002">
        <ele>970.9634</ele>
        <time>2022-05-20T08:30:26Z</time>
      </trkpt>
      <trkpt lon="13.4619236" lat="42.7522268003">
        <ele>969.2329</ele>
        <time>2022-05-20T08:30:28Z</time>
      </trkpt>
      <trkpt lon="13.4617773999" lat="42.7522534">
        <ele>969.0693</ele>
        <time>2022-05-20T08:30:30Z</time>
      </trkpt>
      <trkpt lon="13.4616620001" lat="42.7522459998">
        <ele>969.3298</ele>
        <time>2022-05-20T08:30:32Z</time>
      </trkpt>
      <trkpt lon="13.4615540994" lat="42.7522263001">
        <ele>969.6702</ele>
        <time>2022-05-20T08:30:33Z</time>
      </trkpt>
      <trkpt lon="13.4614554997" lat="42.7521918001">
        <ele>969.6438</ele>
        <time>2022-05-20T08:30:35Z</time>
      </trkpt>
      <trkpt lon="13.4614004999" lat="42.7521534003">
        <ele>969.3715</ele>
        <time>2022-05-20T08:30:36Z</time>
      </trkpt>
      <trkpt lon="13.4613560995" lat="42.7521016999">
        <ele>969.111</ele>
        <time>2022-05-20T08:30:38Z</time>
      </trkpt>
      <trkpt lon="13.4613341005" lat="42.7520351997">
        <ele>969.0356</ele>
        <time>2022-05-20T08:30:40Z</time>
      </trkpt>
      <trkpt lon="13.4613186999" lat="42.7519486003">
        <ele>968.5383</ele>
        <time>2022-05-20T08:30:42Z</time>
      </trkpt>
      <trkpt lon="13.461312992" lat="42.7518797183">
        <ele>968.1135</ele>
        <time>2022-05-20T08:30:43Z</time>
      </trkpt>
      <trkpt lon="13.4613175602" lat="42.751786599">
        <ele>968.0259</ele>
        <time>2022-05-20T08:30:45Z</time>
      </trkpt>
      <trkpt lon="13.4613194005" lat="42.7517743001">
        <ele>968.0251</ele>
        <time>2022-05-20T08:30:46Z</time>
      </trkpt>
      <trkpt lon="13.4613377995" lat="42.7517205998">
        <ele>967.7391</ele>
        <time>2022-05-20T08:30:47Z</time>
      </trkpt>
      <trkpt lon="13.4613636002" lat="42.7516807003">
        <ele>967.2698</ele>
        <time>2022-05-20T08:30:48Z</time>
      </trkpt>
      <trkpt lon="13.4614106001" lat="42.7516289998">
        <ele>966.4264</ele>
        <time>2022-05-20T08:30:49Z</time>
      </trkpt>
      <trkpt lon="13.4614936998" lat="42.7515541997">
        <ele>965.3486</ele>
        <time>2022-05-20T08:30:51Z</time>
      </trkpt>
      <trkpt lon="13.4616264995" lat="42.7515049001">
        <ele>964.1033</ele>
        <time>2022-05-20T08:30:53Z</time>
      </trkpt>
      <trkpt lon="13.4620435997" lat="42.7513661">
        <ele>961.5888</ele>
        <time>2022-05-20T08:30:59Z</time>
      </trkpt>
      <trkpt lon="13.4622902999" lat="42.7512727999">
        <ele>960.9573</ele>
        <time>2022-05-20T08:31:02Z</time>
      </trkpt>
      <trkpt lon="13.4624646999" lat="42.7512095001">
        <ele>959.1226</ele>
        <time>2022-05-20T08:31:05Z</time>
      </trkpt>
      <trkpt lon="13.4625773005" lat="42.7511494001">
        <ele>958.6093</ele>
        <time>2022-05-20T08:31:06Z</time>
      </trkpt>
      <trkpt lon="13.4626510998" lat="42.7510863999">
        <ele>958.1555</ele>
        <time>2022-05-20T08:31:08Z</time>
      </trkpt>
      <trkpt lon="13.4627107001" lat="42.7509983996">
        <ele>957.9132</ele>
        <time>2022-05-20T08:31:10Z</time>
      </trkpt>
      <trkpt lon="13.4628322004" lat="42.7505132002">
        <ele>956.7797</ele>
        <time>2022-05-20T08:31:19Z</time>
      </trkpt>
      <trkpt lon="13.4628803997" lat="42.7503891997">
        <ele>956.0289</ele>
        <time>2022-05-20T08:31:22Z</time>
      </trkpt>
      <trkpt lon="13.4629421006" lat="42.7502748998">
        <ele>955.4178</ele>
        <time>2022-05-20T08:31:24Z</time>
      </trkpt>
      <trkpt lon="13.4631447997" lat="42.7499621">
        <ele>953.8607</ele>
        <time>2022-05-20T08:31:31Z</time>
      </trkpt>
      <trkpt lon="13.4632076994" lat="42.7498435998">
        <ele>952.4046</ele>
        <time>2022-05-20T08:31:34Z</time>
      </trkpt>
      <trkpt lon="13.4632466997" lat="42.7497130999">
        <ele>950.2271</ele>
        <time>2022-05-20T08:31:37Z</time>
      </trkpt>
      <trkpt lon="13.4632318003" lat="42.7495324001">
        <ele>948.7566</ele>
        <time>2022-05-20T08:31:40Z</time>
      </trkpt>
      <trkpt lon="13.4631552001" lat="42.7493056001">
        <ele>947.1438</ele>
        <time>2022-05-20T08:31:44Z</time>
      </trkpt>
      <trkpt lon="13.4631471759" lat="42.7492803886">
        <ele>947.2455</ele>
        <time>2022-05-20T08:31:45Z</time>
      </trkpt>
      <trkpt lon="13.4631228061" lat="42.7492038241">
        <ele>947.5544</ele>
        <time>2022-05-20T08:31:46Z</time>
      </trkpt>
      <trkpt lon="13.4630988004" lat="42.7491284001">
        <ele>947.8586</ele>
        <time>2022-05-20T08:31:48Z</time>
      </trkpt>
      <trkpt lon="13.4630843997" lat="42.7490470004">
        <ele>947.9986</ele>
        <time>2022-05-20T08:31:49Z</time>
      </trkpt>
      <trkpt lon="13.4631060002" lat="42.7489836">
        <ele>947.7222</ele>
        <time>2022-05-20T08:31:51Z</time>
      </trkpt>
      <trkpt lon="13.4631499004" lat="42.7489221">
        <ele>947.5341</ele>
        <time>2022-05-20T08:31:53Z</time>
      </trkpt>
      <trkpt lon="13.4632226002" lat="42.7488779001">
        <ele>946.537</ele>
        <time>2022-05-20T08:31:55Z</time>
      </trkpt>
      <trkpt lon="13.4632747001" lat="42.7488440003">
        <ele>945.8877</ele>
        <time>2022-05-20T08:31:56Z</time>
      </trkpt>
      <trkpt lon="13.4633955997" lat="42.7489325998">
        <ele>943.769</ele>
        <time>2022-05-20T08:31:59Z</time>
      </trkpt>
      <trkpt lon="13.4634388002" lat="42.7489867003">
        <ele>943.1255</ele>
        <time>2022-05-20T08:32:00Z</time>
      </trkpt>
      <trkpt lon="13.4634618999" lat="42.7490452003">
        <ele>942.8161</ele>
        <time>2022-05-20T08:32:01Z</time>
      </trkpt>
      <trkpt lon="13.4635054004" lat="42.7491709999">
        <ele>942.252</ele>
        <time>2022-05-20T08:32:03Z</time>
      </trkpt>
      <trkpt lon="13.4635053995" lat="42.7492793004">
        <ele>942.3795</ele>
        <time>2022-05-20T08:32:05Z</time>
      </trkpt>
      <trkpt lon="13.4634463996" lat="42.7495037996">
        <ele>943.9145</ele>
        <time>2022-05-20T08:32:09Z</time>
      </trkpt>
      <trkpt lon="13.4634008004" lat="42.7497392002">
        <ele>945.304</ele>
        <time>2022-05-20T08:32:14Z</time>
      </trkpt>
      <trkpt lon="13.4633565004" lat="42.7499903">
        <ele>944.4689</ele>
        <time>2022-05-20T08:32:21Z</time>
      </trkpt>
      <trkpt lon="13.4633201378" lat="42.7501280881">
        <ele>944.4312</ele>
        <time>2022-05-20T08:32:25Z</time>
      </trkpt>
      <trkpt lon="13.4632956686" lat="42.7502290991">
        <ele>944.6258</ele>
        <time>2022-05-20T08:32:28Z</time>
      </trkpt>
      <trkpt lon="13.4632774" lat="42.7504452999">
        <ele>943.9693</ele>
        <time>2022-05-20T08:32:34Z</time>
      </trkpt>
      <trkpt lon="13.4632787005" lat="42.7506372998">
        <ele>944.3787</ele>
        <time>2022-05-20T08:32:39Z</time>
      </trkpt>
      <trkpt lon="13.4633056001" lat="42.7507791004">
        <ele>945.0871</ele>
        <time>2022-05-20T08:32:43Z</time>
      </trkpt>
      <trkpt lon="13.4633389994" lat="42.7509201004">
        <ele>945.9555</ele>
        <time>2022-05-20T08:32:48Z</time>
      </trkpt>
      <trkpt lon="13.4633431006" lat="42.7510539001">
        <ele>945.8218</ele>
        <time>2022-05-20T08:32:52Z</time>
      </trkpt>
      <trkpt lon="13.4633351003" lat="42.7511996">
        <ele>944.849</ele>
        <time>2022-05-20T08:32:56Z</time>
      </trkpt>
      <trkpt lon="13.4633216998" lat="42.7512981002">
        <ele>943.9571</ele>
        <time>2022-05-20T08:32:59Z</time>
      </trkpt>
      <trkpt lon="13.4632792996" lat="42.7513822001">
        <ele>943.3133</ele>
        <time>2022-05-20T08:33:01Z</time>
      </trkpt>
      <trkpt lon="13.4631781996" lat="42.7514930996">
        <ele>943.4206</ele>
        <time>2022-05-20T08:33:04Z</time>
      </trkpt>
      <trkpt lon="13.4630816003" lat="42.7515698999">
        <ele>943.4992</ele>
        <time>2022-05-20T08:33:06Z</time>
      </trkpt>
      <trkpt lon="13.4630319997" lat="42.7516466998">
        <ele>942.3893</ele>
        <time>2022-05-20T08:33:08Z</time>
      </trkpt>
      <trkpt lon="13.4630293006" lat="42.7517037999">
        <ele>943.4536</ele>
        <time>2022-05-20T08:33:09Z</time>
      </trkpt>
      <trkpt lon="13.4630937006" lat="42.7517490997">
        <ele>944.0456</ele>
        <time>2022-05-20T08:33:11Z</time>
      </trkpt>
      <trkpt lon="13.4631553994" lat="42.7517708001">
        <ele>944.1358</ele>
        <time>2022-05-20T08:33:12Z</time>
      </trkpt>
      <trkpt lon="13.4633418002" lat="42.7518033001">
        <ele>943.5169</ele>
        <time>2022-05-20T08:33:16Z</time>
      </trkpt>
      <trkpt lon="13.4634932002" lat="42.7518589003">
        <ele>943.1146</ele>
        <time>2022-05-20T08:33:20Z</time>
      </trkpt>
      <trkpt lon="13.4635926006" lat="42.7519037996">
        <ele>942.8578</ele>
        <time>2022-05-20T08:33:22Z</time>
      </trkpt>
      <trkpt lon="13.4637159" lat="42.7519746996">
        <ele>942.9987</ele>
        <time>2022-05-20T08:33:25Z</time>
      </trkpt>
      <trkpt lon="13.4638393005" lat="42.7520987002">
        <ele>943.2692</ele>
        <time>2022-05-20T08:33:29Z</time>
      </trkpt>
      <trkpt lon="13.4639398996" lat="42.7522020997">
        <ele>943.3656</ele>
        <time>2022-05-20T08:33:33Z</time>
      </trkpt>
      <trkpt lon="13.4640700001" lat="42.7523665999">
        <ele>943.2284</ele>
        <time>2022-05-20T08:33:38Z</time>
      </trkpt>
      <trkpt lon="13.4641747004" lat="42.7525237001">
        <ele>943.4388</ele>
        <time>2022-05-20T08:33:42Z</time>
      </trkpt>
      <trkpt lon="13.4642054004" lat="42.7525665004">
        <ele>943.3088</ele>
        <time>2022-05-20T08:33:44Z</time>
      </trkpt>
      <trkpt lon="13.4642885999" lat="42.7526284997">
        <ele>942.8628</ele>
        <time>2022-05-20T08:33:46Z</time>
      </trkpt>
      <trkpt lon="13.4643731004" lat="42.7526590999">
        <ele>942.5253</ele>
        <time>2022-05-20T08:33:48Z</time>
      </trkpt>
      <trkpt lon="13.4644897996" lat="42.7526590998">
        <ele>943.1919</ele>
        <time>2022-05-20T08:33:50Z</time>
      </trkpt>
      <trkpt lon="13.4645515002" lat="42.7526404003">
        <ele>943.8622</ele>
        <time>2022-05-20T08:33:51Z</time>
      </trkpt>
      <trkpt lon="13.4646118001" lat="42.7525940999">
        <ele>944.739</ele>
        <time>2022-05-20T08:33:53Z</time>
      </trkpt>
      <trkpt lon="13.46464" lat="42.7525015">
        <ele>944.8359</ele>
        <time>2022-05-20T08:33:56Z</time>
      </trkpt>
      <trkpt lon="13.4646507006" lat="42.7523695999">
        <ele>944.0938</ele>
        <time>2022-05-20T08:34:00Z</time>
      </trkpt>
      <trkpt lon="13.4646734995" lat="42.7522276997">
        <ele>944.2735</ele>
        <time>2022-05-20T08:34:05Z</time>
      </trkpt>
      <trkpt lon="13.4647230994" lat="42.7521037">
        <ele>943.2801</ele>
        <time>2022-05-20T08:34:09Z</time>
      </trkpt>
      <trkpt lon="13.4648572006" lat="42.7519046996">
        <ele>943.0727</ele>
        <time>2022-05-20T08:34:15Z</time>
      </trkpt>
      <trkpt lon="13.4649913005" lat="42.7517521001">
        <ele>943.0508</ele>
        <time>2022-05-20T08:34:20Z</time>
      </trkpt>
      <trkpt lon="13.4651442002" lat="42.7516250996">
        <ele>944.5434</ele>
        <time>2022-05-20T08:34:24Z</time>
      </trkpt>
      <trkpt lon="13.4654968996" lat="42.7513562004">
        <ele>944.0723</ele>
        <time>2022-05-20T08:34:33Z</time>
      </trkpt>
      <trkpt lon="13.4661347002" lat="42.7509181996">
        <ele>944.8436</ele>
        <time>2022-05-20T08:34:50Z</time>
      </trkpt>
      <trkpt lon="13.4662130998" lat="42.7508658002">
        <ele>944.6344</ele>
        <time>2022-05-20T08:34:52Z</time>
      </trkpt>
      <trkpt lon="13.4663095998" lat="42.7508284">
        <ele>944.0549</ele>
        <time>2022-05-20T08:34:55Z</time>
      </trkpt>
      <trkpt lon="13.4664518003" lat="42.7508343003">
        <ele>943.3883</ele>
        <time>2022-05-20T08:34:57Z</time>
      </trkpt>
      <trkpt lon="13.4666819003" lat="42.7508616004">
        <ele>944.1109</ele>
        <time>2022-05-20T08:35:02Z</time>
      </trkpt>
      <trkpt lon="13.4668407002" lat="42.7508637998">
        <ele>943.8495</ele>
        <time>2022-05-20T08:35:04Z</time>
      </trkpt>
      <trkpt lon="13.4670102004" lat="42.7508543003">
        <ele>944.9098</ele>
        <time>2022-05-20T08:35:07Z</time>
      </trkpt>
      <trkpt lon="13.4671022002" lat="42.7508372001">
        <ele>946.2861</ele>
        <time>2022-05-20T08:35:09Z</time>
      </trkpt>
      <trkpt lon="13.4671868003" lat="42.7508013004">
        <ele>947.3514</ele>
        <time>2022-05-20T08:35:11Z</time>
      </trkpt>
      <trkpt lon="13.4672403996" lat="42.7507406996">
        <ele>947.2537</ele>
        <time>2022-05-20T08:35:14Z</time>
      </trkpt>
      <trkpt lon="13.4672838003" lat="42.7506588998">
        <ele>946.2811</ele>
        <time>2022-05-20T08:35:17Z</time>
      </trkpt>
      <trkpt lon="13.4673328997" lat="42.7503527004">
        <ele>945.0312</ele>
        <time>2022-05-20T08:35:28Z</time>
      </trkpt>
      <trkpt lon="13.4673824995" lat="42.7501774004">
        <ele>944.3725</ele>
        <time>2022-05-20T08:35:33Z</time>
      </trkpt>
      <trkpt lon="13.4674146996" lat="42.7501144003">
        <ele>943.9031</ele>
        <time>2022-05-20T08:35:34Z</time>
      </trkpt>
      <trkpt lon="13.4674871002" lat="42.7500493998">
        <ele>943.5288</ele>
        <time>2022-05-20T08:35:36Z</time>
      </trkpt>
      <trkpt lon="13.4675971003" lat="42.7500228">
        <ele>944.0068</ele>
        <time>2022-05-20T08:35:38Z</time>
      </trkpt>
      <trkpt lon="13.4676810219" lat="42.7500201328">
        <ele>945.1646</ele>
        <time>2022-05-20T08:35:39Z</time>
      </trkpt>
      <trkpt lon="13.4677930299" lat="42.7500495596">
        <ele>946.818</ele>
        <time>2022-05-20T08:35:41Z</time>
      </trkpt>
      <trkpt lon="13.467948768" lat="42.7500577644">
        <ele>949.1767</ele>
        <time>2022-05-20T08:35:45Z</time>
      </trkpt>
      <trkpt lon="13.4681102694" lat="42.750056215">
        <ele>950.4768</ele>
        <time>2022-05-20T08:35:50Z</time>
      </trkpt>
      <trkpt lon="13.4683416534" lat="42.7500376411">
        <ele>950.9639</ele>
        <time>2022-05-20T08:35:59Z</time>
      </trkpt>
      <trkpt lon="13.4685136538" lat="42.7500023305">
        <ele>950.7009</ele>
        <time>2022-05-20T08:36:07Z</time>
      </trkpt>
      <trkpt lon="13.468684969" lat="42.749957519">
        <ele>951.9742</ele>
        <time>2022-05-20T08:36:13Z</time>
      </trkpt>
      <trkpt lon="13.4688494959" lat="42.7499082075">
        <ele>951.0733</ele>
        <time>2022-05-20T08:36:18Z</time>
      </trkpt>
      <trkpt lon="13.4689719762" lat="42.7499034192">
        <ele>951.3877</ele>
        <time>2022-05-20T08:36:21Z</time>
      </trkpt>
      <trkpt lon="13.4691029026" lat="42.7498363644">
        <ele>949.9047</ele>
        <time>2022-05-20T08:36:24Z</time>
      </trkpt>
      <trkpt lon="13.4691075876" lat="42.7497218382">
        <ele>948.8253</ele>
        <time>2022-05-20T08:36:27Z</time>
      </trkpt>
      <trkpt lon="13.468983346" lat="42.7496123538">
        <ele>948.0839</ele>
        <time>2022-05-20T08:36:30Z</time>
      </trkpt>
      <trkpt lon="13.468811946" lat="42.7495265546">
        <ele>947.0031</ele>
        <time>2022-05-20T08:36:33Z</time>
      </trkpt>
      <trkpt lon="13.4687759" lat="42.7495028004">
        <ele>947.281</ele>
        <time>2022-05-20T08:36:34Z</time>
      </trkpt>
      <trkpt lon="13.4686593003" lat="42.7494131997">
        <ele>948.1959</ele>
        <time>2022-05-20T08:36:36Z</time>
      </trkpt>
      <trkpt lon="13.4685478999" lat="42.7492842002">
        <ele>953.0204</ele>
        <time>2022-05-20T08:36:40Z</time>
      </trkpt>
      <trkpt lon="13.4684674996" lat="42.7491188001">
        <ele>956.7837</ele>
        <time>2022-05-20T08:36:45Z</time>
      </trkpt>
      <trkpt lon="13.4684081004" lat="42.7489711997">
        <ele>957.2492</ele>
        <time>2022-05-20T08:36:52Z</time>
      </trkpt>
      <trkpt lon="13.4683631002" lat="42.7487507">
        <ele>956.7647</ele>
        <time>2022-05-20T08:37:04Z</time>
      </trkpt>
      <trkpt lon="13.4683439995" lat="42.7485984002">
        <ele>955.2464</ele>
        <time>2022-05-20T08:37:11Z</time>
      </trkpt>
      <trkpt lon="13.4683582997" lat="42.7484524996">
        <ele>953.7186</ele>
        <time>2022-05-20T08:37:16Z</time>
      </trkpt>
      <trkpt lon="13.4684431997" lat="42.7483924997">
        <ele>954.5608</ele>
        <time>2022-05-20T08:37:19Z</time>
      </trkpt>
      <trkpt lon="13.4685625006" lat="42.7483473996">
        <ele>955.7018</ele>
        <time>2022-05-20T08:37:21Z</time>
      </trkpt>
      <trkpt lon="13.4687518994" lat="42.7482816">
        <ele>957.5292</ele>
        <time>2022-05-20T08:37:25Z</time>
      </trkpt>
      <trkpt lon="13.4688938001" lat="42.7482053997">
        <ele>959.7432</ele>
        <time>2022-05-20T08:37:29Z</time>
      </trkpt>
      <trkpt lon="13.4689203996" lat="42.7481254999">
        <ele>959.154</ele>
        <time>2022-05-20T08:37:31Z</time>
      </trkpt>
      <trkpt lon="13.4689421002" lat="42.7480478003">
        <ele>959.1319</ele>
        <time>2022-05-20T08:37:34Z</time>
      </trkpt>
      <trkpt lon="13.4689180001" lat="42.7479812004">
        <ele>958.1063</ele>
        <time>2022-05-20T08:37:37Z</time>
      </trkpt>
      <trkpt lon="13.4687867001" lat="42.7477656002">
        <ele>956.4065</ele>
        <time>2022-05-20T08:37:43Z</time>
      </trkpt>
      <trkpt lon="13.4686045999" lat="42.7474332996">
        <ele>958.172</ele>
        <time>2022-05-20T08:37:51Z</time>
      </trkpt>
      <trkpt lon="13.4685675702" lat="42.7473465811">
        <ele>958.0094</ele>
        <time>2022-05-20T08:37:53Z</time>
      </trkpt>
      <trkpt lon="13.4685453344" lat="42.747257638">
        <ele>957.788</ele>
        <time>2022-05-20T08:37:56Z</time>
      </trkpt>
      <trkpt lon="13.4685349" lat="42.7472158997">
        <ele>957.4838</ele>
        <time>2022-05-20T08:37:57Z</time>
      </trkpt>
      <trkpt lon="13.4685855001" lat="42.7469697998">
        <ele>958.6615</ele>
        <time>2022-05-20T08:38:03Z</time>
      </trkpt>
      <trkpt lon="13.4686578999" lat="42.7466952998">
        <ele>962.328</ele>
        <time>2022-05-20T08:38:10Z</time>
      </trkpt>
      <trkpt lon="13.4686821005" lat="42.7466224001">
        <ele>961.9802</ele>
        <time>2022-05-20T08:38:13Z</time>
      </trkpt>
      <trkpt lon="13.4687613005" lat="42.7465346002">
        <ele>962.4013</ele>
        <time>2022-05-20T08:38:15Z</time>
      </trkpt>
      <trkpt lon="13.4690249003" lat="42.7464030996">
        <ele>965.3859</ele>
        <time>2022-05-20T08:38:22Z</time>
      </trkpt>
      <trkpt lon="13.4690736998" lat="42.7463684002">
        <ele>965.9356</ele>
        <time>2022-05-20T08:38:24Z</time>
      </trkpt>
      <trkpt lon="13.4691513998" lat="42.7462934997">
        <ele>966.5489</ele>
        <time>2022-05-20T08:38:27Z</time>
      </trkpt>
      <trkpt lon="13.4692320005" lat="42.7461679997">
        <ele>967.4762</ele>
        <time>2022-05-20T08:38:33Z</time>
      </trkpt>
      <trkpt lon="13.4693116003" lat="42.7459214001">
        <ele>967.0633</ele>
        <time>2022-05-20T08:38:42Z</time>
      </trkpt>
      <trkpt lon="13.4693532998" lat="42.7456776996">
        <ele>967.9029</ele>
        <time>2022-05-20T08:38:51Z</time>
      </trkpt>
      <trkpt lon="13.4693109002" lat="42.7455171999">
        <ele>966.8408</ele>
        <time>2022-05-20T08:38:56Z</time>
      </trkpt>
      <trkpt lon="13.4692487994" lat="42.7453985002">
        <ele>965.9194</ele>
        <time>2022-05-20T08:39:00Z</time>
      </trkpt>
      <trkpt lon="13.4688537005" lat="42.7450741999">
        <ele>964.9682</ele>
        <time>2022-05-20T08:39:11Z</time>
      </trkpt>
      <trkpt lon="13.4687249995" lat="42.7449442002">
        <ele>965.6336</ele>
        <time>2022-05-20T08:39:15Z</time>
      </trkpt>
      <trkpt lon="13.4686123005" lat="42.7447689001">
        <ele>966.2183</ele>
        <time>2022-05-20T08:39:19Z</time>
      </trkpt>
      <trkpt lon="13.4685453001" lat="42.7446231998">
        <ele>966.0151</ele>
        <time>2022-05-20T08:39:23Z</time>
      </trkpt>
      <trkpt lon="13.4684969994" lat="42.7444832995">
        <ele>965.9858</ele>
        <time>2022-05-20T08:39:27Z</time>
      </trkpt>
      <trkpt lon="13.4684890112" lat="42.7443861955">
        <ele>965.9581</ele>
        <time>2022-05-20T08:39:29Z</time>
      </trkpt>
      <trkpt lon="13.4684808298" lat="42.7442867601">
        <ele>966.4708</ele>
        <time>2022-05-20T08:39:32Z</time>
      </trkpt>
      <trkpt lon="13.4684782006" lat="42.7442547996">
        <ele>966.8093</ele>
        <time>2022-05-20T08:39:33Z</time>
      </trkpt>
      <trkpt lon="13.4684809001" lat="42.7439080999">
        <ele>967.2183</ele>
        <time>2022-05-20T08:39:44Z</time>
      </trkpt>
      <trkpt lon="13.4684863005" lat="42.7437544996">
        <ele>967.5383</ele>
        <time>2022-05-20T08:39:48Z</time>
      </trkpt>
      <trkpt lon="13.4684916003" lat="42.7435240004">
        <ele>968.0696</ele>
        <time>2022-05-20T08:39:56Z</time>
      </trkpt>
      <trkpt lon="13.4684454005" lat="42.7430091996">
        <ele>967.3274</ele>
        <time>2022-05-20T08:40:12Z</time>
      </trkpt>
      <trkpt lon="13.4684429003" lat="42.7427607999">
        <ele>966.9176</ele>
        <time>2022-05-20T08:40:19Z</time>
      </trkpt>
      <trkpt lon="13.4687106005" lat="42.7427920002">
        <ele>971.6968</ele>
        <time>2022-05-20T08:40:25Z</time>
      </trkpt>
      <trkpt lon="13.4686529003" lat="42.7429643002">
        <ele>971.3353</ele>
        <time>2022-05-20T08:40:31Z</time>
      </trkpt>
      <trkpt lon="13.4686462001" lat="42.7430451002">
        <ele>971.1304</ele>
        <time>2022-05-20T08:40:33Z</time>
      </trkpt>
      <trkpt lon="13.4686886995" lat="42.7431088997">
        <ele>972.2167</ele>
        <time>2022-05-20T08:40:36Z</time>
      </trkpt>
      <trkpt lon="13.4687856999" lat="42.7431889">
        <ele>974.6413</ele>
        <time>2022-05-20T08:40:39Z</time>
      </trkpt>
      <trkpt lon="13.4688910003" lat="42.7432461">
        <ele>977.0526</ele>
        <time>2022-05-20T08:40:43Z</time>
      </trkpt>
      <trkpt lon="13.4689607002" lat="42.7432746997">
        <ele>978.6452</ele>
        <time>2022-05-20T08:40:46Z</time>
      </trkpt>
      <trkpt lon="13.4690445" lat="42.7432854999">
        <ele>979.6888</ele>
        <time>2022-05-20T08:40:50Z</time>
      </trkpt>
      <trkpt lon="13.4691349999" lat="42.7432893997">
        <ele>980.2772</ele>
        <time>2022-05-20T08:40:56Z</time>
      </trkpt>
      <trkpt lon="13.4692074997" lat="42.7432998002">
        <ele>980.5261</ele>
        <time>2022-05-20T08:41:01Z</time>
      </trkpt>
      <trkpt lon="13.4692920003" lat="42.7433205">
        <ele>980.951</ele>
        <time>2022-05-20T08:41:05Z</time>
      </trkpt>
      <trkpt lon="13.4693750997" lat="42.7433554003">
        <ele>980.7274</ele>
        <time>2022-05-20T08:41:09Z</time>
      </trkpt>
      <trkpt lon="13.4694408005" lat="42.7434021998">
        <ele>980.4119</ele>
        <time>2022-05-20T08:41:11Z</time>
      </trkpt>
      <trkpt lon="13.4695575003" lat="42.7435213996">
        <ele>980.7278</ele>
        <time>2022-05-20T08:41:16Z</time>
      </trkpt>
      <trkpt lon="13.4696728003" lat="42.7436631999">
        <ele>981.4771</ele>
        <time>2022-05-20T08:41:21Z</time>
      </trkpt>
      <trkpt lon="13.4697907996" lat="42.7437834001">
        <ele>981.7409</ele>
        <time>2022-05-20T08:41:25Z</time>
      </trkpt>
      <trkpt lon="13.4698633001" lat="42.7438463998">
        <ele>982.5336</ele>
        <time>2022-05-20T08:41:27Z</time>
      </trkpt>
      <trkpt lon="13.4699216002" lat="42.7438940997">
        <ele>983.5928</ele>
        <time>2022-05-20T08:41:29Z</time>
      </trkpt>
      <trkpt lon="13.4701126995" lat="42.7440196998">
        <ele>986.8081</ele>
        <time>2022-05-20T08:41:35Z</time>
      </trkpt>
      <trkpt lon="13.4702200004" lat="42.7440749001">
        <ele>988.0976</ele>
        <time>2022-05-20T08:41:39Z</time>
      </trkpt>
      <trkpt lon="13.4702804956" lat="42.7441009715">
        <ele>988.7365</ele>
        <time>2022-05-20T08:41:42Z</time>
      </trkpt>
      <trkpt lon="13.4703415343" lat="42.7441176623">
        <ele>989.3545</ele>
        <time>2022-05-20T08:41:44Z</time>
      </trkpt>
      <trkpt lon="13.4703648001" lat="42.7441231998">
        <ele>989.6482</ele>
        <time>2022-05-20T08:41:45Z</time>
      </trkpt>
      <trkpt lon="13.4704291994" lat="42.7441260997">
        <ele>990.0272</ele>
        <time>2022-05-20T08:41:48Z</time>
      </trkpt>
      <trkpt lon="13.4704807995" lat="42.7441285">
        <ele>989.945</ele>
        <time>2022-05-20T08:41:50Z</time>
      </trkpt>
      <trkpt lon="13.4705384996" lat="42.7441412999">
        <ele>990.2313</ele>
        <time>2022-05-20T08:41:52Z</time>
      </trkpt>
      <trkpt lon="13.4705693" lat="42.7441609996">
        <ele>990.7481</ele>
        <time>2022-05-20T08:41:53Z</time>
      </trkpt>
      <trkpt lon="13.4706816001" lat="42.7441738002">
        <ele>990.6362</ele>
        <time>2022-05-20T08:41:56Z</time>
      </trkpt>
      <trkpt lon="13.4711398001" lat="42.7443139998">
        <ele>992.8678</ele>
        <time>2022-05-20T08:42:09Z</time>
      </trkpt>
      <trkpt lon="13.4714023002" lat="42.7443876003">
        <ele>992.7132</ele>
        <time>2022-05-20T08:42:16Z</time>
      </trkpt>
      <trkpt lon="13.4716121997" lat="42.7444330996">
        <ele>992.273</ele>
        <time>2022-05-20T08:42:22Z</time>
      </trkpt>
      <trkpt lon="13.4717601998" lat="42.7444542003">
        <ele>990.9584</ele>
        <time>2022-05-20T08:42:25Z</time>
      </trkpt>
      <trkpt lon="13.4718408003" lat="42.7444857002">
        <ele>990.2952</ele>
        <time>2022-05-20T08:42:26Z</time>
      </trkpt>
      <trkpt lon="13.4718729997" lat="42.7445287004">
        <ele>989.6526</ele>
        <time>2022-05-20T08:42:27Z</time>
      </trkpt>
      <trkpt lon="13.4718825995" lat="42.7445917004">
        <ele>988.5508</ele>
        <time>2022-05-20T08:42:29Z</time>
      </trkpt>
      <trkpt lon="13.4718647002" lat="42.7447432997">
        <ele>985.9388</ele>
        <time>2022-05-20T08:42:31Z</time>
      </trkpt>
      <trkpt lon="13.4718264996" lat="42.7448747004">
        <ele>985.004</ele>
        <time>2022-05-20T08:42:33Z</time>
      </trkpt>
      <trkpt lon="13.4718073995" lat="42.7449475004">
        <ele>984.3999</ele>
        <time>2022-05-20T08:42:34Z</time>
      </trkpt>
      <trkpt lon="13.4717907004" lat="42.7451024999">
        <ele>982.1117</ele>
        <time>2022-05-20T08:42:37Z</time>
      </trkpt>
      <trkpt lon="13.4717549002" lat="42.7452252002">
        <ele>978.4006</ele>
        <time>2022-05-20T08:42:39Z</time>
      </trkpt>
      <trkpt lon="13.4717275005" lat="42.7453784999">
        <ele>976.4306</ele>
        <time>2022-05-20T08:42:41Z</time>
      </trkpt>
      <trkpt lon="13.4717262998" lat="42.7454767003">
        <ele>975.6786</ele>
        <time>2022-05-20T08:42:43Z</time>
      </trkpt>
      <trkpt lon="13.4717477999" lat="42.7455957997">
        <ele>974.2339</ele>
        <time>2022-05-20T08:42:45Z</time>
      </trkpt>
      <trkpt lon="13.4717835006" lat="42.7457009998">
        <ele>973.6832</ele>
        <time>2022-05-20T08:42:46Z</time>
      </trkpt>
      <trkpt lon="13.4718492004" lat="42.7458429004">
        <ele>972.5238</ele>
        <time>2022-05-20T08:42:49Z</time>
      </trkpt>
      <trkpt lon="13.4719148001" lat="42.7459777999">
        <ele>971.0917</ele>
        <time>2022-05-20T08:42:51Z</time>
      </trkpt>
      <trkpt lon="13.4719375001" lat="42.7460532002">
        <ele>969.7654</ele>
        <time>2022-05-20T08:42:52Z</time>
      </trkpt>
      <trkpt lon="13.4719327001" lat="42.7462179004">
        <ele>966.2207</ele>
        <time>2022-05-20T08:42:55Z</time>
      </trkpt>
      <trkpt lon="13.4718850003" lat="42.7463589999">
        <ele>965.9326</ele>
        <time>2022-05-20T08:42:58Z</time>
      </trkpt>
      <trkpt lon="13.4718467996" lat="42.7464737003">
        <ele>965.103</ele>
        <time>2022-05-20T08:43:00Z</time>
      </trkpt>
      <trkpt lon="13.4718192998" lat="42.7465683998">
        <ele>964.6741</ele>
        <time>2022-05-20T08:43:01Z</time>
      </trkpt>
      <trkpt lon="13.4717862605" lat="42.74692491">
        <ele>960.7022</ele>
        <time>2022-05-20T08:43:07Z</time>
      </trkpt>
      <trkpt lon="13.4717964043" lat="42.7470224235">
        <ele>958.6571</ele>
        <time>2022-05-20T08:43:09Z</time>
      </trkpt>
      <trkpt lon="13.4718313004" lat="42.7471053997">
        <ele>956.9595</ele>
        <time>2022-05-20T08:43:10Z</time>
      </trkpt>
      <trkpt lon="13.4718705997" lat="42.7471684997">
        <ele>956.7489</ele>
        <time>2022-05-20T08:43:12Z</time>
      </trkpt>
      <trkpt lon="13.4719613005" lat="42.7472316004">
        <ele>955.5889</ele>
        <time>2022-05-20T08:43:13Z</time>
      </trkpt>
      <trkpt lon="13.4721104004" lat="42.7473051997">
        <ele>953.9885</ele>
        <time>2022-05-20T08:43:15Z</time>
      </trkpt>
      <trkpt lon="13.4721986994" lat="42.7473692002">
        <ele>953.5338</ele>
        <time>2022-05-20T08:43:16Z</time>
      </trkpt>
      <trkpt lon="13.4722666994" lat="42.7474681996">
        <ele>953.9536</ele>
        <time>2022-05-20T08:43:18Z</time>
      </trkpt>
      <trkpt lon="13.4723072997" lat="42.7476075003">
        <ele>953.2566</ele>
        <time>2022-05-20T08:43:21Z</time>
      </trkpt>
      <trkpt lon="13.4723157004" lat="42.7478379004">
        <ele>947.9958</ele>
        <time>2022-05-20T08:43:25Z</time>
      </trkpt>
      <trkpt lon="13.4723323996" lat="42.7479350997">
        <ele>946.8428</ele>
        <time>2022-05-20T08:43:27Z</time>
      </trkpt>
      <trkpt lon="13.4723573998" lat="42.7480043998">
        <ele>946.0871</ele>
        <time>2022-05-20T08:43:29Z</time>
      </trkpt>
      <trkpt lon="13.4723968" lat="42.7480700999">
        <ele>944.9645</ele>
        <time>2022-05-20T08:43:30Z</time>
      </trkpt>
      <trkpt lon="13.4724385" lat="42.7481253">
        <ele>943.2827</ele>
        <time>2022-05-20T08:43:31Z</time>
      </trkpt>
      <trkpt lon="13.4724587997" lat="42.7481663996">
        <ele>942.4529</ele>
        <time>2022-05-20T08:43:32Z</time>
      </trkpt>
      <trkpt lon="13.4724742996" lat="42.7482409004">
        <ele>941.9173</ele>
        <time>2022-05-20T08:43:33Z</time>
      </trkpt>
      <trkpt lon="13.4724671994" lat="42.7484695998">
        <ele>941.3169</ele>
        <time>2022-05-20T08:43:36Z</time>
      </trkpt>
      <trkpt lon="13.4724517003" lat="42.7485773">
        <ele>940.4945</ele>
        <time>2022-05-20T08:43:38Z</time>
      </trkpt>
      <trkpt lon="13.4724492998" lat="42.7486728">
        <ele>937.0966</ele>
        <time>2022-05-20T08:43:40Z</time>
      </trkpt>
      <trkpt lon="13.4724468997" lat="42.7488935996">
        <ele>937.8788</ele>
        <time>2022-05-20T08:43:43Z</time>
      </trkpt>
      <trkpt lon="13.4724529005" lat="42.7490504004">
        <ele>937.8058</ele>
        <time>2022-05-20T08:43:46Z</time>
      </trkpt>
      <trkpt lon="13.4724563999" lat="42.7491302001">
        <ele>937.9715</ele>
        <time>2022-05-20T08:43:47Z</time>
      </trkpt>
      <trkpt lon="13.4725256003" lat="42.7492939999">
        <ele>935.248</ele>
        <time>2022-05-20T08:43:50Z</time>
      </trkpt>
      <trkpt lon="13.4725912995" lat="42.7493938997">
        <ele>935.4628</ele>
        <time>2022-05-20T08:43:53Z</time>
      </trkpt>
      <trkpt lon="13.4726544996" lat="42.7494683001">
        <ele>935.2603</ele>
        <time>2022-05-20T08:43:54Z</time>
      </trkpt>
      <trkpt lon="13.472713" lat="42.7495261997">
        <ele>935.3257</ele>
        <time>2022-05-20T08:43:56Z</time>
      </trkpt>
      <trkpt lon="13.4727762002" lat="42.7495402002">
        <ele>934.0826</ele>
        <time>2022-05-20T08:43:57Z</time>
      </trkpt>
      <trkpt lon="13.4728835996" lat="42.7495218004">
        <ele>934.9373</ele>
        <time>2022-05-20T08:43:59Z</time>
      </trkpt>
      <trkpt lon="13.4729671003" lat="42.7494498997">
        <ele>936.1551</ele>
        <time>2022-05-20T08:44:01Z</time>
      </trkpt>
      <trkpt lon="13.4729969002" lat="42.7493378001">
        <ele>934.9041</ele>
        <time>2022-05-20T08:44:04Z</time>
      </trkpt>
      <trkpt lon="13.4730589006" lat="42.7491239999">
        <ele>932.8755</ele>
        <time>2022-05-20T08:44:09Z</time>
      </trkpt>
      <trkpt lon="13.4731246" lat="42.7490539004">
        <ele>933.4803</ele>
        <time>2022-05-20T08:44:11Z</time>
      </trkpt>
      <trkpt lon="13.4732068995" lat="42.7489750998">
        <ele>933.4286</ele>
        <time>2022-05-20T08:44:13Z</time>
      </trkpt>
      <trkpt lon="13.4733238" lat="42.7489145999">
        <ele>934.575</ele>
        <time>2022-05-20T08:44:16Z</time>
      </trkpt>
      <trkpt lon="13.4734168999" lat="42.7488620997">
        <ele>935.3338</ele>
        <time>2022-05-20T08:44:18Z</time>
      </trkpt>
      <trkpt lon="13.4735134997" lat="42.7488270002">
        <ele>935.7573</ele>
        <time>2022-05-20T08:44:20Z</time>
      </trkpt>
      <trkpt lon="13.4735839001" lat="42.7488270003">
        <ele>936.4059</ele>
        <time>2022-05-20T08:44:22Z</time>
      </trkpt>
      <trkpt lon="13.4736722002" lat="42.7488682002">
        <ele>937.9323</ele>
        <time>2022-05-20T08:44:25Z</time>
      </trkpt>
      <trkpt lon="13.4738261003" lat="42.7489567001">
        <ele>941.2625</ele>
        <time>2022-05-20T08:44:31Z</time>
      </trkpt>
      <trkpt lon="13.4739131996" lat="42.7489986997">
        <ele>942.2697</ele>
        <time>2022-05-20T08:44:35Z</time>
      </trkpt>
      <trkpt lon="13.4740312998" lat="42.7489960997">
        <ele>943.2887</ele>
        <time>2022-05-20T08:44:40Z</time>
      </trkpt>
      <trkpt lon="13.4741255005" lat="42.7489399999">
        <ele>944.2982</ele>
        <time>2022-05-20T08:44:46Z</time>
      </trkpt>
      <trkpt lon="13.4742544005" lat="42.7487840999">
        <ele>944.6138</ele>
        <time>2022-05-20T08:44:58Z</time>
      </trkpt>
      <trkpt lon="13.4744368998" lat="42.7485695">
        <ele>945.867</ele>
        <time>2022-05-20T08:45:11Z</time>
      </trkpt>
      <trkpt lon="13.4745038004" lat="42.7484888004">
        <ele>945.9182</ele>
        <time>2022-05-20T08:45:15Z</time>
      </trkpt>
      <trkpt lon="13.4746911004" lat="42.7482969996">
        <ele>947.5159</ele>
        <time>2022-05-20T08:45:23Z</time>
      </trkpt>
      <trkpt lon="13.4747996005" lat="42.7481778">
        <ele>951.5784</ele>
        <time>2022-05-20T08:45:28Z</time>
      </trkpt>
      <trkpt lon="13.4749892996" lat="42.7479841999">
        <ele>954.9756</ele>
        <time>2022-05-20T08:45:37Z</time>
      </trkpt>
      <trkpt lon="13.4750881759" lat="42.7479148617">
        <ele>955.6704</ele>
        <time>2022-05-20T08:45:41Z</time>
      </trkpt>
      <trkpt lon="13.4752089005" lat="42.7478598004">
        <ele>956.1684</ele>
        <time>2022-05-20T08:45:46Z</time>
      </trkpt>
      <trkpt lon="13.4752672998" lat="42.7478623998">
        <ele>956.0069</ele>
        <time>2022-05-20T08:45:48Z</time>
      </trkpt>
      <trkpt lon="13.4753556004" lat="42.7479114996">
        <ele>956.7516</ele>
        <time>2022-05-20T08:45:51Z</time>
      </trkpt>
      <trkpt lon="13.4754522005" lat="42.7480008003">
        <ele>959.0138</ele>
        <time>2022-05-20T08:45:55Z</time>
      </trkpt>
      <trkpt lon="13.4755930002" lat="42.7481244004">
        <ele>962.8148</ele>
        <time>2022-05-20T08:46:01Z</time>
      </trkpt>
      <trkpt lon="13.4757015999" lat="42.7481760999">
        <ele>963.5837</ele>
        <time>2022-05-20T08:46:05Z</time>
      </trkpt>
      <trkpt lon="13.4757802994" lat="42.7481961999">
        <ele>964.2389</ele>
        <time>2022-05-20T08:46:08Z</time>
      </trkpt>
      <trkpt lon="13.4758686003" lat="42.7481980002">
        <ele>964.274</ele>
        <time>2022-05-20T08:46:11Z</time>
      </trkpt>
      <trkpt lon="13.4759307001" lat="42.7482136999">
        <ele>964.3941</ele>
        <time>2022-05-20T08:46:13Z</time>
      </trkpt>
      <trkpt lon="13.4760248998" lat="42.7482584003">
        <ele>965.0933</ele>
        <time>2022-05-20T08:46:17Z</time>
      </trkpt>
      <trkpt lon="13.4762062999" lat="42.7483250002">
        <ele>966.8313</ele>
        <time>2022-05-20T08:46:22Z</time>
      </trkpt>
      <trkpt lon="13.4763530002" lat="42.7483600997">
        <ele>968.4873</ele>
        <time>2022-05-20T08:46:26Z</time>
      </trkpt>
      <trkpt lon="13.4764986002" lat="42.7483459996">
        <ele>968.5513</ele>
        <time>2022-05-20T08:46:30Z</time>
      </trkpt>
      <trkpt lon="13.4766118999" lat="42.7483163004">
        <ele>969.6193</ele>
        <time>2022-05-20T08:46:34Z</time>
      </trkpt>
      <trkpt lon="13.4767336" lat="42.7482829998">
        <ele>970.966</ele>
        <time>2022-05-20T08:46:38Z</time>
      </trkpt>
      <trkpt lon="13.47685616" lat="42.7482975023">
        <ele>971.8228</ele>
        <time>2022-05-20T08:46:41Z</time>
      </trkpt>
      <trkpt lon="13.4769518997" lat="42.7483275998">
        <ele>972.9671</ele>
        <time>2022-05-20T08:46:45Z</time>
      </trkpt>
      <trkpt lon="13.4770438164" lat="42.7483986075">
        <ele>974.5038</ele>
        <time>2022-05-20T08:46:49Z</time>
      </trkpt>
      <trkpt lon="13.4771118004" lat="42.7484845004">
        <ele>976.0198</ele>
        <time>2022-05-20T08:46:55Z</time>
      </trkpt>
      <trkpt lon="13.4771655578" lat="42.7485716187">
        <ele>976.0166</ele>
        <time>2022-05-20T08:47:00Z</time>
      </trkpt>
      <trkpt lon="13.4772418004" lat="42.7485909998">
        <ele>974.4589</ele>
        <time>2022-05-20T08:47:03Z</time>
      </trkpt>
      <trkpt lon="13.4773416995" lat="42.7485996">
        <ele>972.4165</ele>
        <time>2022-05-20T08:47:05Z</time>
      </trkpt>
      <trkpt lon="13.4774850996" lat="42.7485771999">
        <ele>970.5676</ele>
        <time>2022-05-20T08:47:07Z</time>
      </trkpt>
      <trkpt lon="13.4776038" lat="42.7485452004">
        <ele>969.3133</ele>
        <time>2022-05-20T08:47:09Z</time>
      </trkpt>
      <trkpt lon="13.4778259994" lat="42.7484796003">
        <ele>967.4334</ele>
        <time>2022-05-20T08:47:12Z</time>
      </trkpt>
      <trkpt lon="13.4780023001" lat="42.7484217997">
        <ele>965.6626</ele>
        <time>2022-05-20T08:47:14Z</time>
      </trkpt>
      <trkpt lon="13.4781280005" lat="42.7483717003">
        <ele>964.6956</ele>
        <time>2022-05-20T08:47:16Z</time>
      </trkpt>
      <trkpt lon="13.4782691" lat="42.7483148002">
        <ele>962.8044</ele>
        <time>2022-05-20T08:47:17Z</time>
      </trkpt>
      <trkpt lon="13.4785816999" lat="42.7481783996">
        <ele>958.2147</ele>
        <time>2022-05-20T08:47:22Z</time>
      </trkpt>
      <trkpt lon="13.4788155999" lat="42.7480481001">
        <ele>955.2652</ele>
        <time>2022-05-20T08:47:25Z</time>
      </trkpt>
      <trkpt lon="13.4791034995" lat="42.7477814001">
        <ele>954.7157</ele>
        <time>2022-05-20T08:47:31Z</time>
      </trkpt>
      <trkpt lon="13.4792763004" lat="42.7476044001">
        <ele>952.4076</ele>
        <time>2022-05-20T08:47:34Z</time>
      </trkpt>
      <trkpt lon="13.4795749005" lat="42.7471866998">
        <ele>946.153</ele>
        <time>2022-05-20T08:47:42Z</time>
      </trkpt>
      <trkpt lon="13.4797124001" lat="42.7466792002">
        <ele>941.4724</ele>
        <time>2022-05-20T08:47:50Z</time>
      </trkpt>
      <trkpt lon="13.4798017006" lat="42.7464703">
        <ele>939.659</ele>
        <time>2022-05-20T08:47:54Z</time>
      </trkpt>
      <trkpt lon="13.4799498003" lat="42.7462863998">
        <ele>937.9319</ele>
        <time>2022-05-20T08:47:58Z</time>
      </trkpt>
      <trkpt lon="13.4800872999" lat="42.7461449004">
        <ele>937.875</ele>
        <time>2022-05-20T08:48:01Z</time>
      </trkpt>
      <trkpt lon="13.4802094996" lat="42.7460474">
        <ele>937.7904</ele>
        <time>2022-05-20T08:48:03Z</time>
      </trkpt>
      <trkpt lon="13.4803247003" lat="42.7459628002">
        <ele>938.2175</ele>
        <time>2022-05-20T08:48:06Z</time>
      </trkpt>
      <trkpt lon="13.4804681" lat="42.7458677997">
        <ele>938.9063</ele>
        <time>2022-05-20T08:48:09Z</time>
      </trkpt>
      <trkpt lon="13.4807959999" lat="42.7456917001">
        <ele>938.4248</ele>
        <time>2022-05-20T08:48:16Z</time>
      </trkpt>
      <trkpt lon="13.4810288" lat="42.7455803996">
        <ele>934.3923</ele>
        <time>2022-05-20T08:48:21Z</time>
      </trkpt>
      <trkpt lon="13.4810921849" lat="42.7455476689">
        <ele>932.6881</ele>
        <time>2022-05-20T08:48:23Z</time>
      </trkpt>
      <trkpt lon="13.4812520515" lat="42.7454667152">
        <ele>927.5921</ele>
        <time>2022-05-20T08:48:26Z</time>
      </trkpt>
      <trkpt lon="13.4813649" lat="42.7454121003">
        <ele>924.2771</ele>
        <time>2022-05-20T08:48:27Z</time>
      </trkpt>
      <trkpt lon="13.4814941997" lat="42.7453154004">
        <ele>921.7387</ele>
        <time>2022-05-20T08:48:29Z</time>
      </trkpt>
      <trkpt lon="13.4816000005" lat="42.7451815997">
        <ele>918.4603</ele>
        <time>2022-05-20T08:48:31Z</time>
      </trkpt>
      <trkpt lon="13.4816681" lat="42.7451005001">
        <ele>916.1058</ele>
        <time>2022-05-20T08:48:33Z</time>
      </trkpt>
      <trkpt lon="13.4818797005" lat="42.7449857">
        <ele>910.5091</ele>
        <time>2022-05-20T08:48:35Z</time>
      </trkpt>
      <trkpt lon="13.4821794002" lat="42.7448131002">
        <ele>902.5468</ele>
        <time>2022-05-20T08:48:39Z</time>
      </trkpt>
      <trkpt lon="13.4823451002" lat="42.7447405999">
        <ele>898.049</ele>
        <time>2022-05-20T08:48:41Z</time>
      </trkpt>
      <trkpt lon="13.4823980005" lat="42.7447535004">
        <ele>897.3664</ele>
        <time>2022-05-20T08:48:42Z</time>
      </trkpt>
      <trkpt lon="13.4824308994" lat="42.7448122003">
        <ele>897.0693</ele>
        <time>2022-05-20T08:48:43Z</time>
      </trkpt>
      <trkpt lon="13.4824144999" lat="42.7449200999">
        <ele>896.1996</ele>
        <time>2022-05-20T08:48:44Z</time>
      </trkpt>
      <trkpt lon="13.4823403996" lat="42.7451194996">
        <ele>892.2632</ele>
        <time>2022-05-20T08:48:47Z</time>
      </trkpt>
      <trkpt lon="13.4822204994" lat="42.7453783995">
        <ele>886.251</ele>
        <time>2022-05-20T08:48:51Z</time>
      </trkpt>
      <trkpt lon="13.4821747" lat="42.7455130998">
        <ele>884.0951</ele>
        <time>2022-05-20T08:48:54Z</time>
      </trkpt>
      <trkpt lon="13.4821124" lat="42.7459421002">
        <ele>871.6417</ele>
        <time>2022-05-20T08:49:00Z</time>
      </trkpt>
      <trkpt lon="13.4820619006" lat="42.7460681003">
        <ele>869.5055</ele>
        <time>2022-05-20T08:49:02Z</time>
      </trkpt>
      <trkpt lon="13.4819972002" lat="42.7461690999">
        <ele>866.4624</ele>
        <time>2022-05-20T08:49:04Z</time>
      </trkpt>
      <trkpt lon="13.4819055994" lat="42.7462105001">
        <ele>867.3806</ele>
        <time>2022-05-20T08:49:05Z</time>
      </trkpt>
      <trkpt lon="13.4818339003" lat="42.7462373">
        <ele>868.7706</ele>
        <time>2022-05-20T08:49:06Z</time>
      </trkpt>
      <trkpt lon="13.4818033005" lat="42.7462588004">
        <ele>868.6389</ele>
        <time>2022-05-20T08:49:07Z</time>
      </trkpt>
      <trkpt lon="13.4818480002" lat="42.7463252997">
        <ele>861.5786</ele>
        <time>2022-05-20T08:49:08Z</time>
      </trkpt>
      <trkpt lon="13.4819677999" lat="42.7462967997">
        <ele>858.645</ele>
        <time>2022-05-20T08:49:10Z</time>
      </trkpt>
      <trkpt lon="13.4821159003" lat="42.7462622999">
        <ele>854.928</ele>
        <time>2022-05-20T08:49:12Z</time>
      </trkpt>
      <trkpt lon="13.4822241006" lat="42.7462208999">
        <ele>852.0417</ele>
        <time>2022-05-20T08:49:13Z</time>
      </trkpt>
      <trkpt lon="13.4822981001" lat="42.7461932">
        <ele>849.0209</ele>
        <time>2022-05-20T08:49:14Z</time>
      </trkpt>
      <trkpt lon="13.4824062999" lat="42.7461768001">
        <ele>843.4167</ele>
        <time>2022-05-20T08:49:15Z</time>
      </trkpt>
      <trkpt lon="13.4824321002" lat="42.7462182996">
        <ele>839.7999</ele>
        <time>2022-05-20T08:49:16Z</time>
      </trkpt>
      <trkpt lon="13.4823838998" lat="42.7462916">
        <ele>837.9519</ele>
        <time>2022-05-20T08:49:17Z</time>
      </trkpt>
      <trkpt lon="13.4822558002" lat="42.7463796997">
        <ele>837.9231</ele>
        <time>2022-05-20T08:49:18Z</time>
      </trkpt>
      <trkpt lon="13.4822041" lat="42.7464133">
        <ele>837.4925</ele>
        <time>2022-05-20T08:49:19Z</time>
      </trkpt>
      <trkpt lon="13.4820777" lat="42.7465569996">
        <ele>833.6826</ele>
        <time>2022-05-20T08:49:22Z</time>
      </trkpt>
      <trkpt lon="13.4819347" lat="42.7467107999">
        <ele>830.8626</ele>
        <time>2022-05-20T08:49:24Z</time>
      </trkpt>
      <trkpt lon="13.4819148" lat="42.7468291999">
        <ele>828.6467</ele>
        <time>2022-05-20T08:49:26Z</time>
      </trkpt>
      <trkpt lon="13.4818548998" lat="42.7469122003">
        <ele>830.5537</ele>
        <time>2022-05-20T08:49:28Z</time>
      </trkpt>
      <trkpt lon="13.4817685" lat="42.7470292998">
        <ele>834.4672</ele>
        <time>2022-05-20T08:49:30Z</time>
      </trkpt>
      <trkpt lon="13.4817501998" lat="42.7471783">
        <ele>835.5581</ele>
        <time>2022-05-20T08:49:34Z</time>
      </trkpt>
      <trkpt lon="13.4817369005" lat="42.7473272">
        <ele>836.1843</ele>
        <time>2022-05-20T08:49:38Z</time>
      </trkpt>
      <trkpt lon="13.4816947684" lat="42.7474605194">
        <ele>837.7491</ele>
        <time>2022-05-20T08:49:43Z</time>
      </trkpt>
      <trkpt lon="13.4816393111" lat="42.7475659396">
        <ele>839.2463</ele>
        <time>2022-05-20T08:49:48Z</time>
      </trkpt>
      <trkpt lon="13.4816122005" lat="42.7476592003">
        <ele>839.4241</ele>
        <time>2022-05-20T08:49:53Z</time>
      </trkpt>
      <trkpt lon="13.4815806995" lat="42.7477349002">
        <ele>840.093</ele>
        <time>2022-05-20T08:49:56Z</time>
      </trkpt>
      <trkpt lon="13.4815790003" lat="42.747802">
        <ele>839.8688</ele>
        <time>2022-05-20T08:49:59Z</time>
      </trkpt>
      <trkpt lon="13.4816171999" lat="42.7478397999">
        <ele>837.7365</ele>
        <time>2022-05-20T08:50:00Z</time>
      </trkpt>
      <trkpt lon="13.4816771001" lat="42.7478507999">
        <ele>835.4191</ele>
        <time>2022-05-20T08:50:01Z</time>
      </trkpt>
      <trkpt lon="13.4817635003" lat="42.7478374003">
        <ele>835.8417</ele>
        <time>2022-05-20T08:50:03Z</time>
      </trkpt>
      <trkpt lon="13.4818682001" lat="42.7477788001">
        <ele>834.8331</ele>
        <time>2022-05-20T08:50:04Z</time>
      </trkpt>
      <trkpt lon="13.4819497" lat="42.7477445999">
        <ele>834.8632</ele>
        <time>2022-05-20T08:50:05Z</time>
      </trkpt>
      <trkpt lon="13.4820128001" lat="42.7477531999">
        <ele>836.0446</ele>
        <time>2022-05-20T08:50:06Z</time>
      </trkpt>
      <trkpt lon="13.482071" lat="42.7477811996">
        <ele>837.8638</ele>
        <time>2022-05-20T08:50:07Z</time>
      </trkpt>
      <trkpt lon="13.4821242004" lat="42.7478142004">
        <ele>839.5346</ele>
        <time>2022-05-20T08:50:09Z</time>
      </trkpt>
      <trkpt lon="13.4821707003" lat="42.7478507999">
        <ele>840.992</ele>
        <time>2022-05-20T08:50:11Z</time>
      </trkpt>
      <trkpt lon="13.4822040004" lat="42.7478826002">
        <ele>842.2222</ele>
        <time>2022-05-20T08:50:14Z</time>
      </trkpt>
      <trkpt lon="13.4822837999" lat="42.7478972">
        <ele>843.056</ele>
        <time>2022-05-20T08:50:24Z</time>
      </trkpt>
      <trkpt lon="13.4823402999" lat="42.7478751999">
        <ele>843.2152</ele>
        <time>2022-05-20T08:50:32Z</time>
      </trkpt>
      <trkpt lon="13.4823817998" lat="42.7478032002">
        <ele>842.526</ele>
        <time>2022-05-20T08:50:39Z</time>
      </trkpt>
      <trkpt lon="13.4824134004" lat="42.7477030999">
        <ele>840.9765</ele>
        <time>2022-05-20T08:50:44Z</time>
      </trkpt>
      <trkpt lon="13.4823636005" lat="42.7475077998">
        <ele>836.4553</ele>
        <time>2022-05-20T08:50:51Z</time>
      </trkpt>
      <trkpt lon="13.4823054" lat="42.7472906001">
        <ele>831.2904</ele>
        <time>2022-05-20T08:50:56Z</time>
      </trkpt>
      <trkpt lon="13.4822937006" lat="42.7471794996">
        <ele>829.6442</ele>
        <time>2022-05-20T08:50:58Z</time>
      </trkpt>
      <trkpt lon="13.4823386002" lat="42.7471013998">
        <ele>829.5911</ele>
        <time>2022-05-20T08:50:59Z</time>
      </trkpt>
      <trkpt lon="13.4823735001" lat="42.7470525002">
        <ele>828.735</ele>
        <time>2022-05-20T08:51:00Z</time>
      </trkpt>
      <trkpt lon="13.4824882" lat="42.7470280997">
        <ele>828.9917</ele>
        <time>2022-05-20T08:51:01Z</time>
      </trkpt>
      <trkpt lon="13.4826179006" lat="42.7470415001">
        <ele>829.5245</ele>
        <time>2022-05-20T08:51:03Z</time>
      </trkpt>
      <trkpt lon="13.4828738001" lat="42.7470414996">
        <ele>828.0788</ele>
        <time>2022-05-20T08:51:06Z</time>
      </trkpt>
      <trkpt lon="13.4829918995" lat="42.7470549998">
        <ele>827.9256</ele>
        <time>2022-05-20T08:51:08Z</time>
      </trkpt>
      <trkpt lon="13.4831797002" lat="42.7470549996">
        <ele>827.3918</ele>
        <time>2022-05-20T08:51:11Z</time>
      </trkpt>
      <trkpt lon="13.4832744005" lat="42.7470476">
        <ele>827.2281</ele>
        <time>2022-05-20T08:51:13Z</time>
      </trkpt>
      <trkpt lon="13.4833624997" lat="42.7470037003">
        <ele>826.0185</ele>
        <time>2022-05-20T08:51:15Z</time>
      </trkpt>
      <trkpt lon="13.4835303999" lat="42.7469097004">
        <ele>826.9933</ele>
        <time>2022-05-20T08:51:18Z</time>
      </trkpt>
      <trkpt lon="13.4836866998" lat="42.7467790997">
        <ele>826.2302</ele>
        <time>2022-05-20T08:51:22Z</time>
      </trkpt>
      <trkpt lon="13.4837864004" lat="42.7465862004">
        <ele>822.646</ele>
        <time>2022-05-20T08:51:26Z</time>
      </trkpt>
      <trkpt lon="13.4838494999" lat="42.7464398003">
        <ele>819.2898</ele>
        <time>2022-05-20T08:51:29Z</time>
      </trkpt>
      <trkpt lon="13.4839011002" lat="42.7463665001">
        <ele>818.024</ele>
        <time>2022-05-20T08:51:31Z</time>
      </trkpt>
      <trkpt lon="13.4841470994" lat="42.7461505002">
        <ele>817.3106</ele>
        <time>2022-05-20T08:51:35Z</time>
      </trkpt>
      <trkpt lon="13.4842584" lat="42.7460137999">
        <ele>815.877</ele>
        <time>2022-05-20T08:51:38Z</time>
      </trkpt>
      <trkpt lon="13.4843381999" lat="42.7458685004">
        <ele>813.2736</ele>
        <time>2022-05-20T08:51:41Z</time>
      </trkpt>
      <trkpt lon="13.4844396002" lat="42.745711">
        <ele>812.7962</ele>
        <time>2022-05-20T08:51:43Z</time>
      </trkpt>
      <trkpt lon="13.4845177002" lat="42.7456378">
        <ele>812.7224</ele>
        <time>2022-05-20T08:51:45Z</time>
      </trkpt>
      <trkpt lon="13.4846041998" lat="42.7455632998">
        <ele>812.6863</ele>
        <time>2022-05-20T08:51:47Z</time>
      </trkpt>
      <trkpt lon="13.4847172006" lat="42.7454156001">
        <ele>813.0322</ele>
        <time>2022-05-20T08:51:50Z</time>
      </trkpt>
      <trkpt lon="13.4847842" lat="42.7453137">
        <ele>813.2687</ele>
        <time>2022-05-20T08:51:53Z</time>
      </trkpt>
      <trkpt lon="13.4848266004" lat="42.7452538998">
        <ele>813.1371</ele>
        <time>2022-05-20T08:51:54Z</time>
      </trkpt>
      <trkpt lon="13.4848756005" lat="42.7452057002">
        <ele>812.6957</ele>
        <time>2022-05-20T08:51:56Z</time>
      </trkpt>
      <trkpt lon="13.4849054997" lat="42.7451825003">
        <ele>812.4788</ele>
        <time>2022-05-20T08:51:57Z</time>
      </trkpt>
      <trkpt lon="13.4849611997" lat="42.7451458998">
        <ele>811.8984</ele>
        <time>2022-05-20T08:51:58Z</time>
      </trkpt>
      <trkpt lon="13.4850060995" lat="42.7451299998">
        <ele>811.8042</ele>
        <time>2022-05-20T08:51:59Z</time>
      </trkpt>
      <trkpt lon="13.4850666996" lat="42.7451190003">
        <ele>812.288</ele>
        <time>2022-05-20T08:52:00Z</time>
      </trkpt>
      <trkpt lon="13.4851415003" lat="42.7450885004">
        <ele>812.6303</ele>
        <time>2022-05-20T08:52:01Z</time>
      </trkpt>
      <trkpt lon="13.4851623001" lat="42.7450293004">
        <ele>811.3038</ele>
        <time>2022-05-20T08:52:03Z</time>
      </trkpt>
      <trkpt lon="13.4851697998" lat="42.7449738004">
        <ele>809.8411</ele>
        <time>2022-05-20T08:52:04Z</time>
      </trkpt>
      <trkpt lon="13.4851748006" lat="42.7448705998">
        <ele>808.1678</ele>
        <time>2022-05-20T08:52:06Z</time>
      </trkpt>
      <trkpt lon="13.4851830995" lat="42.7447894004">
        <ele>806.8626</ele>
        <time>2022-05-20T08:52:08Z</time>
      </trkpt>
      <trkpt lon="13.4851873001" lat="42.7447167999">
        <ele>805.7312</ele>
        <time>2022-05-20T08:52:09Z</time>
      </trkpt>
      <trkpt lon="13.4852130006" lat="42.7446466001">
        <ele>805.7159</ele>
        <time>2022-05-20T08:52:10Z</time>
      </trkpt>
      <trkpt lon="13.4852636999" lat="42.7445319001">
        <ele>805.9958</ele>
        <time>2022-05-20T08:52:12Z</time>
      </trkpt>
      <trkpt lon="13.4852894998" lat="42.7444544001">
        <ele>806.4272</ele>
        <time>2022-05-20T08:52:13Z</time>
      </trkpt>
      <trkpt lon="13.4852889063" lat="42.744285145">
        <ele>806.2363</ele>
        <time>2022-05-20T08:52:17Z</time>
      </trkpt>
      <trkpt lon="13.4852878791" lat="42.7441210082">
        <ele>805.6853</ele>
        <time>2022-05-20T08:52:21Z</time>
      </trkpt>
      <trkpt lon="13.4852870002" lat="42.7440270999">
        <ele>805.9089</ele>
        <time>2022-05-20T08:52:23Z</time>
      </trkpt>
      <trkpt lon="13.4852586997" lat="42.7437921002">
        <ele>802.1767</ele>
        <time>2022-05-20T08:52:29Z</time>
      </trkpt>
      <trkpt lon="13.4852254998" lat="42.7434937001">
        <ele>798.6131</ele>
        <time>2022-05-20T08:52:37Z</time>
      </trkpt>
      <trkpt lon="13.4851745994" lat="42.7430233997">
        <ele>796.173</ele>
        <time>2022-05-20T08:52:47Z</time>
      </trkpt>
      <trkpt lon="13.4851480003" lat="42.7427718997">
        <ele>795.2879</ele>
        <time>2022-05-20T08:52:52Z</time>
      </trkpt>
      <trkpt lon="13.4850749006" lat="42.7424326002">
        <ele>794.5381</ele>
        <time>2022-05-20T08:52:58Z</time>
      </trkpt>
      <trkpt lon="13.4849785001" lat="42.7422055002">
        <ele>793.5587</ele>
        <time>2022-05-20T08:53:03Z</time>
      </trkpt>
      <trkpt lon="13.4849052996" lat="42.7418247004">
        <ele>792.5805</ele>
        <time>2022-05-20T08:53:10Z</time>
      </trkpt>
      <trkpt lon="13.4848322" lat="42.7415659004">
        <ele>792.4483</ele>
        <time>2022-05-20T08:53:16Z</time>
      </trkpt>
      <trkpt lon="13.4847323999" lat="42.7414120003">
        <ele>791.5341</ele>
        <time>2022-05-20T08:53:20Z</time>
      </trkpt>
      <trkpt lon="13.4844366006" lat="42.7410848999">
        <ele>786.8055</ele>
        <time>2022-05-20T08:53:28Z</time>
      </trkpt>
      <trkpt lon="13.4843700998" lat="42.7409628001">
        <ele>786.1154</ele>
        <time>2022-05-20T08:53:31Z</time>
      </trkpt>
      <trkpt lon="13.4843867" lat="42.7408553999">
        <ele>786.2136</ele>
        <time>2022-05-20T08:53:33Z</time>
      </trkpt>
      <trkpt lon="13.4845462998" lat="42.7407113004">
        <ele>787.4951</ele>
        <time>2022-05-20T08:53:37Z</time>
      </trkpt>
      <trkpt lon="13.4847822899" lat="42.740482813">
        <ele>786.6223</ele>
        <time>2022-05-20T08:53:43Z</time>
      </trkpt>
      <trkpt lon="13.4849003005" lat="42.7403405886">
        <ele>785.9703</ele>
        <time>2022-05-20T08:53:47Z</time>
      </trkpt>
      <trkpt lon="13.4849451999" lat="42.7402766998">
        <ele>785.8009</ele>
        <time>2022-05-20T08:53:49Z</time>
      </trkpt>
      <trkpt lon="13.4850249996" lat="42.7400789999">
        <ele>784.456</ele>
        <time>2022-05-20T08:53:54Z</time>
      </trkpt>
      <trkpt lon="13.4850515994" lat="42.7399153996">
        <ele>784.0012</ele>
        <time>2022-05-20T08:53:58Z</time>
      </trkpt>
      <trkpt lon="13.4850715005" lat="42.7397811001">
        <ele>784.1185</ele>
        <time>2022-05-20T08:54:01Z</time>
      </trkpt>
      <trkpt lon="13.4852078005" lat="42.7395076003">
        <ele>783.0141</ele>
        <time>2022-05-20T08:54:08Z</time>
      </trkpt>
      <trkpt lon="13.4856300005" lat="42.7388019997">
        <ele>783.4619</ele>
        <time>2022-05-20T08:54:26Z</time>
      </trkpt>
      <trkpt lon="13.4857397004" lat="42.7386604003">
        <ele>785.3393</ele>
        <time>2022-05-20T08:54:30Z</time>
      </trkpt>
      <trkpt lon="13.4858261996" lat="42.7384723997">
        <ele>786.0918</ele>
        <time>2022-05-20T08:54:35Z</time>
      </trkpt>
      <trkpt lon="13.4859292005" lat="42.7382478001">
        <ele>786.1535</ele>
        <time>2022-05-20T08:54:42Z</time>
      </trkpt>
      <trkpt lon="13.4860489002" lat="42.7379693997">
        <ele>786.5475</ele>
        <time>2022-05-20T08:54:51Z</time>
      </trkpt>
      <trkpt lon="13.4860988" lat="42.7378497997">
        <ele>787.0446</ele>
        <time>2022-05-20T08:54:54Z</time>
      </trkpt>
      <trkpt lon="13.4861618996" lat="42.7377668004">
        <ele>788.0541</ele>
        <time>2022-05-20T08:54:57Z</time>
      </trkpt>
      <trkpt lon="13.4862882" lat="42.7377081998">
        <ele>791.0439</ele>
        <time>2022-05-20T08:55:01Z</time>
      </trkpt>
      <trkpt lon="13.4864977002" lat="42.7376348999">
        <ele>795.2348</ele>
        <time>2022-05-20T08:55:07Z</time>
      </trkpt>
      <trkpt lon="13.4866771996" lat="42.7375812002">
        <ele>796.7046</ele>
        <time>2022-05-20T08:55:14Z</time>
      </trkpt>
      <trkpt lon="13.4868102004" lat="42.7375055001">
        <ele>795.3864</ele>
        <time>2022-05-20T08:55:21Z</time>
      </trkpt>
      <trkpt lon="13.4870063" lat="42.7374713004">
        <ele>795.3987</ele>
        <time>2022-05-20T08:55:29Z</time>
      </trkpt>
      <trkpt lon="13.4871127005" lat="42.7374933004">
        <ele>796.3823</ele>
        <time>2022-05-20T08:55:33Z</time>
      </trkpt>
      <trkpt lon="13.4872622997" lat="42.7375446004">
        <ele>796.2492</ele>
        <time>2022-05-20T08:55:38Z</time>
      </trkpt>
      <trkpt lon="13.4874085999" lat="42.7377595">
        <ele>797.0189</ele>
        <time>2022-05-20T08:55:45Z</time>
      </trkpt>
      <trkpt lon="13.4875116005" lat="42.7379817">
        <ele>797.5405</ele>
        <time>2022-05-20T08:55:52Z</time>
      </trkpt>
      <trkpt lon="13.4875615002" lat="42.7380987997">
        <ele>798.6592</ele>
        <time>2022-05-20T08:55:56Z</time>
      </trkpt>
      <trkpt lon="13.4876445996" lat="42.7382331002">
        <ele>799.5351</ele>
        <time>2022-05-20T08:56:00Z</time>
      </trkpt>
      <trkpt lon="13.4878240997" lat="42.7383673996">
        <ele>802.8431</ele>
        <time>2022-05-20T08:56:07Z</time>
      </trkpt>
      <trkpt lon="13.4879637002" lat="42.7384406997">
        <ele>803.2039</ele>
        <time>2022-05-20T08:56:11Z</time>
      </trkpt>
      <trkpt lon="13.4882163999" lat="42.7385286001">
        <ele>803.3187</ele>
        <time>2022-05-20T08:56:19Z</time>
      </trkpt>
      <trkpt lon="13.4883743905" lat="42.7386044866">
        <ele>803.6043</ele>
        <time>2022-05-20T08:56:24Z</time>
      </trkpt>
      <trkpt lon="13.4885663814" lat="42.7386698236">
        <ele>803.7775</ele>
        <time>2022-05-20T08:56:29Z</time>
      </trkpt>
      <trkpt lon="13.4886697511" lat="42.7387586668">
        <ele>804.4167</ele>
        <time>2022-05-20T08:56:33Z</time>
      </trkpt>
      <trkpt lon="13.4887929725" lat="42.7388538774">
        <ele>804.8737</ele>
        <time>2022-05-20T08:56:37Z</time>
      </trkpt>
      <trkpt lon="13.488887707" lat="42.7389573525">
        <ele>806.09</ele>
        <time>2022-05-20T08:56:41Z</time>
      </trkpt>
      <trkpt lon="13.4889228907" lat="42.7390417278">
        <ele>805.8245</ele>
        <time>2022-05-20T08:56:43Z</time>
      </trkpt>
      <trkpt lon="13.4888888557" lat="42.7391073817">
        <ele>807.2808</ele>
        <time>2022-05-20T08:56:46Z</time>
      </trkpt>
      <trkpt lon="13.4888579114" lat="42.7392157927">
        <ele>804.9987</ele>
        <time>2022-05-20T08:56:49Z</time>
      </trkpt>
      <trkpt lon="13.4887801756" lat="42.7393474808">
        <ele>805.1995</ele>
        <time>2022-05-20T08:56:54Z</time>
      </trkpt>
      <trkpt lon="13.4887400779" lat="42.7394633985">
        <ele>805.7997</ele>
        <time>2022-05-20T08:56:57Z</time>
      </trkpt>
      <trkpt lon="13.4887376221" lat="42.7395635441">
        <ele>805.3234</ele>
        <time>2022-05-20T08:57:00Z</time>
      </trkpt>
      <trkpt lon="13.4887855633" lat="42.7396902962">
        <ele>802.8564</ele>
        <time>2022-05-20T08:57:03Z</time>
      </trkpt>
      <trkpt lon="13.488854902" lat="42.739844794">
        <ele>801.3609</ele>
        <time>2022-05-20T08:57:06Z</time>
      </trkpt>
      <trkpt lon="13.4889894574" lat="42.7400967796">
        <ele>798.0197</ele>
        <time>2022-05-20T08:57:12Z</time>
      </trkpt>
      <trkpt lon="13.4891275012" lat="42.7402628713">
        <ele>794.9569</ele>
        <time>2022-05-20T08:57:15Z</time>
      </trkpt>
      <trkpt lon="13.4892527866" lat="42.740386585">
        <ele>793.9058</ele>
        <time>2022-05-20T08:57:18Z</time>
      </trkpt>
      <trkpt lon="13.4893658293" lat="42.7404750482">
        <ele>793.831</ele>
        <time>2022-05-20T08:57:20Z</time>
      </trkpt>
      <trkpt lon="13.4895434548" lat="42.740518096">
        <ele>788.2016</ele>
        <time>2022-05-20T08:57:22Z</time>
      </trkpt>
      <trkpt lon="13.4896753182" lat="42.7405986727">
        <ele>784.263</ele>
        <time>2022-05-20T08:57:24Z</time>
      </trkpt>
      <trkpt lon="13.4897899076" lat="42.7407085136">
        <ele>782.6952</ele>
        <time>2022-05-20T08:57:26Z</time>
      </trkpt>
      <trkpt lon="13.4898566731" lat="42.74082738">
        <ele>783.1507</ele>
        <time>2022-05-20T08:57:28Z</time>
      </trkpt>
      <trkpt lon="13.4898883742" lat="42.7409976479">
        <ele>783.3319</ele>
        <time>2022-05-20T08:57:31Z</time>
      </trkpt>
      <trkpt lon="13.4898519998" lat="42.741169435">
        <ele>786.1308</ele>
        <time>2022-05-20T08:57:34Z</time>
      </trkpt>
      <trkpt lon="13.4899036487" lat="42.7412835561">
        <ele>784.6344</ele>
        <time>2022-05-20T08:57:36Z</time>
      </trkpt>
      <trkpt lon="13.4899958062" lat="42.7413208798">
        <ele>783.7254</ele>
        <time>2022-05-20T08:57:38Z</time>
      </trkpt>
      <trkpt lon="13.4901078995" lat="42.7413558998">
        <ele>782.4897</ele>
        <time>2022-05-20T08:57:40Z</time>
      </trkpt>
      <trkpt lon="13.4901944001" lat="42.7414096004">
        <ele>779.8324</ele>
        <time>2022-05-20T08:57:42Z</time>
      </trkpt>
      <trkpt lon="13.4902642" lat="42.7414925999">
        <ele>778.06</ele>
        <time>2022-05-20T08:57:44Z</time>
      </trkpt>
      <trkpt lon="13.4903041" lat="42.7415926997">
        <ele>777.6704</ele>
        <time>2022-05-20T08:57:46Z</time>
      </trkpt>
      <trkpt lon="13.4903705995" lat="42.7416927999">
        <ele>776.2826</ele>
        <time>2022-05-20T08:57:47Z</time>
      </trkpt>
      <trkpt lon="13.4904868998" lat="42.7417734001">
        <ele>773.2111</ele>
        <time>2022-05-20T08:57:49Z</time>
      </trkpt>
      <trkpt lon="13.4906132005" lat="42.7418271">
        <ele>771.7877</ele>
        <time>2022-05-20T08:57:51Z</time>
      </trkpt>
      <trkpt lon="13.4907328999" lat="42.7418563996">
        <ele>771.0144</ele>
        <time>2022-05-20T08:57:52Z</time>
      </trkpt>
      <trkpt lon="13.4907894003" lat="42.7419271997">
        <ele>769.9517</ele>
        <time>2022-05-20T08:57:53Z</time>
      </trkpt>
      <trkpt lon="13.4909989006" lat="42.7422420997">
        <ele>764.3376</ele>
        <time>2022-05-20T08:57:59Z</time>
      </trkpt>
      <trkpt lon="13.4910953" lat="42.7423470997">
        <ele>760.1624</ele>
        <time>2022-05-20T08:58:01Z</time>
      </trkpt>
      <trkpt lon="13.4911684001" lat="42.7424399002">
        <ele>757.1793</ele>
        <time>2022-05-20T08:58:02Z</time>
      </trkpt>
      <trkpt lon="13.4912548005" lat="42.74254">
        <ele>755.1414</ele>
        <time>2022-05-20T08:58:04Z</time>
      </trkpt>
      <trkpt lon="13.4913279999" lat="42.7425717003">
        <ele>754.3854</ele>
        <time>2022-05-20T08:58:05Z</time>
      </trkpt>
      <trkpt lon="13.4914642997" lat="42.7425814999">
        <ele>754.0933</ele>
        <time>2022-05-20T08:58:07Z</time>
      </trkpt>
      <trkpt lon="13.4916105995" lat="42.7425716997">
        <ele>754.428</ele>
        <time>2022-05-20T08:58:08Z</time>
      </trkpt>
      <trkpt lon="13.4917268997" lat="42.7425254003">
        <ele>754.385</ele>
        <time>2022-05-20T08:58:10Z</time>
      </trkpt>
      <trkpt lon="13.4917801003" lat="42.7424471998">
        <ele>753.4304</ele>
        <time>2022-05-20T08:58:11Z</time>
      </trkpt>
      <trkpt lon="13.4918265995" lat="42.7424008004">
        <ele>753.3509</ele>
        <time>2022-05-20T08:58:13Z</time>
      </trkpt>
      <trkpt lon="13.4919462994" lat="42.7423422003">
        <ele>753.768</ele>
        <time>2022-05-20T08:58:15Z</time>
      </trkpt>
      <trkpt lon="13.4920028003" lat="42.7423055996">
        <ele>753.3416</ele>
        <time>2022-05-20T08:58:16Z</time>
      </trkpt>
      <trkpt lon="13.4920227995" lat="42.7422518999">
        <ele>751.986</ele>
        <time>2022-05-20T08:58:18Z</time>
      </trkpt>
      <trkpt lon="13.4921058994" lat="42.7421688997">
        <ele>751.3074</ele>
        <time>2022-05-20T08:58:20Z</time>
      </trkpt>
      <trkpt lon="13.4922321999" lat="42.7421054">
        <ele>752.6047</ele>
        <time>2022-05-20T08:58:22Z</time>
      </trkpt>
      <trkpt lon="13.4923052999" lat="42.7420615002">
        <ele>753.3574</ele>
        <time>2022-05-20T08:58:23Z</time>
      </trkpt>
      <trkpt lon="13.4923717994" lat="42.7419785">
        <ele>753.1842</ele>
        <time>2022-05-20T08:58:25Z</time>
      </trkpt>
      <trkpt lon="13.4924216996" lat="42.7418612999">
        <ele>753.0298</ele>
        <time>2022-05-20T08:58:28Z</time>
      </trkpt>
      <trkpt lon="13.4924915002" lat="42.7417197001">
        <ele>749.4314</ele>
        <time>2022-05-20T08:58:32Z</time>
      </trkpt>
      <trkpt lon="13.4925147997" lat="42.7415926996">
        <ele>747.3213</ele>
        <time>2022-05-20T08:58:35Z</time>
      </trkpt>
      <trkpt lon="13.4925213999" lat="42.7414804001">
        <ele>746.3139</ele>
        <time>2022-05-20T08:58:37Z</time>
      </trkpt>
      <trkpt lon="13.4925546998" lat="42.7413753997">
        <ele>745.7466</ele>
        <time>2022-05-20T08:58:39Z</time>
      </trkpt>
      <trkpt lon="13.4925512994" lat="42.7412778001">
        <ele>744.7809</ele>
        <time>2022-05-20T08:58:41Z</time>
      </trkpt>
      <trkpt lon="13.4925114999" lat="42.7411776998">
        <ele>743.1972</ele>
        <time>2022-05-20T08:58:43Z</time>
      </trkpt>
      <trkpt lon="13.4924548997" lat="42.7410849002">
        <ele>739.6563</ele>
        <time>2022-05-20T08:58:44Z</time>
      </trkpt>
      <trkpt lon="13.4924582999" lat="42.7409530001">
        <ele>737.4487</ele>
        <time>2022-05-20T08:58:47Z</time>
      </trkpt>
      <trkpt lon="13.4924483002" lat="42.7408383001">
        <ele>736.6603</ele>
        <time>2022-05-20T08:58:48Z</time>
      </trkpt>
      <trkpt lon="13.4924450005" lat="42.7407602">
        <ele>735.3829</ele>
        <time>2022-05-20T08:58:50Z</time>
      </trkpt>
      <trkpt lon="13.4925346998" lat="42.7406648996">
        <ele>734.7684</ele>
        <time>2022-05-20T08:58:51Z</time>
      </trkpt>
      <trkpt lon="13.4926677003" lat="42.7406844998">
        <ele>734.674</ele>
        <time>2022-05-20T08:58:53Z</time>
      </trkpt>
      <trkpt lon="13.4927873995" lat="42.7407309">
        <ele>734.3808</ele>
        <time>2022-05-20T08:58:55Z</time>
      </trkpt>
      <trkpt lon="13.4929136996" lat="42.7408113997">
        <ele>732.725</ele>
        <time>2022-05-20T08:58:57Z</time>
      </trkpt>
      <trkpt lon="13.4929901997" lat="42.7409164001">
        <ele>732.2025</ele>
        <time>2022-05-20T08:59:00Z</time>
      </trkpt>
      <trkpt lon="13.4930633005" lat="42.7410702001">
        <ele>727.7634</ele>
        <time>2022-05-20T08:59:03Z</time>
      </trkpt>
      <trkpt lon="13.4931564" lat="42.7412752996">
        <ele>723.7253</ele>
        <time>2022-05-20T08:59:07Z</time>
      </trkpt>
      <trkpt lon="13.4932261997" lat="42.7414534999">
        <ele>720.0497</ele>
        <time>2022-05-20T08:59:10Z</time>
      </trkpt>
      <trkpt lon="13.4934655004" lat="42.7418587996">
        <ele>710.5556</ele>
        <time>2022-05-20T08:59:17Z</time>
      </trkpt>
      <trkpt lon="13.4935852004" lat="42.7420345998">
        <ele>704.614</ele>
        <time>2022-05-20T08:59:20Z</time>
      </trkpt>
      <trkpt lon="13.4936517005" lat="42.7421445003">
        <ele>703.2644</ele>
        <time>2022-05-20T08:59:21Z</time>
      </trkpt>
      <trkpt lon="13.4937448004" lat="42.7422592001">
        <ele>701.8448</ele>
        <time>2022-05-20T08:59:23Z</time>
      </trkpt>
      <trkpt lon="13.4938611" lat="42.7423667">
        <ele>697.4437</ele>
        <time>2022-05-20T08:59:25Z</time>
      </trkpt>
      <trkpt lon="13.4939309997" lat="42.7424056999">
        <ele>695.2276</ele>
        <time>2022-05-20T08:59:26Z</time>
      </trkpt>
      <trkpt lon="13.4939940999" lat="42.7423983999">
        <ele>693.1439</ele>
        <time>2022-05-20T08:59:27Z</time>
      </trkpt>
      <trkpt lon="13.4940140997" lat="42.7423495997">
        <ele>692.3733</ele>
        <time>2022-05-20T08:59:28Z</time>
      </trkpt>
      <trkpt lon="13.4940040998" lat="42.7422421004">
        <ele>691.0334</ele>
        <time>2022-05-20T08:59:29Z</time>
      </trkpt>
      <trkpt lon="13.4940904998" lat="42.7422251001">
        <ele>687.7105</ele>
        <time>2022-05-20T08:59:30Z</time>
      </trkpt>
      <trkpt lon="13.4942202001" lat="42.7422959004">
        <ele>685.0512</ele>
        <time>2022-05-20T08:59:32Z</time>
      </trkpt>
      <trkpt lon="13.4943332" lat="42.7423641998">
        <ele>682.2338</ele>
        <time>2022-05-20T08:59:33Z</time>
      </trkpt>
      <trkpt lon="13.4943530422" lat="42.7423854592">
        <ele>681.9116</ele>
        <time>2022-05-20T08:59:34Z</time>
      </trkpt>
      <trkpt lon="13.4944202879" lat="42.7424610383">
        <ele>680.276</ele>
        <time>2022-05-20T08:59:35Z</time>
      </trkpt>
      <trkpt lon="13.4944695003" lat="42.7425375996">
        <ele>678.7581</ele>
        <time>2022-05-20T08:59:36Z</time>
      </trkpt>
      <trkpt lon="13.4945293003" lat="42.7425864">
        <ele>677.2974</ele>
        <time>2022-05-20T08:59:37Z</time>
      </trkpt>
      <trkpt lon="13.4945825" lat="42.7426694002">
        <ele>676.4651</ele>
        <time>2022-05-20T08:59:38Z</time>
      </trkpt>
      <trkpt lon="13.4945858998" lat="42.7427303996">
        <ele>676.0109</ele>
        <time>2022-05-20T08:59:39Z</time>
      </trkpt>
      <trkpt lon="13.4946025004" lat="42.7427743996">
        <ele>675.0757</ele>
        <time>2022-05-20T08:59:40Z</time>
      </trkpt>
      <trkpt lon="13.4946373998" lat="42.7428061003">
        <ele>673.6406</ele>
        <time>2022-05-20T08:59:41Z</time>
      </trkpt>
      <trkpt lon="13.4946802997" lat="42.7427670997">
        <ele>672.5578</ele>
        <time>2022-05-20T08:59:42Z</time>
      </trkpt>
      <trkpt lon="13.4946988001" lat="42.7426519002">
        <ele>672.8325</ele>
        <time>2022-05-20T08:59:43Z</time>
      </trkpt>
      <trkpt lon="13.4947275004" lat="42.7425961">
        <ele>672.3529</ele>
        <time>2022-05-20T08:59:44Z</time>
      </trkpt>
      <trkpt lon="13.4948557" lat="42.7425119004">
        <ele>669.4781</ele>
        <time>2022-05-20T08:59:46Z</time>
      </trkpt>
      <trkpt lon="13.4949552999" lat="42.7424040002">
        <ele>667.3209</ele>
        <time>2022-05-20T08:59:48Z</time>
      </trkpt>
      <trkpt lon="13.4949704996" lat="42.7423285001">
        <ele>667.0029</ele>
        <time>2022-05-20T08:59:49Z</time>
      </trkpt>
      <trkpt lon="13.4949789001" lat="42.7422368002">
        <ele>665.8629</ele>
        <time>2022-05-20T08:59:51Z</time>
      </trkpt>
      <trkpt lon="13.4949334001" lat="42.7421710997">
        <ele>666.114</ele>
        <time>2022-05-20T08:59:52Z</time>
      </trkpt>
      <trkpt lon="13.4949384004" lat="42.7421141">
        <ele>665.1078</ele>
        <time>2022-05-20T08:59:53Z</time>
      </trkpt>
      <trkpt lon="13.4949772001" lat="42.7420930001">
        <ele>663.8759</ele>
        <time>2022-05-20T08:59:54Z</time>
      </trkpt>
      <trkpt lon="13.4950952995" lat="42.7420943002">
        <ele>661.9645</ele>
        <time>2022-05-20T08:59:55Z</time>
      </trkpt>
      <trkpt lon="13.4951544001" lat="42.7421202997">
        <ele>661.1161</ele>
        <time>2022-05-20T08:59:56Z</time>
      </trkpt>
      <trkpt lon="13.4952809003" lat="42.7421759999">
        <ele>658.1082</ele>
        <time>2022-05-20T08:59:58Z</time>
      </trkpt>
      <trkpt lon="13.4953552004" lat="42.7422355004">
        <ele>656.972</ele>
        <time>2022-05-20T08:59:59Z</time>
      </trkpt>
      <trkpt lon="13.4954243001" lat="42.7423210001">
        <ele>655.9455</ele>
        <time>2022-05-20T09:00:00Z</time>
      </trkpt>
      <trkpt lon="13.4954681996" lat="42.7423742999">
        <ele>653.9651</ele>
        <time>2022-05-20T09:00:01Z</time>
      </trkpt>
      <trkpt lon="13.4955407998" lat="42.7423718003">
        <ele>652.7503</ele>
        <time>2022-05-20T09:00:02Z</time>
      </trkpt>
      <trkpt lon="13.4955914002" lat="42.7423259999">
        <ele>652.0938</ele>
        <time>2022-05-20T09:00:03Z</time>
      </trkpt>
      <trkpt lon="13.4956015" lat="42.7422330003">
        <ele>651.4714</ele>
        <time>2022-05-20T09:00:04Z</time>
      </trkpt>
      <trkpt lon="13.4955830004" lat="42.7418352998">
        <ele>643.2225</ele>
        <time>2022-05-20T09:00:10Z</time>
      </trkpt>
      <trkpt lon="13.4955711006" lat="42.7416357997">
        <ele>641.7882</ele>
        <time>2022-05-20T09:00:13Z</time>
      </trkpt>
      <trkpt lon="13.4955609996" lat="42.7414622997">
        <ele>638.4943</ele>
        <time>2022-05-20T09:00:16Z</time>
      </trkpt>
      <trkpt lon="13.4955289999" lat="42.7412863004">
        <ele>637.3618</ele>
        <time>2022-05-20T09:00:18Z</time>
      </trkpt>
      <trkpt lon="13.4954716005" lat="42.7412207003">
        <ele>637.4391</ele>
        <time>2022-05-20T09:00:20Z</time>
      </trkpt>
      <trkpt lon="13.4953552" lat="42.7411326997">
        <ele>637.2732</ele>
        <time>2022-05-20T09:00:22Z</time>
      </trkpt>
      <trkpt lon="13.4953129994" lat="42.7410880996">
        <ele>636.8722</ele>
        <time>2022-05-20T09:00:23Z</time>
      </trkpt>
      <trkpt lon="13.4952960999" lat="42.7410260997">
        <ele>636.0475</ele>
        <time>2022-05-20T09:00:24Z</time>
      </trkpt>
      <trkpt lon="13.4953247994" lat="42.7409530003">
        <ele>634.6916</ele>
        <time>2022-05-20T09:00:26Z</time>
      </trkpt>
      <trkpt lon="13.4954075002" lat="42.7409208">
        <ele>632.9778</ele>
        <time>2022-05-20T09:00:27Z</time>
      </trkpt>
      <trkpt lon="13.4956629999" lat="42.7408883998">
        <ele>629.2734</ele>
        <time>2022-05-20T09:00:30Z</time>
      </trkpt>
      <trkpt lon="13.4957837002" lat="42.7409070999">
        <ele>627.1267</ele>
        <time>2022-05-20T09:00:32Z</time>
      </trkpt>
      <trkpt lon="13.4958646994" lat="42.7409914004">
        <ele>626.2225</ele>
        <time>2022-05-20T09:00:33Z</time>
      </trkpt>
      <trkpt lon="13.4959221" lat="42.7411313999">
        <ele>624.8678</ele>
        <time>2022-05-20T09:00:35Z</time>
      </trkpt>
      <trkpt lon="13.4959811005" lat="42.7413160998">
        <ele>623.453</ele>
        <time>2022-05-20T09:00:38Z</time>
      </trkpt>
      <trkpt lon="13.4960131996" lat="42.7414511004">
        <ele>622.7225</ele>
        <time>2022-05-20T09:00:40Z</time>
      </trkpt>
      <trkpt lon="13.4961499006" lat="42.7417026996">
        <ele>616.8675</ele>
        <time>2022-05-20T09:00:45Z</time>
      </trkpt>
      <trkpt lon="13.4962106005" lat="42.741808">
        <ele>616.1646</ele>
        <time>2022-05-20T09:00:47Z</time>
      </trkpt>
      <trkpt lon="13.4962476997" lat="42.7419294998">
        <ele>616.6035</ele>
        <time>2022-05-20T09:00:49Z</time>
      </trkpt>
      <trkpt lon="13.4962544996" lat="42.7420074998">
        <ele>617.1953</ele>
        <time>2022-05-20T09:00:50Z</time>
      </trkpt>
      <trkpt lon="13.4962814998" lat="42.7420534002">
        <ele>616.4199</ele>
        <time>2022-05-20T09:00:51Z</time>
      </trkpt>
      <trkpt lon="13.4963405001" lat="42.7420633">
        <ele>614.5113</ele>
        <time>2022-05-20T09:00:52Z</time>
      </trkpt>
      <trkpt lon="13.4963844001" lat="42.7420335">
        <ele>613.003</ele>
        <time>2022-05-20T09:00:53Z</time>
      </trkpt>
      <trkpt lon="13.4964029998" lat="42.7419319003">
        <ele>611.618</ele>
        <time>2022-05-20T09:00:55Z</time>
      </trkpt>
      <trkpt lon="13.4963625003" lat="42.7415986002">
        <ele>606.8612</ele>
        <time>2022-05-20T09:01:00Z</time>
      </trkpt>
      <trkpt lon="13.4963657997" lat="42.7414077998">
        <ele>605.1606</ele>
        <time>2022-05-20T09:01:03Z</time>
      </trkpt>
      <trkpt lon="13.4964046001" lat="42.7411996">
        <ele>603.3642</ele>
        <time>2022-05-20T09:01:06Z</time>
      </trkpt>
      <trkpt lon="13.4964231998" lat="42.7410397003">
        <ele>601.5041</ele>
        <time>2022-05-20T09:01:08Z</time>
      </trkpt>
      <trkpt lon="13.4964232003" lat="42.7408625004">
        <ele>598.1946</ele>
        <time>2022-05-20T09:01:11Z</time>
      </trkpt>
      <trkpt lon="13.4964501995" lat="42.7406171998">
        <ele>596.6174</ele>
        <time>2022-05-20T09:01:15Z</time>
      </trkpt>
      <trkpt lon="13.4965092996" lat="42.7402428999">
        <ele>593.6669</ele>
        <time>2022-05-20T09:01:21Z</time>
      </trkpt>
      <trkpt lon="13.4965379003" lat="42.7399492999">
        <ele>589.3971</ele>
        <time>2022-05-20T09:01:26Z</time>
      </trkpt>
      <trkpt lon="13.4965176994" lat="42.7398030001">
        <ele>588.2715</ele>
        <time>2022-05-20T09:01:29Z</time>
      </trkpt>
      <trkpt lon="13.4965126" lat="42.7397249999">
        <ele>586.6668</ele>
        <time>2022-05-20T09:01:30Z</time>
      </trkpt>
      <trkpt lon="13.4965851995" lat="42.7397001999">
        <ele>584.4753</ele>
        <time>2022-05-20T09:01:31Z</time>
      </trkpt>
      <trkpt lon="13.4966492994" lat="42.7397236996">
        <ele>584.1843</ele>
        <time>2022-05-20T09:01:32Z</time>
      </trkpt>
      <trkpt lon="13.4967066999" lat="42.7397981">
        <ele>583.7582</ele>
        <time>2022-05-20T09:01:33Z</time>
      </trkpt>
      <trkpt lon="13.4969377994" lat="42.7400583003">
        <ele>580.0982</ele>
        <time>2022-05-20T09:01:38Z</time>
      </trkpt>
      <trkpt lon="13.4970150865" lat="42.7401412815">
        <ele>578.9946</ele>
        <time>2022-05-20T09:01:39Z</time>
      </trkpt>
      <trkpt lon="13.497078464" lat="42.7402093276">
        <ele>579.3056</ele>
        <time>2022-05-20T09:01:41Z</time>
      </trkpt>
      <trkpt lon="13.4971460047" lat="42.7402818428">
        <ele>578.9771</ele>
        <time>2022-05-20T09:01:42Z</time>
      </trkpt>
      <trkpt lon="13.4972921004" lat="42.7404387">
        <ele>577.874</ele>
        <time>2022-05-20T09:01:46Z</time>
      </trkpt>
      <trkpt lon="13.4973798997" lat="42.7405440996">
        <ele>577.2176</ele>
        <time>2022-05-20T09:01:48Z</time>
      </trkpt>
      <trkpt lon="13.4974253996" lat="42.7405911998">
        <ele>577</ele>
        <time>2022-05-20T09:01:49Z</time>
      </trkpt>
      <trkpt lon="13.4975305" lat="42.7406448004">
        <ele>577</ele>
        <time>2022-05-20T09:01:51Z</time>
      </trkpt>
      <trkpt lon="13.4976699997" lat="42.7411451001">
        <ele>576.2546</ele>
        <time>2022-05-20T09:02:03Z</time>
      </trkpt>
      <trkpt lon="13.4980009" lat="42.7416623">
        <ele>574.0516</ele>
        <time>2022-05-20T09:02:15Z</time>
      </trkpt>
      <trkpt lon="13.4980329003" lat="42.7417238996">
        <ele>573.5993</ele>
        <time>2022-05-20T09:02:17Z</time>
      </trkpt>
      <trkpt lon="13.4983587997" lat="42.7423519">
        <ele>566.0908</ele>
        <time>2022-05-20T09:02:32Z</time>
      </trkpt>
      <trkpt lon="13.4984153065" lat="42.7425699548">
        <ele>566.1423</ele>
        <time>2022-05-20T09:02:37Z</time>
      </trkpt>
      <trkpt lon="13.4984523385" lat="42.7427128611">
        <ele>565.8951</ele>
        <time>2022-05-20T09:02:40Z</time>
      </trkpt>
      <trkpt lon="13.4986012005" lat="42.7432873">
        <ele>562.9029</ele>
        <time>2022-05-20T09:02:52Z</time>
      </trkpt>
      <trkpt lon="13.4989629" lat="42.7437102998">
        <ele>555.8789</ele>
        <time>2022-05-20T09:03:02Z</time>
      </trkpt>
      <trkpt lon="13.4992601005" lat="42.7440857996">
        <ele>554.0503</ele>
        <time>2022-05-20T09:03:10Z</time>
      </trkpt>
      <trkpt lon="13.4993898" lat="42.7441465999">
        <ele>552.4</ele>
        <time>2022-05-20T09:03:13Z</time>
      </trkpt>
      <trkpt lon="13.4994800003" lat="42.7441431001">
        <ele>549.9057</ele>
        <time>2022-05-20T09:03:14Z</time>
      </trkpt>
      <trkpt lon="13.4999583004" lat="42.7439988002">
        <ele>544.8622</ele>
        <time>2022-05-20T09:03:20Z</time>
      </trkpt>
      <trkpt lon="13.5002107995" lat="42.7439570004">
        <ele>547.3117</ele>
        <time>2022-05-20T09:03:23Z</time>
      </trkpt>
      <trkpt lon="13.5003144005" lat="42.7439629005">
        <ele>548.2533</ele>
        <time>2022-05-20T09:03:24Z</time>
      </trkpt>
      <trkpt lon="13.5004094004" lat="42.7439956">
        <ele>548.3991</ele>
        <time>2022-05-20T09:03:26Z</time>
      </trkpt>
      <trkpt lon="13.5005486" lat="42.7441995997">
        <ele>547.5556</ele>
        <time>2022-05-20T09:03:31Z</time>
      </trkpt>
      <trkpt lon="13.5005466996" lat="42.7442646998">
        <ele>547.5952</ele>
        <time>2022-05-20T09:03:33Z</time>
      </trkpt>
      <trkpt lon="13.5006308006" lat="42.7445767">
        <ele>549.0144</ele>
        <time>2022-05-20T09:03:43Z</time>
      </trkpt>
      <trkpt lon="13.5006465005" lat="42.7446906004">
        <ele>549.1972</ele>
        <time>2022-05-20T09:03:47Z</time>
      </trkpt>
      <trkpt lon="13.5009891995" lat="42.7450658999">
        <ele>554.9194</ele>
        <time>2022-05-20T09:04:00Z</time>
      </trkpt>
      <trkpt lon="13.5015724005" lat="42.7455561">
        <ele>556.1943</ele>
        <time>2022-05-20T09:04:20Z</time>
      </trkpt>
      <trkpt lon="13.5019216426" lat="42.7455816627">
        <ele>557.7421</ele>
        <time>2022-05-20T09:04:28Z</time>
      </trkpt>
      <trkpt lon="13.5020924221" lat="42.745606456">
        <ele>557.295</ele>
        <time>2022-05-20T09:04:32Z</time>
      </trkpt>
      <trkpt lon="13.5023840997" lat="42.7456488001">
        <ele>557.0032</ele>
        <time>2022-05-20T09:04:39Z</time>
      </trkpt>
      <trkpt lon="13.5029432999" lat="42.7458739999">
        <ele>554.3877</ele>
        <time>2022-05-20T09:04:51Z</time>
      </trkpt>
      <trkpt lon="13.5032860004" lat="42.7459578999">
        <ele>559.8991</ele>
        <time>2022-05-20T09:04:58Z</time>
      </trkpt>
      <trkpt lon="13.5037980971" lat="42.7460086182">
        <ele>562.2709</ele>
        <time>2022-05-20T09:05:08Z</time>
      </trkpt>
      <trkpt lon="13.5040232943" lat="42.7460412941">
        <ele>562.3039</ele>
        <time>2022-05-20T09:05:13Z</time>
      </trkpt>
      <trkpt lon="13.5042706919" lat="42.7461101544">
        <ele>560.8489</ele>
        <time>2022-05-20T09:05:19Z</time>
      </trkpt>
      <trkpt lon="13.5043801459" lat="42.7461487191">
        <ele>561.9253</ele>
        <time>2022-05-20T09:05:21Z</time>
      </trkpt>
      <trkpt lon="13.50453603" lat="42.7462926498">
        <ele>561.0156</ele>
        <time>2022-05-20T09:05:27Z</time>
      </trkpt>
      <trkpt lon="13.5046451225" lat="42.7464598629">
        <ele>558.3651</ele>
        <time>2022-05-20T09:05:33Z</time>
      </trkpt>
      <trkpt lon="13.5047276406" lat="42.7465280746">
        <ele>558.7464</ele>
        <time>2022-05-20T09:05:35Z</time>
      </trkpt>
      <trkpt lon="13.50491703" lat="42.7465992198">
        <ele>561.5626</ele>
        <time>2022-05-20T09:05:39Z</time>
      </trkpt>
      <trkpt lon="13.505182733" lat="42.7466530641">
        <ele>564.1345</ele>
        <time>2022-05-20T09:05:44Z</time>
      </trkpt>
      <trkpt lon="13.5054327202" lat="42.7467575517">
        <ele>566.0349</ele>
        <time>2022-05-20T09:05:50Z</time>
      </trkpt>
      <trkpt lon="13.5054993866" lat="42.7468796054">
        <ele>561.875</ele>
        <time>2022-05-20T09:05:54Z</time>
      </trkpt>
      <trkpt lon="13.5055166999" lat="42.7468940002">
        <ele>561.871</ele>
        <time>2022-05-20T09:05:55Z</time>
      </trkpt>
      <trkpt lon="13.5056430002" lat="42.7471632997">
        <ele>557.472</ele>
        <time>2022-05-20T09:06:02Z</time>
      </trkpt>
      <trkpt lon="13.5056791005" lat="42.7474062001">
        <ele>555.9555</ele>
        <time>2022-05-20T09:06:07Z</time>
      </trkpt>
      <trkpt lon="13.5056609996" lat="42.7477285002">
        <ele>555.9365</ele>
        <time>2022-05-20T09:06:13Z</time>
      </trkpt>
      <trkpt lon="13.5056550004" lat="42.7480551996">
        <ele>556.243</ele>
        <time>2022-05-20T09:06:19Z</time>
      </trkpt>
      <trkpt lon="13.5056730996" lat="42.7484172998">
        <ele>555.5583</ele>
        <time>2022-05-20T09:06:26Z</time>
      </trkpt>
      <trkpt lon="13.5056635997" lat="42.7493509004">
        <ele>554.0275</ele>
        <time>2022-05-20T09:06:47Z</time>
      </trkpt>
      <trkpt lon="13.5054128003" lat="42.7502612996">
        <ele>555.2479</ele>
        <time>2022-05-20T09:07:09Z</time>
      </trkpt>
      <trkpt lon="13.5053286004" lat="42.7505174001">
        <ele>550.9343</ele>
        <time>2022-05-20T09:07:16Z</time>
      </trkpt>
      <trkpt lon="13.5054248002" lat="42.7508044001">
        <ele>556.2822</ele>
        <time>2022-05-20T09:07:24Z</time>
      </trkpt>
      <trkpt lon="13.505375" lat="42.7510421998">
        <ele>563.7368</ele>
        <time>2022-05-20T09:07:30Z</time>
      </trkpt>
      <trkpt lon="13.5053646996" lat="42.7510913996">
        <ele>564.9059</ele>
        <time>2022-05-20T09:07:32Z</time>
      </trkpt>
      <trkpt lon="13.5048776997" lat="42.7512326996">
        <ele>555.4073</ele>
        <time>2022-05-20T09:07:46Z</time>
      </trkpt>
      <trkpt lon="13.5044747998" lat="42.7513209998">
        <ele>544.4614</ele>
        <time>2022-05-20T09:07:57Z</time>
      </trkpt>
      <trkpt lon="13.5039818004" lat="42.7513165003">
        <ele>526.5144</ele>
        <time>2022-05-20T09:08:07Z</time>
      </trkpt>
      <trkpt lon="13.5036931999" lat="42.7513475003">
        <ele>528.1085</ele>
        <time>2022-05-20T09:08:12Z</time>
      </trkpt>
      <trkpt lon="13.5035309003" lat="42.7517360003">
        <ele>538.9621</ele>
        <time>2022-05-20T09:08:20Z</time>
      </trkpt>
      <trkpt lon="13.5033324003" lat="42.7523717997">
        <ele>537.4782</ele>
        <time>2022-05-20T09:08:31Z</time>
      </trkpt>
      <trkpt lon="13.5031924287" lat="42.7526713698">
        <ele>535.7242</ele>
        <time>2022-05-20T09:08:38Z</time>
      </trkpt>
      <trkpt lon="13.5031931164" lat="42.7528284562">
        <ele>534.3696</ele>
        <time>2022-05-20T09:08:41Z</time>
      </trkpt>
      <trkpt lon="13.50323286" lat="42.7529340137">
        <ele>532.9905</ele>
        <time>2022-05-20T09:08:44Z</time>
      </trkpt>
      <trkpt lon="13.5034586996" lat="42.7531620001">
        <ele>530.868</ele>
        <time>2022-05-20T09:08:50Z</time>
      </trkpt>
      <trkpt lon="13.5038194997" lat="42.7534445996">
        <ele>525.5599</ele>
        <time>2022-05-20T09:08:58Z</time>
      </trkpt>
      <trkpt lon="13.5040679136" lat="42.7536537122">
        <ele>525.718</ele>
        <time>2022-05-20T09:09:03Z</time>
      </trkpt>
      <trkpt lon="13.5042164612" lat="42.753778757">
        <ele>525.7039</ele>
        <time>2022-05-20T09:09:06Z</time>
      </trkpt>
      <trkpt lon="13.5042561176" lat="42.7538121388">
        <ele>525.8613</ele>
        <time>2022-05-20T09:09:07Z</time>
      </trkpt>
      <trkpt lon="13.5043175118" lat="42.7539013956">
        <ele>524.4478</ele>
        <time>2022-05-20T09:09:09Z</time>
      </trkpt>
      <trkpt lon="13.5043305004" lat="42.7540097001">
        <ele>521.9079</ele>
        <time>2022-05-20T09:09:11Z</time>
      </trkpt>
      <trkpt lon="13.5043004997" lat="42.7544645002">
        <ele>515.5222</ele>
        <time>2022-05-20T09:09:20Z</time>
      </trkpt>
      <trkpt lon="13.5044027002" lat="42.7552238001">
        <ele>518.6787</ele>
        <time>2022-05-20T09:09:34Z</time>
      </trkpt>
      <trkpt lon="13.5044266996" lat="42.7558551002">
        <ele>515.2878</ele>
        <time>2022-05-20T09:09:45Z</time>
      </trkpt>
      <trkpt lon="13.5046336" lat="42.7561857">
        <ele>515.7942</ele>
        <time>2022-05-20T09:09:52Z</time>
      </trkpt>
      <trkpt lon="13.5048451997" lat="42.7565559001">
        <ele>515.5834</ele>
        <time>2022-05-20T09:10:00Z</time>
      </trkpt>
      <trkpt lon="13.5048798995" lat="42.7568327002">
        <ele>519.3916</ele>
        <time>2022-05-20T09:10:06Z</time>
      </trkpt>
      <trkpt lon="13.5048066995" lat="42.7571322003">
        <ele>515.9594</ele>
        <time>2022-05-20T09:10:14Z</time>
      </trkpt>
      <trkpt lon="13.5045065997" lat="42.7575589003">
        <ele>519.8055</ele>
        <time>2022-05-20T09:10:28Z</time>
      </trkpt>
      <trkpt lon="13.5040140001" lat="42.7580703002">
        <ele>519.1487</ele>
        <time>2022-05-20T09:10:45Z</time>
      </trkpt>
      <trkpt lon="13.5038331997" lat="42.7584969001">
        <ele>521.2674</ele>
        <time>2022-05-20T09:10:58Z</time>
      </trkpt>
      <trkpt lon="13.5037139001" lat="42.7588980999">
        <ele>519.0361</ele>
        <time>2022-05-20T09:11:10Z</time>
      </trkpt>
      <trkpt lon="13.5036907998" lat="42.7593331997">
        <ele>517.4591</ele>
        <time>2022-05-20T09:11:23Z</time>
      </trkpt>
      <trkpt lon="13.5037176995" lat="42.7600226004">
        <ele>519.5125</ele>
        <time>2022-05-20T09:11:41Z</time>
      </trkpt>
      <trkpt lon="13.5036931238" lat="42.7602786508">
        <ele>519.1777</ele>
        <time>2022-05-20T09:11:48Z</time>
      </trkpt>
      <trkpt lon="13.5036754004" lat="42.7604633">
        <ele>519.9472</ele>
        <time>2022-05-20T09:11:53Z</time>
      </trkpt>
      <trkpt lon="13.5034830005" lat="42.7610565999">
        <ele>519.7975</ele>
        <time>2022-05-20T09:12:10Z</time>
      </trkpt>
      <trkpt lon="13.5031097005" lat="42.7615284">
        <ele>520.261</ele>
        <time>2022-05-20T09:12:26Z</time>
      </trkpt>
      <trkpt lon="13.5029826998" lat="42.7616922997">
        <ele>517.0544</ele>
        <time>2022-05-20T09:12:31Z</time>
      </trkpt>
      <trkpt lon="13.5029326999" lat="42.7619210999">
        <ele>518.0049</ele>
        <time>2022-05-20T09:12:37Z</time>
      </trkpt>
      <trkpt lon="13.5029481" lat="42.7621782004">
        <ele>519.7838</ele>
        <time>2022-05-20T09:12:43Z</time>
      </trkpt>
      <trkpt lon="13.5030750998" lat="42.7626443996">
        <ele>517.4208</ele>
        <time>2022-05-20T09:12:54Z</time>
      </trkpt>
      <trkpt lon="13.5032097996" lat="42.7629664996">
        <ele>520.3843</ele>
        <time>2022-05-20T09:13:02Z</time>
      </trkpt>
      <trkpt lon="13.5035483998" lat="42.7633309001">
        <ele>519.4367</ele>
        <time>2022-05-20T09:13:13Z</time>
      </trkpt>
      <trkpt lon="13.5036253999" lat="42.7635596998">
        <ele>521.0633</ele>
        <time>2022-05-20T09:13:20Z</time>
      </trkpt>
      <trkpt lon="13.5036561994" lat="42.7637433999">
        <ele>519.4357</ele>
        <time>2022-05-20T09:13:25Z</time>
      </trkpt>
      <trkpt lon="13.5037215994" lat="42.7639749998">
        <ele>516.7213</ele>
        <time>2022-05-20T09:13:32Z</time>
      </trkpt>
      <trkpt lon="13.5038946998" lat="42.7642546999">
        <ele>520.223</ele>
        <time>2022-05-20T09:13:39Z</time>
      </trkpt>
      <trkpt lon="13.5038935001" lat="42.7645064998">
        <ele>518.2665</ele>
        <time>2022-05-20T09:13:46Z</time>
      </trkpt>
      <trkpt lon="13.5038788996" lat="42.7648637">
        <ele>515.2913</ele>
        <time>2022-05-20T09:13:54Z</time>
      </trkpt>
      <trkpt lon="13.5037864001" lat="42.7651458999">
        <ele>510.3499</ele>
        <time>2022-05-20T09:14:01Z</time>
      </trkpt>
      <trkpt lon="13.5037474998" lat="42.7653315996">
        <ele>511.4611</ele>
        <time>2022-05-20T09:14:04Z</time>
      </trkpt>
      <trkpt lon="13.5036900004" lat="42.7654825996">
        <ele>511.3931</ele>
        <time>2022-05-20T09:14:08Z</time>
      </trkpt>
      <trkpt lon="13.5036707006" lat="42.7655679996">
        <ele>511.1191</ele>
        <time>2022-05-20T09:14:09Z</time>
      </trkpt>
      <trkpt lon="13.5036656003" lat="42.7656501001">
        <ele>510.5863</ele>
        <time>2022-05-20T09:14:11Z</time>
      </trkpt>
      <trkpt lon="13.5036926004" lat="42.7657531998">
        <ele>510.5855</ele>
        <time>2022-05-20T09:14:13Z</time>
      </trkpt>
      <trkpt lon="13.5037105004" lat="42.7658476004">
        <ele>511.3338</ele>
        <time>2022-05-20T09:14:16Z</time>
      </trkpt>
      <trkpt lon="13.5036855988" lat="42.7659248927">
        <ele>510.7586</ele>
        <time>2022-05-20T09:14:18Z</time>
      </trkpt>
      <trkpt lon="13.503673" lat="42.7659639998">
        <ele>511.5398</ele>
        <time>2022-05-20T09:14:19Z</time>
      </trkpt>
      <trkpt lon="13.5036248" lat="42.7660402996">
        <ele>512.9605</ele>
        <time>2022-05-20T09:14:21Z</time>
      </trkpt>
      <trkpt lon="13.5034706" lat="42.7662292003">
        <ele>515.2822</ele>
        <time>2022-05-20T09:14:28Z</time>
      </trkpt>
      <trkpt lon="13.5033698857" lat="42.7663657114">
        <ele>516.5989</ele>
        <time>2022-05-20T09:14:35Z</time>
      </trkpt>
      <trkpt lon="13.5033249674" lat="42.7664354324">
        <ele>517.2786</ele>
        <time>2022-05-20T09:14:38Z</time>
      </trkpt>
      <trkpt lon="13.5032290282" lat="42.7666072991">
        <ele>516.5807</ele>
        <time>2022-05-20T09:14:46Z</time>
      </trkpt>
      <trkpt lon="13.5031725173" lat="42.7667714485">
        <ele>513.0425</ele>
        <time>2022-05-20T09:14:51Z</time>
      </trkpt>
      <trkpt lon="13.5031750004" lat="42.7669184001">
        <ele>514.1291</ele>
        <time>2022-05-20T09:14:54Z</time>
      </trkpt>
      <trkpt lon="13.503180747" lat="42.7670640751">
        <ele>514.1233</ele>
        <time>2022-05-20T09:14:58Z</time>
      </trkpt>
      <trkpt lon="13.5031850997" lat="42.7671744">
        <ele>513.7655</ele>
        <time>2022-05-20T09:15:00Z</time>
      </trkpt>
      <trkpt lon="13.5032068006" lat="42.7672455997">
        <ele>514.8901</ele>
        <time>2022-05-20T09:15:01Z</time>
      </trkpt>
      <trkpt lon="13.5032736002" lat="42.7673320999">
        <ele>515.2677</ele>
        <time>2022-05-20T09:15:04Z</time>
      </trkpt>
      <trkpt lon="13.5034054" lat="42.7674697997">
        <ele>515.3052</ele>
        <time>2022-05-20T09:15:08Z</time>
      </trkpt>
      <trkpt lon="13.5034612929" lat="42.7675197473">
        <ele>516.1665</ele>
        <time>2022-05-20T09:15:10Z</time>
      </trkpt>
      <trkpt lon="13.5036263005" lat="42.7676672003">
        <ele>514.5717</ele>
        <time>2022-05-20T09:15:17Z</time>
      </trkpt>
      <trkpt lon="13.5037731994" lat="42.7678092997">
        <ele>512.7247</ele>
        <time>2022-05-20T09:15:22Z</time>
      </trkpt>
      <trkpt lon="13.5038371001" lat="42.7678896003">
        <ele>514.6673</ele>
        <time>2022-05-20T09:15:25Z</time>
      </trkpt>
      <trkpt lon="13.5038770999" lat="42.7679860996">
        <ele>517.2245</ele>
        <time>2022-05-20T09:15:28Z</time>
      </trkpt>
      <trkpt lon="13.5039243998" lat="42.7681336999">
        <ele>517.0568</ele>
        <time>2022-05-20T09:15:33Z</time>
      </trkpt>
      <trkpt lon="13.5039871999" lat="42.7684619004">
        <ele>520.6765</ele>
        <time>2022-05-20T09:15:45Z</time>
      </trkpt>
      <trkpt lon="13.5039875003" lat="42.7685881997">
        <ele>520.7449</ele>
        <time>2022-05-20T09:15:49Z</time>
      </trkpt>
      <trkpt lon="13.5039551005" lat="42.7686886996">
        <ele>519.8957</ele>
        <time>2022-05-20T09:15:54Z</time>
      </trkpt>
      <trkpt lon="13.5038902002" lat="42.7688797004">
        <ele>523.1965</ele>
        <time>2022-05-20T09:16:01Z</time>
      </trkpt>
      <trkpt lon="13.5038186004" lat="42.7690547996">
        <ele>524.3288</ele>
        <time>2022-05-20T09:16:07Z</time>
      </trkpt>
      <trkpt lon="13.5037438005" lat="42.7692007998">
        <ele>525.2498</ele>
        <time>2022-05-20T09:16:12Z</time>
      </trkpt>
      <trkpt lon="13.5037053204" lat="42.7692565687">
        <ele>523.9482</ele>
        <time>2022-05-20T09:16:13Z</time>
      </trkpt>
      <trkpt lon="13.5036905927" lat="42.7692779148">
        <ele>523.306</ele>
        <time>2022-05-20T09:16:14Z</time>
      </trkpt>
      <trkpt lon="13.5036508312" lat="42.7693629906">
        <ele>522.3606</ele>
        <time>2022-05-20T09:16:16Z</time>
      </trkpt>
      <trkpt lon="13.5036317668" lat="42.7694168286">
        <ele>520.5118</ele>
        <time>2022-05-20T09:16:17Z</time>
      </trkpt>
      <trkpt lon="13.5036066002" lat="42.7694879002">
        <ele>519.073</ele>
        <time>2022-05-20T09:16:18Z</time>
      </trkpt>
      <trkpt lon="13.5035093286" lat="42.7696642134">
        <ele>515.6131</ele>
        <time>2022-05-20T09:16:21Z</time>
      </trkpt>
      <trkpt lon="13.5034559999" lat="42.7697615003">
        <ele>514.1139</ele>
        <time>2022-05-20T09:16:23Z</time>
      </trkpt>
      <trkpt lon="13.5034355078" lat="42.7698259853">
        <ele>513.4804</ele>
        <time>2022-05-20T09:16:24Z</time>
      </trkpt>
      <trkpt lon="13.5034169816" lat="42.7699220755">
        <ele>514.2494</ele>
        <time>2022-05-20T09:16:25Z</time>
      </trkpt>
      <trkpt lon="13.5034103998" lat="42.7700279997">
        <ele>515.7751</ele>
        <time>2022-05-20T09:16:27Z</time>
      </trkpt>
      <trkpt lon="13.5033762997" lat="42.7701835998">
        <ele>513.4967</ele>
        <time>2022-05-20T09:16:32Z</time>
      </trkpt>
      <trkpt lon="13.5033485483" lat="42.770277726">
        <ele>510.8974</ele>
        <time>2022-05-20T09:16:34Z</time>
      </trkpt>
      <trkpt lon="13.5033330004" lat="42.7703860004">
        <ele>508.5535</ele>
        <time>2022-05-20T09:16:37Z</time>
      </trkpt>
      <trkpt lon="13.5033376389" lat="42.770620699">
        <ele>504.6743</ele>
        <time>2022-05-20T09:16:42Z</time>
      </trkpt>
      <trkpt lon="13.5033549998" lat="42.7706894997">
        <ele>504.1216</ele>
        <time>2022-05-20T09:16:43Z</time>
      </trkpt>
      <trkpt lon="13.5034264003" lat="42.7708130002">
        <ele>504.2613</ele>
        <time>2022-05-20T09:16:46Z</time>
      </trkpt>
      <trkpt lon="13.503522291" lat="42.7709179278">
        <ele>506.0927</ele>
        <time>2022-05-20T09:16:48Z</time>
      </trkpt>
      <trkpt lon="13.5035599999" lat="42.7709750003">
        <ele>505.4976</ele>
        <time>2022-05-20T09:16:49Z</time>
      </trkpt>
      <trkpt lon="13.5036365616" lat="42.7710429655">
        <ele>505.6201</ele>
        <time>2022-05-20T09:16:51Z</time>
      </trkpt>
      <trkpt lon="13.5036535003" lat="42.7710614998">
        <ele>505.4143</ele>
        <time>2022-05-20T09:16:52Z</time>
      </trkpt>
      <trkpt lon="13.5038991596" lat="42.7712798715">
        <ele>509.9621</ele>
        <time>2022-05-20T09:16:59Z</time>
      </trkpt>
      <trkpt lon="13.5040767677" lat="42.7714499744">
        <ele>512.8386</ele>
        <time>2022-05-20T09:17:05Z</time>
      </trkpt>
      <trkpt lon="13.5042887004" lat="42.7719210004">
        <ele>501.114</ele>
        <time>2022-05-20T09:17:18Z</time>
      </trkpt>
      <trkpt lon="13.504394736" lat="42.7720240922">
        <ele>503.4068</ele>
        <time>2022-05-20T09:17:22Z</time>
      </trkpt>
      <trkpt lon="13.5044475408" lat="42.7720754308">
        <ele>502.9193</ele>
        <time>2022-05-20T09:17:24Z</time>
      </trkpt>
      <trkpt lon="13.5046343999" lat="42.7722571002">
        <ele>503.2807</ele>
        <time>2022-05-20T09:17:30Z</time>
      </trkpt>
      <trkpt lon="13.5047024123" lat="42.7722871959">
        <ele>505.6374</ele>
        <time>2022-05-20T09:17:32Z</time>
      </trkpt>
      <trkpt lon="13.5050579006" lat="42.7724444996">
        <ele>516.3704</ele>
        <time>2022-05-20T09:17:41Z</time>
      </trkpt>
      <trkpt lon="13.5052876999" lat="42.7725514001">
        <ele>519.8796</ele>
        <time>2022-05-20T09:17:49Z</time>
      </trkpt>
      <trkpt lon="13.5055565996" lat="42.7727304">
        <ele>515.3014</ele>
        <time>2022-05-20T09:18:05Z</time>
      </trkpt>
      <trkpt lon="13.5056938003" lat="42.7728410997">
        <ele>500.1003</ele>
        <time>2022-05-20T09:18:11Z</time>
      </trkpt>
      <trkpt lon="13.5057254" lat="42.7728707997">
        <ele>499.0829</ele>
        <time>2022-05-20T09:18:12Z</time>
      </trkpt>
      <trkpt lon="13.5061789998" lat="42.7733337004">
        <ele>515.0717</ele>
        <time>2022-05-20T09:18:25Z</time>
      </trkpt>
      <trkpt lon="13.5061971994" lat="42.7733666997">
        <ele>516.9502</ele>
        <time>2022-05-20T09:18:26Z</time>
      </trkpt>
      <trkpt lon="13.5062032002" lat="42.7734538997">
        <ele>518.1</ele>
        <time>2022-05-20T09:18:28Z</time>
      </trkpt>
      <trkpt lon="13.5061622994" lat="42.7735599004">
        <ele>516.4475</ele>
        <time>2022-05-20T09:18:31Z</time>
      </trkpt>
      <trkpt lon="13.5060878995" lat="42.7738003997">
        <ele>513.5398</ele>
        <time>2022-05-20T09:18:39Z</time>
      </trkpt>
      <trkpt lon="13.5060713005" lat="42.7738711">
        <ele>513.6357</ele>
        <time>2022-05-20T09:18:41Z</time>
      </trkpt>
      <trkpt lon="13.5061073003" lat="42.7742525998">
        <ele>516.0105</ele>
        <time>2022-05-20T09:18:53Z</time>
      </trkpt>
      <trkpt lon="13.506110767" lat="42.7744098632">
        <ele>515.548</ele>
        <time>2022-05-20T09:18:58Z</time>
      </trkpt>
      <trkpt lon="13.5061136005" lat="42.7745384">
        <ele>515.3351</ele>
        <time>2022-05-20T09:19:00Z</time>
      </trkpt>
      <trkpt lon="13.5063471002" lat="42.7747121003">
        <ele>519.8447</ele>
        <time>2022-05-20T09:19:07Z</time>
      </trkpt>
      <trkpt lon="13.5067364006" lat="42.7748081002">
        <ele>514.299</ele>
        <time>2022-05-20T09:19:15Z</time>
      </trkpt>
      <trkpt lon="13.5075211006" lat="42.7747828997">
        <ele>517.4133</ele>
        <time>2022-05-20T09:19:32Z</time>
      </trkpt>
      <trkpt lon="13.5081314997" lat="42.7747967">
        <ele>512.8135</ele>
        <time>2022-05-20T09:19:43Z</time>
      </trkpt>
      <trkpt lon="13.5083650994" lat="42.7748333996">
        <ele>516.4424</ele>
        <time>2022-05-20T09:19:48Z</time>
      </trkpt>
      <trkpt lon="13.5086091997" lat="42.7749140998">
        <ele>518.4581</ele>
        <time>2022-05-20T09:19:53Z</time>
      </trkpt>
      <trkpt lon="13.5087098001" lat="42.7749730003">
        <ele>519.7007</ele>
        <time>2022-05-20T09:19:56Z</time>
      </trkpt>
      <trkpt lon="13.5087729998" lat="42.7750571999">
        <ele>524.1922</ele>
        <time>2022-05-20T09:19:59Z</time>
      </trkpt>
      <trkpt lon="13.5088257233" lat="42.7753692613">
        <ele>526.6166</ele>
        <time>2022-05-20T09:20:15Z</time>
      </trkpt>
      <trkpt lon="13.5088320994" lat="42.7754069996">
        <ele>526.3432</ele>
        <time>2022-05-20T09:20:18Z</time>
      </trkpt>
      <trkpt lon="13.5088452005" lat="42.7754574003">
        <ele>526.1638</ele>
        <time>2022-05-20T09:20:21Z</time>
      </trkpt>
      <trkpt lon="13.508856517" lat="42.7754789126">
        <ele>526.3189</ele>
        <time>2022-05-20T09:20:22Z</time>
      </trkpt>
      <trkpt lon="13.5088630003" lat="42.7755019999">
        <ele>526.2502</ele>
        <time>2022-05-20T09:20:23Z</time>
      </trkpt>
      <trkpt lon="13.5089799995" lat="42.7756970003">
        <ele>525.2464</ele>
        <time>2022-05-20T09:20:29Z</time>
      </trkpt>
      <trkpt lon="13.5090210006" lat="42.7757630003">
        <ele>525.0801</ele>
        <time>2022-05-20T09:20:31Z</time>
      </trkpt>
      <trkpt lon="13.5091900001" lat="42.7763539997">
        <ele>527.8825</ele>
        <time>2022-05-20T09:20:46Z</time>
      </trkpt>
      <trkpt lon="13.5092280002" lat="42.7764940004">
        <ele>529.0207</ele>
        <time>2022-05-20T09:20:50Z</time>
      </trkpt>
      <trkpt lon="13.5092495518" lat="42.7765459511">
        <ele>529.4473</ele>
        <time>2022-05-20T09:20:51Z</time>
      </trkpt>
      <trkpt lon="13.5092526002" lat="42.7765559001">
        <ele>529.4684</ele>
        <time>2022-05-20T09:20:52Z</time>
      </trkpt>
      <trkpt lon="13.5093651995" lat="42.7768393">
        <ele>530.1874</ele>
        <time>2022-05-20T09:21:01Z</time>
      </trkpt>
      <trkpt lon="13.5094220759" lat="42.7769618169">
        <ele>533.0276</ele>
        <time>2022-05-20T09:21:05Z</time>
      </trkpt>
      <trkpt lon="13.5094541" lat="42.7770308003">
        <ele>534.6332</ele>
        <time>2022-05-20T09:21:08Z</time>
      </trkpt>
      <trkpt lon="13.5095650832" lat="42.7772106219">
        <ele>533.8081</ele>
        <time>2022-05-20T09:21:16Z</time>
      </trkpt>
      <trkpt lon="13.5098806999" lat="42.7777220001">
        <ele>540.0579</ele>
        <time>2022-05-20T09:21:40Z</time>
      </trkpt>
      <trkpt lon="13.509960832" lat="42.7778589684">
        <ele>540.4681</ele>
        <time>2022-05-20T09:21:47Z</time>
      </trkpt>
      <trkpt lon="13.5100148477" lat="42.7779512948">
        <ele>539.9179</ele>
        <time>2022-05-20T09:21:51Z</time>
      </trkpt>
      <trkpt lon="13.5101991997" lat="42.7782664001">
        <ele>537.6421</ele>
        <time>2022-05-20T09:22:03Z</time>
      </trkpt>
      <trkpt lon="13.5102831998" lat="42.7783792999">
        <ele>536.5224</ele>
        <time>2022-05-20T09:22:06Z</time>
      </trkpt>
      <trkpt lon="13.5103713995" lat="42.7784874004">
        <ele>531.5269</ele>
        <time>2022-05-20T09:22:09Z</time>
      </trkpt>
      <trkpt lon="13.5104595001" lat="42.7785639002">
        <ele>526.0697</ele>
        <time>2022-05-20T09:22:11Z</time>
      </trkpt>
      <trkpt lon="13.5106759922" lat="42.7786833275">
        <ele>528.1624</ele>
        <time>2022-05-20T09:22:14Z</time>
      </trkpt>
      <trkpt lon="13.5109124994" lat="42.7787852997">
        <ele>537.2491</ele>
        <time>2022-05-20T09:22:18Z</time>
      </trkpt>
      <trkpt lon="13.5111753006" lat="42.7788971003">
        <ele>543.8696</ele>
        <time>2022-05-20T09:22:23Z</time>
      </trkpt>
      <trkpt lon="13.5113097996" lat="42.7789425001">
        <ele>542.5688</ele>
        <time>2022-05-20T09:22:26Z</time>
      </trkpt>
      <trkpt lon="13.5114176004" lat="42.7789657996">
        <ele>541.6006</ele>
        <time>2022-05-20T09:22:30Z</time>
      </trkpt>
      <trkpt lon="13.5116428999" lat="42.7789998001">
        <ele>540.4651</ele>
        <time>2022-05-20T09:22:38Z</time>
      </trkpt>
      <trkpt lon="13.5117572994" lat="42.7790470003">
        <ele>538.4521</ele>
        <time>2022-05-20T09:22:41Z</time>
      </trkpt>
      <trkpt lon="13.5118538995" lat="42.7791154004">
        <ele>536.6085</ele>
        <time>2022-05-20T09:22:43Z</time>
      </trkpt>
      <trkpt lon="13.5119378002" lat="42.7791823999">
        <ele>537.9046</ele>
        <time>2022-05-20T09:22:44Z</time>
      </trkpt>
      <trkpt lon="13.5119943002" lat="42.7792535999">
        <ele>540.05</ele>
        <time>2022-05-20T09:22:46Z</time>
      </trkpt>
      <trkpt lon="13.5120069005" lat="42.7793324997">
        <ele>540.5803</ele>
        <time>2022-05-20T09:22:48Z</time>
      </trkpt>
      <trkpt lon="13.5120104001" lat="42.7794124997">
        <ele>541.7917</ele>
        <time>2022-05-20T09:22:50Z</time>
      </trkpt>
      <trkpt lon="13.5119644005" lat="42.7795391003">
        <ele>541.8715</ele>
        <time>2022-05-20T09:22:54Z</time>
      </trkpt>
      <trkpt lon="13.5119537999" lat="42.7796436002">
        <ele>540.0538</ele>
        <time>2022-05-20T09:22:59Z</time>
      </trkpt>
      <trkpt lon="13.5119775002" lat="42.7798300997">
        <ele>538.0461</ele>
        <time>2022-05-20T09:23:05Z</time>
      </trkpt>
      <trkpt lon="13.5120230006" lat="42.7800351">
        <ele>543.5911</ele>
        <time>2022-05-20T09:23:11Z</time>
      </trkpt>
      <trkpt lon="13.5120287004" lat="42.7801905002">
        <ele>542.9528</ele>
        <time>2022-05-20T09:23:15Z</time>
      </trkpt>
      <trkpt lon="13.5120340003" lat="42.780326">
        <ele>539.5975</ele>
        <time>2022-05-20T09:23:18Z</time>
      </trkpt>
      <trkpt lon="13.5120217542" lat="42.7803571033">
        <ele>539.1374</ele>
        <time>2022-05-20T09:23:19Z</time>
      </trkpt>
      <trkpt lon="13.5120131998" lat="42.7803947996">
        <ele>540.0745</ele>
        <time>2022-05-20T09:23:20Z</time>
      </trkpt>
      <trkpt lon="13.5119857" lat="42.7804562998">
        <ele>541.7239</ele>
        <time>2022-05-20T09:23:21Z</time>
      </trkpt>
      <trkpt lon="13.5119259005" lat="42.7805128001">
        <ele>543.1618</ele>
        <time>2022-05-20T09:23:23Z</time>
      </trkpt>
      <trkpt lon="13.5118431004" lat="42.7805556999">
        <ele>543.9546</ele>
        <time>2022-05-20T09:23:25Z</time>
      </trkpt>
      <trkpt lon="13.5114535063" lat="42.7806477926">
        <ele>546.3625</ele>
        <time>2022-05-20T09:23:40Z</time>
      </trkpt>
      <trkpt lon="13.5112250006" lat="42.7807149999">
        <ele>545.3214</ele>
        <time>2022-05-20T09:23:52Z</time>
      </trkpt>
      <trkpt lon="13.5110283973" lat="42.7808584914">
        <ele>540.8758</ele>
        <time>2022-05-20T09:24:01Z</time>
      </trkpt>
      <trkpt lon="13.5110042998" lat="42.7808876997">
        <ele>540.6561</ele>
        <time>2022-05-20T09:24:02Z</time>
      </trkpt>
      <trkpt lon="13.5109048003" lat="42.7809559997">
        <ele>540.3851</ele>
        <time>2022-05-20T09:24:05Z</time>
      </trkpt>
      <trkpt lon="13.5107572001" lat="42.7810115997">
        <ele>536.5279</ele>
        <time>2022-05-20T09:24:07Z</time>
      </trkpt>
      <trkpt lon="13.5106928429" lat="42.7810559551">
        <ele>535.1565</ele>
        <time>2022-05-20T09:24:08Z</time>
      </trkpt>
      <trkpt lon="13.5106334389" lat="42.7811035889">
        <ele>533.5427</ele>
        <time>2022-05-20T09:24:09Z</time>
      </trkpt>
      <trkpt lon="13.5105933005" lat="42.7811686003">
        <ele>532.7533</ele>
        <time>2022-05-20T09:24:10Z</time>
      </trkpt>
      <trkpt lon="13.5105849004" lat="42.7812297003">
        <ele>532.7554</ele>
        <time>2022-05-20T09:24:11Z</time>
      </trkpt>
      <trkpt lon="13.5105968004" lat="42.7813045">
        <ele>531.2419</ele>
        <time>2022-05-20T09:24:12Z</time>
      </trkpt>
      <trkpt lon="13.5106349999" lat="42.7813630003">
        <ele>530.0655</ele>
        <time>2022-05-20T09:24:13Z</time>
      </trkpt>
      <trkpt lon="13.5107181556" lat="42.7814365612">
        <ele>528.7782</ele>
        <time>2022-05-20T09:24:15Z</time>
      </trkpt>
      <trkpt lon="13.5108427005" lat="42.7815079002">
        <ele>527.4265</ele>
        <time>2022-05-20T09:24:17Z</time>
      </trkpt>
      <trkpt lon="13.511197" lat="42.7816529997">
        <ele>526.0003</ele>
        <time>2022-05-20T09:24:21Z</time>
      </trkpt>
      <trkpt lon="13.5116268843" lat="42.7818466947">
        <ele>523.6083</ele>
        <time>2022-05-20T09:24:27Z</time>
      </trkpt>
      <trkpt lon="13.5116775003" lat="42.7818695001">
        <ele>523.7794</ele>
        <time>2022-05-20T09:24:28Z</time>
      </trkpt>
      <trkpt lon="13.5118041002" lat="42.7819423002">
        <ele>522.8405</ele>
        <time>2022-05-20T09:24:31Z</time>
      </trkpt>
      <trkpt lon="13.511881886" lat="42.7820059226">
        <ele>521.6815</ele>
        <time>2022-05-20T09:24:33Z</time>
      </trkpt>
      <trkpt lon="13.5119079002" lat="42.7820271996">
        <ele>521.172</ele>
        <time>2022-05-20T09:24:34Z</time>
      </trkpt>
      <trkpt lon="13.5119801998" lat="42.7821319997">
        <ele>519.6914</ele>
        <time>2022-05-20T09:24:36Z</time>
      </trkpt>
      <trkpt lon="13.5120021076" lat="42.7821736921">
        <ele>519.1751</ele>
        <time>2022-05-20T09:24:37Z</time>
      </trkpt>
      <trkpt lon="13.5120480006" lat="42.7822389999">
        <ele>518.1403</ele>
        <time>2022-05-20T09:24:38Z</time>
      </trkpt>
      <trkpt lon="13.5121547076" lat="42.7823642666">
        <ele>513.7262</ele>
        <time>2022-05-20T09:24:40Z</time>
      </trkpt>
      <trkpt lon="13.5121870997" lat="42.7823950998">
        <ele>513.227</ele>
        <time>2022-05-20T09:24:41Z</time>
      </trkpt>
      <trkpt lon="13.5122857001" lat="42.7824407001">
        <ele>513.7745</ele>
        <time>2022-05-20T09:24:42Z</time>
      </trkpt>
      <trkpt lon="13.5123750005" lat="42.7824565002">
        <ele>515.586</ele>
        <time>2022-05-20T09:24:43Z</time>
      </trkpt>
      <trkpt lon="13.5125574998" lat="42.7824803">
        <ele>516.696</ele>
        <time>2022-05-20T09:24:46Z</time>
      </trkpt>
      <trkpt lon="13.5126690998" lat="42.7825139001">
        <ele>515.9646</ele>
        <time>2022-05-20T09:24:48Z</time>
      </trkpt>
      <trkpt lon="13.5127798999" lat="42.7825583996">
        <ele>516.065</ele>
        <time>2022-05-20T09:24:51Z</time>
      </trkpt>
      <trkpt lon="13.5128285971" lat="42.7825965991">
        <ele>515.3216</ele>
        <time>2022-05-20T09:24:52Z</time>
      </trkpt>
      <trkpt lon="13.5128786995" lat="42.7826359001">
        <ele>514.5751</ele>
        <time>2022-05-20T09:24:54Z</time>
      </trkpt>
      <trkpt lon="13.5129642997" lat="42.7827040997">
        <ele>513.6537</ele>
        <time>2022-05-20T09:24:56Z</time>
      </trkpt>
      <trkpt lon="13.5131854003" lat="42.7829619001">
        <ele>513.2329</ele>
        <time>2022-05-20T09:25:02Z</time>
      </trkpt>
      <trkpt lon="13.5132800869" lat="42.7830872752">
        <ele>516.5336</ele>
        <time>2022-05-20T09:25:04Z</time>
      </trkpt>
      <trkpt lon="13.5133443006" lat="42.7831723004">
        <ele>518.5406</ele>
        <time>2022-05-20T09:25:06Z</time>
      </trkpt>
      <trkpt lon="13.5133725006" lat="42.7832114997">
        <ele>518.6758</ele>
        <time>2022-05-20T09:25:08Z</time>
      </trkpt>
      <trkpt lon="13.5134034999" lat="42.7832546003">
        <ele>518.4746</ele>
        <time>2022-05-20T09:25:10Z</time>
      </trkpt>
      <trkpt lon="13.51355727" lat="42.7832828325">
        <ele>522.5495</ele>
        <time>2022-05-20T09:25:17Z</time>
      </trkpt>
      <trkpt lon="13.5136279004" lat="42.7832958002">
        <ele>523.7618</ele>
        <time>2022-05-20T09:25:20Z</time>
      </trkpt>
      <trkpt lon="13.5138959" lat="42.7833094999">
        <ele>525.5532</ele>
        <time>2022-05-20T09:25:33Z</time>
      </trkpt>
      <trkpt lon="13.5141761753" lat="42.7834223066">
        <ele>511.9718</ele>
        <time>2022-05-20T09:25:44Z</time>
      </trkpt>
      <trkpt lon="13.51425" lat="42.7834330001">
        <ele>514.2784</ele>
        <time>2022-05-20T09:25:46Z</time>
      </trkpt>
      <trkpt lon="13.5145779995" lat="42.7835739998">
        <ele>513.3652</ele>
        <time>2022-05-20T09:25:54Z</time>
      </trkpt>
      <trkpt lon="13.5146647392" lat="42.7836378274">
        <ele>513.3452</ele>
        <time>2022-05-20T09:25:56Z</time>
      </trkpt>
      <trkpt lon="13.5148525" lat="42.7837257998">
        <ele>517.7011</ele>
        <time>2022-05-20T09:26:01Z</time>
      </trkpt>
      <trkpt lon="13.5152015002" lat="42.7840299003">
        <ele>511.4268</ele>
        <time>2022-05-20T09:26:11Z</time>
      </trkpt>
      <trkpt lon="13.5152844947" lat="42.7841879713">
        <ele>511.3857</ele>
        <time>2022-05-20T09:26:17Z</time>
      </trkpt>
      <trkpt lon="13.515332" lat="42.7842359996">
        <ele>511.8081</ele>
        <time>2022-05-20T09:26:18Z</time>
      </trkpt>
      <trkpt lon="13.5153580005" lat="42.7842740001">
        <ele>511.1979</ele>
        <time>2022-05-20T09:26:19Z</time>
      </trkpt>
      <trkpt lon="13.5153532237" lat="42.7842754402">
        <ele>510.883</ele>
        <time>2022-05-20T09:26:20Z</time>
      </trkpt>
      <trkpt lon="13.515412526" lat="42.7843176754">
        <ele>509.5166</ele>
        <time>2022-05-20T09:26:21Z</time>
      </trkpt>
      <trkpt lon="13.5154258995" lat="42.7843271998">
        <ele>508.9273</ele>
        <time>2022-05-20T09:26:22Z</time>
      </trkpt>
      <trkpt lon="13.5155592424" lat="42.7843522719">
        <ele>507.3208</ele>
        <time>2022-05-20T09:26:23Z</time>
      </trkpt>
      <trkpt lon="13.5157997172" lat="42.7843974879">
        <ele>502.9147</ele>
        <time>2022-05-20T09:26:26Z</time>
      </trkpt>
      <trkpt lon="13.5159154941" lat="42.7844192566">
        <ele>503.5228</ele>
        <time>2022-05-20T09:26:27Z</time>
      </trkpt>
      <trkpt lon="13.5159527597" lat="42.7844367388">
        <ele>504.2053</ele>
        <time>2022-05-20T09:26:28Z</time>
      </trkpt>
      <trkpt lon="13.516176123" lat="42.7846209047">
        <ele>504.218</ele>
        <time>2022-05-20T09:26:32Z</time>
      </trkpt>
      <trkpt lon="13.5163288784" lat="42.7847157647">
        <ele>506.8193</ele>
        <time>2022-05-20T09:26:37Z</time>
      </trkpt>
      <trkpt lon="13.5163919003" lat="42.7847549003">
        <ele>506.168</ele>
        <time>2022-05-20T09:26:39Z</time>
      </trkpt>
      <trkpt lon="13.5168438001" lat="42.7849057999">
        <ele>494.6134</ele>
        <time>2022-05-20T09:26:53Z</time>
      </trkpt>
      <trkpt lon="13.5170545762" lat="42.7850981128">
        <ele>492.3823</ele>
        <time>2022-05-20T09:27:00Z</time>
      </trkpt>
      <trkpt lon="13.5170983612" lat="42.7851467875">
        <ele>492.0195</ele>
        <time>2022-05-20T09:27:01Z</time>
      </trkpt>
      <trkpt lon="13.5172769004" lat="42.7853746996">
        <ele>489.554</ele>
        <time>2022-05-20T09:27:06Z</time>
      </trkpt>
      <trkpt lon="13.5173035608" lat="42.7854089386">
        <ele>488.6895</ele>
        <time>2022-05-20T09:27:07Z</time>
      </trkpt>
      <trkpt lon="13.5174420001" lat="42.7855820001">
        <ele>487.0855</ele>
        <time>2022-05-20T09:27:10Z</time>
      </trkpt>
      <trkpt lon="13.517611" lat="42.7857960004">
        <ele>485.4679</ele>
        <time>2022-05-20T09:27:14Z</time>
      </trkpt>
      <trkpt lon="13.5176626473" lat="42.7858609652">
        <ele>485.1066</ele>
        <time>2022-05-20T09:27:16Z</time>
      </trkpt>
      <trkpt lon="13.5179438002" lat="42.7861522001">
        <ele>486.7135</ele>
        <time>2022-05-20T09:27:23Z</time>
      </trkpt>
      <trkpt lon="13.5181712997" lat="42.7864473001">
        <ele>486.8007</ele>
        <time>2022-05-20T09:27:31Z</time>
      </trkpt>
      <trkpt lon="13.5181658769" lat="42.7864976482">
        <ele>485.8719</ele>
        <time>2022-05-20T09:27:32Z</time>
      </trkpt>
      <trkpt lon="13.5182084478" lat="42.7866195891">
        <ele>487.091</ele>
        <time>2022-05-20T09:27:35Z</time>
      </trkpt>
      <trkpt lon="13.5181488708" lat="42.7868006031">
        <ele>483.5191</ele>
        <time>2022-05-20T09:27:39Z</time>
      </trkpt>
      <trkpt lon="13.5180918913" lat="42.7870172464">
        <ele>479.697</ele>
        <time>2022-05-20T09:27:44Z</time>
      </trkpt>
      <trkpt lon="13.5180920503" lat="42.7871303905">
        <ele>478.5573</ele>
        <time>2022-05-20T09:27:46Z</time>
      </trkpt>
      <trkpt lon="13.5180694829" lat="42.7873754493">
        <ele>475.8658</ele>
        <time>2022-05-20T09:27:50Z</time>
      </trkpt>
      <trkpt lon="13.5180731043" lat="42.7875360992">
        <ele>472.4156</ele>
        <time>2022-05-20T09:27:53Z</time>
      </trkpt>
      <trkpt lon="13.5181562116" lat="42.7877888906">
        <ele>467.9048</ele>
        <time>2022-05-20T09:27:57Z</time>
      </trkpt>
      <trkpt lon="13.5182803356" lat="42.7879388206">
        <ele>469.6003</ele>
        <time>2022-05-20T09:28:00Z</time>
      </trkpt>
      <trkpt lon="13.5183892014" lat="42.7881012647">
        <ele>472.3168</ele>
        <time>2022-05-20T09:28:03Z</time>
      </trkpt>
      <trkpt lon="13.5184747466" lat="42.788276541">
        <ele>469.5355</ele>
        <time>2022-05-20T09:28:07Z</time>
      </trkpt>
      <trkpt lon="13.518522849" lat="42.7883818343">
        <ele>468.9553</ele>
        <time>2022-05-20T09:28:09Z</time>
      </trkpt>
      <trkpt lon="13.5184989837" lat="42.7886090785">
        <ele>471.4166</ele>
        <time>2022-05-20T09:28:14Z</time>
      </trkpt>
      <trkpt lon="13.5184555316" lat="42.7887894557">
        <ele>471.1833</ele>
        <time>2022-05-20T09:28:19Z</time>
      </trkpt>
      <trkpt lon="13.5183595376" lat="42.7890255073">
        <ele>466.2548</ele>
        <time>2022-05-20T09:28:25Z</time>
      </trkpt>
      <trkpt lon="13.5183051623" lat="42.7890969487">
        <ele>463.0754</ele>
        <time>2022-05-20T09:28:27Z</time>
      </trkpt>
      <trkpt lon="13.5182918973" lat="42.7892068402">
        <ele>464.2331</ele>
        <time>2022-05-20T09:28:29Z</time>
      </trkpt>
      <trkpt lon="13.5182364861" lat="42.7893340922">
        <ele>465.7086</ele>
        <time>2022-05-20T09:28:32Z</time>
      </trkpt>
      <trkpt lon="13.5182163544" lat="42.789501636">
        <ele>466.8236</ele>
        <time>2022-05-20T09:28:35Z</time>
      </trkpt>
      <trkpt lon="13.5182263093" lat="42.7896382141">
        <ele>461.9772</ele>
        <time>2022-05-20T09:28:37Z</time>
      </trkpt>
      <trkpt lon="13.5183037934" lat="42.7898138095">
        <ele>457.5134</ele>
        <time>2022-05-20T09:28:41Z</time>
      </trkpt>
      <trkpt lon="13.5184420439" lat="42.7900465545">
        <ele>455.4656</ele>
        <time>2022-05-20T09:28:46Z</time>
      </trkpt>
      <trkpt lon="13.5186049176" lat="42.7902842818">
        <ele>455.2324</ele>
        <time>2022-05-20T09:28:51Z</time>
      </trkpt>
      <trkpt lon="13.5187549677" lat="42.7904570074">
        <ele>455.8897</ele>
        <time>2022-05-20T09:28:54Z</time>
      </trkpt>
      <trkpt lon="13.5188867292" lat="42.7906006787">
        <ele>455.4243</ele>
        <time>2022-05-20T09:28:57Z</time>
      </trkpt>
      <trkpt lon="13.5189993344" lat="42.7907034212">
        <ele>453.2782</ele>
        <time>2022-05-20T09:29:00Z</time>
      </trkpt>
      <trkpt lon="13.5191389977" lat="42.79073363">
        <ele>454.6679</ele>
        <time>2022-05-20T09:29:02Z</time>
      </trkpt>
      <trkpt lon="13.5193677817" lat="42.79076627">
        <ele>457.7189</ele>
        <time>2022-05-20T09:29:06Z</time>
      </trkpt>
      <trkpt lon="13.5196122595" lat="42.7907923325">
        <ele>463.5263</ele>
        <time>2022-05-20T09:29:12Z</time>
      </trkpt>
      <trkpt lon="13.5198181552" lat="42.7908437423">
        <ele>466.5772</ele>
        <time>2022-05-20T09:29:17Z</time>
      </trkpt>
      <trkpt lon="13.5201077096" lat="42.7909335299">
        <ele>470.1973</ele>
        <time>2022-05-20T09:29:28Z</time>
      </trkpt>
      <trkpt lon="13.5204087906" lat="42.7910705025">
        <ele>460.1317</ele>
        <time>2022-05-20T09:29:42Z</time>
      </trkpt>
      <trkpt lon="13.5206351444" lat="42.7911806549">
        <ele>452.9093</ele>
        <time>2022-05-20T09:29:51Z</time>
      </trkpt>
      <trkpt lon="13.5209370944" lat="42.7913295026">
        <ele>446.4228</ele>
        <time>2022-05-20T09:29:58Z</time>
      </trkpt>
      <trkpt lon="13.5212268184" lat="42.7915324307">
        <ele>436.1476</ele>
        <time>2022-05-20T09:30:04Z</time>
      </trkpt>
      <trkpt lon="13.5212939194" lat="42.791565508">
        <ele>434.0309</ele>
        <time>2022-05-20T09:30:05Z</time>
      </trkpt>
      <trkpt lon="13.5214874245" lat="42.7915578519">
        <ele>437.4329</ele>
        <time>2022-05-20T09:30:07Z</time>
      </trkpt>
      <trkpt lon="13.5217334706" lat="42.7914945185">
        <ele>445.4133</ele>
        <time>2022-05-20T09:30:10Z</time>
      </trkpt>
      <trkpt lon="13.5219389372" lat="42.7915399863">
        <ele>440.2883</ele>
        <time>2022-05-20T09:30:13Z</time>
      </trkpt>
      <trkpt lon="13.5222760081" lat="42.7916159772">
        <ele>436.9021</ele>
        <time>2022-05-20T09:30:18Z</time>
      </trkpt>
      <trkpt lon="13.5225477093" lat="42.7916826433">
        <ele>436.1116</ele>
        <time>2022-05-20T09:30:23Z</time>
      </trkpt>
      <trkpt lon="13.5226633404" lat="42.7917380351">
        <ele>434.4512</ele>
        <time>2022-05-20T09:30:25Z</time>
      </trkpt>
      <trkpt lon="13.5227841" lat="42.7917833998">
        <ele>434.2061</ele>
        <time>2022-05-20T09:30:27Z</time>
      </trkpt>
      <trkpt lon="13.5230092003" lat="42.7919268001">
        <ele>433.194</ele>
        <time>2022-05-20T09:30:31Z</time>
      </trkpt>
      <trkpt lon="13.5231324598" lat="42.7919933941">
        <ele>432.9218</ele>
        <time>2022-05-20T09:30:33Z</time>
      </trkpt>
      <trkpt lon="13.5231706004" lat="42.792014">
        <ele>432.5981</ele>
        <time>2022-05-20T09:30:34Z</time>
      </trkpt>
      <trkpt lon="13.5235316001" lat="42.7921293999">
        <ele>431.6916</ele>
        <time>2022-05-20T09:30:40Z</time>
      </trkpt>
      <trkpt lon="13.5237057995" lat="42.7922664998">
        <ele>432.8512</ele>
        <time>2022-05-20T09:30:43Z</time>
      </trkpt>
      <trkpt lon="13.5237167757" lat="42.79245939">
        <ele>431.4265</ele>
        <time>2022-05-20T09:30:47Z</time>
      </trkpt>
      <trkpt lon="13.5237220001" lat="42.7924790004">
        <ele>431.4299</ele>
        <time>2022-05-20T09:30:48Z</time>
      </trkpt>
      <trkpt lon="13.5237499996" lat="42.7926530003">
        <ele>430.5133</ele>
        <time>2022-05-20T09:30:52Z</time>
      </trkpt>
      <trkpt lon="13.5238269998" lat="42.7928530004">
        <ele>430.23</ele>
        <time>2022-05-20T09:30:57Z</time>
      </trkpt>
      <trkpt lon="13.5240409998" lat="42.7930509999">
        <ele>430.8096</ele>
        <time>2022-05-20T09:31:03Z</time>
      </trkpt>
      <trkpt lon="13.5240700005" lat="42.7930789998">
        <ele>430.7204</ele>
        <time>2022-05-20T09:31:04Z</time>
      </trkpt>
      <trkpt lon="13.5241050001" lat="42.7931180004">
        <ele>430.3986</ele>
        <time>2022-05-20T09:31:05Z</time>
      </trkpt>
      <trkpt lon="13.5242609996" lat="42.7932979996">
        <ele>425.8607</ele>
        <time>2022-05-20T09:31:10Z</time>
      </trkpt>
      <trkpt lon="13.5244032822" lat="42.7934383151">
        <ele>419.9864</ele>
        <time>2022-05-20T09:31:13Z</time>
      </trkpt>
      <trkpt lon="13.5246741005" lat="42.7935786002">
        <ele>418.3703</ele>
        <time>2022-05-20T09:31:17Z</time>
      </trkpt>
      <trkpt lon="13.5255638545" lat="42.7936442174">
        <ele>409.2589</ele>
        <time>2022-05-20T09:31:27Z</time>
      </trkpt>
      <trkpt lon="13.5256042996" lat="42.7936472003">
        <ele>409.3461</ele>
        <time>2022-05-20T09:31:28Z</time>
      </trkpt>
      <trkpt lon="13.5259710911" lat="42.7937122066">
        <ele>412.6385</ele>
        <time>2022-05-20T09:31:32Z</time>
      </trkpt>
      <trkpt lon="13.5260911517" lat="42.7937798142">
        <ele>410.1209</ele>
        <time>2022-05-20T09:31:34Z</time>
      </trkpt>
      <trkpt lon="13.5262200996" lat="42.7938622002">
        <ele>407.0549</ele>
        <time>2022-05-20T09:31:37Z</time>
      </trkpt>
      <trkpt lon="13.5263028123" lat="42.7939020079">
        <ele>405.6261</ele>
        <time>2022-05-20T09:31:38Z</time>
      </trkpt>
      <trkpt lon="13.5265110002" lat="42.7940230002">
        <ele>400.9106</ele>
        <time>2022-05-20T09:31:42Z</time>
      </trkpt>
      <trkpt lon="13.5268649997" lat="42.7940240004">
        <ele>405.5317</ele>
        <time>2022-05-20T09:31:46Z</time>
      </trkpt>
      <trkpt lon="13.5272239995" lat="42.794067">
        <ele>403.3758</ele>
        <time>2022-05-20T09:31:50Z</time>
      </trkpt>
      <trkpt lon="13.5276750004" lat="42.7942249999">
        <ele>405.4865</ele>
        <time>2022-05-20T09:31:57Z</time>
      </trkpt>
      <trkpt lon="13.5281810004" lat="42.7944630002">
        <ele>402.1108</ele>
        <time>2022-05-20T09:32:05Z</time>
      </trkpt>
      <trkpt lon="13.5286599998" lat="42.7947369998">
        <ele>395.3323</ele>
        <time>2022-05-20T09:32:15Z</time>
      </trkpt>
      <trkpt lon="13.5291599997" lat="42.7949330004">
        <ele>394.554</ele>
        <time>2022-05-20T09:32:24Z</time>
      </trkpt>
      <trkpt lon="13.5294557654" lat="42.7950649146">
        <ele>393.0572</ele>
        <time>2022-05-20T09:32:30Z</time>
      </trkpt>
      <trkpt lon="13.5295860002" lat="42.7951230002">
        <ele>391.6058</ele>
        <time>2022-05-20T09:32:32Z</time>
      </trkpt>
      <trkpt lon="13.5296650005" lat="42.7951860002">
        <ele>389.1503</ele>
        <time>2022-05-20T09:32:33Z</time>
      </trkpt>
      <trkpt lon="13.5296746646" lat="42.7951972898">
        <ele>388.6466</ele>
        <time>2022-05-20T09:32:34Z</time>
      </trkpt>
      <trkpt lon="13.5298966003" lat="42.7953315001">
        <ele>388.2354</ele>
        <time>2022-05-20T09:32:37Z</time>
      </trkpt>
      <trkpt lon="13.5302204004" lat="42.7956821002">
        <ele>390.7995</ele>
        <time>2022-05-20T09:32:43Z</time>
      </trkpt>
      <trkpt lon="13.5302364006" lat="42.7961379001">
        <ele>390.3989</ele>
        <time>2022-05-20T09:32:50Z</time>
      </trkpt>
      <trkpt lon="13.5303902998" lat="42.7964651004">
        <ele>393.7088</ele>
        <time>2022-05-20T09:32:56Z</time>
      </trkpt>
      <trkpt lon="13.5306574001" lat="42.7967258003">
        <ele>395.2097</ele>
        <time>2022-05-20T09:33:03Z</time>
      </trkpt>
      <trkpt lon="13.5309843995" lat="42.7969338998">
        <ele>396.6542</ele>
        <time>2022-05-20T09:33:11Z</time>
      </trkpt>
      <trkpt lon="13.5312248999" lat="42.7970426999">
        <ele>395.3292</ele>
        <time>2022-05-20T09:33:18Z</time>
      </trkpt>
      <trkpt lon="13.5313704997" lat="42.7970928003">
        <ele>392.8196</ele>
        <time>2022-05-20T09:33:21Z</time>
      </trkpt>
      <trkpt lon="13.5315175997" lat="42.7971332996">
        <ele>392.4548</ele>
        <time>2022-05-20T09:33:24Z</time>
      </trkpt>
      <trkpt lon="13.5316974998" lat="42.7971526996">
        <ele>391.5465</ele>
        <time>2022-05-20T09:33:27Z</time>
      </trkpt>
      <trkpt lon="13.5318852998" lat="42.7971741998">
        <ele>392.2165</ele>
        <time>2022-05-20T09:33:30Z</time>
      </trkpt>
      <trkpt lon="13.5320815001" lat="42.7972068">
        <ele>394.8125</ele>
        <time>2022-05-20T09:33:33Z</time>
      </trkpt>
      <trkpt lon="13.5322422006" lat="42.7972826001">
        <ele>396.5493</ele>
        <time>2022-05-20T09:33:36Z</time>
      </trkpt>
      <trkpt lon="13.5323454995" lat="42.7973716996">
        <ele>397.5581</ele>
        <time>2022-05-20T09:33:39Z</time>
      </trkpt>
      <trkpt lon="13.5324220499" lat="42.79748173">
        <ele>398.7301</ele>
        <time>2022-05-20T09:33:44Z</time>
      </trkpt>
      <trkpt lon="13.5324631765" lat="42.7975408448">
        <ele>398.7785</ele>
        <time>2022-05-20T09:33:46Z</time>
      </trkpt>
      <trkpt lon="13.5324835998" lat="42.7975701997">
        <ele>399.1744</ele>
        <time>2022-05-20T09:33:48Z</time>
      </trkpt>
      <trkpt lon="13.5325174999" lat="42.7976560996">
        <ele>398.59</ele>
        <time>2022-05-20T09:33:51Z</time>
      </trkpt>
      <trkpt lon="13.5325145005" lat="42.7977530001">
        <ele>394.0126</ele>
        <time>2022-05-20T09:33:54Z</time>
      </trkpt>
      <trkpt lon="13.5323364995" lat="42.7981811002">
        <ele>399.9143</ele>
        <time>2022-05-20T09:34:05Z</time>
      </trkpt>
      <trkpt lon="13.5322382994" lat="42.7982428001">
        <ele>406.1618</ele>
        <time>2022-05-20T09:34:07Z</time>
      </trkpt>
      <trkpt lon="13.5321684755" lat="42.7982603701">
        <ele>408.7287</ele>
        <time>2022-05-20T09:34:08Z</time>
      </trkpt>
      <trkpt lon="13.5320089997" lat="42.7983005002">
        <ele>411.4707</ele>
        <time>2022-05-20T09:34:12Z</time>
      </trkpt>
      <trkpt lon="13.5318138995" lat="42.7983273004">
        <ele>410.7058</ele>
        <time>2022-05-20T09:34:18Z</time>
      </trkpt>
      <trkpt lon="13.5316563505" lat="42.7984132434">
        <ele>411.445</ele>
        <time>2022-05-20T09:34:27Z</time>
      </trkpt>
      <trkpt lon="13.5316205" lat="42.7984328003">
        <ele>411.4394</ele>
        <time>2022-05-20T09:34:29Z</time>
      </trkpt>
      <trkpt lon="13.5315219004" lat="42.7985358003">
        <ele>411.3466</ele>
        <time>2022-05-20T09:34:35Z</time>
      </trkpt>
      <trkpt lon="13.5315272995" lat="42.7986864001">
        <ele>413.7077</ele>
        <time>2022-05-20T09:34:41Z</time>
      </trkpt>
      <trkpt lon="13.5316316994" lat="42.7988562998">
        <ele>421.7446</ele>
        <time>2022-05-20T09:34:48Z</time>
      </trkpt>
      <trkpt lon="13.5317598006" lat="42.7991205003">
        <ele>430.3509</ele>
        <time>2022-05-20T09:35:00Z</time>
      </trkpt>
      <trkpt lon="13.5318222999" lat="42.7992851996">
        <ele>433.2396</ele>
        <time>2022-05-20T09:35:09Z</time>
      </trkpt>
      <trkpt lon="13.5318353" lat="42.7994239001">
        <ele>433.9343</ele>
        <time>2022-05-20T09:35:20Z</time>
      </trkpt>
      <trkpt lon="13.5318332997" lat="42.7996070001">
        <ele>432.7832</ele>
        <time>2022-05-20T09:35:35Z</time>
      </trkpt>
      <trkpt lon="13.5318645002" lat="42.7997082996">
        <ele>430.9061</ele>
        <time>2022-05-20T09:35:41Z</time>
      </trkpt>
      <trkpt lon="13.5319456004" lat="42.7998296">
        <ele>429.9252</ele>
        <time>2022-05-20T09:35:45Z</time>
      </trkpt>
      <trkpt lon="13.5321593003" lat="42.7999993004">
        <ele>430.5686</ele>
        <time>2022-05-20T09:35:51Z</time>
      </trkpt>
      <trkpt lon="13.5324076996" lat="42.8002887998">
        <ele>427.7761</ele>
        <time>2022-05-20T09:35:58Z</time>
      </trkpt>
      <trkpt lon="13.5325486003" lat="42.8004526999">
        <ele>430.3082</ele>
        <time>2022-05-20T09:36:02Z</time>
      </trkpt>
      <trkpt lon="13.5326557994" lat="42.8006870999">
        <ele>427.8502</ele>
        <time>2022-05-20T09:36:07Z</time>
      </trkpt>
      <trkpt lon="13.5328044003" lat="42.8008352996">
        <ele>427.7506</ele>
        <time>2022-05-20T09:36:11Z</time>
      </trkpt>
      <trkpt lon="13.5330358217" lat="42.8009436346">
        <ele>428.5951</ele>
        <time>2022-05-20T09:36:16Z</time>
      </trkpt>
      <trkpt lon="13.5331996778" lat="42.8010069251">
        <ele>429.4459</ele>
        <time>2022-05-20T09:36:20Z</time>
      </trkpt>
      <trkpt lon="13.5334144994" lat="42.8011059001">
        <ele>431.5029</ele>
        <time>2022-05-20T09:36:26Z</time>
      </trkpt>
      <trkpt lon="13.5335958" lat="42.8012047002">
        <ele>437.1587</ele>
        <time>2022-05-20T09:36:32Z</time>
      </trkpt>
      <trkpt lon="13.5337377997" lat="42.8013298996">
        <ele>441.6352</ele>
        <time>2022-05-20T09:36:39Z</time>
      </trkpt>
      <trkpt lon="13.5339349001" lat="42.8015794996">
        <ele>439.5544</ele>
        <time>2022-05-20T09:36:57Z</time>
      </trkpt>
      <trkpt lon="13.5340304005" lat="42.8017024003">
        <ele>442.6387</ele>
        <time>2022-05-20T09:37:07Z</time>
      </trkpt>
      <trkpt lon="13.5342434994" lat="42.8019524999">
        <ele>448.3951</ele>
        <time>2022-05-20T09:37:26Z</time>
      </trkpt>
      <trkpt lon="13.5342810005" lat="42.8019846998">
        <ele>449.2413</ele>
        <time>2022-05-20T09:37:30Z</time>
      </trkpt>
      <trkpt lon="13.5343164005" lat="42.8020151997">
        <ele>449.867</ele>
        <time>2022-05-20T09:37:32Z</time>
      </trkpt>
      <trkpt lon="13.5344629995" lat="42.8020603003">
        <ele>451.6045</ele>
        <time>2022-05-20T09:37:40Z</time>
      </trkpt>
      <trkpt lon="13.5345800997" lat="42.8020828001">
        <ele>453.3806</ele>
        <time>2022-05-20T09:37:46Z</time>
      </trkpt>
      <trkpt lon="13.5348131994" lat="42.8021275">
        <ele>457.8532</ele>
        <time>2022-05-20T09:38:01Z</time>
      </trkpt>
      <trkpt lon="13.5349224995" lat="42.8021650004">
        <ele>460.1205</ele>
        <time>2022-05-20T09:38:09Z</time>
      </trkpt>
      <trkpt lon="13.5350144004" lat="42.8022144">
        <ele>462.0073</ele>
        <time>2022-05-20T09:38:17Z</time>
      </trkpt>
      <trkpt lon="13.5350728002" lat="42.8022774">
        <ele>462.8872</ele>
        <time>2022-05-20T09:38:25Z</time>
      </trkpt>
      <trkpt lon="13.5353141995" lat="42.8028123997">
        <ele>464.0977</ele>
        <time>2022-05-20T09:39:21Z</time>
      </trkpt>
      <trkpt lon="13.5354628003" lat="42.8031578003">
        <ele>466.1063</ele>
        <time>2022-05-20T09:39:47Z</time>
      </trkpt>
      <trkpt lon="13.5354892996" lat="42.8033855">
        <ele>466.528</ele>
        <time>2022-05-20T09:40:00Z</time>
      </trkpt>
      <trkpt lon="13.5354857001" lat="42.8035036">
        <ele>467.0865</ele>
        <time>2022-05-20T09:40:05Z</time>
      </trkpt>
      <trkpt lon="13.5354605003" lat="42.8036900998">
        <ele>466.7688</ele>
        <time>2022-05-20T09:40:11Z</time>
      </trkpt>
      <trkpt lon="13.5354317001" lat="42.8038331">
        <ele>467.5086</ele>
        <time>2022-05-20T09:40:16Z</time>
      </trkpt>
      <trkpt lon="13.5353962005" lat="42.8040085997">
        <ele>468.1221</ele>
        <time>2022-05-20T09:40:21Z</time>
      </trkpt>
      <trkpt lon="13.5352671003" lat="42.8042082424">
        <ele>468.1072</ele>
        <time>2022-05-20T09:40:28Z</time>
      </trkpt>
      <trkpt lon="13.5352070005" lat="42.8043149997">
        <ele>468.057</ele>
        <time>2022-05-20T09:40:31Z</time>
      </trkpt>
      <trkpt lon="13.5351129506" lat="42.804433693">
        <ele>465.9623</ele>
        <time>2022-05-20T09:40:35Z</time>
      </trkpt>
      <trkpt lon="13.5350199995" lat="42.804551">
        <ele>464.3014</ele>
        <time>2022-05-20T09:40:38Z</time>
      </trkpt>
      <trkpt lon="13.5348990005" lat="42.8047809997">
        <ele>461.617</ele>
        <time>2022-05-20T09:40:44Z</time>
      </trkpt>
      <trkpt lon="13.5349884103" lat="42.8049687075">
        <ele>460.7304</ele>
        <time>2022-05-20T09:40:47Z</time>
      </trkpt>
      <trkpt lon="13.535132904" lat="42.8051924158">
        <ele>460.2776</ele>
        <time>2022-05-20T09:40:52Z</time>
      </trkpt>
      <trkpt lon="13.5351725088" lat="42.8052537317">
        <ele>460.1535</ele>
        <time>2022-05-20T09:40:53Z</time>
      </trkpt>
      <trkpt lon="13.5352022004" lat="42.8052997003">
        <ele>460.0605</ele>
        <time>2022-05-20T09:40:54Z</time>
      </trkpt>
      <trkpt lon="13.5354792995" lat="42.8057240999">
        <ele>460.8192</ele>
        <time>2022-05-20T09:41:04Z</time>
      </trkpt>
      <trkpt lon="13.535622935" lat="42.8059936653">
        <ele>460.4998</ele>
        <time>2022-05-20T09:41:11Z</time>
      </trkpt>
      <trkpt lon="13.5356593997" lat="42.8060621">
        <ele>458.9429</ele>
        <time>2022-05-20T09:41:13Z</time>
      </trkpt>
      <trkpt lon="13.5357097841" lat="42.806103446">
        <ele>458.6605</ele>
        <time>2022-05-20T09:41:14Z</time>
      </trkpt>
      <trkpt lon="13.5357863309" lat="42.8061662617">
        <ele>458.4286</ele>
        <time>2022-05-20T09:41:16Z</time>
      </trkpt>
      <trkpt lon="13.5359869995" lat="42.8062990003">
        <ele>459.4579</ele>
        <time>2022-05-20T09:41:20Z</time>
      </trkpt>
      <trkpt lon="13.5362719994" lat="42.8064550001">
        <ele>460.9583</ele>
        <time>2022-05-20T09:41:25Z</time>
      </trkpt>
      <trkpt lon="13.5362939998" lat="42.8064700003">
        <ele>461.2066</ele>
        <time>2022-05-20T09:41:26Z</time>
      </trkpt>
      <trkpt lon="13.5363369998" lat="42.8065010001">
        <ele>461.3447</ele>
        <time>2022-05-20T09:41:27Z</time>
      </trkpt>
      <trkpt lon="13.5363610005" lat="42.8065139997">
        <ele>461.4788</ele>
        <time>2022-05-20T09:41:28Z</time>
      </trkpt>
      <trkpt lon="13.536379" lat="42.806523">
        <ele>461.6144</ele>
        <time>2022-05-20T09:41:29Z</time>
      </trkpt>
      <trkpt lon="13.536408859" lat="42.8065532698">
        <ele>461.1212</ele>
        <time>2022-05-20T09:41:30Z</time>
      </trkpt>
      <trkpt lon="13.5365358001" lat="42.8066237001">
        <ele>462.5587</ele>
        <time>2022-05-20T09:41:33Z</time>
      </trkpt>
      <trkpt lon="13.5368648995" lat="42.8071472001">
        <ele>458.1599</ele>
        <time>2022-05-20T09:41:50Z</time>
      </trkpt>
      <trkpt lon="13.5369192606" lat="42.807293448">
        <ele>456.8356</ele>
        <time>2022-05-20T09:41:54Z</time>
      </trkpt>
      <trkpt lon="13.5370527349" lat="42.8076525299">
        <ele>459.0903</ele>
        <time>2022-05-20T09:42:04Z</time>
      </trkpt>
      <trkpt lon="13.5370935003" lat="42.8077621997">
        <ele>460.0791</ele>
        <time>2022-05-20T09:42:06Z</time>
      </trkpt>
      <trkpt lon="13.5370904746" lat="42.8078331812">
        <ele>458.9933</ele>
        <time>2022-05-20T09:42:08Z</time>
      </trkpt>
      <trkpt lon="13.5370772004" lat="42.8081447001">
        <ele>455.0338</ele>
        <time>2022-05-20T09:42:16Z</time>
      </trkpt>
      <trkpt lon="13.5370218004" lat="42.8085610997">
        <ele>441.8032</ele>
        <time>2022-05-20T09:42:25Z</time>
      </trkpt>
      <trkpt lon="13.5370815995" lat="42.8086896002">
        <ele>439.7154</ele>
        <time>2022-05-20T09:42:28Z</time>
      </trkpt>
      <trkpt lon="13.5371736298" lat="42.8087747232">
        <ele>439.5638</ele>
        <time>2022-05-20T09:42:29Z</time>
      </trkpt>
      <trkpt lon="13.5373787003" lat="42.8089644003">
        <ele>438.5275</ele>
        <time>2022-05-20T09:42:33Z</time>
      </trkpt>
      <trkpt lon="13.5374556423" lat="42.8090764745">
        <ele>438.3008</ele>
        <time>2022-05-20T09:42:35Z</time>
      </trkpt>
      <trkpt lon="13.5375165785" lat="42.8092054099">
        <ele>440.4063</ele>
        <time>2022-05-20T09:42:38Z</time>
      </trkpt>
      <trkpt lon="13.5374990563" lat="42.8093262704">
        <ele>441.5073</ele>
        <time>2022-05-20T09:42:42Z</time>
      </trkpt>
      <trkpt lon="13.5374652004" lat="42.8093759003">
        <ele>441.6843</ele>
        <time>2022-05-20T09:42:44Z</time>
      </trkpt>
      <trkpt lon="13.5374235407" lat="42.8094137751">
        <ele>440.9774</ele>
        <time>2022-05-20T09:42:45Z</time>
      </trkpt>
      <trkpt lon="13.5373078003" lat="42.8095190004">
        <ele>438.8513</ele>
        <time>2022-05-20T09:42:49Z</time>
      </trkpt>
      <trkpt lon="13.5366560002" lat="42.8099922996">
        <ele>433.4235</ele>
        <time>2022-05-20T09:43:04Z</time>
      </trkpt>
      <trkpt lon="13.5364054997" lat="42.8101841997">
        <ele>432.3912</ele>
        <time>2022-05-20T09:43:09Z</time>
      </trkpt>
      <trkpt lon="13.5362862288" lat="42.8103457421">
        <ele>432.7726</ele>
        <time>2022-05-20T09:43:13Z</time>
      </trkpt>
      <trkpt lon="13.5362457999" lat="42.8104004998">
        <ele>432.4226</ele>
        <time>2022-05-20T09:43:14Z</time>
      </trkpt>
      <trkpt lon="13.5362345333" lat="42.8105897082">
        <ele>429.3104</ele>
        <time>2022-05-20T09:43:18Z</time>
      </trkpt>
      <trkpt lon="13.5362303003" lat="42.8106608002">
        <ele>426.8077</ele>
        <time>2022-05-20T09:43:19Z</time>
      </trkpt>
      <trkpt lon="13.5363013006" lat="42.8109355999">
        <ele>421.6157</ele>
        <time>2022-05-20T09:43:24Z</time>
      </trkpt>
      <trkpt lon="13.5364488487" lat="42.8110783197">
        <ele>420.7723</ele>
        <time>2022-05-20T09:43:27Z</time>
      </trkpt>
      <trkpt lon="13.5365518006" lat="42.8111779">
        <ele>420.2103</ele>
        <time>2022-05-20T09:43:29Z</time>
      </trkpt>
      <trkpt lon="13.5365974731" lat="42.8112264669">
        <ele>420.3395</ele>
        <time>2022-05-20T09:43:30Z</time>
      </trkpt>
      <trkpt lon="13.5367491006" lat="42.8113877">
        <ele>419.5792</ele>
        <time>2022-05-20T09:43:33Z</time>
      </trkpt>
      <trkpt lon="13.5367935281" lat="42.8114504358">
        <ele>419.7272</ele>
        <time>2022-05-20T09:43:35Z</time>
      </trkpt>
      <trkpt lon="13.5370128999" lat="42.8117601999">
        <ele>421.3078</ele>
        <time>2022-05-20T09:43:43Z</time>
      </trkpt>
      <trkpt lon="13.5372035996" lat="42.8120234999">
        <ele>421.0037</ele>
        <time>2022-05-20T09:43:51Z</time>
      </trkpt>
      <trkpt lon="13.5372304001" lat="42.8121930997">
        <ele>419.3664</ele>
        <time>2022-05-20T09:43:55Z</time>
      </trkpt>
      <trkpt lon="13.5371378006" lat="42.8123818002">
        <ele>417.441</ele>
        <time>2022-05-20T09:44:01Z</time>
      </trkpt>
      <trkpt lon="13.5370962198" lat="42.8124468949">
        <ele>416.3573</ele>
        <time>2022-05-20T09:44:02Z</time>
      </trkpt>
      <trkpt lon="13.5370480006" lat="42.8125640004">
        <ele>415.4375</ele>
        <time>2022-05-20T09:44:05Z</time>
      </trkpt>
      <trkpt lon="13.5371907561" lat="42.8127683559">
        <ele>417.965</ele>
        <time>2022-05-20T09:44:09Z</time>
      </trkpt>
      <trkpt lon="13.5374460994" lat="42.8129052998">
        <ele>420.4885</ele>
        <time>2022-05-20T09:44:13Z</time>
      </trkpt>
      <trkpt lon="13.5375933472" lat="42.8129927676">
        <ele>421.3428</ele>
        <time>2022-05-20T09:44:16Z</time>
      </trkpt>
      <trkpt lon="13.5377048778" lat="42.8130507842">
        <ele>421.7458</ele>
        <time>2022-05-20T09:44:19Z</time>
      </trkpt>
      <trkpt lon="13.53776612" lat="42.8131138596">
        <ele>421.4599</ele>
        <time>2022-05-20T09:44:21Z</time>
      </trkpt>
      <trkpt lon="13.5377959712" lat="42.813190093">
        <ele>420.0336</ele>
        <time>2022-05-20T09:44:24Z</time>
      </trkpt>
      <trkpt lon="13.5378208028" lat="42.8133082121">
        <ele>416.8947</ele>
        <time>2022-05-20T09:44:27Z</time>
      </trkpt>
      <trkpt lon="13.537801593" lat="42.8134876331">
        <ele>413.7053</ele>
        <time>2022-05-20T09:44:31Z</time>
      </trkpt>
      <trkpt lon="13.5378434247" lat="42.8136169879">
        <ele>412.1523</ele>
        <time>2022-05-20T09:44:33Z</time>
      </trkpt>
      <trkpt lon="13.5379410463" lat="42.8138453663">
        <ele>409.0449</ele>
        <time>2022-05-20T09:44:37Z</time>
      </trkpt>
      <trkpt lon="13.5380517539" lat="42.8140315379">
        <ele>407.9676</ele>
        <time>2022-05-20T09:44:40Z</time>
      </trkpt>
      <trkpt lon="13.5381633321" lat="42.8142295858">
        <ele>410.5777</ele>
        <time>2022-05-20T09:44:43Z</time>
      </trkpt>
      <trkpt lon="13.5382243427" lat="42.8143998661">
        <ele>408.3602</ele>
        <time>2022-05-20T09:44:46Z</time>
      </trkpt>
      <trkpt lon="13.5381983729" lat="42.814597421">
        <ele>401.6716</ele>
        <time>2022-05-20T09:44:50Z</time>
      </trkpt>
      <trkpt lon="13.538160422" lat="42.8147418546">
        <ele>395.9091</ele>
        <time>2022-05-20T09:44:53Z</time>
      </trkpt>
      <trkpt lon="13.5381216009" lat="42.8148744118">
        <ele>392.5315</ele>
        <time>2022-05-20T09:44:55Z</time>
      </trkpt>
      <trkpt lon="13.5381786958" lat="42.8149912497">
        <ele>393.406</ele>
        <time>2022-05-20T09:44:57Z</time>
      </trkpt>
      <trkpt lon="13.5383020563" lat="42.8151292772">
        <ele>393.7062</ele>
        <time>2022-05-20T09:45:00Z</time>
      </trkpt>
      <trkpt lon="13.5384729412" lat="42.8152535057">
        <ele>395.3063</ele>
        <time>2022-05-20T09:45:03Z</time>
      </trkpt>
      <trkpt lon="13.5385989145" lat="42.81542716">
        <ele>393.5942</ele>
        <time>2022-05-20T09:45:06Z</time>
      </trkpt>
      <trkpt lon="13.538788978" lat="42.8155923136">
        <ele>394.3513</ele>
        <time>2022-05-20T09:45:11Z</time>
      </trkpt>
      <trkpt lon="13.5388524003" lat="42.8156850792">
        <ele>393.3715</ele>
        <time>2022-05-20T09:45:14Z</time>
      </trkpt>
      <trkpt lon="13.5390405217" lat="42.8157133383">
        <ele>391.1557</ele>
        <time>2022-05-20T09:45:17Z</time>
      </trkpt>
      <trkpt lon="13.539280751" lat="42.8156799742">
        <ele>388.0872</ele>
        <time>2022-05-20T09:45:21Z</time>
      </trkpt>
      <trkpt lon="13.5395443063" lat="42.8156337731">
        <ele>387.9346</ele>
        <time>2022-05-20T09:45:25Z</time>
      </trkpt>
      <trkpt lon="13.5396949425" lat="42.8155920566">
        <ele>389.2326</ele>
        <time>2022-05-20T09:45:27Z</time>
      </trkpt>
      <trkpt lon="13.5399284106" lat="42.8155768259">
        <ele>387.7652</ele>
        <time>2022-05-20T09:45:30Z</time>
      </trkpt>
      <trkpt lon="13.5401963182" lat="42.815590003">
        <ele>386.7069</ele>
        <time>2022-05-20T09:45:34Z</time>
      </trkpt>
      <trkpt lon="13.5404167023" lat="42.8156169773">
        <ele>384.7442</ele>
        <time>2022-05-20T09:45:38Z</time>
      </trkpt>
      <trkpt lon="13.540564496" lat="42.8156468369">
        <ele>381.9148</ele>
        <time>2022-05-20T09:45:40Z</time>
      </trkpt>
      <trkpt lon="13.5407096784" lat="42.8156410674">
        <ele>381.9149</ele>
        <time>2022-05-20T09:45:42Z</time>
      </trkpt>
      <trkpt lon="13.5408518127" lat="42.8155937325">
        <ele>383.615</ele>
        <time>2022-05-20T09:45:44Z</time>
      </trkpt>
      <trkpt lon="13.5410338384" lat="42.8155388569">
        <ele>385.2523</ele>
        <time>2022-05-20T09:45:47Z</time>
      </trkpt>
      <trkpt lon="13.5412409332" lat="42.8154948951">
        <ele>385.8675</ele>
        <time>2022-05-20T09:45:51Z</time>
      </trkpt>
      <trkpt lon="13.5414519444" lat="42.8155043753">
        <ele>382.4922</ele>
        <time>2022-05-20T09:45:54Z</time>
      </trkpt>
      <trkpt lon="13.5417423071" lat="42.8154928348">
        <ele>378.3032</ele>
        <time>2022-05-20T09:46:00Z</time>
      </trkpt>
      <trkpt lon="13.5420326697" lat="42.8154812935">
        <ele>376.0152</ele>
        <time>2022-05-20T09:46:05Z</time>
      </trkpt>
      <trkpt lon="13.5422733309" lat="42.8154538612">
        <ele>377.0686</ele>
        <time>2022-05-20T09:46:08Z</time>
      </trkpt>
      <trkpt lon="13.5425421095" lat="42.815478909">
        <ele>373.2509</ele>
        <time>2022-05-20T09:46:12Z</time>
      </trkpt>
      <trkpt lon="13.5428699596" lat="42.8155373383">
        <ele>368.907</ele>
        <time>2022-05-20T09:46:16Z</time>
      </trkpt>
      <trkpt lon="13.5431082173" lat="42.8155874189">
        <ele>365.7814</ele>
        <time>2022-05-20T09:46:19Z</time>
      </trkpt>
      <trkpt lon="13.5433434268" lat="42.8155959329">
        <ele>365.6075</ele>
        <time>2022-05-20T09:46:22Z</time>
      </trkpt>
      <trkpt lon="13.5436189646" lat="42.8156028423">
        <ele>365.2665</ele>
        <time>2022-05-20T09:46:26Z</time>
      </trkpt>
      <trkpt lon="13.5439620771" lat="42.8156487518">
        <ele>364.5735</ele>
        <time>2022-05-20T09:46:30Z</time>
      </trkpt>
      <trkpt lon="13.5442343408" lat="42.8157212981">
        <ele>362.7423</ele>
        <time>2022-05-20T09:46:34Z</time>
      </trkpt>
      <trkpt lon="13.544457341" lat="42.8157838926">
        <ele>358.4851</ele>
        <time>2022-05-20T09:46:37Z</time>
      </trkpt>
      <trkpt lon="13.5446033947" lat="42.8157899945">
        <ele>356.4748</ele>
        <time>2022-05-20T09:46:39Z</time>
      </trkpt>
      <trkpt lon="13.5448240022" lat="42.8157097577">
        <ele>356.7394</ele>
        <time>2022-05-20T09:46:43Z</time>
      </trkpt>
      <trkpt lon="13.545007119" lat="42.8155595476">
        <ele>360.3852</ele>
        <time>2022-05-20T09:46:46Z</time>
      </trkpt>
      <trkpt lon="13.5452115947" lat="42.8154799516">
        <ele>362.7381</ele>
        <time>2022-05-20T09:46:49Z</time>
      </trkpt>
      <trkpt lon="13.5453890374" lat="42.8154728931">
        <ele>362.7381</ele>
        <time>2022-05-20T09:46:52Z</time>
      </trkpt>
      <trkpt lon="13.5456621748" lat="42.8155573123">
        <ele>362.3671</ele>
        <time>2022-05-20T09:46:58Z</time>
      </trkpt>
      <trkpt lon="13.5457910023" lat="42.8156593824">
        <ele>365.2329</ele>
        <time>2022-05-20T09:47:03Z</time>
      </trkpt>
      <trkpt lon="13.5457818448" lat="42.8157550305">
        <ele>365.0767</ele>
        <time>2022-05-20T09:47:07Z</time>
      </trkpt>
      <trkpt lon="13.5456911592" lat="42.815842012">
        <ele>364.6524</ele>
        <time>2022-05-20T09:47:11Z</time>
      </trkpt>
      <trkpt lon="13.5455727899" lat="42.8158824525">
        <ele>363.2561</ele>
        <time>2022-05-20T09:47:13Z</time>
      </trkpt>
      <trkpt lon="13.5454642292" lat="42.8159463237">
        <ele>362.298</ele>
        <time>2022-05-20T09:47:16Z</time>
      </trkpt>
      <trkpt lon="13.5454151784" lat="42.8160495138">
        <ele>363.8236</ele>
        <time>2022-05-20T09:47:19Z</time>
      </trkpt>
      <trkpt lon="13.5453504325" lat="42.8161592843">
        <ele>367.5029</ele>
        <time>2022-05-20T09:47:21Z</time>
      </trkpt>
      <trkpt lon="13.5452896076" lat="42.8163224953">
        <ele>371.6386</ele>
        <time>2022-05-20T09:47:26Z</time>
      </trkpt>
      <trkpt lon="13.5452649675" lat="42.8165378647">
        <ele>376.0051</ele>
        <time>2022-05-20T09:47:33Z</time>
      </trkpt>
      <trkpt lon="13.545176024" lat="42.8166485974">
        <ele>375.4881</ele>
        <time>2022-05-20T09:47:39Z</time>
      </trkpt>
      <trkpt lon="13.5450365057" lat="42.8167315656">
        <ele>374.0835</ele>
        <time>2022-05-20T09:47:47Z</time>
      </trkpt>
      <trkpt lon="13.5448520785" lat="42.8168639612">
        <ele>375.4577</ele>
        <time>2022-05-20T09:47:56Z</time>
      </trkpt>
      <trkpt lon="13.5447049301" lat="42.8169531878">
        <ele>375.7027</ele>
        <time>2022-05-20T09:48:01Z</time>
      </trkpt>
      <trkpt lon="13.5446388738" lat="42.8170451435">
        <ele>376.5413</ele>
        <time>2022-05-20T09:48:04Z</time>
      </trkpt>
      <trkpt lon="13.5447044847" lat="42.8171675948">
        <ele>375.8038</ele>
        <time>2022-05-20T09:48:08Z</time>
      </trkpt>
      <trkpt lon="13.5447809989" lat="42.8172181489">
        <ele>375.0787</ele>
        <time>2022-05-20T09:48:10Z</time>
      </trkpt>
      <trkpt lon="13.5449104883" lat="42.8172189537">
        <ele>375.9487</ele>
        <time>2022-05-20T09:48:12Z</time>
      </trkpt>
      <trkpt lon="13.5451677217" lat="42.8171968121">
        <ele>377.538</ele>
        <time>2022-05-20T09:48:17Z</time>
      </trkpt>
      <trkpt lon="13.5454195044" lat="42.8172106176">
        <ele>376.4936</ele>
        <time>2022-05-20T09:48:22Z</time>
      </trkpt>
      <trkpt lon="13.5458003408" lat="42.8172192892">
        <ele>382.6374</ele>
        <time>2022-05-20T09:48:30Z</time>
      </trkpt>
      <trkpt lon="13.5460176806" lat="42.8172046868">
        <ele>384.69</ele>
        <time>2022-05-20T09:48:35Z</time>
      </trkpt>
      <trkpt lon="13.5463252697" lat="42.8173175102">
        <ele>383.7461</ele>
        <time>2022-05-20T09:48:44Z</time>
      </trkpt>
      <trkpt lon="13.5465971078" lat="42.8173841128">
        <ele>384.5321</ele>
        <time>2022-05-20T09:48:52Z</time>
      </trkpt>
      <trkpt lon="13.5469485151" lat="42.8175428326">
        <ele>384.3336</ele>
        <time>2022-05-20T09:49:03Z</time>
      </trkpt>
      <trkpt lon="13.5471405678" lat="42.817624519">
        <ele>383.4347</ele>
        <time>2022-05-20T09:49:09Z</time>
      </trkpt>
      <trkpt lon="13.5473280877" lat="42.817682644">
        <ele>383.2112</ele>
        <time>2022-05-20T09:49:14Z</time>
      </trkpt>
      <trkpt lon="13.5476648924" lat="42.8177526143">
        <ele>383.4097</ele>
        <time>2022-05-20T09:49:21Z</time>
      </trkpt>
      <trkpt lon="13.5480442059" lat="42.8178506667">
        <ele>381.4848</ele>
        <time>2022-05-20T09:49:28Z</time>
      </trkpt>
      <trkpt lon="13.548437909" lat="42.8179243253">
        <ele>383.5122</ele>
        <time>2022-05-20T09:49:36Z</time>
      </trkpt>
      <trkpt lon="13.5486766155" lat="42.8179803307">
        <ele>385.2398</ele>
        <time>2022-05-20T09:49:40Z</time>
      </trkpt>
      <trkpt lon="13.5489231175" lat="42.8180091065">
        <ele>392.2935</ele>
        <time>2022-05-20T09:49:46Z</time>
      </trkpt>
      <trkpt lon="13.5494630006" lat="42.8181455999">
        <ele>394.9197</ele>
        <time>2022-05-20T09:50:01Z</time>
      </trkpt>
      <trkpt lon="13.5496849996" lat="42.8182432997">
        <ele>396.8169</ele>
        <time>2022-05-20T09:50:10Z</time>
      </trkpt>
      <trkpt lon="13.5497812002" lat="42.8183736">
        <ele>396.2741</ele>
        <time>2022-05-20T09:50:17Z</time>
      </trkpt>
      <trkpt lon="13.5498477998" lat="42.8185093003">
        <ele>395.6354</ele>
        <time>2022-05-20T09:50:24Z</time>
      </trkpt>
      <trkpt lon="13.5498996006" lat="42.8187590002">
        <ele>394.3729</ele>
        <time>2022-05-20T09:50:34Z</time>
      </trkpt>
      <trkpt lon="13.5500105999" lat="42.8190086998">
        <ele>396.3289</ele>
        <time>2022-05-20T09:50:42Z</time>
      </trkpt>
      <trkpt lon="13.5500402006" lat="42.8191877999">
        <ele>398.0373</ele>
        <time>2022-05-20T09:50:47Z</time>
      </trkpt>
      <trkpt lon="13.5499810005" lat="42.8192801004">
        <ele>396.969</ele>
        <time>2022-05-20T09:50:50Z</time>
      </trkpt>
      <trkpt lon="13.5499291998" lat="42.8193723999">
        <ele>395.8707</ele>
        <time>2022-05-20T09:50:52Z</time>
      </trkpt>
      <trkpt lon="13.5499217994" lat="42.8194701003">
        <ele>396.4758</ele>
        <time>2022-05-20T09:50:55Z</time>
      </trkpt>
      <trkpt lon="13.5499070001" lat="42.8197307003">
        <ele>396.5407</ele>
        <time>2022-05-20T09:51:01Z</time>
      </trkpt>
      <trkpt lon="13.5499366004" lat="42.8199207002">
        <ele>399.4929</ele>
        <time>2022-05-20T09:51:06Z</time>
      </trkpt>
      <trkpt lon="13.5498931408" lat="42.8199723256">
        <ele>397.9708</ele>
        <time>2022-05-20T09:51:07Z</time>
      </trkpt>
      <trkpt lon="13.5498063936" lat="42.8200753723">
        <ele>399.8404</ele>
        <time>2022-05-20T09:51:10Z</time>
      </trkpt>
      <trkpt lon="13.5497812004" lat="42.8201052996">
        <ele>401.0896</ele>
        <time>2022-05-20T09:51:11Z</time>
      </trkpt>
      <trkpt lon="13.5496183996" lat="42.8202301">
        <ele>403.6316</ele>
        <time>2022-05-20T09:51:17Z</time>
      </trkpt>
      <trkpt lon="13.5495221997" lat="42.8203550002">
        <ele>403.1661</ele>
        <time>2022-05-20T09:51:23Z</time>
      </trkpt>
      <trkpt lon="13.5495666003" lat="42.8204960998">
        <ele>402.6565</ele>
        <time>2022-05-20T09:51:28Z</time>
      </trkpt>
      <trkpt lon="13.5496219997" lat="42.8205449999">
        <ele>402.8889</ele>
        <time>2022-05-20T09:51:31Z</time>
      </trkpt>
      <trkpt lon="13.5496700003" lat="42.8206069997">
        <ele>402.1796</ele>
        <time>2022-05-20T09:51:33Z</time>
      </trkpt>
      <trkpt lon="13.5497293995" lat="42.8206318004">
        <ele>402.4828</ele>
        <time>2022-05-20T09:51:34Z</time>
      </trkpt>
      <trkpt lon="13.5499884004" lat="42.8207511998">
        <ele>402.9063</ele>
        <time>2022-05-20T09:51:39Z</time>
      </trkpt>
      <trkpt lon="13.5502031004" lat="42.8208924001">
        <ele>403.6143</ele>
        <time>2022-05-20T09:51:44Z</time>
      </trkpt>
      <trkpt lon="13.5503880998" lat="42.8210281">
        <ele>402.9002</ele>
        <time>2022-05-20T09:51:48Z</time>
      </trkpt>
      <trkpt lon="13.5505435005" lat="42.8211963999">
        <ele>403.1667</ele>
        <time>2022-05-20T09:51:54Z</time>
      </trkpt>
      <trkpt lon="13.5506545001" lat="42.8213484001">
        <ele>404.1328</ele>
        <time>2022-05-20T09:51:59Z</time>
      </trkpt>
      <trkpt lon="13.5507729" lat="42.8215057997">
        <ele>404.9985</ele>
        <time>2022-05-20T09:52:04Z</time>
      </trkpt>
      <trkpt lon="13.5508912998" lat="42.8216903001">
        <ele>404.1778</ele>
        <time>2022-05-20T09:52:10Z</time>
      </trkpt>
      <trkpt lon="13.5510688999" lat="42.8218911998">
        <ele>405.7256</ele>
        <time>2022-05-20T09:52:17Z</time>
      </trkpt>
      <trkpt lon="13.5512318004" lat="42.8220919996">
        <ele>406.2408</ele>
        <time>2022-05-20T09:52:24Z</time>
      </trkpt>
      <trkpt lon="13.5513945998" lat="42.8222439999">
        <ele>405.1883</ele>
        <time>2022-05-20T09:52:30Z</time>
      </trkpt>
      <trkpt lon="13.551476" lat="42.8222982998">
        <ele>404.3021</ele>
        <time>2022-05-20T09:52:32Z</time>
      </trkpt>
      <trkpt lon="13.5515332994" lat="42.8223106999">
        <ele>405.0342</ele>
        <time>2022-05-20T09:52:33Z</time>
      </trkpt>
      <trkpt lon="13.5516190742" lat="42.8223314749">
        <ele>405.723</ele>
        <time>2022-05-20T09:52:35Z</time>
      </trkpt>
      <trkpt lon="13.5517196949" lat="42.8223194121">
        <ele>405.447</ele>
        <time>2022-05-20T09:52:37Z</time>
      </trkpt>
      <trkpt lon="13.5517475885" lat="42.8223238353">
        <ele>405.2216</ele>
        <time>2022-05-20T09:52:38Z</time>
      </trkpt>
      <trkpt lon="13.5518059035" lat="42.8222917366">
        <ele>404.3439</ele>
        <time>2022-05-20T09:52:39Z</time>
      </trkpt>
      <trkpt lon="13.5518508094" lat="42.8222423054">
        <ele>404.0732</ele>
        <time>2022-05-20T09:52:40Z</time>
      </trkpt>
      <trkpt lon="13.5518957164" lat="42.8221928741">
        <ele>404.8896</ele>
        <time>2022-05-20T09:52:41Z</time>
      </trkpt>
      <trkpt lon="13.5519242634" lat="42.8221593993">
        <ele>405.4287</ele>
        <time>2022-05-20T09:52:42Z</time>
      </trkpt>
      <trkpt lon="13.5519829994" lat="42.8221070001">
        <ele>405.5961</ele>
        <time>2022-05-20T09:52:44Z</time>
      </trkpt>
      <trkpt lon="13.5522250005" lat="42.8219119997">
        <ele>406.0213</ele>
        <time>2022-05-20T09:52:50Z</time>
      </trkpt>
      <trkpt lon="13.5523389995" lat="42.8218730001">
        <ele>406.1425</ele>
        <time>2022-05-20T09:52:53Z</time>
      </trkpt>
      <trkpt lon="13.5524066458" lat="42.8218390398">
        <ele>405.9134</ele>
        <time>2022-05-20T09:52:55Z</time>
      </trkpt>
      <trkpt lon="13.5524879994" lat="42.8218100002">
        <ele>405.5173</ele>
        <time>2022-05-20T09:52:57Z</time>
      </trkpt>
      <trkpt lon="13.5526450172" lat="42.8217537914">
        <ele>404.6568</ele>
        <time>2022-05-20T09:53:01Z</time>
      </trkpt>
      <trkpt lon="13.5527684424" lat="42.8217160011">
        <ele>403.0189</ele>
        <time>2022-05-20T09:53:03Z</time>
      </trkpt>
      <trkpt lon="13.5529004979" lat="42.8216635737">
        <ele>401.4389</ele>
        <time>2022-05-20T09:53:05Z</time>
      </trkpt>
      <trkpt lon="13.55295" lat="42.8216350002">
        <ele>400.9289</ele>
        <time>2022-05-20T09:53:06Z</time>
      </trkpt>
      <trkpt lon="13.5530112813" lat="42.8216117202">
        <ele>399.3837</ele>
        <time>2022-05-20T09:53:07Z</time>
      </trkpt>
      <trkpt lon="13.5531289995" lat="42.8215669999">
        <ele>397.693</ele>
        <time>2022-05-20T09:53:08Z</time>
      </trkpt>
      <trkpt lon="13.5531731588" lat="42.8215527094">
        <ele>397.7409</ele>
        <time>2022-05-20T09:53:09Z</time>
      </trkpt>
      <trkpt lon="13.5534011513" lat="42.8214789252">
        <ele>397.933</ele>
        <time>2022-05-20T09:53:12Z</time>
      </trkpt>
      <trkpt lon="13.5534590644" lat="42.821466043">
        <ele>397.5858</ele>
        <time>2022-05-20T09:53:13Z</time>
      </trkpt>
      <trkpt lon="13.5536227087" lat="42.8214602373">
        <ele>396.1383</ele>
        <time>2022-05-20T09:53:16Z</time>
      </trkpt>
      <trkpt lon="13.5536578291" lat="42.8214621534">
        <ele>396.0129</ele>
        <time>2022-05-20T09:53:17Z</time>
      </trkpt>
      <trkpt lon="13.5537709997" lat="42.8214879996">
        <ele>395.0011</ele>
        <time>2022-05-20T09:53:18Z</time>
      </trkpt>
      <trkpt lon="13.5539449471" lat="42.8215305679">
        <ele>394.5732</ele>
        <time>2022-05-20T09:53:20Z</time>
      </trkpt>
      <trkpt lon="13.5540012878" lat="42.8215524921">
        <ele>394.2153</ele>
        <time>2022-05-20T09:53:21Z</time>
      </trkpt>
      <trkpt lon="13.5540588531" lat="42.8215748927">
        <ele>393.8496</ele>
        <time>2022-05-20T09:53:22Z</time>
      </trkpt>
      <trkpt lon="13.5541164184" lat="42.8215972925">
        <ele>393.484</ele>
        <time>2022-05-20T09:53:23Z</time>
      </trkpt>
      <trkpt lon="13.5541764338" lat="42.821620647">
        <ele>393.1027</ele>
        <time>2022-05-20T09:53:24Z</time>
      </trkpt>
      <trkpt lon="13.5542689999" lat="42.8216500003">
        <ele>392.7409</ele>
        <time>2022-05-20T09:53:25Z</time>
      </trkpt>
      <trkpt lon="13.5545411626" lat="42.8216852629">
        <ele>391.4051</ele>
        <time>2022-05-20T09:53:29Z</time>
      </trkpt>
      <trkpt lon="13.5546320001" lat="42.8216900002">
        <ele>391.1266</ele>
        <time>2022-05-20T09:53:30Z</time>
      </trkpt>
      <trkpt lon="13.5548992048" lat="42.8216643074">
        <ele>388.5317</ele>
        <time>2022-05-20T09:53:34Z</time>
      </trkpt>
      <trkpt lon="13.5550236381" lat="42.8216482937">
        <ele>387.6936</ele>
        <time>2022-05-20T09:53:36Z</time>
      </trkpt>
      <trkpt lon="13.555162783" lat="42.8216532827">
        <ele>386.3249</ele>
        <time>2022-05-20T09:53:38Z</time>
      </trkpt>
      <trkpt lon="13.5553548222" lat="42.8217005707">
        <ele>384.8565</ele>
        <time>2022-05-20T09:53:40Z</time>
      </trkpt>
      <trkpt lon="13.5556085653" lat="42.8218063959">
        <ele>386.7163</ele>
        <time>2022-05-20T09:53:44Z</time>
      </trkpt>
      <trkpt lon="13.5556566457" lat="42.8218341611">
        <ele>387.146</ele>
        <time>2022-05-20T09:53:45Z</time>
      </trkpt>
      <trkpt lon="13.5556985751" lat="42.8218814295">
        <ele>387.4372</ele>
        <time>2022-05-20T09:53:46Z</time>
      </trkpt>
      <trkpt lon="13.5557398308" lat="42.8219666272">
        <ele>386.6878</ele>
        <time>2022-05-20T09:53:48Z</time>
      </trkpt>
      <trkpt lon="13.5557702409" lat="42.8220987391">
        <ele>385.4103</ele>
        <time>2022-05-20T09:53:52Z</time>
      </trkpt>
      <trkpt lon="13.5557841447" lat="42.8221540359">
        <ele>385.0312</ele>
        <time>2022-05-20T09:53:53Z</time>
      </trkpt>
      <trkpt lon="13.5557906999" lat="42.8222332">
        <ele>384.1669</ele>
        <time>2022-05-20T09:53:55Z</time>
      </trkpt>
      <trkpt lon="13.5557684996" lat="42.8224286">
        <ele>375.105</ele>
        <time>2022-05-20T09:53:58Z</time>
      </trkpt>
      <trkpt lon="13.5557655252" lat="42.8224533213">
        <ele>373.1602</ele>
        <time>2022-05-20T09:53:59Z</time>
      </trkpt>
      <trkpt lon="13.5557526233" lat="42.8225605458">
        <ele>369.9637</ele>
        <time>2022-05-20T09:54:00Z</time>
      </trkpt>
      <trkpt lon="13.5557457194" lat="42.8226192191">
        <ele>370.9005</ele>
        <time>2022-05-20T09:54:01Z</time>
      </trkpt>
      <trkpt lon="13.5557388154" lat="42.8226778924">
        <ele>372.4603</ele>
        <time>2022-05-20T09:54:02Z</time>
      </trkpt>
      <trkpt lon="13.5557332032" lat="42.8227264782">
        <ele>373.9967</ele>
        <time>2022-05-20T09:54:03Z</time>
      </trkpt>
      <trkpt lon="13.555727591" lat="42.822775064">
        <ele>375.5331</ele>
        <time>2022-05-20T09:54:04Z</time>
      </trkpt>
      <trkpt lon="13.5557212053" lat="42.8228303381">
        <ele>377.1021</ele>
        <time>2022-05-20T09:54:07Z</time>
      </trkpt>
      <trkpt lon="13.5557148209" lat="42.8228856122">
        <ele>377.6293</ele>
        <time>2022-05-20T09:54:12Z</time>
      </trkpt>
      <trkpt lon="13.5557099773" lat="42.8229391191">
        <ele>377.8057</ele>
        <time>2022-05-20T09:54:19Z</time>
      </trkpt>
      <trkpt lon="13.5557051337" lat="42.8229926269">
        <ele>377.7339</ele>
        <time>2022-05-20T09:54:23Z</time>
      </trkpt>
      <trkpt lon="13.5557047001" lat="42.8229987999">
        <ele>377.7267</ele>
        <time>2022-05-20T09:54:24Z</time>
      </trkpt>
      <trkpt lon="13.5556999791" lat="42.8230653784">
        <ele>377.3991</ele>
        <time>2022-05-20T09:54:26Z</time>
      </trkpt>
      <trkpt lon="13.555694822" lat="42.8231381299">
        <ele>376.8358</ele>
        <time>2022-05-20T09:54:29Z</time>
      </trkpt>
      <trkpt lon="13.5556905455" lat="42.8231984393">
        <ele>376.4908</ele>
        <time>2022-05-20T09:54:30Z</time>
      </trkpt>
      <trkpt lon="13.5556862702" lat="42.8232587486">
        <ele>376.4196</ele>
        <time>2022-05-20T09:54:31Z</time>
      </trkpt>
      <trkpt lon="13.555682475" lat="42.8233125173">
        <ele>375.9117</ele>
        <time>2022-05-20T09:54:32Z</time>
      </trkpt>
      <trkpt lon="13.5556786822" lat="42.8233662869">
        <ele>375.2929</ele>
        <time>2022-05-20T09:54:34Z</time>
      </trkpt>
      <trkpt lon="13.55567184" lat="42.8234632833">
        <ele>375.0642</ele>
        <time>2022-05-20T09:54:35Z</time>
      </trkpt>
      <trkpt lon="13.5556648" lat="42.8235631003">
        <ele>374.061</ele>
        <time>2022-05-20T09:54:37Z</time>
      </trkpt>
      <trkpt lon="13.5556606386" lat="42.823578741">
        <ele>374.0175</ele>
        <time>2022-05-20T09:54:38Z</time>
      </trkpt>
      <trkpt lon="13.5556459489" lat="42.8236339518">
        <ele>373.8642</ele>
        <time>2022-05-20T09:54:39Z</time>
      </trkpt>
      <trkpt lon="13.5556312592" lat="42.8236891616">
        <ele>373.2806</ele>
        <time>2022-05-20T09:54:40Z</time>
      </trkpt>
      <trkpt lon="13.5555984452" lat="42.8238026573">
        <ele>373</ele>
        <time>2022-05-20T09:54:42Z</time>
      </trkpt>
      <trkpt lon="13.555585459" lat="42.823833617">
        <ele>373.0473</ele>
        <time>2022-05-20T09:54:43Z</time>
      </trkpt>
      <trkpt lon="13.5555489995" lat="42.8239740002">
        <ele>372.867</ele>
        <time>2022-05-20T09:54:46Z</time>
      </trkpt>
      <trkpt lon="13.5555051794" lat="42.8240533149">
        <ele>372.461</ele>
        <time>2022-05-20T09:54:48Z</time>
      </trkpt>
      <trkpt lon="13.5554949901" lat="42.8241024355">
        <ele>372.3481</ele>
        <time>2022-05-20T09:54:49Z</time>
      </trkpt>
      <trkpt lon="13.5554612514" lat="42.8242552503">
        <ele>371.9803</ele>
        <time>2022-05-20T09:54:53Z</time>
      </trkpt>
      <trkpt lon="13.5554403032" lat="42.8243013508">
        <ele>372.1017</ele>
        <time>2022-05-20T09:54:54Z</time>
      </trkpt>
      <trkpt lon="13.5554193561" lat="42.8243474513">
        <ele>372.4055</ele>
        <time>2022-05-20T09:54:55Z</time>
      </trkpt>
      <trkpt lon="13.5553903772" lat="42.8244112257">
        <ele>372.3071</ele>
        <time>2022-05-20T09:54:57Z</time>
      </trkpt>
      <trkpt lon="13.5553613994" lat="42.824475">
        <ele>372.0318</ele>
        <time>2022-05-20T09:54:59Z</time>
      </trkpt>
      <trkpt lon="13.555319452" lat="42.8245365441">
        <ele>371.3456</ele>
        <time>2022-05-20T09:55:01Z</time>
      </trkpt>
      <trkpt lon="13.5552780006" lat="42.8246030004">
        <ele>370.3823</ele>
        <time>2022-05-20T09:55:02Z</time>
      </trkpt>
      <trkpt lon="13.5552018857" lat="42.8248471707">
        <ele>366.7301</ele>
        <time>2022-05-20T09:55:07Z</time>
      </trkpt>
      <trkpt lon="13.5551986002" lat="42.8249726825">
        <ele>366.0716</ele>
        <time>2022-05-20T09:55:09Z</time>
      </trkpt>
      <trkpt lon="13.5551985997" lat="42.8250829001">
        <ele>366.0051</ele>
        <time>2022-05-20T09:55:11Z</time>
      </trkpt>
      <trkpt lon="13.5552062296" lat="42.8251052868">
        <ele>366.0057</ele>
        <time>2022-05-20T09:55:12Z</time>
      </trkpt>
      <trkpt lon="13.555223972" lat="42.8251573461">
        <ele>365.7608</ele>
        <time>2022-05-20T09:55:13Z</time>
      </trkpt>
      <trkpt lon="13.5552417144" lat="42.8252094046">
        <ele>365.7106</ele>
        <time>2022-05-20T09:55:14Z</time>
      </trkpt>
      <trkpt lon="13.5552578" lat="42.8252566">
        <ele>365.9012</ele>
        <time>2022-05-20T09:55:15Z</time>
      </trkpt>
      <trkpt lon="13.5552867846" lat="42.8253005471">
        <ele>366.3498</ele>
        <time>2022-05-20T09:55:17Z</time>
      </trkpt>
      <trkpt lon="13.5553206767" lat="42.8253519367">
        <ele>366.5883</ele>
        <time>2022-05-20T09:55:18Z</time>
      </trkpt>
      <trkpt lon="13.55535457" lat="42.8254033254">
        <ele>366.208</ele>
        <time>2022-05-20T09:55:20Z</time>
      </trkpt>
      <trkpt lon="13.5553687995" lat="42.8254249003">
        <ele>366.0262</ele>
        <time>2022-05-20T09:55:21Z</time>
      </trkpt>
      <trkpt lon="13.5554272011" lat="42.825496297">
        <ele>365.6658</ele>
        <time>2022-05-20T09:55:23Z</time>
      </trkpt>
      <trkpt lon="13.5554992818" lat="42.8255781321">
        <ele>365.1642</ele>
        <time>2022-05-20T09:55:25Z</time>
      </trkpt>
      <trkpt lon="13.5555413675" lat="42.8256160056">
        <ele>365.3386</ele>
        <time>2022-05-20T09:55:26Z</time>
      </trkpt>
      <trkpt lon="13.5555834533" lat="42.8256538792">
        <ele>365.1946</ele>
        <time>2022-05-20T09:55:27Z</time>
      </trkpt>
      <trkpt lon="13.5556274491" lat="42.8256934725">
        <ele>364.8245</ele>
        <time>2022-05-20T09:55:28Z</time>
      </trkpt>
      <trkpt lon="13.5556714463" lat="42.8257330648">
        <ele>364.4544</ele>
        <time>2022-05-20T09:55:30Z</time>
      </trkpt>
      <trkpt lon="13.5557176615" lat="42.8257746537">
        <ele>363.9344</ele>
        <time>2022-05-20T09:55:31Z</time>
      </trkpt>
      <trkpt lon="13.5557638767" lat="42.8258162426">
        <ele>363.3109</ele>
        <time>2022-05-20T09:55:32Z</time>
      </trkpt>
      <trkpt lon="13.5558173737" lat="42.8258674993">
        <ele>363.0096</ele>
        <time>2022-05-20T09:55:33Z</time>
      </trkpt>
      <trkpt lon="13.5558708707" lat="42.8259187552">
        <ele>362.0574</ele>
        <time>2022-05-20T09:55:34Z</time>
      </trkpt>
      <trkpt lon="13.5559075352" lat="42.8259595571">
        <ele>361.3387</ele>
        <time>2022-05-20T09:55:35Z</time>
      </trkpt>
      <trkpt lon="13.5559441997" lat="42.8260003581">
        <ele>361.972</ele>
        <time>2022-05-20T09:55:36Z</time>
      </trkpt>
      <trkpt lon="13.5559630158" lat="42.8260441164">
        <ele>362.928</ele>
        <time>2022-05-20T09:55:37Z</time>
      </trkpt>
      <trkpt lon="13.5559818332" lat="42.8260878738">
        <ele>363.5102</ele>
        <time>2022-05-20T09:55:38Z</time>
      </trkpt>
      <trkpt lon="13.5559825996" lat="42.8261476002">
        <ele>363.5358</ele>
        <time>2022-05-20T09:55:39Z</time>
      </trkpt>
      <trkpt lon="13.5559391641" lat="42.8262006284">
        <ele>361.124</ele>
        <time>2022-05-20T09:55:41Z</time>
      </trkpt>
      <trkpt lon="13.5558943054" lat="42.8262554028">
        <ele>357.8548</ele>
        <time>2022-05-20T09:55:43Z</time>
      </trkpt>
      <trkpt lon="13.5558629864" lat="42.8262936605">
        <ele>355.5843</ele>
        <time>2022-05-20T09:55:44Z</time>
      </trkpt>
      <trkpt lon="13.5558083059" lat="42.8263947882">
        <ele>354.3275</ele>
        <time>2022-05-20T09:55:45Z</time>
      </trkpt>
      <trkpt lon="13.555812618" lat="42.8264422511">
        <ele>354.8767</ele>
        <time>2022-05-20T09:55:46Z</time>
      </trkpt>
      <trkpt lon="13.5558202997" lat="42.8265268">
        <ele>355.855</ele>
        <time>2022-05-20T09:55:47Z</time>
      </trkpt>
      <trkpt lon="13.5558430939" lat="42.8265817182">
        <ele>356.935</ele>
        <time>2022-05-20T09:55:49Z</time>
      </trkpt>
      <trkpt lon="13.5558600413" lat="42.8266281356">
        <ele>357.4397</ele>
        <time>2022-05-20T09:55:51Z</time>
      </trkpt>
      <trkpt lon="13.5558769887" lat="42.826674552">
        <ele>357.7716</ele>
        <time>2022-05-20T09:55:53Z</time>
      </trkpt>
      <trkpt lon="13.5558890584" lat="42.8267312133">
        <ele>357.4632</ele>
        <time>2022-05-20T09:55:55Z</time>
      </trkpt>
      <trkpt lon="13.5559011282" lat="42.8267878747">
        <ele>357.1591</ele>
        <time>2022-05-20T09:55:58Z</time>
      </trkpt>
      <trkpt lon="13.5559090997" lat="42.8268252997">
        <ele>357.2871</ele>
        <time>2022-05-20T09:55:59Z</time>
      </trkpt>
      <trkpt lon="13.5559009198" lat="42.8268873131">
        <ele>357.228</ele>
        <time>2022-05-20T09:56:01Z</time>
      </trkpt>
      <trkpt lon="13.5558777904" lat="42.82700295">
        <ele>357.3378</ele>
        <time>2022-05-20T09:56:04Z</time>
      </trkpt>
      <trkpt lon="13.5558395742" lat="42.8270421733">
        <ele>356.7574</ele>
        <time>2022-05-20T09:56:05Z</time>
      </trkpt>
      <trkpt lon="13.5558013578" lat="42.8270813967">
        <ele>356.1215</ele>
        <time>2022-05-20T09:56:06Z</time>
      </trkpt>
      <trkpt lon="13.5557611208" lat="42.8271186036">
        <ele>355.638</ele>
        <time>2022-05-20T09:56:07Z</time>
      </trkpt>
      <trkpt lon="13.5557208838" lat="42.8271558113">
        <ele>355.4116</ele>
        <time>2022-05-20T09:56:08Z</time>
      </trkpt>
      <trkpt lon="13.5556535129" lat="42.8271943696">
        <ele>354.6865</ele>
        <time>2022-05-20T09:56:09Z</time>
      </trkpt>
      <trkpt lon="13.5555861408" lat="42.8272329279">
        <ele>354.1678</ele>
        <time>2022-05-20T09:56:10Z</time>
      </trkpt>
      <trkpt lon="13.555531282" lat="42.8272643247">
        <ele>353.826</ele>
        <time>2022-05-20T09:56:11Z</time>
      </trkpt>
      <trkpt lon="13.5554764232" lat="42.8272957214">
        <ele>353.5774</ele>
        <time>2022-05-20T09:56:12Z</time>
      </trkpt>
      <trkpt lon="13.5554403836" lat="42.8273444771">
        <ele>354.0294</ele>
        <time>2022-05-20T09:56:13Z</time>
      </trkpt>
      <trkpt lon="13.5554043439" lat="42.8273932327">
        <ele>354.1421</ele>
        <time>2022-05-20T09:56:14Z</time>
      </trkpt>
      <trkpt lon="13.5553357121" lat="42.8274055988">
        <ele>353.5802</ele>
        <time>2022-05-20T09:56:15Z</time>
      </trkpt>
      <trkpt lon="13.5552670789" lat="42.8274179648">
        <ele>352.7725</ele>
        <time>2022-05-20T09:56:16Z</time>
      </trkpt>
      <trkpt lon="13.5551763996" lat="42.8274711998">
        <ele>352.54</ele>
        <time>2022-05-20T09:56:18Z</time>
      </trkpt>
      <trkpt lon="13.5551284756" lat="42.8275366459">
        <ele>353.4364</ele>
        <time>2022-05-20T09:56:20Z</time>
      </trkpt>
      <trkpt lon="13.5550728292" lat="42.8276176355">
        <ele>353.7725</ele>
        <time>2022-05-20T09:56:22Z</time>
      </trkpt>
      <trkpt lon="13.5550308348" lat="42.8276810933">
        <ele>354.3507</ele>
        <time>2022-05-20T09:56:24Z</time>
      </trkpt>
      <trkpt lon="13.5550024728" lat="42.8277331074">
        <ele>354.5183</ele>
        <time>2022-05-20T09:56:25Z</time>
      </trkpt>
      <trkpt lon="13.5549741107" lat="42.8277851224">
        <ele>354.5572</ele>
        <time>2022-05-20T09:56:27Z</time>
      </trkpt>
      <trkpt lon="13.5549618006" lat="42.8278076996">
        <ele>354.574</ele>
        <time>2022-05-20T09:56:28Z</time>
      </trkpt>
      <trkpt lon="13.55492399" lat="42.8278795588">
        <ele>354.6507</ele>
        <time>2022-05-20T09:56:30Z</time>
      </trkpt>
      <trkpt lon="13.5549017725" lat="42.8279217817">
        <ele>354.6958</ele>
        <time>2022-05-20T09:56:32Z</time>
      </trkpt>
      <trkpt lon="13.5548795548" lat="42.8279640056">
        <ele>354.7409</ele>
        <time>2022-05-20T09:56:33Z</time>
      </trkpt>
      <trkpt lon="13.5548633051" lat="42.8279948889">
        <ele>354.7739</ele>
        <time>2022-05-20T09:56:34Z</time>
      </trkpt>
      <trkpt lon="13.5547989996" lat="42.8281170999">
        <ele>354.4857</ele>
        <time>2022-05-20T09:56:37Z</time>
      </trkpt>
      <trkpt lon="13.554714133" lat="42.8280918795">
        <ele>352.6926</ele>
        <time>2022-05-20T09:56:39Z</time>
      </trkpt>
      <trkpt lon="13.5546669737" lat="42.8280823609">
        <ele>351.5484</ele>
        <time>2022-05-20T09:56:40Z</time>
      </trkpt>
      <trkpt lon="13.5546181854" lat="42.8280515516">
        <ele>350.3358</ele>
        <time>2022-05-20T09:56:41Z</time>
      </trkpt>
      <trkpt lon="13.5545693973" lat="42.8280207423">
        <ele>348.837</ele>
        <time>2022-05-20T09:56:42Z</time>
      </trkpt>
      <trkpt lon="13.5545798522" lat="42.8279429078">
        <ele>348.6108</ele>
        <time>2022-05-20T09:56:43Z</time>
      </trkpt>
      <trkpt lon="13.5546130402" lat="42.8278686733">
        <ele>348.6418</ele>
        <time>2022-05-20T09:56:44Z</time>
      </trkpt>
      <trkpt lon="13.5546298553" lat="42.8278173141">
        <ele>348.1483</ele>
        <time>2022-05-20T09:56:45Z</time>
      </trkpt>
      <trkpt lon="13.5546467178" lat="42.8277658095">
        <ele>347.6414</ele>
        <time>2022-05-20T09:56:46Z</time>
      </trkpt>
      <trkpt lon="13.5546680996" lat="42.8277004995">
        <ele>347.1599</ele>
        <time>2022-05-20T09:56:47Z</time>
      </trkpt>
      <trkpt lon="13.5547231243" lat="42.8276056821">
        <ele>346.8551</ele>
        <time>2022-05-20T09:56:49Z</time>
      </trkpt>
      <trkpt lon="13.5547698664" lat="42.8275251359">
        <ele>346.0433</ele>
        <time>2022-05-20T09:56:51Z</time>
      </trkpt>
      <trkpt lon="13.5548166085" lat="42.8274445905">
        <ele>345.2442</ele>
        <time>2022-05-20T09:56:52Z</time>
      </trkpt>
      <trkpt lon="13.5548628482" lat="42.8273793475">
        <ele>344.3835</ele>
        <time>2022-05-20T09:56:54Z</time>
      </trkpt>
      <trkpt lon="13.5549090891" lat="42.8273141055">
        <ele>344.4261</ele>
        <time>2022-05-20T09:56:55Z</time>
      </trkpt>
      <trkpt lon="13.5549630493" lat="42.8272801744">
        <ele>345.3874</ele>
        <time>2022-05-20T09:56:56Z</time>
      </trkpt>
      <trkpt lon="13.5550170083" lat="42.8272462433">
        <ele>345.9405</ele>
        <time>2022-05-20T09:56:57Z</time>
      </trkpt>
      <trkpt lon="13.5550745604" lat="42.8272100531">
        <ele>346.5486</ele>
        <time>2022-05-20T09:56:59Z</time>
      </trkpt>
      <trkpt lon="13.5551242128" lat="42.8271596837">
        <ele>346.8836</ele>
        <time>2022-05-20T09:57:00Z</time>
      </trkpt>
      <trkpt lon="13.5551738651" lat="42.8271093142">
        <ele>347.2186</ele>
        <time>2022-05-20T09:57:03Z</time>
      </trkpt>
      <trkpt lon="13.5552394262" lat="42.8270382149">
        <ele>347.6154</ele>
        <time>2022-05-20T09:57:06Z</time>
      </trkpt>
      <trkpt lon="13.555247553" lat="42.8270294023">
        <ele>347.6646</ele>
        <time>2022-05-20T09:57:07Z</time>
      </trkpt>
      <trkpt lon="13.5552981386" lat="42.8269686328">
        <ele>347.9123</ele>
        <time>2022-05-20T09:57:09Z</time>
      </trkpt>
      <trkpt lon="13.5553394226" lat="42.8269006094">
        <ele>347.9319</ele>
        <time>2022-05-20T09:57:12Z</time>
      </trkpt>
      <trkpt lon="13.5553616588" lat="42.8268576626">
        <ele>348.0083</ele>
        <time>2022-05-20T09:57:13Z</time>
      </trkpt>
      <trkpt lon="13.5553911202" lat="42.8267999134">
        <ele>347.9204</ele>
        <time>2022-05-20T09:57:15Z</time>
      </trkpt>
      <trkpt lon="13.5554205815" lat="42.8267421632">
        <ele>347.8134</ele>
        <time>2022-05-20T09:57:17Z</time>
      </trkpt>
      <trkpt lon="13.5554500427" lat="42.826684414">
        <ele>348.0759</ele>
        <time>2022-05-20T09:57:18Z</time>
      </trkpt>
      <trkpt lon="13.5554806129" lat="42.8266325753">
        <ele>348.357</ele>
        <time>2022-05-20T09:57:20Z</time>
      </trkpt>
      <trkpt lon="13.5555111843" lat="42.8265807375">
        <ele>348.6381</ele>
        <time>2022-05-20T09:57:22Z</time>
      </trkpt>
      <trkpt lon="13.5555188058" lat="42.8265193916">
        <ele>348.2499</ele>
        <time>2022-05-20T09:57:23Z</time>
      </trkpt>
      <trkpt lon="13.5555264272" lat="42.8264580466">
        <ele>347.3199</ele>
        <time>2022-05-20T09:57:25Z</time>
      </trkpt>
      <trkpt lon="13.5555218404" lat="42.8263957001">
        <ele>345.9898</ele>
        <time>2022-05-20T09:57:27Z</time>
      </trkpt>
      <trkpt lon="13.5555617878" lat="42.8263613534">
        <ele>346.6512</ele>
        <time>2022-05-20T09:57:28Z</time>
      </trkpt>
      <trkpt lon="13.5556017364" lat="42.8263270066">
        <ele>347.2038</ele>
        <time>2022-05-20T09:57:29Z</time>
      </trkpt>
      <trkpt lon="13.5556206421" lat="42.8262815881">
        <ele>346.4821</ele>
        <time>2022-05-20T09:57:30Z</time>
      </trkpt>
      <trkpt lon="13.5556395491" lat="42.8262361706">
        <ele>346.106</ele>
        <time>2022-05-20T09:57:31Z</time>
      </trkpt>
      <trkpt lon="13.5556323976" lat="42.8261664814">
        <ele>345.0691</ele>
        <time>2022-05-20T09:57:32Z</time>
      </trkpt>
      <trkpt lon="13.5556252474" lat="42.8260967923">
        <ele>345.5087</ele>
        <time>2022-05-20T09:57:34Z</time>
      </trkpt>
      <trkpt lon="13.5555990223" lat="42.826042752">
        <ele>346.1948</ele>
        <time>2022-05-20T09:57:35Z</time>
      </trkpt>
      <trkpt lon="13.5555727972" lat="42.8259887109">
        <ele>348.3661</ele>
        <time>2022-05-20T09:57:36Z</time>
      </trkpt>
      <trkpt lon="13.5554973059" lat="42.8259798104">
        <ele>348.2889</ele>
        <time>2022-05-20T09:57:38Z</time>
      </trkpt>
      <trkpt lon="13.5554218135" lat="42.8259709099">
        <ele>348.2007</ele>
        <time>2022-05-20T09:57:40Z</time>
      </trkpt>
      <trkpt lon="13.5553143312" lat="42.8259945492">
        <ele>346.715</ele>
        <time>2022-05-20T09:57:43Z</time>
      </trkpt>
      <trkpt lon="13.5552068488" lat="42.8260181884">
        <ele>345.7409</ele>
        <time>2022-05-20T09:57:46Z</time>
      </trkpt>
      <trkpt lon="13.5551119039" lat="42.8260472834">
        <ele>344.318</ele>
        <time>2022-05-20T09:57:48Z</time>
      </trkpt>
      <trkpt lon="13.5550169588" lat="42.8260763784">
        <ele>343.4546</ele>
        <time>2022-05-20T09:57:49Z</time>
      </trkpt>
      <trkpt lon="13.5549523151" lat="42.8260774661">
        <ele>343.4577</ele>
        <time>2022-05-20T09:57:50Z</time>
      </trkpt>
      <trkpt lon="13.5548876701" lat="42.8260785547">
        <ele>343.405</ele>
        <time>2022-05-20T09:57:51Z</time>
      </trkpt>
      <trkpt lon="13.5547878108" lat="42.8260408485">
        <ele>343.6956</ele>
        <time>2022-05-20T09:57:52Z</time>
      </trkpt>
      <trkpt lon="13.5547353959" lat="42.8259786223">
        <ele>344.0158</ele>
        <time>2022-05-20T09:57:54Z</time>
      </trkpt>
      <trkpt lon="13.5546829824" lat="42.8259163951">
        <ele>343.207</ele>
        <time>2022-05-20T09:57:55Z</time>
      </trkpt>
      <trkpt lon="13.5546465066" lat="42.8258747784">
        <ele>342.3264</ele>
        <time>2022-05-20T09:57:56Z</time>
      </trkpt>
      <trkpt lon="13.5546014158" lat="42.8258233409">
        <ele>341.0216</ele>
        <time>2022-05-20T09:57:58Z</time>
      </trkpt>
      <trkpt lon="13.5545563264" lat="42.8257719024">
        <ele>340.339</ele>
        <time>2022-05-20T09:57:59Z</time>
      </trkpt>
      <trkpt lon="13.5545171196" lat="42.8257354562">
        <ele>339.7417</ele>
        <time>2022-05-20T09:58:00Z</time>
      </trkpt>
      <trkpt lon="13.5544360759" lat="42.8256608798">
        <ele>339.0179</ele>
        <time>2022-05-20T09:58:01Z</time>
      </trkpt>
      <trkpt lon="13.5543942391" lat="42.8256227487">
        <ele>339.2022</ele>
        <time>2022-05-20T09:58:02Z</time>
      </trkpt>
      <trkpt lon="13.55432732" lat="42.8256032748">
        <ele>338.8986</ele>
        <time>2022-05-20T09:58:03Z</time>
      </trkpt>
      <trkpt lon="13.5542603997" lat="42.8255837998">
        <ele>338.3632</ele>
        <time>2022-05-20T09:58:04Z</time>
      </trkpt>
      <trkpt lon="13.5542016556" lat="42.8255981668">
        <ele>337.8743</ele>
        <time>2022-05-20T09:58:05Z</time>
      </trkpt>
      <trkpt lon="13.5541429103" lat="42.8256125337">
        <ele>337.3853</ele>
        <time>2022-05-20T09:58:06Z</time>
      </trkpt>
      <trkpt lon="13.5540778587" lat="42.8256289858">
        <ele>336.9275</ele>
        <time>2022-05-20T09:58:07Z</time>
      </trkpt>
      <trkpt lon="13.5540128059" lat="42.8256454387">
        <ele>336.569</ele>
        <time>2022-05-20T09:58:08Z</time>
      </trkpt>
      <trkpt lon="13.5539225662" lat="42.8256719051">
        <ele>335.6767</ele>
        <time>2022-05-20T09:58:09Z</time>
      </trkpt>
      <trkpt lon="13.5538323252" lat="42.8256983722">
        <ele>334.9742</ele>
        <time>2022-05-20T09:58:10Z</time>
      </trkpt>
      <trkpt lon="13.5537420853" lat="42.8257248385">
        <ele>334.636</ele>
        <time>2022-05-20T09:58:11Z</time>
      </trkpt>
      <trkpt lon="13.5536669279" lat="42.8257483911">
        <ele>333.8043</ele>
        <time>2022-05-20T09:58:12Z</time>
      </trkpt>
      <trkpt lon="13.5535917693" lat="42.8257719427">
        <ele>333.1284</ele>
        <time>2022-05-20T09:58:13Z</time>
      </trkpt>
      <trkpt lon="13.5534601597" lat="42.8258192138">
        <ele>332.3761</ele>
        <time>2022-05-20T09:58:15Z</time>
      </trkpt>
      <trkpt lon="13.5534037075" lat="42.8258429323">
        <ele>331.6618</ele>
        <time>2022-05-20T09:58:16Z</time>
      </trkpt>
      <trkpt lon="13.5533472404" lat="42.825866657">
        <ele>330.8874</ele>
        <time>2022-05-20T09:58:17Z</time>
      </trkpt>
      <trkpt lon="13.5532907733" lat="42.8258903825">
        <ele>330.2513</ele>
        <time>2022-05-20T09:58:18Z</time>
      </trkpt>
      <trkpt lon="13.5532213093" lat="42.8259128324">
        <ele>329.8435</ele>
        <time>2022-05-20T09:58:19Z</time>
      </trkpt>
      <trkpt lon="13.5531518451" lat="42.8259352833">
        <ele>329.1694</ele>
        <time>2022-05-20T09:58:20Z</time>
      </trkpt>
      <trkpt lon="13.5530599333" lat="42.8259294003">
        <ele>328.4108</ele>
        <time>2022-05-20T09:58:21Z</time>
      </trkpt>
      <trkpt lon="13.5529104749" lat="42.8259075026">
        <ele>327.9761</ele>
        <time>2022-05-20T09:58:22Z</time>
      </trkpt>
      <trkpt lon="13.5528529284" lat="42.8258914881">
        <ele>327.1173</ele>
        <time>2022-05-20T09:58:23Z</time>
      </trkpt>
      <trkpt lon="13.5527820507" lat="42.8258677101">
        <ele>326.1603</ele>
        <time>2022-05-20T09:58:24Z</time>
      </trkpt>
      <trkpt lon="13.5527111718" lat="42.825843932">
        <ele>324.719</ele>
        <time>2022-05-20T09:58:25Z</time>
      </trkpt>
      <trkpt lon="13.5526606771" lat="42.8258139675">
        <ele>324.0405</ele>
        <time>2022-05-20T09:58:26Z</time>
      </trkpt>
      <trkpt lon="13.5526101824" lat="42.825784002">
        <ele>322.7654</ele>
        <time>2022-05-20T09:58:27Z</time>
      </trkpt>
      <trkpt lon="13.5524980426" lat="42.825719487">
        <ele>320.361</ele>
        <time>2022-05-20T09:58:28Z</time>
      </trkpt>
      <trkpt lon="13.5524348579" lat="42.8256914628">
        <ele>318.7308</ele>
        <time>2022-05-20T09:58:29Z</time>
      </trkpt>
      <trkpt lon="13.5523160516" lat="42.825638769">
        <ele>315.847</ele>
        <time>2022-05-20T09:58:30Z</time>
      </trkpt>
      <trkpt lon="13.55226043" lat="42.8256140993">
        <ele>314.9991</ele>
        <time>2022-05-20T09:58:31Z</time>
      </trkpt>
      <trkpt lon="13.5521809087" lat="42.82557883">
        <ele>313.2366</ele>
        <time>2022-05-20T09:58:32Z</time>
      </trkpt>
      <trkpt lon="13.5520781824" lat="42.8255704492">
        <ele>309.885</ele>
        <time>2022-05-20T09:58:33Z</time>
      </trkpt>
      <trkpt lon="13.5519777164" lat="42.8255813714">
        <ele>307.0917</ele>
        <time>2022-05-20T09:58:34Z</time>
      </trkpt>
      <trkpt lon="13.5518876424" lat="42.8256564138">
        <ele>303.3228</ele>
        <time>2022-05-20T09:58:35Z</time>
      </trkpt>
      <trkpt lon="13.5518134029" lat="42.8257090067">
        <ele>301.483</ele>
        <time>2022-05-20T09:58:36Z</time>
      </trkpt>
      <trkpt lon="13.5517391621" lat="42.8257615995">
        <ele>300.1973</ele>
        <time>2022-05-20T09:58:37Z</time>
      </trkpt>
      <trkpt lon="13.5516863084" lat="42.8257926074">
        <ele>300.1796</ele>
        <time>2022-05-20T09:58:38Z</time>
      </trkpt>
      <trkpt lon="13.5516334545" lat="42.8258236161">
        <ele>301.3411</ele>
        <time>2022-05-20T09:58:39Z</time>
      </trkpt>
      <trkpt lon="13.5515813025" lat="42.825854223">
        <ele>303.4766</ele>
        <time>2022-05-20T09:58:40Z</time>
      </trkpt>
      <trkpt lon="13.5515291504" lat="42.8258848309">
        <ele>305.7028</ele>
        <time>2022-05-20T09:58:41Z</time>
      </trkpt>
      <trkpt lon="13.5515073002" lat="42.8258962701">
        <ele>306.4526</ele>
        <time>2022-05-20T09:58:42Z</time>
      </trkpt>
      <trkpt lon="13.5514527117" lat="42.8259303609">
        <ele>308.9376</ele>
        <time>2022-05-20T09:58:45Z</time>
      </trkpt>
      <trkpt lon="13.5514292005" lat="42.8259449822">
        <ele>310.2069</ele>
        <time>2022-05-20T09:58:49Z</time>
      </trkpt>
      <trkpt lon="13.5513816696" lat="42.8259743048">
        <ele>312.4299</ele>
        <time>2022-05-20T09:58:59Z</time>
      </trkpt>
      <trkpt lon="13.5513255525" lat="42.8259978303">
        <ele>315.0746</ele>
        <time>2022-05-20T09:59:10Z</time>
      </trkpt>
      <trkpt lon="13.5513108987" lat="42.8260042771">
        <ele>315.8613</ele>
        <time>2022-05-20T09:59:13Z</time>
      </trkpt>
      <trkpt lon="13.5513245519" lat="42.8260082519">
        <ele>315.8963</ele>
        <time>2022-05-20T09:59:15Z</time>
      </trkpt>
      <trkpt lon="13.5515106555" lat="42.8260623124">
        <ele>314.746</ele>
        <time>2022-05-20T09:59:41Z</time>
      </trkpt>
      <trkpt lon="13.5515689116" lat="42.8260768526">
        <ele>314.2708</ele>
        <time>2022-05-20T09:59:43Z</time>
      </trkpt>
      <trkpt lon="13.5516271616" lat="42.8260913899">
        <ele>313.216</ele>
        <time>2022-05-20T09:59:44Z</time>
      </trkpt>
      <trkpt lon="13.5516996169" lat="42.826109474">
        <ele>312.0656</ele>
        <time>2022-05-20T09:59:45Z</time>
      </trkpt>
      <trkpt lon="13.5517720723" lat="42.8261275571">
        <ele>310.6728</ele>
        <time>2022-05-20T09:59:46Z</time>
      </trkpt>
      <trkpt lon="13.5518046997" lat="42.8261356998">
        <ele>309.8745</ele>
        <time>2022-05-20T09:59:47Z</time>
      </trkpt>
      <trkpt lon="13.5519325" lat="42.8262128002">
        <ele>307.4175</ele>
        <time>2022-05-20T09:59:48Z</time>
      </trkpt>
      <trkpt lon="13.551967307" lat="42.8262468044">
        <ele>306.6577</ele>
        <time>2022-05-20T09:59:49Z</time>
      </trkpt>
      <trkpt lon="13.5520428418" lat="42.8263205988">
        <ele>304.8571</ele>
        <time>2022-05-20T09:59:50Z</time>
      </trkpt>
      <trkpt lon="13.5520450723" lat="42.826377816">
        <ele>305.9473</ele>
        <time>2022-05-20T09:59:51Z</time>
      </trkpt>
      <trkpt lon="13.5520464362" lat="42.8264127813">
        <ele>306.1806</ele>
        <time>2022-05-20T09:59:52Z</time>
      </trkpt>
      <trkpt lon="13.5520688028" lat="42.826460668">
        <ele>305.4102</ele>
        <time>2022-05-20T09:59:53Z</time>
      </trkpt>
      <trkpt lon="13.5520911693" lat="42.8265085548">
        <ele>304.7374</ele>
        <time>2022-05-20T09:59:54Z</time>
      </trkpt>
      <trkpt lon="13.5521200644" lat="42.8265546943">
        <ele>304.1245</ele>
        <time>2022-05-20T09:59:56Z</time>
      </trkpt>
      <trkpt lon="13.5521489608" lat="42.8266008338">
        <ele>303.1287</ele>
        <time>2022-05-20T09:59:57Z</time>
      </trkpt>
      <trkpt lon="13.5522259119" lat="42.8266577946">
        <ele>300.6903</ele>
        <time>2022-05-20T09:59:58Z</time>
      </trkpt>
      <trkpt lon="13.5522961694" lat="42.826709799">
        <ele>298.3866</ele>
        <time>2022-05-20T10:00:00Z</time>
      </trkpt>
      <trkpt lon="13.5524064479" lat="42.8267771291">
        <ele>296.0355</ele>
        <time>2022-05-20T10:00:01Z</time>
      </trkpt>
      <trkpt lon="13.5524493466" lat="42.8268307082">
        <ele>295.1204</ele>
        <time>2022-05-20T10:00:02Z</time>
      </trkpt>
      <trkpt lon="13.5524922453" lat="42.8268842864">
        <ele>294.3837</ele>
        <time>2022-05-20T10:00:03Z</time>
      </trkpt>
      <trkpt lon="13.5524780381" lat="42.8269777999">
        <ele>294.0596</ele>
        <time>2022-05-20T10:00:04Z</time>
      </trkpt>
      <trkpt lon="13.5524523649" lat="42.8270187917">
        <ele>294.1518</ele>
        <time>2022-05-20T10:00:05Z</time>
      </trkpt>
      <trkpt lon="13.5524266916" lat="42.8270597845">
        <ele>294.214</ele>
        <time>2022-05-20T10:00:06Z</time>
      </trkpt>
      <trkpt lon="13.5523860652" lat="42.8271246508">
        <ele>294.7748</ele>
        <time>2022-05-20T10:00:07Z</time>
      </trkpt>
      <trkpt lon="13.5523454387" lat="42.827189518">
        <ele>295.4873</ele>
        <time>2022-05-20T10:00:09Z</time>
      </trkpt>
      <trkpt lon="13.5523282316" lat="42.8272376787">
        <ele>295.2993</ele>
        <time>2022-05-20T10:00:11Z</time>
      </trkpt>
      <trkpt lon="13.5523110258" lat="42.8272858395">
        <ele>295.1956</ele>
        <time>2022-05-20T10:00:12Z</time>
      </trkpt>
      <trkpt lon="13.5523144567" lat="42.8273319982">
        <ele>295.195</ele>
        <time>2022-05-20T10:00:14Z</time>
      </trkpt>
      <trkpt lon="13.5523178889" lat="42.827378156">
        <ele>295.1943</ele>
        <time>2022-05-20T10:00:15Z</time>
      </trkpt>
      <trkpt lon="13.5523231731" lat="42.8274312973">
        <ele>295.1718</ele>
        <time>2022-05-20T10:00:17Z</time>
      </trkpt>
      <trkpt lon="13.5523284584" lat="42.8274844386">
        <ele>295.3205</ele>
        <time>2022-05-20T10:00:18Z</time>
      </trkpt>
      <trkpt lon="13.5523348002" lat="42.8275481996">
        <ele>295.6885</ele>
        <time>2022-05-20T10:00:20Z</time>
      </trkpt>
      <trkpt lon="13.5523331017" lat="42.8276055598">
        <ele>296.2219</ele>
        <time>2022-05-20T10:00:22Z</time>
      </trkpt>
      <trkpt lon="13.5523316975" lat="42.8276529838">
        <ele>296.7695</ele>
        <time>2022-05-20T10:00:23Z</time>
      </trkpt>
      <trkpt lon="13.5523302933" lat="42.8277004087">
        <ele>297.4556</ele>
        <time>2022-05-20T10:00:25Z</time>
      </trkpt>
      <trkpt lon="13.5523287141" lat="42.8277537604">
        <ele>298.44</ele>
        <time>2022-05-20T10:00:27Z</time>
      </trkpt>
      <trkpt lon="13.5523271348" lat="42.827807113">
        <ele>299.6862</ele>
        <time>2022-05-20T10:00:29Z</time>
      </trkpt>
      <trkpt lon="13.5523262995" lat="42.8278353002">
        <ele>300.4426</ele>
        <time>2022-05-20T10:00:31Z</time>
      </trkpt>
      <trkpt lon="13.5523493479" lat="42.8279104037">
        <ele>301.7168</ele>
        <time>2022-05-20T10:00:37Z</time>
      </trkpt>
      <trkpt lon="13.5523641238" lat="42.8279585519">
        <ele>302.432</ele>
        <time>2022-05-20T10:00:41Z</time>
      </trkpt>
      <trkpt lon="13.5523788998" lat="42.8280067001">
        <ele>303.2684</ele>
        <time>2022-05-20T10:00:46Z</time>
      </trkpt>
      <trkpt lon="13.5524310816" lat="42.8280544523">
        <ele>303.3372</ele>
        <time>2022-05-20T10:00:51Z</time>
      </trkpt>
      <trkpt lon="13.5524832648" lat="42.8281022036">
        <ele>303.1593</ele>
        <time>2022-05-20T10:00:55Z</time>
      </trkpt>
      <trkpt lon="13.552540733" lat="42.8281621777">
        <ele>303.6851</ele>
        <time>2022-05-20T10:00:59Z</time>
      </trkpt>
      <trkpt lon="13.5525982027" lat="42.8282221509">
        <ele>303.5156</ele>
        <time>2022-05-20T10:01:01Z</time>
      </trkpt>
      <trkpt lon="13.5525813511" lat="42.8282674472">
        <ele>305.0405</ele>
        <time>2022-05-20T10:01:03Z</time>
      </trkpt>
      <trkpt lon="13.5525644994" lat="42.8283127443">
        <ele>306.1741</ele>
        <time>2022-05-20T10:01:05Z</time>
      </trkpt>
      <trkpt lon="13.5525256368" lat="42.8283522267">
        <ele>307.9374</ele>
        <time>2022-05-20T10:01:07Z</time>
      </trkpt>
      <trkpt lon="13.5524867753" lat="42.8283917101">
        <ele>309.3032</ele>
        <time>2022-05-20T10:01:10Z</time>
      </trkpt>
      <trkpt lon="13.5524665824" lat="42.8284356385">
        <ele>310.0519</ele>
        <time>2022-05-20T10:01:14Z</time>
      </trkpt>
      <trkpt lon="13.5524463908" lat="42.8284795669">
        <ele>310.7105</ele>
        <time>2022-05-20T10:01:21Z</time>
      </trkpt>
      <trkpt lon="13.5524076279" lat="42.8285223671">
        <ele>312.1292</ele>
        <time>2022-05-20T10:01:28Z</time>
      </trkpt>
      <trkpt lon="13.5523688662" lat="42.8285651674">
        <ele>313.2226</ele>
        <time>2022-05-20T10:01:35Z</time>
      </trkpt>
      <trkpt lon="13.5523064582" lat="42.8285926949">
        <ele>314.9161</ele>
        <time>2022-05-20T10:01:41Z</time>
      </trkpt>
      <trkpt lon="13.5522440489" lat="42.8286202232">
        <ele>316.7968</ele>
        <time>2022-05-20T10:01:48Z</time>
      </trkpt>
      <trkpt lon="13.5522033402" lat="42.8285843182">
        <ele>318.0352</ele>
        <time>2022-05-20T10:01:54Z</time>
      </trkpt>
      <trkpt lon="13.5521626314" lat="42.8285484132">
        <ele>319.2801</ele>
        <time>2022-05-20T10:02:01Z</time>
      </trkpt>
      <trkpt lon="13.5521572736" lat="42.8285006857">
        <ele>319.0537</ele>
        <time>2022-05-20T10:02:09Z</time>
      </trkpt>
      <trkpt lon="13.5521519169" lat="42.8284529574">
        <ele>318.8007</ele>
        <time>2022-05-20T10:02:14Z</time>
      </trkpt>
      <trkpt lon="13.5521297521" lat="42.8283831385">
        <ele>319.2184</ele>
        <time>2022-05-20T10:02:18Z</time>
      </trkpt>
      <trkpt lon="13.5521075874" lat="42.8283133187">
        <ele>319.5641</ele>
        <time>2022-05-20T10:02:21Z</time>
      </trkpt>
      <trkpt lon="13.5520702485" lat="42.8282756705">
        <ele>320.4605</ele>
        <time>2022-05-20T10:02:23Z</time>
      </trkpt>
      <trkpt lon="13.5520329098" lat="42.8282380224">
        <ele>321.0746</ele>
        <time>2022-05-20T10:02:24Z</time>
      </trkpt>
      <trkpt lon="13.551986384" lat="42.8281911106">
        <ele>322.1785</ele>
        <time>2022-05-20T10:02:26Z</time>
      </trkpt>
      <trkpt lon="13.5519398582" lat="42.8281441987">
        <ele>322.899</ele>
        <time>2022-05-20T10:02:29Z</time>
      </trkpt>
      <trkpt lon="13.5519109132" lat="42.8280965574">
        <ele>322.8365</ele>
        <time>2022-05-20T10:02:32Z</time>
      </trkpt>
      <trkpt lon="13.5518819695" lat="42.8280489161">
        <ele>322.1587</ele>
        <time>2022-05-20T10:02:34Z</time>
      </trkpt>
      <trkpt lon="13.5518513237" lat="42.8279789125">
        <ele>321.4787</ele>
        <time>2022-05-20T10:02:37Z</time>
      </trkpt>
      <trkpt lon="13.551820678" lat="42.8279089079">
        <ele>321.4631</ele>
        <time>2022-05-20T10:02:39Z</time>
      </trkpt>
      <trkpt lon="13.5517825001" lat="42.8278217">
        <ele>320.2209</ele>
        <time>2022-05-20T10:02:41Z</time>
      </trkpt>
      <trkpt lon="13.5517484101" lat="42.827800602">
        <ele>320.4663</ele>
        <time>2022-05-20T10:02:42Z</time>
      </trkpt>
      <trkpt lon="13.5516917391" lat="42.8277655286">
        <ele>321.1679</ele>
        <time>2022-05-20T10:02:43Z</time>
      </trkpt>
      <trkpt lon="13.5516350669" lat="42.8277304544">
        <ele>322.1281</ele>
        <time>2022-05-20T10:02:44Z</time>
      </trkpt>
      <trkpt lon="13.5515871358" lat="42.8277007902">
        <ele>322.9462</ele>
        <time>2022-05-20T10:02:45Z</time>
      </trkpt>
      <trkpt lon="13.5515392047" lat="42.827671126">
        <ele>323.9006</ele>
        <time>2022-05-20T10:02:47Z</time>
      </trkpt>
      <trkpt lon="13.551477344" lat="42.827599281">
        <ele>325.0061</ele>
        <time>2022-05-20T10:02:51Z</time>
      </trkpt>
      <trkpt lon="13.5514154847" lat="42.827527436">
        <ele>326.1712</ele>
        <time>2022-05-20T10:02:57Z</time>
      </trkpt>
      <trkpt lon="13.5514233918" lat="42.8274780871">
        <ele>324.8216</ele>
        <time>2022-05-20T10:03:00Z</time>
      </trkpt>
      <trkpt lon="13.5514313" lat="42.827428739">
        <ele>324.2557</ele>
        <time>2022-05-20T10:03:02Z</time>
      </trkpt>
      <trkpt lon="13.551438597" lat="42.8273831942">
        <ele>323.9073</ele>
        <time>2022-05-20T10:03:04Z</time>
      </trkpt>
      <trkpt lon="13.5514458952" lat="42.8273376503">
        <ele>323.7187</ele>
        <time>2022-05-20T10:03:05Z</time>
      </trkpt>
      <trkpt lon="13.5514400212" lat="42.8272437901">
        <ele>324.8579</ele>
        <time>2022-05-20T10:03:06Z</time>
      </trkpt>
      <trkpt lon="13.551412353" lat="42.8272012311">
        <ele>327.3231</ele>
        <time>2022-05-20T10:03:08Z</time>
      </trkpt>
      <trkpt lon="13.5513914377" lat="42.8271690595">
        <ele>329.7704</ele>
        <time>2022-05-20T10:03:09Z</time>
      </trkpt>
      <trkpt lon="13.5513712292" lat="42.8271243841">
        <ele>332.502</ele>
        <time>2022-05-20T10:03:11Z</time>
      </trkpt>
      <trkpt lon="13.551359859" lat="42.8270954076">
        <ele>334.0302</ele>
        <time>2022-05-20T10:03:14Z</time>
      </trkpt>
      <trkpt lon="13.5513350344" lat="42.827032143">
        <ele>337.4682</ele>
        <time>2022-05-20T10:03:24Z</time>
      </trkpt>
      <trkpt lon="13.5513407322" lat="42.8269852452">
        <ele>338.4999</ele>
        <time>2022-05-20T10:03:35Z</time>
      </trkpt>
      <trkpt lon="13.55134643" lat="42.8269383474">
        <ele>339.7337</ele>
        <time>2022-05-20T10:03:46Z</time>
      </trkpt>
      <trkpt lon="13.5513883684" lat="42.8268767462">
        <ele>339.7371</ele>
        <time>2022-05-20T10:03:58Z</time>
      </trkpt>
      <trkpt lon="13.5514303068" lat="42.8268151459">
        <ele>339.207</ele>
        <time>2022-05-20T10:04:05Z</time>
      </trkpt>
      <trkpt lon="13.5514230567" lat="42.8267659113">
        <ele>341.0195</ele>
        <time>2022-05-20T10:04:09Z</time>
      </trkpt>
      <trkpt lon="13.551417982" lat="42.8267314439">
        <ele>342.1005</ele>
        <time>2022-05-20T10:04:11Z</time>
      </trkpt>
      <trkpt lon="13.5514158079" lat="42.8267166758">
        <ele>342.5588</ele>
        <time>2022-05-20T10:04:12Z</time>
      </trkpt>
      <trkpt lon="13.5513519994" lat="42.8266563003">
        <ele>346.6724</ele>
        <time>2022-05-20T10:04:16Z</time>
      </trkpt>
      <trkpt lon="13.5513159492" lat="42.8266154507">
        <ele>348.5183</ele>
        <time>2022-05-20T10:04:20Z</time>
      </trkpt>
      <trkpt lon="13.5512799002" lat="42.8265746001">
        <ele>349.8387</ele>
        <time>2022-05-20T10:04:28Z</time>
      </trkpt>
      <trkpt lon="13.5512269032" lat="42.8265467042">
        <ele>351.4963</ele>
        <time>2022-05-20T10:04:39Z</time>
      </trkpt>
      <trkpt lon="13.5511739049" lat="42.8265188074">
        <ele>353.6622</ele>
        <time>2022-05-20T10:04:50Z</time>
      </trkpt>
      <trkpt lon="13.5511157402" lat="42.8264881922">
        <ele>355.4643</ele>
        <time>2022-05-20T10:05:02Z</time>
      </trkpt>
      <trkpt lon="13.5510546799" lat="42.826502503">
        <ele>358.8737</ele>
        <time>2022-05-20T10:05:13Z</time>
      </trkpt>
      <trkpt lon="13.5510393426" lat="42.8265060974">
        <ele>359.7385</ele>
        <time>2022-05-20T10:05:16Z</time>
      </trkpt>
      <trkpt lon="13.5509905386" lat="42.8265692045">
        <ele>363.3174</ele>
        <time>2022-05-20T10:05:32Z</time>
      </trkpt>
      <trkpt lon="13.5509417346" lat="42.8266323126">
        <ele>366.0867</ele>
        <time>2022-05-20T10:05:49Z</time>
      </trkpt>
      <trkpt lon="13.5508870341" lat="42.8266660199">
        <ele>368.8305</ele>
        <time>2022-05-20T10:06:01Z</time>
      </trkpt>
      <trkpt lon="13.5508323336" lat="42.8266997271">
        <ele>371.5937</ele>
        <time>2022-05-20T10:06:13Z</time>
      </trkpt>
      <trkpt lon="13.5507680357" lat="42.8266972922">
        <ele>374.1593</ele>
        <time>2022-05-20T10:06:24Z</time>
      </trkpt>
      <trkpt lon="13.5507037378" lat="42.8266948573">
        <ele>376.6518</ele>
        <time>2022-05-20T10:06:35Z</time>
      </trkpt>
      <trkpt lon="13.5506655083" lat="42.8266996477">
        <ele>378.2304</ele>
        <time>2022-05-20T10:06:41Z</time>
      </trkpt>
      <trkpt lon="13.5506383843" lat="42.8267030459">
        <ele>379.3643</ele>
        <time>2022-05-20T10:06:46Z</time>
      </trkpt>
      <trkpt lon="13.5505730295" lat="42.8267112354">
        <ele>382.1437</ele>
        <time>2022-05-20T10:06:57Z</time>
      </trkpt>
      <trkpt lon="13.5505582999" lat="42.8267107004">
        <ele>382.7041</ele>
        <time>2022-05-20T10:06:59Z</time>
      </trkpt>
      <trkpt lon="13.5504482528" lat="42.8267441794">
        <ele>387.7517</ele>
        <time>2022-05-20T10:07:19Z</time>
      </trkpt>
      <trkpt lon="13.5504139998" lat="42.8267545996">
        <ele>389.2838</ele>
        <time>2022-05-20T10:07:26Z</time>
      </trkpt>
      <trkpt lon="13.5503923753" lat="42.8267862526">
        <ele>390.6049</ele>
        <time>2022-05-20T10:07:34Z</time>
      </trkpt>
      <trkpt lon="13.550341413" lat="42.8268246239">
        <ele>392.7317</ele>
        <time>2022-05-20T10:07:46Z</time>
      </trkpt>
      <trkpt lon="13.5503355998" lat="42.8268256003">
        <ele>392.9324</ele>
        <time>2022-05-20T10:07:47Z</time>
      </trkpt>
      <trkpt lon="13.5503087995" lat="42.8268287">
        <ele>393.8537</ele>
        <time>2022-05-20T10:07:51Z</time>
      </trkpt>
      <trkpt lon="13.550305509" lat="42.8268326089">
        <ele>394.0045</ele>
        <time>2022-05-20T10:07:52Z</time>
      </trkpt>
      <trkpt lon="13.5502612829" lat="42.8268424444">
        <ele>395.4762</ele>
        <time>2022-05-20T10:08:00Z</time>
      </trkpt>
      <trkpt lon="13.550187255" lat="42.8268589084">
        <ele>397.3789</ele>
        <time>2022-05-20T10:08:13Z</time>
      </trkpt>
      <trkpt lon="13.5501811515" lat="42.8268602656">
        <ele>397.5522</ele>
        <time>2022-05-20T10:08:14Z</time>
      </trkpt>
      <trkpt lon="13.5501774274" lat="42.8268611064">
        <ele>397.6596</ele>
        <time>2022-05-20T10:08:15Z</time>
      </trkpt>
      <trkpt lon="13.5501461569" lat="42.8269086384">
        <ele>400.0786</ele>
        <time>2022-05-20T10:08:27Z</time>
      </trkpt>
      <trkpt lon="13.5501320197" lat="42.8269301267">
        <ele>401.0316</ele>
        <time>2022-05-20T10:08:32Z</time>
      </trkpt>
      <trkpt lon="13.5501148863" lat="42.8269561714">
        <ele>402.1886</ele>
        <time>2022-05-20T10:08:39Z</time>
      </trkpt>
      <trkpt lon="13.55008695" lat="42.8269989711">
        <ele>404.4609</ele>
        <time>2022-05-20T10:08:50Z</time>
      </trkpt>
      <trkpt lon="13.5500590149" lat="42.8270417708">
        <ele>406.8784</ele>
        <time>2022-05-20T10:09:01Z</time>
      </trkpt>
      <trkpt lon="13.5500014571" lat="42.8271037851">
        <ele>410.8674</ele>
        <time>2022-05-20T10:09:18Z</time>
      </trkpt>
      <trkpt lon="13.5499439003" lat="42.8271658003">
        <ele>414.0098</ele>
        <time>2022-05-20T10:09:35Z</time>
      </trkpt>
      <trkpt lon="13.5498591213" lat="42.8271637647">
        <ele>417.0886</ele>
        <time>2022-05-20T10:09:49Z</time>
      </trkpt>
      <trkpt lon="13.549774341" lat="42.827161729">
        <ele>419.057</ele>
        <time>2022-05-20T10:10:04Z</time>
      </trkpt>
      <trkpt lon="13.5496986006" lat="42.8271689003">
        <ele>420.0051</ele>
        <time>2022-05-20T10:10:16Z</time>
      </trkpt>
      <trkpt lon="13.549680675" lat="42.8271731407">
        <ele>420.3567</ele>
        <time>2022-05-20T10:10:19Z</time>
      </trkpt>
      <trkpt lon="13.5495493886" lat="42.8272050828">
        <ele>422.7557</ele>
        <time>2022-05-20T10:10:37Z</time>
      </trkpt>
      <trkpt lon="13.5495054736" lat="42.8272180233">
        <ele>423.6292</ele>
        <time>2022-05-20T10:10:42Z</time>
      </trkpt>
      <trkpt lon="13.5494486471" lat="42.8272347687">
        <ele>424.9915</ele>
        <time>2022-05-20T10:10:49Z</time>
      </trkpt>
      <trkpt lon="13.5493799714" lat="42.8272550858">
        <ele>426.8115</ele>
        <time>2022-05-20T10:10:56Z</time>
      </trkpt>
      <trkpt lon="13.5493112957" lat="42.8272754038">
        <ele>428.7735</ele>
        <time>2022-05-20T10:11:05Z</time>
      </trkpt>
      <trkpt lon="13.5492780001" lat="42.8272853">
        <ele>429.6302</ele>
        <time>2022-05-20T10:11:09Z</time>
      </trkpt>
      <trkpt lon="13.5492493281" lat="42.8272835228">
        <ele>429.3384</ele>
        <time>2022-05-20T10:11:11Z</time>
      </trkpt>
      <trkpt lon="13.5492291963" lat="42.8272861602">
        <ele>429.522</ele>
        <time>2022-05-20T10:11:12Z</time>
      </trkpt>
      <trkpt lon="13.5491470969" lat="42.8272969165">
        <ele>430.2705</ele>
        <time>2022-05-20T10:11:16Z</time>
      </trkpt>
      <trkpt lon="13.5490750388" lat="42.8273175237">
        <ele>432.1024</ele>
        <time>2022-05-20T10:11:19Z</time>
      </trkpt>
      <trkpt lon="13.5490464139" lat="42.8273257104">
        <ele>432.8366</ele>
        <time>2022-05-20T10:11:20Z</time>
      </trkpt>
      <trkpt lon="13.5489892872" lat="42.8273420475">
        <ele>434.4134</ele>
        <time>2022-05-20T10:11:22Z</time>
      </trkpt>
      <trkpt lon="13.5489321604" lat="42.8273583846">
        <ele>435.7687</ele>
        <time>2022-05-20T10:11:26Z</time>
      </trkpt>
      <trkpt lon="13.5488444116" lat="42.8273781165">
        <ele>437.0312</ele>
        <time>2022-05-20T10:11:35Z</time>
      </trkpt>
      <trkpt lon="13.54881776" lat="42.8274211789">
        <ele>440.4506</ele>
        <time>2022-05-20T10:11:45Z</time>
      </trkpt>
      <trkpt lon="13.5488568601" lat="42.8274626606">
        <ele>442.573</ele>
        <time>2022-05-20T10:11:55Z</time>
      </trkpt>
      <trkpt lon="13.5489092157" lat="42.8275014403">
        <ele>444.4225</ele>
        <time>2022-05-20T10:12:06Z</time>
      </trkpt>
      <trkpt lon="13.548832353" lat="42.8275499663">
        <ele>447.2082</ele>
        <time>2022-05-20T10:12:20Z</time>
      </trkpt>
      <trkpt lon="13.5487687619" lat="42.8275628318">
        <ele>448.531</ele>
        <time>2022-05-20T10:12:31Z</time>
      </trkpt>
      <trkpt lon="13.5487196984" lat="42.827578701">
        <ele>449.9793</ele>
        <time>2022-05-20T10:12:40Z</time>
      </trkpt>
      <trkpt lon="13.5486616006" lat="42.8276119003">
        <ele>452.9256</ele>
        <time>2022-05-20T10:12:53Z</time>
      </trkpt>
      <trkpt lon="13.5485876867" lat="42.8276213984">
        <ele>455.3972</ele>
        <time>2022-05-20T10:13:05Z</time>
      </trkpt>
      <trkpt lon="13.5485310445" lat="42.8276857073">
        <ele>461.6387</ele>
        <time>2022-05-20T10:13:23Z</time>
      </trkpt>
      <trkpt lon="13.5484744034" lat="42.8277500171">
        <ele>464.4615</ele>
        <time>2022-05-20T10:13:40Z</time>
      </trkpt>
      <trkpt lon="13.5484623639" lat="42.8277983652">
        <ele>465.8716</ele>
        <time>2022-05-20T10:13:52Z</time>
      </trkpt>
      <trkpt lon="13.5484503243" lat="42.8278467133">
        <ele>467.2071</ele>
        <time>2022-05-20T10:14:03Z</time>
      </trkpt>
      <trkpt lon="13.5483998005" lat="42.8278900997">
        <ele>469.7493</ele>
        <time>2022-05-20T10:14:16Z</time>
      </trkpt>
      <trkpt lon="13.5483339454" lat="42.8279112858">
        <ele>471.2428</ele>
        <time>2022-05-20T10:14:27Z</time>
      </trkpt>
      <trkpt lon="13.5482742326" lat="42.8279641705">
        <ele>473.6916</ele>
        <time>2022-05-20T10:14:43Z</time>
      </trkpt>
      <trkpt lon="13.548215864" lat="42.8280158636">
        <ele>475.5499</ele>
        <time>2022-05-20T10:14:58Z</time>
      </trkpt>
      <trkpt lon="13.5482162997" lat="42.8280306997">
        <ele>475.566</ele>
        <time>2022-05-20T10:15:01Z</time>
      </trkpt>
      <trkpt lon="13.5481813" lat="42.8280655001">
        <ele>476.4871</ele>
        <time>2022-05-20T10:15:08Z</time>
      </trkpt>
      <trkpt lon="13.5481548054" lat="42.8280699405">
        <ele>477.1911</ele>
        <time>2022-05-20T10:15:10Z</time>
      </trkpt>
      <trkpt lon="13.5480961773" lat="42.8280862995">
        <ele>479.0901</ele>
        <time>2022-05-20T10:15:15Z</time>
      </trkpt>
      <trkpt lon="13.548037548" lat="42.8281026585">
        <ele>480.8201</ele>
        <time>2022-05-20T10:15:21Z</time>
      </trkpt>
      <trkpt lon="13.5479882602" lat="42.8281343015">
        <ele>482.0167</ele>
        <time>2022-05-20T10:15:26Z</time>
      </trkpt>
      <trkpt lon="13.5479389822" lat="42.8281659383">
        <ele>483.4913</ele>
        <time>2022-05-20T10:15:34Z</time>
      </trkpt>
      <trkpt lon="13.5478588583" lat="42.8281254398">
        <ele>485.5034</ele>
        <time>2022-05-20T10:15:49Z</time>
      </trkpt>
      <trkpt lon="13.5477787445" lat="42.8280849343">
        <ele>487.4768</ele>
        <time>2022-05-20T10:16:05Z</time>
      </trkpt>
      <trkpt lon="13.5477628005" lat="42.8280699996">
        <ele>487.7402</ele>
        <time>2022-05-20T10:16:09Z</time>
      </trkpt>
      <trkpt lon="13.5477568919" lat="42.8280542998">
        <ele>487.6585</ele>
        <time>2022-05-20T10:16:12Z</time>
      </trkpt>
      <trkpt lon="13.547732123" lat="42.8280195761">
        <ele>487.729</ele>
        <time>2022-05-20T10:16:15Z</time>
      </trkpt>
      <trkpt lon="13.5476991227" lat="42.8279733123">
        <ele>487.508</ele>
        <time>2022-05-20T10:16:18Z</time>
      </trkpt>
      <trkpt lon="13.5476538387" lat="42.8279617129">
        <ele>488.3421</ele>
        <time>2022-05-20T10:16:19Z</time>
      </trkpt>
      <trkpt lon="13.5476054604" lat="42.8279731642">
        <ele>490.0257</ele>
        <time>2022-05-20T10:16:20Z</time>
      </trkpt>
      <trkpt lon="13.5475254167" lat="42.8279921095">
        <ele>492.9983</ele>
        <time>2022-05-20T10:16:23Z</time>
      </trkpt>
      <trkpt lon="13.5474453742" lat="42.8280110556">
        <ele>496.204</ele>
        <time>2022-05-20T10:16:26Z</time>
      </trkpt>
      <trkpt lon="13.5474021638" lat="42.8280331534">
        <ele>498.1415</ele>
        <time>2022-05-20T10:16:29Z</time>
      </trkpt>
      <trkpt lon="13.547368358" lat="42.8280504421">
        <ele>499.3892</ele>
        <time>2022-05-20T10:16:34Z</time>
      </trkpt>
      <trkpt lon="13.5472913417" lat="42.8280898286">
        <ele>501.9226</ele>
        <time>2022-05-20T10:16:50Z</time>
      </trkpt>
      <trkpt lon="13.5472597005" lat="42.8280941998">
        <ele>502.7351</ele>
        <time>2022-05-20T10:16:55Z</time>
      </trkpt>
      <trkpt lon="13.5471648995" lat="42.8281063">
        <ele>505.1033</ele>
        <time>2022-05-20T10:17:11Z</time>
      </trkpt>
      <trkpt lon="13.5471196332" lat="42.8280838656">
        <ele>505.1769</ele>
        <time>2022-05-20T10:17:20Z</time>
      </trkpt>
      <trkpt lon="13.5470674601" lat="42.8280580071">
        <ele>505.4998</ele>
        <time>2022-05-20T10:17:27Z</time>
      </trkpt>
      <trkpt lon="13.5470152858" lat="42.8280321476">
        <ele>506.0886</ele>
        <time>2022-05-20T10:17:31Z</time>
      </trkpt>
      <trkpt lon="13.5469702818" lat="42.8279921997">
        <ele>505.7613</ele>
        <time>2022-05-20T10:17:34Z</time>
      </trkpt>
      <trkpt lon="13.5469695632" lat="42.8279673598">
        <ele>504.9055</ele>
        <time>2022-05-20T10:17:35Z</time>
      </trkpt>
      <trkpt lon="13.5469349278" lat="42.8279284079">
        <ele>504.4871</ele>
        <time>2022-05-20T10:17:37Z</time>
      </trkpt>
      <trkpt lon="13.5469002936" lat="42.827889456">
        <ele>504.3804</ele>
        <time>2022-05-20T10:17:38Z</time>
      </trkpt>
      <trkpt lon="13.5468110619" lat="42.827826785">
        <ele>504.985</ele>
        <time>2022-05-20T10:17:39Z</time>
      </trkpt>
      <trkpt lon="13.5467497521" lat="42.827778492">
        <ele>505.2748</ele>
        <time>2022-05-20T10:17:41Z</time>
      </trkpt>
      <trkpt lon="13.5466884425" lat="42.8277301981">
        <ele>505.0979</ele>
        <time>2022-05-20T10:17:42Z</time>
      </trkpt>
      <trkpt lon="13.546626157" lat="42.8276531204">
        <ele>503.8358</ele>
        <time>2022-05-20T10:17:45Z</time>
      </trkpt>
      <trkpt lon="13.5465860722" lat="42.8276504296">
        <ele>504.6713</ele>
        <time>2022-05-20T10:17:46Z</time>
      </trkpt>
      <trkpt lon="13.5465300272" lat="42.8276739202">
        <ele>506.8905</ele>
        <time>2022-05-20T10:17:47Z</time>
      </trkpt>
      <trkpt lon="13.5465026963" lat="42.8277004797">
        <ele>508.6564</ele>
        <time>2022-05-20T10:17:48Z</time>
      </trkpt>
      <trkpt lon="13.5465008318" lat="42.8277324801">
        <ele>509.7235</ele>
        <time>2022-05-20T10:17:50Z</time>
      </trkpt>
      <trkpt lon="13.5465179812" lat="42.8277577726">
        <ele>510.0784</ele>
        <time>2022-05-20T10:17:52Z</time>
      </trkpt>
      <trkpt lon="13.5465474706" lat="42.8278012636">
        <ele>510.5969</ele>
        <time>2022-05-20T10:17:58Z</time>
      </trkpt>
      <trkpt lon="13.5465617524" lat="42.8278304721">
        <ele>510.9679</ele>
        <time>2022-05-20T10:18:02Z</time>
      </trkpt>
      <trkpt lon="13.5465320901" lat="42.8278814887">
        <ele>512.548</ele>
        <time>2022-05-20T10:18:07Z</time>
      </trkpt>
      <trkpt lon="13.5464386953" lat="42.8278542709">
        <ele>513.6887</ele>
        <time>2022-05-20T10:18:13Z</time>
      </trkpt>
      <trkpt lon="13.5463397569" lat="42.8278701316">
        <ele>516.1844</ele>
        <time>2022-05-20T10:18:18Z</time>
      </trkpt>
      <trkpt lon="13.546271692" lat="42.8278583117">
        <ele>517.4943</ele>
        <time>2022-05-20T10:18:23Z</time>
      </trkpt>
      <trkpt lon="13.5462036272" lat="42.8278464908">
        <ele>518.8196</ele>
        <time>2022-05-20T10:18:30Z</time>
      </trkpt>
      <trkpt lon="13.5461640002" lat="42.8278155997">
        <ele>519.2718</ele>
        <time>2022-05-20T10:18:36Z</time>
      </trkpt>
      <trkpt lon="13.5461236091" lat="42.8277954907">
        <ele>519.9851</ele>
        <time>2022-05-20T10:18:40Z</time>
      </trkpt>
      <trkpt lon="13.5460435899" lat="42.8277444905">
        <ele>520.2195</ele>
        <time>2022-05-20T10:18:47Z</time>
      </trkpt>
      <trkpt lon="13.5459985131" lat="42.8277120696">
        <ele>519.9951</ele>
        <time>2022-05-20T10:18:50Z</time>
      </trkpt>
      <trkpt lon="13.5459534351" lat="42.8276796477">
        <ele>519.9668</ele>
        <time>2022-05-20T10:18:52Z</time>
      </trkpt>
      <trkpt lon="13.5459062673" lat="42.8276457242">
        <ele>519.7922</ele>
        <time>2022-05-20T10:18:54Z</time>
      </trkpt>
      <trkpt lon="13.5458590995" lat="42.8276117997">
        <ele>519.6424</ele>
        <time>2022-05-20T10:18:55Z</time>
      </trkpt>
      <trkpt lon="13.5458123996" lat="42.8275502003">
        <ele>518.2312</ele>
        <time>2022-05-20T10:18:57Z</time>
      </trkpt>
      <trkpt lon="13.5457444679" lat="42.8274904528">
        <ele>517.3565</ele>
        <time>2022-05-20T10:18:59Z</time>
      </trkpt>
      <trkpt lon="13.545657368" lat="42.8274138464">
        <ele>515.4727</ele>
        <time>2022-05-20T10:19:00Z</time>
      </trkpt>
      <trkpt lon="13.5456381001" lat="42.8273968998">
        <ele>515.1278</ele>
        <time>2022-05-20T10:19:01Z</time>
      </trkpt>
      <trkpt lon="13.5455588248" lat="42.8273467714">
        <ele>514.3536</ele>
        <time>2022-05-20T10:19:02Z</time>
      </trkpt>
      <trkpt lon="13.5455072144" lat="42.8273141358">
        <ele>513.817</ele>
        <time>2022-05-20T10:19:03Z</time>
      </trkpt>
      <trkpt lon="13.5454556028" lat="42.8272815001">
        <ele>513.5905</ele>
        <time>2022-05-20T10:19:04Z</time>
      </trkpt>
      <trkpt lon="13.5453868241" lat="42.8272361426">
        <ele>513.1465</ele>
        <time>2022-05-20T10:19:05Z</time>
      </trkpt>
      <trkpt lon="13.5453180443" lat="42.8271907851">
        <ele>512.4507</ele>
        <time>2022-05-20T10:19:06Z</time>
      </trkpt>
      <trkpt lon="13.5452479654" lat="42.8271411498">
        <ele>511.8243</ele>
        <time>2022-05-20T10:19:07Z</time>
      </trkpt>
      <trkpt lon="13.5451778853" lat="42.8270915145">
        <ele>512.1774</ele>
        <time>2022-05-20T10:19:08Z</time>
      </trkpt>
      <trkpt lon="13.5451135724" lat="42.8270371886">
        <ele>511.8438</ele>
        <time>2022-05-20T10:19:10Z</time>
      </trkpt>
      <trkpt lon="13.5450492609" lat="42.8269828628">
        <ele>511.8264</ele>
        <time>2022-05-20T10:19:11Z</time>
      </trkpt>
      <trkpt lon="13.5449930926" lat="42.8269221702">
        <ele>511.0322</ele>
        <time>2022-05-20T10:19:13Z</time>
      </trkpt>
      <trkpt lon="13.5449410993" lat="42.8268659882">
        <ele>510.2384</ele>
        <time>2022-05-20T10:19:14Z</time>
      </trkpt>
      <trkpt lon="13.5449189005" lat="42.826842">
        <ele>510.2409</ele>
        <time>2022-05-20T10:19:15Z</time>
      </trkpt>
      <trkpt lon="13.5448312643" lat="42.8267892182">
        <ele>511.823</ele>
        <time>2022-05-20T10:19:16Z</time>
      </trkpt>
      <trkpt lon="13.5447436283" lat="42.8267364355">
        <ele>514.3237</ele>
        <time>2022-05-20T10:19:18Z</time>
      </trkpt>
      <trkpt lon="13.5446764752" lat="42.8266970354">
        <ele>516.0817</ele>
        <time>2022-05-20T10:19:20Z</time>
      </trkpt>
      <trkpt lon="13.5446093221" lat="42.8266576352">
        <ele>518.2253</ele>
        <time>2022-05-20T10:19:23Z</time>
      </trkpt>
      <trkpt lon="13.5445643647" lat="42.8266227405">
        <ele>519.0826</ele>
        <time>2022-05-20T10:19:26Z</time>
      </trkpt>
      <trkpt lon="13.5445194075" lat="42.8265878459">
        <ele>520.1665</ele>
        <time>2022-05-20T10:19:32Z</time>
      </trkpt>
      <trkpt lon="13.5444532495" lat="42.8265151185">
        <ele>522.3317</ele>
        <time>2022-05-20T10:19:46Z</time>
      </trkpt>
      <trkpt lon="13.5443870917" lat="42.8264423912">
        <ele>523.6721</ele>
        <time>2022-05-20T10:20:00Z</time>
      </trkpt>
      <trkpt lon="13.5443391993" lat="42.8263799403">
        <ele>525.0975</ele>
        <time>2022-05-20T10:20:09Z</time>
      </trkpt>
      <trkpt lon="13.5442913069" lat="42.8263174895">
        <ele>526.7349</ele>
        <time>2022-05-20T10:20:17Z</time>
      </trkpt>
      <trkpt lon="13.5442323218" lat="42.8262894547">
        <ele>529.206</ele>
        <time>2022-05-20T10:20:23Z</time>
      </trkpt>
      <trkpt lon="13.5441733356" lat="42.82626142">
        <ele>531.755</ele>
        <time>2022-05-20T10:20:29Z</time>
      </trkpt>
      <trkpt lon="13.5441631677" lat="42.8262068564">
        <ele>531.4445</ele>
        <time>2022-05-20T10:20:36Z</time>
      </trkpt>
      <trkpt lon="13.5441529998" lat="42.8261522928">
        <ele>531.1174</ele>
        <time>2022-05-20T10:20:43Z</time>
      </trkpt>
      <trkpt lon="13.5441275705" lat="42.8261071473">
        <ele>531.4424</ele>
        <time>2022-05-20T10:20:46Z</time>
      </trkpt>
      <trkpt lon="13.5441021424" lat="42.8260620017">
        <ele>531.7168</ele>
        <time>2022-05-20T10:20:48Z</time>
      </trkpt>
      <trkpt lon="13.5440509906" lat="42.8260284104">
        <ele>534.0833</ele>
        <time>2022-05-20T10:20:50Z</time>
      </trkpt>
      <trkpt lon="13.5439998388" lat="42.8259948182">
        <ele>536.4739</ele>
        <time>2022-05-20T10:20:53Z</time>
      </trkpt>
      <trkpt lon="13.5439578225" lat="42.825934106">
        <ele>537.8516</ele>
        <time>2022-05-20T10:20:56Z</time>
      </trkpt>
      <trkpt lon="13.5439158064" lat="42.8258733939">
        <ele>539.0012</ele>
        <time>2022-05-20T10:21:01Z</time>
      </trkpt>
      <trkpt lon="13.5438737089" lat="42.8258057251">
        <ele>540.0524</ele>
        <time>2022-05-20T10:21:09Z</time>
      </trkpt>
      <trkpt lon="13.5438316128" lat="42.8257380564">
        <ele>541.1036</ele>
        <time>2022-05-20T10:21:18Z</time>
      </trkpt>
      <trkpt lon="13.5437940519" lat="42.8256989412">
        <ele>542.3843</ele>
        <time>2022-05-20T10:21:22Z</time>
      </trkpt>
      <trkpt lon="13.5437564911" lat="42.825659825">
        <ele>543.8024</ele>
        <time>2022-05-20T10:21:27Z</time>
      </trkpt>
      <trkpt lon="13.5437199466" lat="42.8256217691">
        <ele>544.9854</ele>
        <time>2022-05-20T10:21:31Z</time>
      </trkpt>
      <trkpt lon="13.5436834033" lat="42.8255837123">
        <ele>545.9976</ele>
        <time>2022-05-20T10:21:36Z</time>
      </trkpt>
      <trkpt lon="13.5436495492" lat="42.8255205338">
        <ele>546.9837</ele>
        <time>2022-05-20T10:21:44Z</time>
      </trkpt>
      <trkpt lon="13.5436156953" lat="42.8254573544">
        <ele>547.9506</ele>
        <time>2022-05-20T10:21:53Z</time>
      </trkpt>
      <trkpt lon="13.5435755169" lat="42.825419897">
        <ele>549.4806</ele>
        <time>2022-05-20T10:21:58Z</time>
      </trkpt>
      <trkpt lon="13.5435353386" lat="42.8253824387">
        <ele>550.8214</ele>
        <time>2022-05-20T10:22:03Z</time>
      </trkpt>
      <trkpt lon="13.5434939547" lat="42.8253438583">
        <ele>551.501</ele>
        <time>2022-05-20T10:22:09Z</time>
      </trkpt>
      <trkpt lon="13.5434525721" lat="42.8253052769">
        <ele>552.3609</ele>
        <time>2022-05-20T10:22:14Z</time>
      </trkpt>
      <trkpt lon="13.5434376006" lat="42.8252602589">
        <ele>552.3028</ele>
        <time>2022-05-20T10:22:18Z</time>
      </trkpt>
      <trkpt lon="13.543422629" lat="42.8252152399">
        <ele>552.2928</ele>
        <time>2022-05-20T10:22:21Z</time>
      </trkpt>
      <trkpt lon="13.5434176222" lat="42.8251617658">
        <ele>551.3138</ele>
        <time>2022-05-20T10:22:24Z</time>
      </trkpt>
      <trkpt lon="13.5434126167" lat="42.8251082908">
        <ele>550.176</ele>
        <time>2022-05-20T10:22:26Z</time>
      </trkpt>
      <trkpt lon="13.5434076022" lat="42.8250547284">
        <ele>549.065</ele>
        <time>2022-05-20T10:22:27Z</time>
      </trkpt>
      <trkpt lon="13.5434025878" lat="42.825001165">
        <ele>547.9375</ele>
        <time>2022-05-20T10:22:28Z</time>
      </trkpt>
      <trkpt lon="13.543389026" lat="42.8249423762">
        <ele>547.0429</ele>
        <time>2022-05-20T10:22:29Z</time>
      </trkpt>
      <trkpt lon="13.5433607143" lat="42.8248478916">
        <ele>546.6098</ele>
        <time>2022-05-20T10:22:30Z</time>
      </trkpt>
      <trkpt lon="13.5433184137" lat="42.8248065907">
        <ele>546.8658</ele>
        <time>2022-05-20T10:22:31Z</time>
      </trkpt>
      <trkpt lon="13.5432761143" lat="42.8247652889">
        <ele>547.0388</ele>
        <time>2022-05-20T10:22:32Z</time>
      </trkpt>
      <trkpt lon="13.5432054134" lat="42.8247150239">
        <ele>549.0126</ele>
        <time>2022-05-20T10:22:34Z</time>
      </trkpt>
      <trkpt lon="13.5431347115" lat="42.824664758">
        <ele>550.2038</ele>
        <time>2022-05-20T10:22:36Z</time>
      </trkpt>
      <trkpt lon="13.5430837808" lat="42.8246309863">
        <ele>552.3429</ele>
        <time>2022-05-20T10:22:38Z</time>
      </trkpt>
      <trkpt lon="13.5430328502" lat="42.8245972136">
        <ele>553.5369</ele>
        <time>2022-05-20T10:22:41Z</time>
      </trkpt>
      <trkpt lon="13.5429752955" lat="42.8245673855">
        <ele>555.8896</ele>
        <time>2022-05-20T10:22:45Z</time>
      </trkpt>
      <trkpt lon="13.5429177396" lat="42.8245375574">
        <ele>558.3398</ele>
        <time>2022-05-20T10:22:52Z</time>
      </trkpt>
      <trkpt lon="13.542859853" lat="42.8244926999">
        <ele>559.2577</ele>
        <time>2022-05-20T10:23:04Z</time>
      </trkpt>
      <trkpt lon="13.5428019664" lat="42.8244478424">
        <ele>560.1149</ele>
        <time>2022-05-20T10:23:18Z</time>
      </trkpt>
      <trkpt lon="13.5427524222" lat="42.8244125582">
        <ele>560.7537</ele>
        <time>2022-05-20T10:23:25Z</time>
      </trkpt>
      <trkpt lon="13.5427028781" lat="42.8243772731">
        <ele>561.0872</ele>
        <time>2022-05-20T10:23:30Z</time>
      </trkpt>
      <trkpt lon="13.5426539728" lat="42.8243427624">
        <ele>561.7556</ele>
        <time>2022-05-20T10:23:34Z</time>
      </trkpt>
      <trkpt lon="13.5426050676" lat="42.8243082517">
        <ele>562.1949</ele>
        <time>2022-05-20T10:23:36Z</time>
      </trkpt>
      <trkpt lon="13.5425650365" lat="42.8242729642">
        <ele>561.4704</ele>
        <time>2022-05-20T10:23:38Z</time>
      </trkpt>
      <trkpt lon="13.5425250055" lat="42.8242376758">
        <ele>560.9634</ele>
        <time>2022-05-20T10:23:40Z</time>
      </trkpt>
      <trkpt lon="13.5425059042" lat="42.8241892983">
        <ele>559.1651</ele>
        <time>2022-05-20T10:23:41Z</time>
      </trkpt>
      <trkpt lon="13.5424868029" lat="42.82414092">
        <ele>557.4418</ele>
        <time>2022-05-20T10:23:42Z</time>
      </trkpt>
      <trkpt lon="13.5424628556" lat="42.8240914146">
        <ele>556.0799</ele>
        <time>2022-05-20T10:23:43Z</time>
      </trkpt>
      <trkpt lon="13.5424389095" lat="42.8240419092">
        <ele>555.3887</ele>
        <time>2022-05-20T10:23:44Z</time>
      </trkpt>
      <trkpt lon="13.5423857501" lat="42.8240029074">
        <ele>556.5074</ele>
        <time>2022-05-20T10:23:45Z</time>
      </trkpt>
      <trkpt lon="13.542332592" lat="42.8239639047">
        <ele>557.6175</ele>
        <time>2022-05-20T10:23:46Z</time>
      </trkpt>
      <trkpt lon="13.5422803057" lat="42.8239296606">
        <ele>558.5894</ele>
        <time>2022-05-20T10:23:47Z</time>
      </trkpt>
      <trkpt lon="13.5422280183" lat="42.8238954155">
        <ele>558.9655</ele>
        <time>2022-05-20T10:23:48Z</time>
      </trkpt>
      <trkpt lon="13.5421705255" lat="42.8238652879">
        <ele>561.1374</ele>
        <time>2022-05-20T10:23:50Z</time>
      </trkpt>
      <trkpt lon="13.5421130315" lat="42.8238351603">
        <ele>562.9879</ele>
        <time>2022-05-20T10:23:54Z</time>
      </trkpt>
      <trkpt lon="13.5420542514" lat="42.8238012008">
        <ele>564.3534</ele>
        <time>2022-05-20T10:23:59Z</time>
      </trkpt>
      <trkpt lon="13.5419954701" lat="42.8237672403">
        <ele>565.4451</ele>
        <time>2022-05-20T10:24:06Z</time>
      </trkpt>
      <trkpt lon="13.5419481046" lat="42.823730024">
        <ele>565.972</ele>
        <time>2022-05-20T10:24:13Z</time>
      </trkpt>
      <trkpt lon="13.5419007404" lat="42.8236928076">
        <ele>566.4437</ele>
        <time>2022-05-20T10:24:19Z</time>
      </trkpt>
      <trkpt lon="13.541856253" lat="42.8236578531">
        <ele>566.3195</ele>
        <time>2022-05-20T10:24:22Z</time>
      </trkpt>
      <trkpt lon="13.5418117669" lat="42.8236228976">
        <ele>566.6527</ele>
        <time>2022-05-20T10:24:25Z</time>
      </trkpt>
      <trkpt lon="13.5417663671" lat="42.8235872605">
        <ele>567.241</ele>
        <time>2022-05-20T10:24:27Z</time>
      </trkpt>
      <trkpt lon="13.5417209674" lat="42.8235516225">
        <ele>567.5338</ele>
        <time>2022-05-20T10:24:29Z</time>
      </trkpt>
      <trkpt lon="13.5416724672" lat="42.8235160611">
        <ele>567.7855</ele>
        <time>2022-05-20T10:24:31Z</time>
      </trkpt>
      <trkpt lon="13.5416239684" lat="42.8234804989">
        <ele>568.0371</ele>
        <time>2022-05-20T10:24:32Z</time>
      </trkpt>
      <trkpt lon="13.5415788789" lat="42.8234474384">
        <ele>568.2601</ele>
        <time>2022-05-20T10:24:34Z</time>
      </trkpt>
      <trkpt lon="13.5415337907" lat="42.8234143771">
        <ele>568.2424</ele>
        <time>2022-05-20T10:24:36Z</time>
      </trkpt>
      <trkpt lon="13.541490385" lat="42.8233825501">
        <ele>567.9936</ele>
        <time>2022-05-20T10:24:37Z</time>
      </trkpt>
      <trkpt lon="13.5414469794" lat="42.8233507223">
        <ele>567.8976</ele>
        <time>2022-05-20T10:24:38Z</time>
      </trkpt>
      <trkpt lon="13.5413917793" lat="42.8233309245">
        <ele>568.4831</ele>
        <time>2022-05-20T10:24:40Z</time>
      </trkpt>
      <trkpt lon="13.541336578" lat="42.8233111267">
        <ele>569.0687</ele>
        <time>2022-05-20T10:24:41Z</time>
      </trkpt>
      <trkpt lon="13.5412633691" lat="42.8232948212">
        <ele>569.7362</ele>
        <time>2022-05-20T10:24:43Z</time>
      </trkpt>
      <trkpt lon="13.5411901603" lat="42.8232785148">
        <ele>570.7758</ele>
        <time>2022-05-20T10:24:45Z</time>
      </trkpt>
      <trkpt lon="13.5411376451" lat="42.8232553048">
        <ele>571.8756</ele>
        <time>2022-05-20T10:24:46Z</time>
      </trkpt>
      <trkpt lon="13.5410851287" lat="42.8232320948">
        <ele>572.9755</ele>
        <time>2022-05-20T10:24:49Z</time>
      </trkpt>
      <trkpt lon="13.5410114762" lat="42.8231613699">
        <ele>574.5885</ele>
        <time>2022-05-20T10:24:56Z</time>
      </trkpt>
      <trkpt lon="13.5409378238" lat="42.8230906441">
        <ele>576.7501</ele>
        <time>2022-05-20T10:25:04Z</time>
      </trkpt>
      <trkpt lon="13.5408943501" lat="42.8230534121">
        <ele>577.6314</ele>
        <time>2022-05-20T10:25:09Z</time>
      </trkpt>
      <trkpt lon="13.5408508763" lat="42.8230161801">
        <ele>577.8201</ele>
        <time>2022-05-20T10:25:14Z</time>
      </trkpt>
      <trkpt lon="13.5408011614" lat="42.8229888209">
        <ele>577.9637</ele>
        <time>2022-05-20T10:25:18Z</time>
      </trkpt>
      <trkpt lon="13.5407514453" lat="42.8229614609">
        <ele>577.2877</ele>
        <time>2022-05-20T10:25:20Z</time>
      </trkpt>
      <trkpt lon="13.5406679932" lat="42.8229694266">
        <ele>577.7857</ele>
        <time>2022-05-20T10:25:23Z</time>
      </trkpt>
      <trkpt lon="13.5405845409" lat="42.8229773932">
        <ele>577.3044</ele>
        <time>2022-05-20T10:25:24Z</time>
      </trkpt>
      <trkpt lon="13.540495838" lat="42.8230092869">
        <ele>577.5921</ele>
        <time>2022-05-20T10:25:26Z</time>
      </trkpt>
      <trkpt lon="13.5404071349" lat="42.8230411806">
        <ele>577.6588</ele>
        <time>2022-05-20T10:25:28Z</time>
      </trkpt>
      <trkpt lon="13.5403390041" lat="42.8230625348">
        <ele>577.7103</ele>
        <time>2022-05-20T10:25:29Z</time>
      </trkpt>
      <trkpt lon="13.5402708722" lat="42.823083889">
        <ele>577.248</ele>
        <time>2022-05-20T10:25:31Z</time>
      </trkpt>
      <trkpt lon="13.5402017556" lat="42.8231026326">
        <ele>576.7185</ele>
        <time>2022-05-20T10:25:32Z</time>
      </trkpt>
      <trkpt lon="13.5401326378" lat="42.8231213771">
        <ele>576.6752</ele>
        <time>2022-05-20T10:25:33Z</time>
      </trkpt>
      <trkpt lon="13.5400675307" lat="42.8231469517">
        <ele>576.8936</ele>
        <time>2022-05-20T10:25:35Z</time>
      </trkpt>
      <trkpt lon="13.5400024223" lat="42.8231725272">
        <ele>577.1119</ele>
        <time>2022-05-20T10:25:36Z</time>
      </trkpt>
      <trkpt lon="13.5399651271" lat="42.8232248946">
        <ele>578.4712</ele>
        <time>2022-05-20T10:25:37Z</time>
      </trkpt>
      <trkpt lon="13.5399278318" lat="42.823277263">
        <ele>579.9188</ele>
        <time>2022-05-20T10:25:39Z</time>
      </trkpt>
      <trkpt lon="13.539897596" lat="42.8233197184">
        <ele>581.479</ele>
        <time>2022-05-20T10:25:41Z</time>
      </trkpt>
      <trkpt lon="13.5398673602" lat="42.8233621739">
        <ele>583.0439</ele>
        <time>2022-05-20T10:25:43Z</time>
      </trkpt>
      <trkpt lon="13.5398265854" lat="42.823446457">
        <ele>587.2508</ele>
        <time>2022-05-20T10:25:51Z</time>
      </trkpt>
      <trkpt lon="13.5397858106" lat="42.8235307411">
        <ele>590.6166</ele>
        <time>2022-05-20T10:26:04Z</time>
      </trkpt>
      <trkpt lon="13.5397674717" lat="42.8235739156">
        <ele>592.3266</ele>
        <time>2022-05-20T10:26:13Z</time>
      </trkpt>
      <trkpt lon="13.5397491341" lat="42.8236170909">
        <ele>594.0366</ele>
        <time>2022-05-20T10:26:23Z</time>
      </trkpt>
      <trkpt lon="13.5397679793" lat="42.8236624255">
        <ele>596.211</ele>
        <time>2022-05-20T10:26:34Z</time>
      </trkpt>
      <trkpt lon="13.5397868258" lat="42.82370776">
        <ele>598.3853</ele>
        <time>2022-05-20T10:26:45Z</time>
      </trkpt>
      <trkpt lon="13.5397577672" lat="42.8237763273">
        <ele>600.6143</ele>
        <time>2022-05-20T10:27:01Z</time>
      </trkpt>
      <trkpt lon="13.5397287073" lat="42.8238448955">
        <ele>603.2209</ele>
        <time>2022-05-20T10:27:18Z</time>
      </trkpt>
      <trkpt lon="13.5396996485" lat="42.8239134628">
        <ele>606.2527</ele>
        <time>2022-05-20T10:27:34Z</time>
      </trkpt>
      <trkpt lon="13.5396535767" lat="42.8239516792">
        <ele>608.2906</ele>
        <time>2022-05-20T10:27:46Z</time>
      </trkpt>
      <trkpt lon="13.539607506" lat="42.8239898956">
        <ele>610.3113</ele>
        <time>2022-05-20T10:27:57Z</time>
      </trkpt>
      <trkpt lon="13.5395524364" lat="42.824035692">
        <ele>612.3865</ele>
        <time>2022-05-20T10:28:11Z</time>
      </trkpt>
      <trkpt lon="13.539497368" lat="42.8240814893">
        <ele>614.2504</ele>
        <time>2022-05-20T10:28:25Z</time>
      </trkpt>
      <trkpt lon="13.5395476834" lat="42.8241240411">
        <ele>616.3034</ele>
        <time>2022-05-20T10:28:38Z</time>
      </trkpt>
      <trkpt lon="13.5395980001" lat="42.824166592">
        <ele>617.7317</ele>
        <time>2022-05-20T10:28:51Z</time>
      </trkpt>
      <trkpt lon="13.539562676" lat="42.8242382339">
        <ele>620.1914</ele>
        <time>2022-05-20T10:29:08Z</time>
      </trkpt>
      <trkpt lon="13.5394993822" lat="42.8243120088">
        <ele>622.1689</ele>
        <time>2022-05-20T10:29:28Z</time>
      </trkpt>
      <trkpt lon="13.5394360882" lat="42.8243857837">
        <ele>624.2921</ele>
        <time>2022-05-20T10:29:48Z</time>
      </trkpt>
      <trkpt lon="13.5393851716" lat="42.8244637355">
        <ele>626.6572</ele>
        <time>2022-05-20T10:30:04Z</time>
      </trkpt>
      <trkpt lon="13.5393342548" lat="42.8245416881">
        <ele>630.4763</ele>
        <time>2022-05-20T10:30:20Z</time>
      </trkpt>
      <trkpt lon="13.5393075396" lat="42.8246003174">
        <ele>631.815</ele>
        <time>2022-05-20T10:30:31Z</time>
      </trkpt>
      <trkpt lon="13.5392808256" lat="42.8246589458">
        <ele>633.353</ele>
        <time>2022-05-20T10:30:42Z</time>
      </trkpt>
      <trkpt lon="13.5392541103" lat="42.8247175751">
        <ele>635.5203</ele>
        <time>2022-05-20T10:30:53Z</time>
      </trkpt>
      <trkpt lon="13.539225723" lat="42.8247901662">
        <ele>638.2127</ele>
        <time>2022-05-20T10:31:07Z</time>
      </trkpt>
      <trkpt lon="13.5391973355" lat="42.8248627565">
        <ele>640.11</ele>
        <time>2022-05-20T10:31:22Z</time>
      </trkpt>
      <trkpt lon="13.539168948" lat="42.8249353476">
        <ele>641.7407</ele>
        <time>2022-05-20T10:31:37Z</time>
      </trkpt>
      <trkpt lon="13.5391499708" lat="42.8250075644">
        <ele>642.6329</ele>
        <time>2022-05-20T10:31:50Z</time>
      </trkpt>
      <trkpt lon="13.5391309948" lat="42.8250797812">
        <ele>643.7802</ele>
        <time>2022-05-20T10:32:00Z</time>
      </trkpt>
      <trkpt lon="13.5391176328" lat="42.8251458201">
        <ele>644.7506</ele>
        <time>2022-05-20T10:32:07Z</time>
      </trkpt>
      <trkpt lon="13.5391042707" lat="42.8252118589">
        <ele>645.9376</ele>
        <time>2022-05-20T10:32:13Z</time>
      </trkpt>
      <trkpt lon="13.539084714" lat="42.8252761582">
        <ele>647.4534</ele>
        <time>2022-05-20T10:32:18Z</time>
      </trkpt>
      <trkpt lon="13.539065156" lat="42.8253404584">
        <ele>649.4211</ele>
        <time>2022-05-20T10:32:22Z</time>
      </trkpt>
      <trkpt lon="13.5390455992" lat="42.8254047576">
        <ele>651.0981</ele>
        <time>2022-05-20T10:32:28Z</time>
      </trkpt>
      <trkpt lon="13.5390152842" lat="42.8254878466">
        <ele>652.5122</ele>
        <time>2022-05-20T10:32:37Z</time>
      </trkpt>
      <trkpt lon="13.5389849692" lat="42.8255709356">
        <ele>654.2618</ele>
        <time>2022-05-20T10:32:47Z</time>
      </trkpt>
      <trkpt lon="13.5389575968" lat="42.8256573814">
        <ele>656.5347</ele>
        <time>2022-05-20T10:32:58Z</time>
      </trkpt>
      <trkpt lon="13.5389302231" lat="42.8257438281">
        <ele>659.1618</ele>
        <time>2022-05-20T10:33:10Z</time>
      </trkpt>
      <trkpt lon="13.5389028505" lat="42.8258302738">
        <ele>661.673</ele>
        <time>2022-05-20T10:33:21Z</time>
      </trkpt>
      <trkpt lon="13.5388836564" lat="42.8258995215">
        <ele>663.2498</ele>
        <time>2022-05-20T10:33:31Z</time>
      </trkpt>
      <trkpt lon="13.538864461" lat="42.8259687701">
        <ele>664.7398</ele>
        <time>2022-05-20T10:33:41Z</time>
      </trkpt>
      <trkpt lon="13.5388452668" lat="42.8260380178">
        <ele>666.0958</ele>
        <time>2022-05-20T10:33:52Z</time>
      </trkpt>
      <trkpt lon="13.5388427757" lat="42.8260425489">
        <ele>666.2143</ele>
        <time>2022-05-20T10:33:53Z</time>
      </trkpt>
      <trkpt lon="13.5388090854" lat="42.82610385">
        <ele>668.0897</ele>
        <time>2022-05-20T10:34:02Z</time>
      </trkpt>
      <trkpt lon="13.5387738832" lat="42.8261678982">
        <ele>671.1917</ele>
        <time>2022-05-20T10:34:10Z</time>
      </trkpt>
      <trkpt lon="13.5387381912" lat="42.8262328388">
        <ele>673.6627</ele>
        <time>2022-05-20T10:34:20Z</time>
      </trkpt>
      <trkpt lon="13.5386869935" lat="42.8263040805">
        <ele>675.809</ele>
        <time>2022-05-20T10:34:32Z</time>
      </trkpt>
      <trkpt lon="13.5386433" lat="42.826364882">
        <ele>677.1213</ele>
        <time>2022-05-20T10:34:45Z</time>
      </trkpt>
      <trkpt lon="13.538578918" lat="42.8264581134">
        <ele>679.0254</ele>
        <time>2022-05-20T10:35:04Z</time>
      </trkpt>
      <trkpt lon="13.5385415827" lat="42.8265124592">
        <ele>680.1273</ele>
        <time>2022-05-20T10:35:13Z</time>
      </trkpt>
      <trkpt lon="13.5385011563" lat="42.8265713032">
        <ele>681.3599</ele>
        <time>2022-05-20T10:35:22Z</time>
      </trkpt>
      <trkpt lon="13.5384742531" lat="42.826632074">
        <ele>682.1808</ele>
        <time>2022-05-20T10:35:28Z</time>
      </trkpt>
      <trkpt lon="13.5384473499" lat="42.8266928448">
        <ele>682.3858</ele>
        <time>2022-05-20T10:35:34Z</time>
      </trkpt>
      <trkpt lon="13.538430336" lat="42.8267362511">
        <ele>682.4065</ele>
        <time>2022-05-20T10:35:36Z</time>
      </trkpt>
      <trkpt lon="13.538413322" lat="42.8267796575">
        <ele>682.1325</ele>
        <time>2022-05-20T10:35:38Z</time>
      </trkpt>
      <trkpt lon="13.5383812487" lat="42.8268823217">
        <ele>681.6127</ele>
        <time>2022-05-20T10:35:42Z</time>
      </trkpt>
      <trkpt lon="13.5383873587" lat="42.8269356273">
        <ele>681.4346</ele>
        <time>2022-05-20T10:35:43Z</time>
      </trkpt>
      <trkpt lon="13.5383934687" lat="42.8269889329">
        <ele>681.278</ele>
        <time>2022-05-20T10:35:45Z</time>
      </trkpt>
      <trkpt lon="13.5383995788" lat="42.8270422384">
        <ele>680.9971</ele>
        <time>2022-05-20T10:35:46Z</time>
      </trkpt>
      <trkpt lon="13.53840569" lat="42.827095544">
        <ele>680.4801</ele>
        <time>2022-05-20T10:35:47Z</time>
      </trkpt>
      <trkpt lon="13.5384070929" lat="42.8271525662">
        <ele>680.7544</ele>
        <time>2022-05-20T10:35:48Z</time>
      </trkpt>
      <trkpt lon="13.5384029996" lat="42.8272350001">
        <ele>681.1711</ele>
        <time>2022-05-20T10:35:50Z</time>
      </trkpt>
      <trkpt lon="13.538399979" lat="42.8272594033">
        <ele>681.1113</ele>
        <time>2022-05-20T10:35:51Z</time>
      </trkpt>
      <trkpt lon="13.5384137221" lat="42.8273219429">
        <ele>680.737</ele>
        <time>2022-05-20T10:35:52Z</time>
      </trkpt>
      <trkpt lon="13.5384316044" lat="42.8274033147">
        <ele>680.1045</ele>
        <time>2022-05-20T10:35:54Z</time>
      </trkpt>
      <trkpt lon="13.5384584132" lat="42.8274747057">
        <ele>679.9285</ele>
        <time>2022-05-20T10:35:56Z</time>
      </trkpt>
      <trkpt lon="13.5384826099" lat="42.8275391402">
        <ele>679.6101</ele>
        <time>2022-05-20T10:35:58Z</time>
      </trkpt>
      <trkpt lon="13.5385119997" lat="42.8276239997">
        <ele>679.0593</ele>
        <time>2022-05-20T10:35:59Z</time>
      </trkpt>
      <trkpt lon="13.5385176095" lat="42.8276387281">
        <ele>679.0142</ele>
        <time>2022-05-20T10:36:00Z</time>
      </trkpt>
      <trkpt lon="13.538534477" lat="42.8277029475">
        <ele>677.1355</ele>
        <time>2022-05-20T10:36:01Z</time>
      </trkpt>
      <trkpt lon="13.5385589999" lat="42.8277778996">
        <ele>675.4056</ele>
        <time>2022-05-20T10:36:02Z</time>
      </trkpt>
      <trkpt lon="13.5385530861" lat="42.8277945574">
        <ele>674.9242</ele>
        <time>2022-05-20T10:36:03Z</time>
      </trkpt>
      <trkpt lon="13.5384845238" lat="42.8279044327">
        <ele>672.1359</ele>
        <time>2022-05-20T10:36:04Z</time>
      </trkpt>
      <trkpt lon="13.5384883758" lat="42.8280397615">
        <ele>670.8841</ele>
        <time>2022-05-20T10:36:06Z</time>
      </trkpt>
      <trkpt lon="13.538502269" lat="42.8280913186">
        <ele>671.0265</ele>
        <time>2022-05-20T10:36:07Z</time>
      </trkpt>
      <trkpt lon="13.5385273366" lat="42.828145393">
        <ele>671.1973</ele>
        <time>2022-05-20T10:36:08Z</time>
      </trkpt>
      <trkpt lon="13.5385414322" lat="42.8281757986">
        <ele>671.2943</ele>
        <time>2022-05-20T10:36:09Z</time>
      </trkpt>
      <trkpt lon="13.5385309999" lat="42.8281986997">
        <ele>670.9514</ele>
        <time>2022-05-20T10:36:10Z</time>
      </trkpt>
      <trkpt lon="13.5384248" lat="42.8280745003">
        <ele>669.803</ele>
        <time>2022-05-20T10:36:13Z</time>
      </trkpt>
      <trkpt lon="13.5383494496" lat="42.8279363226">
        <ele>669.464</ele>
        <time>2022-05-20T10:36:17Z</time>
      </trkpt>
      <trkpt lon="13.5382851995" lat="42.8278185003">
        <ele>668.8296</ele>
        <time>2022-05-20T10:36:19Z</time>
      </trkpt>
      <trkpt lon="13.5376628996" lat="42.8275903">
        <ele>661.3407</ele>
        <time>2022-05-20T10:36:30Z</time>
      </trkpt>
      <trkpt lon="13.53727862" lat="42.8275167978">
        <ele>656.6899</ele>
        <time>2022-05-20T10:36:35Z</time>
      </trkpt>
      <trkpt lon="13.5372039416" lat="42.8275025142">
        <ele>656.2578</ele>
        <time>2022-05-20T10:36:36Z</time>
      </trkpt>
      <trkpt lon="13.5368766033" lat="42.8274397068">
        <ele>650.6694</ele>
        <time>2022-05-20T10:36:40Z</time>
      </trkpt>
      <trkpt lon="13.5364398002" lat="42.8273543001">
        <ele>643.8737</ele>
        <time>2022-05-20T10:36:45Z</time>
      </trkpt>
      <trkpt lon="13.5361823006" lat="42.8272362996">
        <ele>643.9111</ele>
        <time>2022-05-20T10:36:48Z</time>
      </trkpt>
      <trkpt lon="13.5358712002" lat="42.8270159">
        <ele>646.8438</ele>
        <time>2022-05-20T10:36:53Z</time>
      </trkpt>
      <trkpt lon="13.5353884002" lat="42.8268821999">
        <ele>644.3682</ele>
        <time>2022-05-20T10:36:59Z</time>
      </trkpt>
      <trkpt lon="13.5350987001" lat="42.8267720004">
        <ele>640.4175</ele>
        <time>2022-05-20T10:37:04Z</time>
      </trkpt>
      <trkpt lon="13.5348949002" lat="42.8265438002">
        <ele>640.2283</ele>
        <time>2022-05-20T10:37:09Z</time>
      </trkpt>
      <trkpt lon="13.5348572044" lat="42.8264359829">
        <ele>641.7753</ele>
        <time>2022-05-20T10:37:11Z</time>
      </trkpt>
      <trkpt lon="13.5348350985" lat="42.8263727576">
        <ele>642.7707</ele>
        <time>2022-05-20T10:37:13Z</time>
      </trkpt>
      <trkpt lon="13.5347876003" lat="42.8262368998">
        <ele>645.2153</ele>
        <time>2022-05-20T10:37:17Z</time>
      </trkpt>
      <trkpt lon="13.5345575004" lat="42.8259710001">
        <ele>645.8814</ele>
        <time>2022-05-20T10:37:26Z</time>
      </trkpt>
      <trkpt lon="13.5341219927" lat="42.8256670402">
        <ele>641.2356</ele>
        <time>2022-05-20T10:37:42Z</time>
      </trkpt>
      <trkpt lon="13.5341040003" lat="42.8256600001">
        <ele>641.0452</ele>
        <time>2022-05-20T10:37:43Z</time>
      </trkpt>
      <trkpt lon="13.5339599995" lat="42.8255660003">
        <ele>638.351</ele>
        <time>2022-05-20T10:37:46Z</time>
      </trkpt>
      <trkpt lon="13.5338307375" lat="42.8254637584">
        <ele>637.9989</ele>
        <time>2022-05-20T10:37:48Z</time>
      </trkpt>
      <trkpt lon="13.5333067005" lat="42.8250980003">
        <ele>634.443</ele>
        <time>2022-05-20T10:37:56Z</time>
      </trkpt>
      <trkpt lon="13.5328742134" lat="42.8248886409">
        <ele>632.8231</ele>
        <time>2022-05-20T10:38:02Z</time>
      </trkpt>
      <trkpt lon="13.5327981249" lat="42.8248518073">
        <ele>632.5228</ele>
        <time>2022-05-20T10:38:03Z</time>
      </trkpt>
      <trkpt lon="13.5326847" lat="42.8247969">
        <ele>633.0293</ele>
        <time>2022-05-20T10:38:05Z</time>
      </trkpt>
      <trkpt lon="13.5325707537" lat="42.8246150494">
        <ele>634.2964</ele>
        <time>2022-05-20T10:38:09Z</time>
      </trkpt>
      <trkpt lon="13.5325151377" lat="42.8245262888">
        <ele>633.7529</ele>
        <time>2022-05-20T10:38:12Z</time>
      </trkpt>
      <trkpt lon="13.5324531648" lat="42.8244634553">
        <ele>634.0002</ele>
        <time>2022-05-20T10:38:14Z</time>
      </trkpt>
      <trkpt lon="13.5323806843" lat="42.8244127331">
        <ele>635.6538</ele>
        <time>2022-05-20T10:38:16Z</time>
      </trkpt>
      <trkpt lon="13.5322931573" lat="42.8243774951">
        <ele>638.0613</ele>
        <time>2022-05-20T10:38:18Z</time>
      </trkpt>
      <trkpt lon="13.5321225703" lat="42.8243127979">
        <ele>642.4636</ele>
        <time>2022-05-20T10:38:24Z</time>
      </trkpt>
      <trkpt lon="13.5320499681" lat="42.8243156779">
        <ele>643.4271</ele>
        <time>2022-05-20T10:38:27Z</time>
      </trkpt>
      <trkpt lon="13.5319870757" lat="42.8242854184">
        <ele>645.1235</ele>
        <time>2022-05-20T10:38:31Z</time>
      </trkpt>
      <trkpt lon="13.5319319383" lat="42.8241952984">
        <ele>647.0098</ele>
        <time>2022-05-20T10:38:45Z</time>
      </trkpt>
      <trkpt lon="13.5319073289" lat="42.8240801466">
        <ele>647.4483</ele>
        <time>2022-05-20T10:39:03Z</time>
      </trkpt>
      <trkpt lon="13.5318808596" lat="42.8239948455">
        <ele>648.7513</ele>
        <time>2022-05-20T10:39:13Z</time>
      </trkpt>
      <trkpt lon="13.5318503568" lat="42.8239097034">
        <ele>650.3788</ele>
        <time>2022-05-20T10:39:20Z</time>
      </trkpt>
      <trkpt lon="13.5317835538" lat="42.8238260012">
        <ele>651.5903</ele>
        <time>2022-05-20T10:39:26Z</time>
      </trkpt>
      <trkpt lon="13.5316916813" lat="42.8237313829">
        <ele>652.1168</ele>
        <time>2022-05-20T10:39:33Z</time>
      </trkpt>
      <trkpt lon="13.5316132127" lat="42.8236540993">
        <ele>651.6092</ele>
        <time>2022-05-20T10:39:38Z</time>
      </trkpt>
      <trkpt lon="13.5315360488" lat="42.8235946293">
        <ele>652.15</ele>
        <time>2022-05-20T10:39:41Z</time>
      </trkpt>
      <trkpt lon="13.5314918044" lat="42.8235427865">
        <ele>651.8854</ele>
        <time>2022-05-20T10:39:44Z</time>
      </trkpt>
      <trkpt lon="13.5314521494" lat="42.8234431195">
        <ele>651.5606</ele>
        <time>2022-05-20T10:39:47Z</time>
      </trkpt>
      <trkpt lon="13.5313594351" lat="42.8232264507">
        <ele>649.4926</ele>
        <time>2022-05-20T10:39:53Z</time>
      </trkpt>
      <trkpt lon="13.5313265442" lat="42.8231086503">
        <ele>646.65</ele>
        <time>2022-05-20T10:39:56Z</time>
      </trkpt>
      <trkpt lon="13.531301162" lat="42.8230381936">
        <ele>645.0833</ele>
        <time>2022-05-20T10:39:58Z</time>
      </trkpt>
      <trkpt lon="13.5312409073" lat="42.8229333878">
        <ele>642.4595</ele>
        <time>2022-05-20T10:40:00Z</time>
      </trkpt>
      <trkpt lon="13.5310898397" lat="42.8228589825">
        <ele>640.3954</ele>
        <time>2022-05-20T10:40:02Z</time>
      </trkpt>
      <trkpt lon="13.5310203098" lat="42.8227932542">
        <ele>638.3505</ele>
        <time>2022-05-20T10:40:03Z</time>
      </trkpt>
      <trkpt lon="13.5310097587" lat="42.8227043435">
        <ele>635.5878</ele>
        <time>2022-05-20T10:40:04Z</time>
      </trkpt>
      <trkpt lon="13.5309977802" lat="42.8226512206">
        <ele>634.4543</ele>
        <time>2022-05-20T10:40:05Z</time>
      </trkpt>
      <trkpt lon="13.5309831016" lat="42.8225058991">
        <ele>631.6385</ele>
        <time>2022-05-20T10:40:07Z</time>
      </trkpt>
      <trkpt lon="13.530994578" lat="42.8223863383">
        <ele>630.0322</ele>
        <time>2022-05-20T10:40:09Z</time>
      </trkpt>
      <trkpt lon="13.5310386605" lat="42.8222148653">
        <ele>625.4727</ele>
        <time>2022-05-20T10:40:11Z</time>
      </trkpt>
      <trkpt lon="13.5309905059" lat="42.8221095797">
        <ele>624.7481</ele>
        <time>2022-05-20T10:40:13Z</time>
      </trkpt>
      <trkpt lon="13.5309389709" lat="42.8220133612">
        <ele>623.915</ele>
        <time>2022-05-20T10:40:14Z</time>
      </trkpt>
      <trkpt lon="13.5308484052" lat="42.8219365568">
        <ele>621.629</ele>
        <time>2022-05-20T10:40:16Z</time>
      </trkpt>
      <trkpt lon="13.5307645999" lat="42.8218815999">
        <ele>619.2076</ele>
        <time>2022-05-20T10:40:17Z</time>
      </trkpt>
      <trkpt lon="13.5307122999" lat="42.8218364001">
        <ele>617.3414</ele>
        <time>2022-05-20T10:40:18Z</time>
      </trkpt>
      <trkpt lon="13.5306599004" lat="42.8217844001">
        <ele>616.3109</ele>
        <time>2022-05-20T10:40:19Z</time>
      </trkpt>
      <trkpt lon="13.5306013002" lat="42.8217324996">
        <ele>614.9397</ele>
        <time>2022-05-20T10:40:20Z</time>
      </trkpt>
      <trkpt lon="13.5304811995" lat="42.8216442998">
        <ele>611.9825</ele>
        <time>2022-05-20T10:40:21Z</time>
      </trkpt>
      <trkpt lon="13.5304319005" lat="42.8216036004">
        <ele>610.7809</ele>
        <time>2022-05-20T10:40:22Z</time>
      </trkpt>
      <trkpt lon="13.5303579" lat="42.8215651999">
        <ele>609.1812</ele>
        <time>2022-05-20T10:40:23Z</time>
      </trkpt>
      <trkpt lon="13.5302777999" lat="42.8215313001">
        <ele>607.6891</ele>
        <time>2022-05-20T10:40:24Z</time>
      </trkpt>
      <trkpt lon="13.5301791998" lat="42.8215019004">
        <ele>605.7716</ele>
        <time>2022-05-20T10:40:25Z</time>
      </trkpt>
      <trkpt lon="13.5301052996" lat="42.8214725998">
        <ele>604.8617</ele>
        <time>2022-05-20T10:40:26Z</time>
      </trkpt>
      <trkpt lon="13.5300554003" lat="42.8214304004">
        <ele>603.8566</ele>
        <time>2022-05-20T10:40:27Z</time>
      </trkpt>
      <trkpt lon="13.5300098" lat="42.8213391997">
        <ele>603.4152</ele>
        <time>2022-05-20T10:40:28Z</time>
      </trkpt>
      <trkpt lon="13.5299974003" lat="42.8212894996">
        <ele>602.8815</ele>
        <time>2022-05-20T10:40:29Z</time>
      </trkpt>
      <trkpt lon="13.5299913002" lat="42.8212329996">
        <ele>602.1869</ele>
        <time>2022-05-20T10:40:30Z</time>
      </trkpt>
      <trkpt lon="13.5299850996" lat="42.8211809999">
        <ele>601.5282</ele>
        <time>2022-05-20T10:40:31Z</time>
      </trkpt>
      <trkpt lon="13.5299820003" lat="42.8211087001">
        <ele>600.7954</ele>
        <time>2022-05-20T10:40:32Z</time>
      </trkpt>
      <trkpt lon="13.5299728001" lat="42.8210612996">
        <ele>600.0774</ele>
        <time>2022-05-20T10:40:33Z</time>
      </trkpt>
      <trkpt lon="13.5299573999" lat="42.8209912003">
        <ele>599.3656</ele>
        <time>2022-05-20T10:40:34Z</time>
      </trkpt>
      <trkpt lon="13.5299358003" lat="42.8209325003">
        <ele>598.7184</ele>
        <time>2022-05-20T10:40:35Z</time>
      </trkpt>
      <trkpt lon="13.5298874822" lat="42.8208705783">
        <ele>597.6852</ele>
        <time>2022-05-20T10:40:36Z</time>
      </trkpt>
      <trkpt lon="13.5298371998" lat="42.8208374996">
        <ele>596.5474</ele>
        <time>2022-05-20T10:40:37Z</time>
      </trkpt>
      <trkpt lon="13.5297386001" lat="42.8208149002">
        <ele>595.0098</ele>
        <time>2022-05-20T10:40:38Z</time>
      </trkpt>
      <trkpt lon="13.5296524001" lat="42.8208104">
        <ele>593.0794</ele>
        <time>2022-05-20T10:40:39Z</time>
      </trkpt>
      <trkpt lon="13.5295752997" lat="42.8208035996">
        <ele>591.7735</ele>
        <time>2022-05-20T10:40:40Z</time>
      </trkpt>
      <trkpt lon="13.5294212999" lat="42.8207923003">
        <ele>589.2984</ele>
        <time>2022-05-20T10:40:41Z</time>
      </trkpt>
      <trkpt lon="13.5293534994" lat="42.8207764998">
        <ele>587.8128</ele>
        <time>2022-05-20T10:40:42Z</time>
      </trkpt>
      <trkpt lon="13.5292961625" lat="42.820758965">
        <ele>586.4379</ele>
        <time>2022-05-20T10:40:43Z</time>
      </trkpt>
      <trkpt lon="13.5292304747" lat="42.8207252578">
        <ele>584.5161</ele>
        <time>2022-05-20T10:40:44Z</time>
      </trkpt>
      <trkpt lon="13.5291790496" lat="42.82064154">
        <ele>582.1097</ele>
        <time>2022-05-20T10:40:45Z</time>
      </trkpt>
      <trkpt lon="13.5291455923" lat="42.8205380535">
        <ele>579.9629</ele>
        <time>2022-05-20T10:40:46Z</time>
      </trkpt>
      <trkpt lon="13.5290720281" lat="42.8204170995">
        <ele>574.9009</ele>
        <time>2022-05-20T10:40:48Z</time>
      </trkpt>
      <trkpt lon="13.5289644603" lat="42.820273672">
        <ele>570.143</ele>
        <time>2022-05-20T10:40:50Z</time>
      </trkpt>
      <trkpt lon="13.5289280252" lat="42.8202179456">
        <ele>568.9782</ele>
        <time>2022-05-20T10:40:51Z</time>
      </trkpt>
      <trkpt lon="13.5288565457" lat="42.8201254943">
        <ele>566.7211</ele>
        <time>2022-05-20T10:40:53Z</time>
      </trkpt>
      <trkpt lon="13.5288091419" lat="42.8200082676">
        <ele>565.8383</ele>
        <time>2022-05-20T10:40:54Z</time>
      </trkpt>
      <trkpt lon="13.5287287778" lat="42.8198828189">
        <ele>564.0752</ele>
        <time>2022-05-20T10:40:56Z</time>
      </trkpt>
      <trkpt lon="13.5286838067" lat="42.8197988452">
        <ele>565.5097</ele>
        <time>2022-05-20T10:40:58Z</time>
      </trkpt>
      <trkpt lon="13.5284926984" lat="42.8196634929">
        <ele>570.8863</ele>
        <time>2022-05-20T10:41:01Z</time>
      </trkpt>
      <trkpt lon="13.5284477278" lat="42.8195795191">
        <ele>573.0115</ele>
        <time>2022-05-20T10:41:03Z</time>
      </trkpt>
      <trkpt lon="13.5283328149" lat="42.8195126097">
        <ele>574.7858</ele>
        <time>2022-05-20T10:41:07Z</time>
      </trkpt>
      <trkpt lon="13.5282184517" lat="42.819364687">
        <ele>576.0126</ele>
        <time>2022-05-20T10:41:15Z</time>
      </trkpt>
      <trkpt lon="13.5281112348" lat="42.819226009">
        <ele>576.5091</ele>
        <time>2022-05-20T10:41:25Z</time>
      </trkpt>
      <trkpt lon="13.528011514" lat="42.8191013267">
        <ele>575.7293</ele>
        <time>2022-05-20T10:41:34Z</time>
      </trkpt>
      <trkpt lon="13.5279655028" lat="42.8190031013">
        <ele>573.6841</ele>
        <time>2022-05-20T10:41:38Z</time>
      </trkpt>
      <trkpt lon="13.5278807724" lat="42.8189064104">
        <ele>574.8281</ele>
        <time>2022-05-20T10:41:41Z</time>
      </trkpt>
      <trkpt lon="13.5277400498" lat="42.8188405229">
        <ele>577.4377</ele>
        <time>2022-05-20T10:41:44Z</time>
      </trkpt>
      <trkpt lon="13.5276638583" lat="42.8187720792">
        <ele>576.5806</ele>
        <time>2022-05-20T10:41:46Z</time>
      </trkpt>
      <trkpt lon="13.5276705124" lat="42.8186860594">
        <ele>575.9065</ele>
        <time>2022-05-20T10:41:49Z</time>
      </trkpt>
      <trkpt lon="13.5276114489" lat="42.8184978307">
        <ele>569.3177</ele>
        <time>2022-05-20T10:41:53Z</time>
      </trkpt>
      <trkpt lon="13.5276010303" lat="42.8183553172">
        <ele>567.891</ele>
        <time>2022-05-20T10:41:56Z</time>
      </trkpt>
      <trkpt lon="13.5275507059" lat="42.8181095715">
        <ele>566.8327</ele>
        <time>2022-05-20T10:42:01Z</time>
      </trkpt>
      <trkpt lon="13.5274994856" lat="42.8179400897">
        <ele>566.0438</ele>
        <time>2022-05-20T10:42:04Z</time>
      </trkpt>
      <trkpt lon="13.5274695621" lat="42.8177078286">
        <ele>564.1872</ele>
        <time>2022-05-20T10:42:08Z</time>
      </trkpt>
      <trkpt lon="13.5274207739" lat="42.8175715988">
        <ele>561.5962</ele>
        <time>2022-05-20T10:42:10Z</time>
      </trkpt>
      <trkpt lon="13.5273065615" lat="42.8175141897">
        <ele>564.6368</ele>
        <time>2022-05-20T10:42:12Z</time>
      </trkpt>
      <trkpt lon="13.5273098881" lat="42.8174711798">
        <ele>566.0127</ele>
        <time>2022-05-20T10:42:13Z</time>
      </trkpt>
      <trkpt lon="13.5273481129" lat="42.8173743808">
        <ele>567.031</ele>
        <time>2022-05-20T10:42:16Z</time>
      </trkpt>
      <trkpt lon="13.5273322841" lat="42.8172463743">
        <ele>567.0591</ele>
        <time>2022-05-20T10:42:20Z</time>
      </trkpt>
      <trkpt lon="13.5272957071" lat="42.817100133">
        <ele>568.0705</ele>
        <time>2022-05-20T10:42:27Z</time>
      </trkpt>
      <trkpt lon="13.5272995841" lat="42.816976109">
        <ele>567.5883</ele>
        <time>2022-05-20T10:42:33Z</time>
      </trkpt>
      <trkpt lon="13.5272759132" lat="42.8168293565">
        <ele>567.9446</ele>
        <time>2022-05-20T10:42:39Z</time>
      </trkpt>
      <trkpt lon="13.5272827697" lat="42.8166575734">
        <ele>565.6028</ele>
        <time>2022-05-20T10:42:44Z</time>
      </trkpt>
      <trkpt lon="13.5272529938" lat="42.8165158266">
        <ele>566.4402</ele>
        <time>2022-05-20T10:42:48Z</time>
      </trkpt>
      <trkpt lon="13.5272075348" lat="42.8163365869">
        <ele>565.256</ele>
        <time>2022-05-20T10:42:53Z</time>
      </trkpt>
      <trkpt lon="13.5271765143" lat="42.8162663529">
        <ele>565.2982</ele>
        <time>2022-05-20T10:42:54Z</time>
      </trkpt>
      <trkpt lon="13.5271491702" lat="42.8161578591">
        <ele>565.634</ele>
        <time>2022-05-20T10:42:57Z</time>
      </trkpt>
      <trkpt lon="13.527102814" lat="42.8160548823">
        <ele>566.1584</ele>
        <time>2022-05-20T10:43:00Z</time>
      </trkpt>
      <trkpt lon="13.5270747757" lat="42.8159368882">
        <ele>564.3263</ele>
        <time>2022-05-20T10:43:03Z</time>
      </trkpt>
      <trkpt lon="13.5270218227" lat="42.8157436534">
        <ele>561.3675</ele>
        <time>2022-05-20T10:43:08Z</time>
      </trkpt>
      <trkpt lon="13.5269862898" lat="42.8156116625">
        <ele>559.2508</ele>
        <time>2022-05-20T10:43:11Z</time>
      </trkpt>
      <trkpt lon="13.5269660928" lat="42.8155124145">
        <ele>558.6907</ele>
        <time>2022-05-20T10:43:13Z</time>
      </trkpt>
      <trkpt lon="13.5268430011" lat="42.8154220065">
        <ele>555.7805</ele>
        <time>2022-05-20T10:43:15Z</time>
      </trkpt>
      <trkpt lon="13.5267474568" lat="42.815354328">
        <ele>554.3315</ele>
        <time>2022-05-20T10:43:17Z</time>
      </trkpt>
      <trkpt lon="13.5266949967" lat="42.8152563577">
        <ele>553.638</ele>
        <time>2022-05-20T10:43:18Z</time>
      </trkpt>
      <trkpt lon="13.5266308766" lat="42.8150873857">
        <ele>550.8772</ele>
        <time>2022-05-20T10:43:21Z</time>
      </trkpt>
      <trkpt lon="13.5265946507" lat="42.8149458943">
        <ele>548.919</ele>
        <time>2022-05-20T10:43:23Z</time>
      </trkpt>
      <trkpt lon="13.5265476032" lat="42.8148334169">
        <ele>548.7692</ele>
        <time>2022-05-20T10:43:25Z</time>
      </trkpt>
      <trkpt lon="13.5264677425" lat="42.8148032304">
        <ele>546.737</ele>
        <time>2022-05-20T10:43:26Z</time>
      </trkpt>
      <trkpt lon="13.5263350163" lat="42.8148466017">
        <ele>543.4032</ele>
        <time>2022-05-20T10:43:28Z</time>
      </trkpt>
      <trkpt lon="13.5263271151" lat="42.8150041343">
        <ele>542.5398</ele>
        <time>2022-05-20T10:43:30Z</time>
      </trkpt>
      <trkpt lon="13.5262417824" lat="42.8151647332">
        <ele>537.1591</ele>
        <time>2022-05-20T10:43:33Z</time>
      </trkpt>
      <trkpt lon="13.5261791356" lat="42.8152815556">
        <ele>534.7178</ele>
        <time>2022-05-20T10:43:35Z</time>
      </trkpt>
      <trkpt lon="13.5261656793" lat="42.8153630807">
        <ele>533.7515</ele>
        <time>2022-05-20T10:43:36Z</time>
      </trkpt>
      <trkpt lon="13.5262184858" lat="42.8154658015">
        <ele>534.2946</ele>
        <time>2022-05-20T10:43:37Z</time>
      </trkpt>
      <trkpt lon="13.5262416629" lat="42.8155172896">
        <ele>534.3475</ele>
        <time>2022-05-20T10:43:38Z</time>
      </trkpt>
      <trkpt lon="13.526235006" lat="42.8156033094">
        <ele>532.1524</ele>
        <time>2022-05-20T10:43:40Z</time>
      </trkpt>
      <trkpt lon="13.526144466" lat="42.8156926519">
        <ele>528.752</ele>
        <time>2022-05-20T10:43:42Z</time>
      </trkpt>
      <trkpt lon="13.5260874332" lat="42.815709203">
        <ele>526.8477</ele>
        <time>2022-05-20T10:43:43Z</time>
      </trkpt>
      <trkpt lon="13.5259777385" lat="42.8157135486">
        <ele>524.0864</ele>
        <time>2022-05-20T10:43:45Z</time>
      </trkpt>
      <trkpt lon="13.5259209095" lat="42.8156443354">
        <ele>522.4733</ele>
        <time>2022-05-20T10:43:46Z</time>
      </trkpt>
      <trkpt lon="13.5259136199" lat="42.8155445762">
        <ele>523.0087</ele>
        <time>2022-05-20T10:43:47Z</time>
      </trkpt>
      <trkpt lon="13.525881213" lat="42.8154553393">
        <ele>520.9858</ele>
        <time>2022-05-20T10:43:49Z</time>
      </trkpt>
      <trkpt lon="13.5258291025" lat="42.8153621188">
        <ele>519.1519</ele>
        <time>2022-05-20T10:43:50Z</time>
      </trkpt>
      <trkpt lon="13.525712955" lat="42.8153667188">
        <ele>516.2134</ele>
        <time>2022-05-20T10:43:51Z</time>
      </trkpt>
      <trkpt lon="13.5255700989" lat="42.8154486044">
        <ele>512.5594</ele>
        <time>2022-05-20T10:43:53Z</time>
      </trkpt>
      <trkpt lon="13.525573712" lat="42.8155866233">
        <ele>513.2694</ele>
        <time>2022-05-20T10:43:55Z</time>
      </trkpt>
      <trkpt lon="13.5255820433" lat="42.815700635">
        <ele>513.2782</ele>
        <time>2022-05-20T10:43:57Z</time>
      </trkpt>
      <trkpt lon="13.5256015441" lat="42.8157903829">
        <ele>513.6242</ele>
        <time>2022-05-20T10:43:59Z</time>
      </trkpt>
      <trkpt lon="13.5255470829" lat="42.8159307021">
        <ele>510.3545</ele>
        <time>2022-05-20T10:44:01Z</time>
      </trkpt>
      <trkpt lon="13.5254552958" lat="42.8160915559">
        <ele>506.5434</ele>
        <time>2022-05-20T10:44:04Z</time>
      </trkpt>
      <trkpt lon="13.5253186853" lat="42.8162589499">
        <ele>503.1581</ele>
        <time>2022-05-20T10:44:08Z</time>
      </trkpt>
      <trkpt lon="13.5253212567" lat="42.8163827174">
        <ele>503.0409</ele>
        <time>2022-05-20T10:44:10Z</time>
      </trkpt>
      <trkpt lon="13.525317724" lat="42.8165114914">
        <ele>502.6176</ele>
        <time>2022-05-20T10:44:12Z</time>
      </trkpt>
      <trkpt lon="13.5252303045" lat="42.8166435875">
        <ele>498.4671</ele>
        <time>2022-05-20T10:44:15Z</time>
      </trkpt>
      <trkpt lon="13.5251258132" lat="42.8167191886">
        <ele>495.9608</ele>
        <time>2022-05-20T10:44:16Z</time>
      </trkpt>
      <trkpt lon="13.5250417223" lat="42.8168082737">
        <ele>494.0706</ele>
        <time>2022-05-20T10:44:18Z</time>
      </trkpt>
      <trkpt lon="13.5250578945" lat="42.8169410316">
        <ele>493.9328</ele>
        <time>2022-05-20T10:44:20Z</time>
      </trkpt>
      <trkpt lon="13.5251120883" lat="42.8170627553">
        <ele>494.564</ele>
        <time>2022-05-20T10:44:22Z</time>
      </trkpt>
      <trkpt lon="13.5251106372" lat="42.8172200322">
        <ele>491.9695</ele>
        <time>2022-05-20T10:44:25Z</time>
      </trkpt>
      <trkpt lon="13.5251825969" lat="42.8174077512">
        <ele>487.7729</ele>
        <time>2022-05-20T10:44:28Z</time>
      </trkpt>
      <trkpt lon="13.5252381795" lat="42.8175484765">
        <ele>486.564</ele>
        <time>2022-05-20T10:44:31Z</time>
      </trkpt>
      <trkpt lon="13.5252529641" lat="42.8176622327">
        <ele>486.0518</ele>
        <time>2022-05-20T10:44:33Z</time>
      </trkpt>
      <trkpt lon="13.5252133479" lat="42.8177400284">
        <ele>485.2675</ele>
        <time>2022-05-20T10:44:34Z</time>
      </trkpt>
      <trkpt lon="13.5251343201" lat="42.8178098574">
        <ele>482.6369</ele>
        <time>2022-05-20T10:44:36Z</time>
      </trkpt>
      <trkpt lon="13.5249551691" lat="42.8179265289">
        <ele>478.1543</ele>
        <time>2022-05-20T10:44:39Z</time>
      </trkpt>
      <trkpt lon="13.5247477772" lat="42.8180109688">
        <ele>474.6088</ele>
        <time>2022-05-20T10:44:41Z</time>
      </trkpt>
      <trkpt lon="13.524598113" lat="42.8180883575">
        <ele>472.1854</ele>
        <time>2022-05-20T10:44:43Z</time>
      </trkpt>
      <trkpt lon="13.5245126315" lat="42.8181584415">
        <ele>471.2328</ele>
        <time>2022-05-20T10:44:45Z</time>
      </trkpt>
      <trkpt lon="13.5244245139" lat="42.8182810356">
        <ele>468.1058</ele>
        <time>2022-05-20T10:44:47Z</time>
      </trkpt>
      <trkpt lon="13.5243594318" lat="42.8183646046">
        <ele>465.5811</ele>
        <time>2022-05-20T10:44:48Z</time>
      </trkpt>
      <trkpt lon="13.524320509" lat="42.8184519013">
        <ele>465.5978</ele>
        <time>2022-05-20T10:44:50Z</time>
      </trkpt>
      <trkpt lon="13.5242507087" lat="42.8185594784">
        <ele>466.0062</ele>
        <time>2022-05-20T10:44:51Z</time>
      </trkpt>
      <trkpt lon="13.5241418433" lat="42.8186638369">
        <ele>464.8791</ele>
        <time>2022-05-20T10:44:53Z</time>
      </trkpt>
      <trkpt lon="13.5240125765" lat="42.8187547108">
        <ele>462.2716</ele>
        <time>2022-05-20T10:44:56Z</time>
      </trkpt>
      <trkpt lon="13.523930217" lat="42.8188675478">
        <ele>458.7294</ele>
        <time>2022-05-20T10:44:58Z</time>
      </trkpt>
      <trkpt lon="13.5238237789" lat="42.8190051599">
        <ele>458.7409</ele>
        <time>2022-05-20T10:45:01Z</time>
      </trkpt>
      <trkpt lon="13.5237661897" lat="42.8191027247">
        <ele>458.711</ele>
        <time>2022-05-20T10:45:03Z</time>
      </trkpt>
      <trkpt lon="13.5237187291" lat="42.8191617736">
        <ele>456.9857</ele>
        <time>2022-05-20T10:45:04Z</time>
      </trkpt>
      <trkpt lon="13.5236220744" lat="42.8192561204">
        <ele>454.349</ele>
        <time>2022-05-20T10:45:06Z</time>
      </trkpt>
      <trkpt lon="13.5235284019" lat="42.8193027062">
        <ele>452.2866</ele>
        <time>2022-05-20T10:45:07Z</time>
      </trkpt>
      <trkpt lon="13.5234218227" lat="42.8193498036">
        <ele>450.2588</ele>
        <time>2022-05-20T10:45:09Z</time>
      </trkpt>
      <trkpt lon="13.5232697254" lat="42.8193939383">
        <ele>447.6091</ele>
        <time>2022-05-20T10:45:10Z</time>
      </trkpt>
      <trkpt lon="13.5231390684" lat="42.8194658086">
        <ele>446.0845</ele>
        <time>2022-05-20T10:45:12Z</time>
      </trkpt>
      <trkpt lon="13.5230240936" lat="42.8195751724">
        <ele>443.5041</ele>
        <time>2022-05-20T10:45:14Z</time>
      </trkpt>
      <trkpt lon="13.5229940489" lat="42.8196954672">
        <ele>442.1242</ele>
        <time>2022-05-20T10:45:16Z</time>
      </trkpt>
      <trkpt lon="13.5229463802" lat="42.8198402807">
        <ele>436.4465</ele>
        <time>2022-05-20T10:45:18Z</time>
      </trkpt>
      <trkpt lon="13.5229381237" lat="42.8199930626">
        <ele>434.469</ele>
        <time>2022-05-20T10:45:20Z</time>
      </trkpt>
      <trkpt lon="13.5228972555" lat="42.820142371">
        <ele>433.543</ele>
        <time>2022-05-20T10:45:22Z</time>
      </trkpt>
      <trkpt lon="13.5229024594" lat="42.8202136283">
        <ele>434.2279</ele>
        <time>2022-05-20T10:45:24Z</time>
      </trkpt>
      <trkpt lon="13.5227887318" lat="42.8202514791">
        <ele>431.6037</ele>
        <time>2022-05-20T10:45:25Z</time>
      </trkpt>
      <trkpt lon="13.5227383551" lat="42.82018201">
        <ele>428.7772</ele>
        <time>2022-05-20T10:45:27Z</time>
      </trkpt>
      <trkpt lon="13.5227331513" lat="42.8201107527">
        <ele>427.9126</ele>
        <time>2022-05-20T10:45:28Z</time>
      </trkpt>
      <trkpt lon="13.5226887424" lat="42.8199457629">
        <ele>426.8193</ele>
        <time>2022-05-20T10:45:31Z</time>
      </trkpt>
      <trkpt lon="13.5226413492" lat="42.8198285329">
        <ele>426.6978</ele>
        <time>2022-05-20T10:45:33Z</time>
      </trkpt>
      <trkpt lon="13.5225976344" lat="42.8196730434">
        <ele>426.6747</ele>
        <time>2022-05-20T10:45:35Z</time>
      </trkpt>
      <trkpt lon="13.5225451774" lat="42.8195750713">
        <ele>424.8193</ele>
        <time>2022-05-20T10:45:37Z</time>
      </trkpt>
      <trkpt lon="13.5224798141" lat="42.8194776097">
        <ele>421.3952</ele>
        <time>2022-05-20T10:45:39Z</time>
      </trkpt>
      <trkpt lon="13.5224327697" lat="42.8193651299">
        <ele>417.4504</ele>
        <time>2022-05-20T10:45:41Z</time>
      </trkpt>
      <trkpt lon="13.5224204189" lat="42.8192846275">
        <ele>417.4159</ele>
        <time>2022-05-20T10:45:42Z</time>
      </trkpt>
      <trkpt lon="13.5224159092" lat="42.8192228705">
        <ele>417.4218</ele>
        <time>2022-05-20T10:45:43Z</time>
      </trkpt>
      <trkpt lon="13.5223702523" lat="42.8191293932">
        <ele>415.7536</ele>
        <time>2022-05-20T10:45:45Z</time>
      </trkpt>
      <trkpt lon="13.5223107877" lat="42.8191126902">
        <ele>414.1132</ele>
        <time>2022-05-20T10:45:46Z</time>
      </trkpt>
      <trkpt lon="13.5222167665" lat="42.8191545248">
        <ele>412.1552</ele>
        <time>2022-05-20T10:45:47Z</time>
      </trkpt>
      <trkpt lon="13.5221724279" lat="42.8192563283">
        <ele>411.3893</ele>
        <time>2022-05-20T10:45:49Z</time>
      </trkpt>
      <trkpt lon="13.5221739527" lat="42.8193658442">
        <ele>409.5818</ele>
        <time>2022-05-20T10:45:50Z</time>
      </trkpt>
      <trkpt lon="13.5221278788" lat="42.8194438959">
        <ele>407.2895</ele>
        <time>2022-05-20T10:45:51Z</time>
      </trkpt>
      <trkpt lon="13.5220868703" lat="42.8195026888">
        <ele>406.1553</ele>
        <time>2022-05-20T10:45:52Z</time>
      </trkpt>
      <trkpt lon="13.5220017308" lat="42.8195775219">
        <ele>404.8263</ele>
        <time>2022-05-20T10:45:54Z</time>
      </trkpt>
      <trkpt lon="13.5218893909" lat="42.8196343735">
        <ele>402.6259</ele>
        <time>2022-05-20T10:45:55Z</time>
      </trkpt>
      <trkpt lon="13.5218473406" lat="42.8196789157">
        <ele>401.5259</ele>
        <time>2022-05-20T10:45:56Z</time>
      </trkpt>
      <trkpt lon="13.5218311034" lat="42.8197224359">
        <ele>400.7359</ele>
        <time>2022-05-20T10:45:57Z</time>
      </trkpt>
      <trkpt lon="13.5218007095" lat="42.8198379802">
        <ele>397.9811</ele>
        <time>2022-05-20T10:45:58Z</time>
      </trkpt>
      <trkpt lon="13.5218083407" lat="42.8199424907">
        <ele>394.8836</ele>
        <time>2022-05-20T10:46:00Z</time>
      </trkpt>
      <trkpt lon="13.5218597565" lat="42.8200262125">
        <ele>394.137</ele>
        <time>2022-05-20T10:46:01Z</time>
      </trkpt>
      <trkpt lon="13.5218602416" lat="42.820121477">
        <ele>394.6578</ele>
        <time>2022-05-20T10:46:03Z</time>
      </trkpt>
      <trkpt lon="13.5217813452" lat="42.8202818187">
        <ele>393.5969</ele>
        <time>2022-05-20T10:46:05Z</time>
      </trkpt>
      <trkpt lon="13.5217261789" lat="42.8204126355">
        <ele>392.4583</ele>
        <time>2022-05-20T10:46:08Z</time>
      </trkpt>
      <trkpt lon="13.5216685851" lat="42.8205101991">
        <ele>389.7348</ele>
        <time>2022-05-20T10:46:10Z</time>
      </trkpt>
      <trkpt lon="13.5215801117" lat="42.8206280406">
        <ele>389.1511</ele>
        <time>2022-05-20T10:46:12Z</time>
      </trkpt>
      <trkpt lon="13.5214550001" lat="42.8206880003">
        <ele>387.8077</ele>
        <time>2022-05-20T10:46:14Z</time>
      </trkpt>
      <trkpt lon="13.521362" lat="42.820756">
        <ele>386.8225</ele>
        <time>2022-05-20T10:46:16Z</time>
      </trkpt>
      <trkpt lon="13.5212759996" lat="42.8208380004">
        <ele>386.1294</ele>
        <time>2022-05-20T10:46:17Z</time>
      </trkpt>
      <trkpt lon="13.5211930006" lat="42.8209349997">
        <ele>385.1796</ele>
        <time>2022-05-20T10:46:19Z</time>
      </trkpt>
      <trkpt lon="13.5211450001" lat="42.821019">
        <ele>384.7637</ele>
        <time>2022-05-20T10:46:21Z</time>
      </trkpt>
      <trkpt lon="13.5211050005" lat="42.8211099998">
        <ele>383.8856</ele>
        <time>2022-05-20T10:46:23Z</time>
      </trkpt>
      <trkpt lon="13.5210670005" lat="42.8212160001">
        <ele>382.2418</ele>
        <time>2022-05-20T10:46:25Z</time>
      </trkpt>
      <trkpt lon="13.5210090002" lat="42.8213290002">
        <ele>380.0924</ele>
        <time>2022-05-20T10:46:27Z</time>
      </trkpt>
      <trkpt lon="13.5209500003" lat="42.82145">
        <ele>378.9831</ele>
        <time>2022-05-20T10:46:29Z</time>
      </trkpt>
      <trkpt lon="13.5208839998" lat="42.821574">
        <ele>377.7558</ele>
        <time>2022-05-20T10:46:31Z</time>
      </trkpt>
      <trkpt lon="13.5208089997" lat="42.8216789998">
        <ele>376.2188</ele>
        <time>2022-05-20T10:46:33Z</time>
      </trkpt>
      <trkpt lon="13.5207229999" lat="42.8217830002">
        <ele>374.8735</ele>
        <time>2022-05-20T10:46:35Z</time>
      </trkpt>
      <trkpt lon="13.5206439995" lat="42.8218829999">
        <ele>373.4623</ele>
        <time>2022-05-20T10:46:37Z</time>
      </trkpt>
      <trkpt lon="13.5205649085" lat="42.8219915119">
        <ele>372.0339</ele>
        <time>2022-05-20T10:46:39Z</time>
      </trkpt>
      <trkpt lon="13.5205143478" lat="42.8220756383">
        <ele>370.8335</ele>
        <time>2022-05-20T10:46:41Z</time>
      </trkpt>
      <trkpt lon="13.5204379995" lat="42.822201">
        <ele>367.6351</ele>
        <time>2022-05-20T10:46:43Z</time>
      </trkpt>
      <trkpt lon="13.5203439996" lat="42.8222579997">
        <ele>365.1555</ele>
        <time>2022-05-20T10:46:44Z</time>
      </trkpt>
      <trkpt lon="13.5202670003" lat="42.822238">
        <ele>363.9859</ele>
        <time>2022-05-20T10:46:45Z</time>
      </trkpt>
      <trkpt lon="13.5202080004" lat="42.8221850004">
        <ele>363.685</ele>
        <time>2022-05-20T10:46:46Z</time>
      </trkpt>
      <trkpt lon="13.5201619994" lat="42.8221160001">
        <ele>363.2877</ele>
        <time>2022-05-20T10:46:47Z</time>
      </trkpt>
      <trkpt lon="13.5200999995" lat="42.8220460004">
        <ele>361.7438</ele>
        <time>2022-05-20T10:46:49Z</time>
      </trkpt>
      <trkpt lon="13.5200260003" lat="42.8219700004">
        <ele>360.2526</ele>
        <time>2022-05-20T10:46:50Z</time>
      </trkpt>
      <trkpt lon="13.5199450003" lat="42.8218939999">
        <ele>359.0187</ele>
        <time>2022-05-20T10:46:52Z</time>
      </trkpt>
      <trkpt lon="13.5198679994" lat="42.8218219998">
        <ele>357.8455</ele>
        <time>2022-05-20T10:46:53Z</time>
      </trkpt>
      <trkpt lon="13.519843637" lat="42.8217938625">
        <ele>357.4807</ele>
        <time>2022-05-20T10:46:54Z</time>
      </trkpt>
      <trkpt lon="13.5198266415" lat="42.8217175251">
        <ele>357.2199</ele>
        <time>2022-05-20T10:46:55Z</time>
      </trkpt>
      <trkpt lon="13.5198154792" lat="42.8216703415">
        <ele>356.6036</ele>
        <time>2022-05-20T10:46:56Z</time>
      </trkpt>
      <trkpt lon="13.5197802004" lat="42.8215981999">
        <ele>355.2444</ele>
        <time>2022-05-20T10:46:57Z</time>
      </trkpt>
      <trkpt lon="13.5197730003" lat="42.8212252004">
        <ele>348.0075</ele>
        <time>2022-05-20T10:47:04Z</time>
      </trkpt>
      <trkpt lon="13.5198142183" lat="42.8210519432">
        <ele>348.0708</ele>
        <time>2022-05-20T10:47:07Z</time>
      </trkpt>
      <trkpt lon="13.5197952845" lat="42.8209692834">
        <ele>346.1886</ele>
        <time>2022-05-20T10:47:08Z</time>
      </trkpt>
      <trkpt lon="13.5197554378" lat="42.8209335689">
        <ele>344.4468</ele>
        <time>2022-05-20T10:47:09Z</time>
      </trkpt>
      <trkpt lon="13.519623" lat="42.8209560001">
        <ele>342.1342</ele>
        <time>2022-05-20T10:47:10Z</time>
      </trkpt>
      <trkpt lon="13.5195509967" lat="42.8209925168">
        <ele>340.5413</ele>
        <time>2022-05-20T10:47:11Z</time>
      </trkpt>
      <trkpt lon="13.5194011941" lat="42.8211001406">
        <ele>336.8899</ele>
        <time>2022-05-20T10:47:14Z</time>
      </trkpt>
      <trkpt lon="13.5193268755" lat="42.8211459575">
        <ele>336.6327</ele>
        <time>2022-05-20T10:47:15Z</time>
      </trkpt>
      <trkpt lon="13.5191550634" lat="42.8211861026">
        <ele>334.3966</ele>
        <time>2022-05-20T10:47:17Z</time>
      </trkpt>
      <trkpt lon="13.518995465" lat="42.8212162351">
        <ele>332.9048</ele>
        <time>2022-05-20T10:47:19Z</time>
      </trkpt>
      <trkpt lon="13.5187899996" lat="42.8212386535">
        <ele>328.1915</ele>
        <time>2022-05-20T10:47:21Z</time>
      </trkpt>
      <trkpt lon="13.5186514933" lat="42.821291772">
        <ele>326.9215</ele>
        <time>2022-05-20T10:47:23Z</time>
      </trkpt>
      <trkpt lon="13.5185018136" lat="42.8213691542">
        <ele>325.2502</ele>
        <time>2022-05-20T10:47:25Z</time>
      </trkpt>
      <trkpt lon="13.5182788532" lat="42.8215066048">
        <ele>322.2935</ele>
        <time>2022-05-20T10:47:28Z</time>
      </trkpt>
      <trkpt lon="13.5180562395" lat="42.8216488051">
        <ele>317.4252</ele>
        <time>2022-05-20T10:47:32Z</time>
      </trkpt>
      <trkpt lon="13.5179646382" lat="42.8217238901">
        <ele>315.7565</ele>
        <time>2022-05-20T10:47:33Z</time>
      </trkpt>
      <trkpt lon="13.517909116" lat="42.8218499547">
        <ele>314.7109</ele>
        <time>2022-05-20T10:47:35Z</time>
      </trkpt>
      <trkpt lon="13.5178454084" lat="42.8219525224">
        <ele>313.356</ele>
        <time>2022-05-20T10:47:37Z</time>
      </trkpt>
      <trkpt lon="13.5176764969" lat="42.8221211836">
        <ele>309.2826</ele>
        <time>2022-05-20T10:47:40Z</time>
      </trkpt>
      <trkpt lon="13.5175730278" lat="42.8222110308">
        <ele>308.2575</ele>
        <time>2022-05-20T10:47:42Z</time>
      </trkpt>
      <trkpt lon="13.5174573453" lat="42.8223108883">
        <ele>307.305</ele>
        <time>2022-05-20T10:47:44Z</time>
      </trkpt>
      <trkpt lon="13.517357341" lat="42.8224482399">
        <ele>305.0978</ele>
        <time>2022-05-20T10:47:46Z</time>
      </trkpt>
      <trkpt lon="13.517344219" lat="42.8225345147">
        <ele>303.2559</ele>
        <time>2022-05-20T10:47:48Z</time>
      </trkpt>
      <trkpt lon="13.5173987511" lat="42.822660993">
        <ele>300.8138</ele>
        <time>2022-05-20T10:47:50Z</time>
      </trkpt>
      <trkpt lon="13.5174220551" lat="42.8228029978">
        <ele>297.7033</ele>
        <time>2022-05-20T10:47:52Z</time>
      </trkpt>
      <trkpt lon="13.5173456531" lat="42.8228203113">
        <ele>295.4668</ele>
        <time>2022-05-20T10:47:53Z</time>
      </trkpt>
      <trkpt lon="13.5172443456" lat="42.8227623812">
        <ele>295.3038</ele>
        <time>2022-05-20T10:47:54Z</time>
      </trkpt>
      <trkpt lon="13.5170832241" lat="42.8226829942">
        <ele>293.0679</ele>
        <time>2022-05-20T10:47:56Z</time>
      </trkpt>
      <trkpt lon="13.516959438" lat="42.8225830745">
        <ele>289.4301</ele>
        <time>2022-05-20T10:47:58Z</time>
      </trkpt>
      <trkpt lon="13.5168349594" lat="42.8224736542">
        <ele>285.9453</ele>
        <time>2022-05-20T10:48:00Z</time>
      </trkpt>
      <trkpt lon="13.5167244276" lat="42.8223779744">
        <ele>284.7366</ele>
        <time>2022-05-20T10:48:02Z</time>
      </trkpt>
      <trkpt lon="13.5165805885" lat="42.8222693187">
        <ele>282.5984</ele>
        <time>2022-05-20T10:48:04Z</time>
      </trkpt>
      <trkpt lon="13.5164554185" lat="42.8221503958">
        <ele>279.2986</ele>
        <time>2022-05-20T10:48:07Z</time>
      </trkpt>
      <trkpt lon="13.5162932606" lat="42.8220567563">
        <ele>277.8505</ele>
        <time>2022-05-20T10:48:09Z</time>
      </trkpt>
      <trkpt lon="13.5160768327" lat="42.8220176676">
        <ele>276.2312</ele>
        <time>2022-05-20T10:48:11Z</time>
      </trkpt>
      <trkpt lon="13.5158865668" lat="42.8219823091">
        <ele>275.2318</ele>
        <time>2022-05-20T10:48:14Z</time>
      </trkpt>
      <trkpt lon="13.5157622194" lat="42.8219634027">
        <ele>273.6774</ele>
        <time>2022-05-20T10:48:15Z</time>
      </trkpt>
      <trkpt lon="13.5156708332" lat="42.821952721">
        <ele>272.3545</ele>
        <time>2022-05-20T10:48:16Z</time>
      </trkpt>
      <trkpt lon="13.5156287768" lat="42.8219972608">
        <ele>271.4196</ele>
        <time>2022-05-20T10:48:17Z</time>
      </trkpt>
      <trkpt lon="13.5156683187" lat="42.8220957467">
        <ele>270.5553</ele>
        <time>2022-05-20T10:48:19Z</time>
      </trkpt>
      <trkpt lon="13.5158261019" lat="42.822218146">
        <ele>268.705</ele>
        <time>2022-05-20T10:48:21Z</time>
      </trkpt>
      <trkpt lon="13.5159767388" lat="42.8223312978">
        <ele>267.2632</ele>
        <time>2022-05-20T10:48:24Z</time>
      </trkpt>
      <trkpt lon="13.5160570811" lat="42.8224567569">
        <ele>266.3626</ele>
        <time>2022-05-20T10:48:26Z</time>
      </trkpt>
      <trkpt lon="13.5160242508" lat="42.8225390462">
        <ele>264.767</ele>
        <time>2022-05-20T10:48:27Z</time>
      </trkpt>
      <trkpt lon="13.5159931519" lat="42.8226450883">
        <ele>263.5001</ele>
        <time>2022-05-20T10:48:29Z</time>
      </trkpt>
      <trkpt lon="13.5159196511" lat="42.8227909192">
        <ele>264.9261</ele>
        <time>2022-05-20T10:48:32Z</time>
      </trkpt>
      <trkpt lon="13.5158376178" lat="42.8229085029">
        <ele>265.2436</ele>
        <time>2022-05-20T10:48:34Z</time>
      </trkpt>
      <trkpt lon="13.5157233164" lat="42.8230273612">
        <ele>264.7674</ele>
        <time>2022-05-20T10:48:37Z</time>
      </trkpt>
      <trkpt lon="13.515598185" lat="42.8231752321">
        <ele>265.6816</ele>
        <time>2022-05-20T10:48:41Z</time>
      </trkpt>
      <trkpt lon="13.5155062333" lat="42.8232455649">
        <ele>265.6982</ele>
        <time>2022-05-20T10:48:44Z</time>
      </trkpt>
      <trkpt lon="13.5153931871" lat="42.8232929104">
        <ele>264.3517</ele>
        <time>2022-05-20T10:48:46Z</time>
      </trkpt>
      <trkpt lon="13.5152210204" lat="42.8233282984">
        <ele>264.3458</ele>
        <time>2022-05-20T10:48:50Z</time>
      </trkpt>
      <trkpt lon="13.5150338673" lat="42.8233356937">
        <ele>264.3359</ele>
        <time>2022-05-20T10:48:53Z</time>
      </trkpt>
      <trkpt lon="13.5148746065" lat="42.8233705714">
        <ele>262.2478</ele>
        <time>2022-05-20T10:48:56Z</time>
      </trkpt>
      <trkpt lon="13.5147217998" lat="42.8234051949">
        <ele>259.1085</ele>
        <time>2022-05-20T10:48:58Z</time>
      </trkpt>
      <trkpt lon="13.5145048032" lat="42.8234471169">
        <ele>256.3553</ele>
        <time>2022-05-20T10:49:01Z</time>
      </trkpt>
      <trkpt lon="13.5143558068" lat="42.8235339957">
        <ele>256.9554</ele>
        <time>2022-05-20T10:49:03Z</time>
      </trkpt>
      <trkpt lon="13.5141902178" lat="42.8236596422">
        <ele>256.7323</ele>
        <time>2022-05-20T10:49:06Z</time>
      </trkpt>
      <trkpt lon="13.5140905515" lat="42.8238017418">
        <ele>257.1027</ele>
        <time>2022-05-20T10:49:09Z</time>
      </trkpt>
      <trkpt lon="13.5139990688" lat="42.8239673394">
        <ele>258.161</ele>
        <time>2022-05-20T10:49:13Z</time>
      </trkpt>
      <trkpt lon="13.5138835025" lat="42.8241577098">
        <ele>259.1541</ele>
        <time>2022-05-20T10:49:17Z</time>
      </trkpt>
      <trkpt lon="13.5137386587" lat="42.8243015938">
        <ele>257.4308</ele>
        <time>2022-05-20T10:49:22Z</time>
      </trkpt>
      <trkpt lon="13.5135714629" lat="42.8244940023">
        <ele>255.3975</ele>
        <time>2022-05-20T10:49:29Z</time>
      </trkpt>
      <trkpt lon="13.5134579723" lat="42.8247128753">
        <ele>251.1731</ele>
        <time>2022-05-20T10:49:34Z</time>
      </trkpt>
      <trkpt lon="13.5133837707" lat="42.824849204">
        <ele>248.223</ele>
        <time>2022-05-20T10:49:37Z</time>
      </trkpt>
      <trkpt lon="13.5132809831" lat="42.8249485484">
        <ele>246.0115</ele>
        <time>2022-05-20T10:49:40Z</time>
      </trkpt>
      <trkpt lon="13.5130766671" lat="42.8250757236">
        <ele>244.6503</ele>
        <time>2022-05-20T10:49:43Z</time>
      </trkpt>
      <trkpt lon="13.5128461886" lat="42.8251991673">
        <ele>243.5544</ele>
        <time>2022-05-20T10:49:46Z</time>
      </trkpt>
      <trkpt lon="13.5126577688" lat="42.8252780719">
        <ele>240.6736</ele>
        <time>2022-05-20T10:49:49Z</time>
      </trkpt>
      <trkpt lon="13.5125478338" lat="42.825368169">
        <ele>239.7142</ele>
        <time>2022-05-20T10:49:50Z</time>
      </trkpt>
      <trkpt lon="13.5124527584" lat="42.8253957446">
        <ele>239.2357</ele>
        <time>2022-05-20T10:49:52Z</time>
      </trkpt>
      <trkpt lon="13.5122825364" lat="42.8253691171">
        <ele>238.2744</ele>
        <time>2022-05-20T10:49:54Z</time>
      </trkpt>
      <trkpt lon="13.5121547219" lat="42.825302701">
        <ele>237.4502</ele>
        <time>2022-05-20T10:49:56Z</time>
      </trkpt>
      <trkpt lon="13.5120347451" lat="42.8252550318">
        <ele>235.8993</ele>
        <time>2022-05-20T10:49:58Z</time>
      </trkpt>
      <trkpt lon="13.5119215689" lat="42.8252118589">
        <ele>234.0867</ele>
        <time>2022-05-20T10:49:59Z</time>
      </trkpt>
      <trkpt lon="13.5118226861" lat="42.8251871773">
        <ele>232.4505</ele>
        <time>2022-05-20T10:50:00Z</time>
      </trkpt>
      <trkpt lon="13.5116351799" lat="42.8251898168">
        <ele>228.8588</ele>
        <time>2022-05-20T10:50:03Z</time>
      </trkpt>
      <trkpt lon="13.5114481438" lat="42.825287722">
        <ele>228.6477</ele>
        <time>2022-05-20T10:50:05Z</time>
      </trkpt>
      <trkpt lon="13.5112611072" lat="42.825385626">
        <ele>226.5013</ele>
        <time>2022-05-20T10:50:08Z</time>
      </trkpt>
      <trkpt lon="13.511172607" lat="42.8255034616">
        <ele>224.5571</ele>
        <time>2022-05-20T10:50:10Z</time>
      </trkpt>
      <trkpt lon="13.5111657067" lat="42.8256752456">
        <ele>223.8749</ele>
        <time>2022-05-20T10:50:12Z</time>
      </trkpt>
      <trkpt lon="13.5111584603" lat="42.8258422794">
        <ele>221.4051</ele>
        <time>2022-05-20T10:50:15Z</time>
      </trkpt>
      <trkpt lon="13.511140729" lat="42.8260430766">
        <ele>215.6931</ele>
        <time>2022-05-20T10:50:18Z</time>
      </trkpt>
      <trkpt lon="13.511141321" lat="42.8262288583">
        <ele>213.4658</ele>
        <time>2022-05-20T10:50:21Z</time>
      </trkpt>
      <trkpt lon="13.5111982664" lat="42.8263885934">
        <ele>213.8824</ele>
        <time>2022-05-20T10:50:24Z</time>
      </trkpt>
      <trkpt lon="13.5112063511" lat="42.826588372">
        <ele>210.6464</ele>
        <time>2022-05-20T10:50:27Z</time>
      </trkpt>
      <trkpt lon="13.5112208894" lat="42.826787895">
        <ele>208.9459</ele>
        <time>2022-05-20T10:50:31Z</time>
      </trkpt>
      <trkpt lon="13.5112781826" lat="42.8269523812">
        <ele>208.3633</ele>
        <time>2022-05-20T10:50:33Z</time>
      </trkpt>
      <trkpt lon="13.5112868371" lat="42.8270711444">
        <ele>206.9564</ele>
        <time>2022-05-20T10:50:35Z</time>
      </trkpt>
      <trkpt lon="13.5113047141" lat="42.8272276582">
        <ele>205.3721</ele>
        <time>2022-05-20T10:50:38Z</time>
      </trkpt>
      <trkpt lon="13.5112828296" lat="42.8273714493">
        <ele>202.7233</ele>
        <time>2022-05-20T10:50:41Z</time>
      </trkpt>
      <trkpt lon="13.5112229134" lat="42.8275262697">
        <ele>197.7046</ele>
        <time>2022-05-20T10:50:43Z</time>
      </trkpt>
      <trkpt lon="13.5112629213" lat="42.8277200229">
        <ele>195.5567</ele>
        <time>2022-05-20T10:50:47Z</time>
      </trkpt>
      <trkpt lon="13.5113410865" lat="42.8279932617">
        <ele>196.1365</ele>
        <time>2022-05-20T10:50:51Z</time>
      </trkpt>
      <trkpt lon="13.5113514722" lat="42.8281357786">
        <ele>194.6579</ele>
        <time>2022-05-20T10:50:53Z</time>
      </trkpt>
      <trkpt lon="13.5113916595" lat="42.8282148403">
        <ele>195.1693</ele>
        <time>2022-05-20T10:50:54Z</time>
      </trkpt>
      <trkpt lon="13.5114209998" lat="42.8282909999">
        <ele>195.283</ele>
        <time>2022-05-20T10:50:56Z</time>
      </trkpt>
      <trkpt lon="13.5114629997" lat="42.828415">
        <ele>195.0916</ele>
        <time>2022-05-20T10:50:59Z</time>
      </trkpt>
      <trkpt lon="13.5114970003" lat="42.8285350004">
        <ele>194.8992</ele>
        <time>2022-05-20T10:51:02Z</time>
      </trkpt>
      <trkpt lon="13.5115309995" lat="42.828657">
        <ele>194.326</ele>
        <time>2022-05-20T10:51:05Z</time>
      </trkpt>
      <trkpt lon="13.5115560004" lat="42.8287659998">
        <ele>193.5877</ele>
        <time>2022-05-20T10:51:08Z</time>
      </trkpt>
      <trkpt lon="13.5115789996" lat="42.8288720001">
        <ele>193.4566</ele>
        <time>2022-05-20T10:51:11Z</time>
      </trkpt>
      <trkpt lon="13.51158845" lat="42.8289217367">
        <ele>193.1758</ele>
        <time>2022-05-20T10:51:12Z</time>
      </trkpt>
      <trkpt lon="13.5116037263" lat="42.8290214933">
        <ele>192.6874</ele>
        <time>2022-05-20T10:51:14Z</time>
      </trkpt>
      <trkpt lon="13.5116525826" lat="42.8291028495">
        <ele>193.3545</ele>
        <time>2022-05-20T10:51:16Z</time>
      </trkpt>
      <trkpt lon="13.5117220002" lat="42.8292381003">
        <ele>193.3133</ele>
        <time>2022-05-20T10:51:19Z</time>
      </trkpt>
      <trkpt lon="13.5119408006" lat="42.8296399004">
        <ele>192.8994</ele>
        <time>2022-05-20T10:51:30Z</time>
      </trkpt>
      <trkpt lon="13.5121034002" lat="42.8299858997">
        <ele>194.1193</ele>
        <time>2022-05-20T10:51:39Z</time>
      </trkpt>
      <trkpt lon="13.5121627796" lat="42.8302056734">
        <ele>192.5993</ele>
        <time>2022-05-20T10:51:45Z</time>
      </trkpt>
      <trkpt lon="13.512099283" lat="42.8301971884">
        <ele>192.2686</ele>
        <time>2022-05-20T10:51:46Z</time>
      </trkpt>
      <trkpt lon="13.5118614002" lat="42.8301653997">
        <ele>190.9405</ele>
        <time>2022-05-20T10:51:50Z</time>
      </trkpt>
      <trkpt lon="13.5112476995" lat="42.8300998003">
        <ele>189.8727</ele>
        <time>2022-05-20T10:51:58Z</time>
      </trkpt>
      <trkpt lon="13.5111055998" lat="42.8300793">
        <ele>192.2801</ele>
        <time>2022-05-20T10:52:00Z</time>
      </trkpt>
    </trkseg>
  </trk>
</gpx>
